<?xml version="1.0" encoding="UTF-8"?>
<gpx xmlns="http://www.topografix.com/GPX/1/1" xmlns:xsi="http://www.w3.org/2001/XMLSchema-instance" version="1.1" creator="Trace de Trail" xsi:schemaLocation="http://www.topografix.com/GPX/1/1 http://www.topografix.com/GPX/1/1/gpx.xsd">
  <metadata>
    <name>NEW GTL75 - GTLC Lux 2027</name>
    <desc>Parcours créé sur Trace de Trail</desc>
    <link href="https://tracedetrail.fr/fr/trace/356588">
      <text>Cartographie du parcours</text>
    </link>
    <time>2026-08-26T11:49:37+00:00</time>
  </metadata>
  <wpt lat="49.93772" lon="6.20484">
    <ele>207</ele>
    <type>depart</type>
  </wpt>
  <wpt lat="49.93318" lon="6.20612">
    <ele>216</ele>
    <type>arrivee</type>
  </wpt>
  <wpt lat="49.96177" lon="6.16739">
    <ele>254</ele>
    <name>Keppeshausen</name>
    <type>fanzone_bh_ravitoc_toilettes</type>
  </wpt>
  <wpt lat="49.93728" lon="6.08762">
    <ele>373</ele>
    <name>Champ de tir Bleesdall</name>
    <type>fanzone_bh_ravitoc_toilettes</type>
  </wpt>
  <wpt lat="49.95158" lon="6.05577">
    <ele>444</ele>
    <name>Friedbusch</name>
    <type>fanzone_bh_ravitoc_toilettes</type>
  </wpt>
  <wpt lat="49.92064" lon="6.03681">
    <ele>244</ele>
    <name>Dirbach</name>
    <type>fanzone_bh_ravitoc_toilettes</type>
  </wpt>
  <wpt lat="49.90569" lon="6.07833">
    <ele>354</ele>
    <name>Bourscheid</name>
    <type>fanzone_bh_ravitoc_toilettes</type>
  </wpt>
  <wpt lat="49.91173" lon="6.13688">
    <ele>266</ele>
    <name>Bradenbourg</name>
    <type>fanzone_bh_ravitoc_toilettes</type>
  </wpt>
  <wpt lat="49.91737" lon="6.17831">
    <ele>284</ele>
    <name>Walsdorf</name>
    <type>fanzone_bh_ravitoc_toilettes</type>
  </wpt>
  <trk>
    <name>NEW GTL75 - GTLC Lux 2027 sur TraceDeTrail.fr</name>
    <src>Trace de Trail</src>
    <trkseg>
      <trkpt lat="49.93772" lon="6.20484">
        <ele>207</ele>
        <time>2026-08-26T11:49:37+00:00</time>
      </trkpt>
      <trkpt lat="49.93806" lon="6.20476">
        <ele>207</ele>
        <time>2026-08-26T11:49:40+00:00</time>
      </trkpt>
      <trkpt lat="49.93844" lon="6.20482">
        <ele>205</ele>
        <time>2026-08-26T11:49:43+00:00</time>
      </trkpt>
      <trkpt lat="49.93853" lon="6.20481">
        <ele>208</ele>
        <time>2026-08-26T11:49:46+00:00</time>
      </trkpt>
      <trkpt lat="49.93857" lon="6.20481">
        <ele>208</ele>
        <time>2026-08-26T11:49:49+00:00</time>
      </trkpt>
      <trkpt lat="49.93849" lon="6.20468">
        <ele>204</ele>
        <time>2026-08-26T11:49:52+00:00</time>
      </trkpt>
      <trkpt lat="49.93834" lon="6.20443">
        <ele>205</ele>
        <time>2026-08-26T11:49:55+00:00</time>
      </trkpt>
      <trkpt lat="49.93819" lon="6.20419">
        <ele>207</ele>
        <time>2026-08-26T11:49:58+00:00</time>
      </trkpt>
      <trkpt lat="49.93811" lon="6.20407">
        <ele>208</ele>
        <time>2026-08-26T11:50:01+00:00</time>
      </trkpt>
      <trkpt lat="49.9381" lon="6.20405">
        <ele>207</ele>
        <time>2026-08-26T11:50:04+00:00</time>
      </trkpt>
      <trkpt lat="49.93824" lon="6.20393">
        <ele>209</ele>
        <time>2026-08-26T11:50:07+00:00</time>
      </trkpt>
      <trkpt lat="49.9383" lon="6.20403">
        <ele>209</ele>
        <time>2026-08-26T11:50:10+00:00</time>
      </trkpt>
      <trkpt lat="49.93839" lon="6.20408">
        <ele>212</ele>
        <time>2026-08-26T11:50:13+00:00</time>
      </trkpt>
      <trkpt lat="49.9384" lon="6.20413">
        <ele>208</ele>
        <time>2026-08-26T11:50:16+00:00</time>
      </trkpt>
      <trkpt lat="49.93844" lon="6.20412">
        <ele>210</ele>
        <time>2026-08-26T11:50:19+00:00</time>
      </trkpt>
      <trkpt lat="49.93863" lon="6.2042">
        <ele>212</ele>
        <time>2026-08-26T11:50:22+00:00</time>
      </trkpt>
      <trkpt lat="49.93872" lon="6.20422">
        <ele>209</ele>
        <time>2026-08-26T11:50:25+00:00</time>
      </trkpt>
      <trkpt lat="49.93902" lon="6.20437">
        <ele>208</ele>
        <time>2026-08-26T11:50:28+00:00</time>
      </trkpt>
      <trkpt lat="49.93915" lon="6.2045">
        <ele>208</ele>
        <time>2026-08-26T11:50:31+00:00</time>
      </trkpt>
      <trkpt lat="49.93924" lon="6.20453">
        <ele>209</ele>
        <time>2026-08-26T11:50:34+00:00</time>
      </trkpt>
      <trkpt lat="49.93932" lon="6.20453">
        <ele>208</ele>
        <time>2026-08-26T11:50:37+00:00</time>
      </trkpt>
      <trkpt lat="49.9394" lon="6.20452">
        <ele>208</ele>
        <time>2026-08-26T11:50:40+00:00</time>
      </trkpt>
      <trkpt lat="49.93941" lon="6.20452">
        <ele>208</ele>
        <time>2026-08-26T11:50:43+00:00</time>
      </trkpt>
      <trkpt lat="49.93951" lon="6.20452">
        <ele>209</ele>
        <time>2026-08-26T11:50:46+00:00</time>
      </trkpt>
      <trkpt lat="49.93969" lon="6.20462">
        <ele>209</ele>
        <time>2026-08-26T11:50:49+00:00</time>
      </trkpt>
      <trkpt lat="49.93971" lon="6.20461">
        <ele>210</ele>
        <time>2026-08-26T11:50:52+00:00</time>
      </trkpt>
      <trkpt lat="49.93984" lon="6.20453">
        <ele>212</ele>
        <time>2026-08-26T11:50:55+00:00</time>
      </trkpt>
      <trkpt lat="49.93998" lon="6.20453">
        <ele>213</ele>
        <time>2026-08-26T11:50:58+00:00</time>
      </trkpt>
      <trkpt lat="49.94019" lon="6.20444">
        <ele>217</ele>
        <time>2026-08-26T11:51:01+00:00</time>
      </trkpt>
      <trkpt lat="49.94036" lon="6.20445">
        <ele>220</ele>
        <time>2026-08-26T11:51:04+00:00</time>
      </trkpt>
      <trkpt lat="49.9405" lon="6.20441">
        <ele>223</ele>
        <time>2026-08-26T11:51:07+00:00</time>
      </trkpt>
      <trkpt lat="49.94051" lon="6.20441">
        <ele>225</ele>
        <time>2026-08-26T11:51:10+00:00</time>
      </trkpt>
      <trkpt lat="49.94052" lon="6.20442">
        <ele>225</ele>
        <time>2026-08-26T11:51:13+00:00</time>
      </trkpt>
      <trkpt lat="49.94059" lon="6.20438">
        <ele>228</ele>
        <time>2026-08-26T11:51:16+00:00</time>
      </trkpt>
      <trkpt lat="49.94062" lon="6.20441">
        <ele>228</ele>
        <time>2026-08-26T11:51:19+00:00</time>
      </trkpt>
      <trkpt lat="49.94067" lon="6.20448">
        <ele>228</ele>
        <time>2026-08-26T11:51:22+00:00</time>
      </trkpt>
      <trkpt lat="49.94074" lon="6.20453">
        <ele>233</ele>
        <time>2026-08-26T11:51:25+00:00</time>
      </trkpt>
      <trkpt lat="49.94086" lon="6.20447">
        <ele>243</ele>
        <time>2026-08-26T11:51:28+00:00</time>
      </trkpt>
      <trkpt lat="49.94107" lon="6.20444">
        <ele>253</ele>
        <time>2026-08-26T11:51:31+00:00</time>
      </trkpt>
      <trkpt lat="49.94124" lon="6.20444">
        <ele>261</ele>
        <time>2026-08-26T11:51:34+00:00</time>
      </trkpt>
      <trkpt lat="49.94124" lon="6.20451">
        <ele>258</ele>
        <time>2026-08-26T11:51:37+00:00</time>
      </trkpt>
      <trkpt lat="49.94129" lon="6.20466">
        <ele>254</ele>
        <time>2026-08-26T11:51:40+00:00</time>
      </trkpt>
      <trkpt lat="49.94139" lon="6.20456">
        <ele>261</ele>
        <time>2026-08-26T11:51:43+00:00</time>
      </trkpt>
      <trkpt lat="49.94154" lon="6.20448">
        <ele>270</ele>
        <time>2026-08-26T11:51:46+00:00</time>
      </trkpt>
      <trkpt lat="49.9416" lon="6.20451">
        <ele>260</ele>
        <time>2026-08-26T11:51:49+00:00</time>
      </trkpt>
      <trkpt lat="49.94163" lon="6.20466">
        <ele>264</ele>
        <time>2026-08-26T11:51:52+00:00</time>
      </trkpt>
      <trkpt lat="49.94166" lon="6.20472">
        <ele>259</ele>
        <time>2026-08-26T11:51:55+00:00</time>
      </trkpt>
      <trkpt lat="49.94166" lon="6.20473">
        <ele>259</ele>
        <time>2026-08-26T11:51:58+00:00</time>
      </trkpt>
      <trkpt lat="49.9417" lon="6.20478">
        <ele>262</ele>
        <time>2026-08-26T11:52:01+00:00</time>
      </trkpt>
      <trkpt lat="49.94183" lon="6.20472">
        <ele>265</ele>
        <time>2026-08-26T11:52:04+00:00</time>
      </trkpt>
      <trkpt lat="49.94201" lon="6.20474">
        <ele>264</ele>
        <time>2026-08-26T11:52:07+00:00</time>
      </trkpt>
      <trkpt lat="49.94203" lon="6.20474">
        <ele>264</ele>
        <time>2026-08-26T11:52:10+00:00</time>
      </trkpt>
      <trkpt lat="49.94214" lon="6.20474">
        <ele>263</ele>
        <time>2026-08-26T11:52:13+00:00</time>
      </trkpt>
      <trkpt lat="49.94221" lon="6.20465">
        <ele>268</ele>
        <time>2026-08-26T11:52:16+00:00</time>
      </trkpt>
      <trkpt lat="49.94244" lon="6.20457">
        <ele>271</ele>
        <time>2026-08-26T11:52:19+00:00</time>
      </trkpt>
      <trkpt lat="49.94253" lon="6.20451">
        <ele>268</ele>
        <time>2026-08-26T11:52:22+00:00</time>
      </trkpt>
      <trkpt lat="49.94256" lon="6.20445">
        <ele>273</ele>
        <time>2026-08-26T11:52:25+00:00</time>
      </trkpt>
      <trkpt lat="49.94266" lon="6.20435">
        <ele>271</ele>
        <time>2026-08-26T11:52:28+00:00</time>
      </trkpt>
      <trkpt lat="49.94285" lon="6.20425">
        <ele>271</ele>
        <time>2026-08-26T11:52:31+00:00</time>
      </trkpt>
      <trkpt lat="49.94303" lon="6.20401">
        <ele>271</ele>
        <time>2026-08-26T11:52:34+00:00</time>
      </trkpt>
      <trkpt lat="49.94324" lon="6.2038">
        <ele>271</ele>
        <time>2026-08-26T11:52:37+00:00</time>
      </trkpt>
      <trkpt lat="49.94352" lon="6.20369">
        <ele>272</ele>
        <time>2026-08-26T11:52:40+00:00</time>
      </trkpt>
      <trkpt lat="49.94366" lon="6.2034">
        <ele>272</ele>
        <time>2026-08-26T11:52:43+00:00</time>
      </trkpt>
      <trkpt lat="49.94373" lon="6.20333">
        <ele>275</ele>
        <time>2026-08-26T11:52:46+00:00</time>
      </trkpt>
      <trkpt lat="49.94382" lon="6.20331">
        <ele>272</ele>
        <time>2026-08-26T11:52:49+00:00</time>
      </trkpt>
      <trkpt lat="49.94388" lon="6.20348">
        <ele>269</ele>
        <time>2026-08-26T11:52:52+00:00</time>
      </trkpt>
      <trkpt lat="49.94389" lon="6.20351">
        <ele>267</ele>
        <time>2026-08-26T11:52:55+00:00</time>
      </trkpt>
      <trkpt lat="49.94401" lon="6.20369">
        <ele>262</ele>
        <time>2026-08-26T11:52:58+00:00</time>
      </trkpt>
      <trkpt lat="49.94421" lon="6.20365">
        <ele>258</ele>
        <time>2026-08-26T11:53:01+00:00</time>
      </trkpt>
      <trkpt lat="49.94428" lon="6.20367">
        <ele>258</ele>
        <time>2026-08-26T11:53:04+00:00</time>
      </trkpt>
      <trkpt lat="49.94442" lon="6.20358">
        <ele>259</ele>
        <time>2026-08-26T11:53:07+00:00</time>
      </trkpt>
      <trkpt lat="49.94443" lon="6.20356">
        <ele>255</ele>
        <time>2026-08-26T11:53:10+00:00</time>
      </trkpt>
      <trkpt lat="49.94445" lon="6.20353">
        <ele>255</ele>
        <time>2026-08-26T11:53:13+00:00</time>
      </trkpt>
      <trkpt lat="49.94445" lon="6.20351">
        <ele>255</ele>
        <time>2026-08-26T11:53:16+00:00</time>
      </trkpt>
      <trkpt lat="49.94453" lon="6.20339">
        <ele>259</ele>
        <time>2026-08-26T11:53:19+00:00</time>
      </trkpt>
      <trkpt lat="49.94464" lon="6.20315">
        <ele>260</ele>
        <time>2026-08-26T11:53:22+00:00</time>
      </trkpt>
      <trkpt lat="49.94471" lon="6.2029">
        <ele>260</ele>
        <time>2026-08-26T11:53:25+00:00</time>
      </trkpt>
      <trkpt lat="49.9447" lon="6.20286">
        <ele>267</ele>
        <time>2026-08-26T11:53:28+00:00</time>
      </trkpt>
      <trkpt lat="49.94478" lon="6.2024">
        <ele>262</ele>
        <time>2026-08-26T11:53:31+00:00</time>
      </trkpt>
      <trkpt lat="49.94481" lon="6.20234">
        <ele>263</ele>
        <time>2026-08-26T11:53:34+00:00</time>
      </trkpt>
      <trkpt lat="49.9448" lon="6.20222">
        <ele>271</ele>
        <time>2026-08-26T11:53:37+00:00</time>
      </trkpt>
      <trkpt lat="49.94482" lon="6.20181">
        <ele>265</ele>
        <time>2026-08-26T11:53:40+00:00</time>
      </trkpt>
      <trkpt lat="49.94479" lon="6.20166">
        <ele>277</ele>
        <time>2026-08-26T11:53:43+00:00</time>
      </trkpt>
      <trkpt lat="49.94481" lon="6.20139">
        <ele>281</ele>
        <time>2026-08-26T11:53:46+00:00</time>
      </trkpt>
      <trkpt lat="49.9449" lon="6.20107">
        <ele>286</ele>
        <time>2026-08-26T11:53:49+00:00</time>
      </trkpt>
      <trkpt lat="49.9449" lon="6.20098">
        <ele>287</ele>
        <time>2026-08-26T11:53:52+00:00</time>
      </trkpt>
      <trkpt lat="49.94493" lon="6.20096">
        <ele>282</ele>
        <time>2026-08-26T11:53:55+00:00</time>
      </trkpt>
      <trkpt lat="49.9449" lon="6.2006">
        <ele>293</ele>
        <time>2026-08-26T11:53:58+00:00</time>
      </trkpt>
      <trkpt lat="49.94493" lon="6.20048">
        <ele>290</ele>
        <time>2026-08-26T11:54:01+00:00</time>
      </trkpt>
      <trkpt lat="49.94495" lon="6.20045">
        <ele>290</ele>
        <time>2026-08-26T11:54:04+00:00</time>
      </trkpt>
      <trkpt lat="49.94492" lon="6.20001">
        <ele>295</ele>
        <time>2026-08-26T11:54:07+00:00</time>
      </trkpt>
      <trkpt lat="49.94494" lon="6.19995">
        <ele>297</ele>
        <time>2026-08-26T11:54:10+00:00</time>
      </trkpt>
      <trkpt lat="49.94494" lon="6.19966">
        <ele>300</ele>
        <time>2026-08-26T11:54:13+00:00</time>
      </trkpt>
      <trkpt lat="49.94496" lon="6.19957">
        <ele>301</ele>
        <time>2026-08-26T11:54:16+00:00</time>
      </trkpt>
      <trkpt lat="49.94495" lon="6.19942">
        <ele>303</ele>
        <time>2026-08-26T11:54:19+00:00</time>
      </trkpt>
      <trkpt lat="49.94496" lon="6.199">
        <ele>302</ele>
        <time>2026-08-26T11:54:22+00:00</time>
      </trkpt>
      <trkpt lat="49.94498" lon="6.19895">
        <ele>302</ele>
        <time>2026-08-26T11:54:25+00:00</time>
      </trkpt>
      <trkpt lat="49.94498" lon="6.1987">
        <ele>302</ele>
        <time>2026-08-26T11:54:28+00:00</time>
      </trkpt>
      <trkpt lat="49.94499" lon="6.19864">
        <ele>303</ele>
        <time>2026-08-26T11:54:31+00:00</time>
      </trkpt>
      <trkpt lat="49.94498" lon="6.19857">
        <ele>304</ele>
        <time>2026-08-26T11:54:34+00:00</time>
      </trkpt>
      <trkpt lat="49.945" lon="6.19852">
        <ele>304</ele>
        <time>2026-08-26T11:54:37+00:00</time>
      </trkpt>
      <trkpt lat="49.94505" lon="6.19849">
        <ele>302</ele>
        <time>2026-08-26T11:54:40+00:00</time>
      </trkpt>
      <trkpt lat="49.94506" lon="6.19843">
        <ele>302</ele>
        <time>2026-08-26T11:54:43+00:00</time>
      </trkpt>
      <trkpt lat="49.94511" lon="6.19827">
        <ele>301</ele>
        <time>2026-08-26T11:54:46+00:00</time>
      </trkpt>
      <trkpt lat="49.94512" lon="6.19822">
        <ele>301</ele>
        <time>2026-08-26T11:54:49+00:00</time>
      </trkpt>
      <trkpt lat="49.94517" lon="6.19808">
        <ele>303</ele>
        <time>2026-08-26T11:54:52+00:00</time>
      </trkpt>
      <trkpt lat="49.94521" lon="6.19807">
        <ele>299</ele>
        <time>2026-08-26T11:54:55+00:00</time>
      </trkpt>
      <trkpt lat="49.94523" lon="6.19803">
        <ele>302</ele>
        <time>2026-08-26T11:54:58+00:00</time>
      </trkpt>
      <trkpt lat="49.94529" lon="6.19775">
        <ele>296</ele>
        <time>2026-08-26T11:55:01+00:00</time>
      </trkpt>
      <trkpt lat="49.94553" lon="6.19749">
        <ele>290</ele>
        <time>2026-08-26T11:55:04+00:00</time>
      </trkpt>
      <trkpt lat="49.94561" lon="6.19744">
        <ele>284</ele>
        <time>2026-08-26T11:55:07+00:00</time>
      </trkpt>
      <trkpt lat="49.94567" lon="6.19737">
        <ele>284</ele>
        <time>2026-08-26T11:55:10+00:00</time>
      </trkpt>
      <trkpt lat="49.9457" lon="6.19726">
        <ele>285</ele>
        <time>2026-08-26T11:55:13+00:00</time>
      </trkpt>
      <trkpt lat="49.9458" lon="6.19715">
        <ele>280</ele>
        <time>2026-08-26T11:55:16+00:00</time>
      </trkpt>
      <trkpt lat="49.94586" lon="6.19704">
        <ele>275</ele>
        <time>2026-08-26T11:55:19+00:00</time>
      </trkpt>
      <trkpt lat="49.9459" lon="6.19697">
        <ele>275</ele>
        <time>2026-08-26T11:55:22+00:00</time>
      </trkpt>
      <trkpt lat="49.94592" lon="6.19691">
        <ele>271</ele>
        <time>2026-08-26T11:55:25+00:00</time>
      </trkpt>
      <trkpt lat="49.94592" lon="6.19689">
        <ele>271</ele>
        <time>2026-08-26T11:55:28+00:00</time>
      </trkpt>
      <trkpt lat="49.94589" lon="6.19692">
        <ele>275</ele>
        <time>2026-08-26T11:55:31+00:00</time>
      </trkpt>
      <trkpt lat="49.94588" lon="6.19691">
        <ele>275</ele>
        <time>2026-08-26T11:55:34+00:00</time>
      </trkpt>
      <trkpt lat="49.94591" lon="6.1968">
        <ele>273</ele>
        <time>2026-08-26T11:55:37+00:00</time>
      </trkpt>
      <trkpt lat="49.94591" lon="6.19674">
        <ele>270</ele>
        <time>2026-08-26T11:55:40+00:00</time>
      </trkpt>
      <trkpt lat="49.94591" lon="6.1967">
        <ele>268</ele>
        <time>2026-08-26T11:55:43+00:00</time>
      </trkpt>
      <trkpt lat="49.94588" lon="6.19647">
        <ele>271</ele>
        <time>2026-08-26T11:55:46+00:00</time>
      </trkpt>
      <trkpt lat="49.9458" lon="6.19618">
        <ele>271</ele>
        <time>2026-08-26T11:55:49+00:00</time>
      </trkpt>
      <trkpt lat="49.9457" lon="6.19594">
        <ele>266</ele>
        <time>2026-08-26T11:55:52+00:00</time>
      </trkpt>
      <trkpt lat="49.94547" lon="6.19548">
        <ele>262</ele>
        <time>2026-08-26T11:55:55+00:00</time>
      </trkpt>
      <trkpt lat="49.94525" lon="6.19517">
        <ele>263</ele>
        <time>2026-08-26T11:55:58+00:00</time>
      </trkpt>
      <trkpt lat="49.94508" lon="6.19493">
        <ele>265</ele>
        <time>2026-08-26T11:56:01+00:00</time>
      </trkpt>
      <trkpt lat="49.9449" lon="6.19467">
        <ele>263</ele>
        <time>2026-08-26T11:56:04+00:00</time>
      </trkpt>
      <trkpt lat="49.94474" lon="6.19439">
        <ele>265</ele>
        <time>2026-08-26T11:56:07+00:00</time>
      </trkpt>
      <trkpt lat="49.94453" lon="6.19403">
        <ele>267</ele>
        <time>2026-08-26T11:56:10+00:00</time>
      </trkpt>
      <trkpt lat="49.94461" lon="6.19438">
        <ele>275</ele>
        <time>2026-08-26T11:56:13+00:00</time>
      </trkpt>
      <trkpt lat="49.9447" lon="6.19482">
        <ele>280</ele>
        <time>2026-08-26T11:56:16+00:00</time>
      </trkpt>
      <trkpt lat="49.94478" lon="6.19506">
        <ele>286</ele>
        <time>2026-08-26T11:56:19+00:00</time>
      </trkpt>
      <trkpt lat="49.94483" lon="6.19527">
        <ele>290</ele>
        <time>2026-08-26T11:56:22+00:00</time>
      </trkpt>
      <trkpt lat="49.94493" lon="6.1955">
        <ele>297</ele>
        <time>2026-08-26T11:56:25+00:00</time>
      </trkpt>
      <trkpt lat="49.94507" lon="6.1958">
        <ele>298</ele>
        <time>2026-08-26T11:56:28+00:00</time>
      </trkpt>
      <trkpt lat="49.94509" lon="6.19589">
        <ele>302</ele>
        <time>2026-08-26T11:56:31+00:00</time>
      </trkpt>
      <trkpt lat="49.94512" lon="6.19602">
        <ele>301</ele>
        <time>2026-08-26T11:56:34+00:00</time>
      </trkpt>
      <trkpt lat="49.94521" lon="6.19643">
        <ele>308</ele>
        <time>2026-08-26T11:56:37+00:00</time>
      </trkpt>
      <trkpt lat="49.94523" lon="6.19661">
        <ele>310</ele>
        <time>2026-08-26T11:56:40+00:00</time>
      </trkpt>
      <trkpt lat="49.94522" lon="6.19698">
        <ele>311</ele>
        <time>2026-08-26T11:56:43+00:00</time>
      </trkpt>
      <trkpt lat="49.9452" lon="6.19705">
        <ele>318</ele>
        <time>2026-08-26T11:56:46+00:00</time>
      </trkpt>
      <trkpt lat="49.94509" lon="6.19716">
        <ele>324</ele>
        <time>2026-08-26T11:56:49+00:00</time>
      </trkpt>
      <trkpt lat="49.94506" lon="6.19718">
        <ele>324</ele>
        <time>2026-08-26T11:56:52+00:00</time>
      </trkpt>
      <trkpt lat="49.94505" lon="6.19723">
        <ele>319</ele>
        <time>2026-08-26T11:56:55+00:00</time>
      </trkpt>
      <trkpt lat="49.94495" lon="6.19729">
        <ele>324</ele>
        <time>2026-08-26T11:56:58+00:00</time>
      </trkpt>
      <trkpt lat="49.94485" lon="6.19739">
        <ele>327</ele>
        <time>2026-08-26T11:57:01+00:00</time>
      </trkpt>
      <trkpt lat="49.9448" lon="6.1975">
        <ele>334</ele>
        <time>2026-08-26T11:57:04+00:00</time>
      </trkpt>
      <trkpt lat="49.94478" lon="6.1976">
        <ele>331</ele>
        <time>2026-08-26T11:57:07+00:00</time>
      </trkpt>
      <trkpt lat="49.94475" lon="6.19757">
        <ele>331</ele>
        <time>2026-08-26T11:57:10+00:00</time>
      </trkpt>
      <trkpt lat="49.94474" lon="6.19754">
        <ele>331</ele>
        <time>2026-08-26T11:57:13+00:00</time>
      </trkpt>
      <trkpt lat="49.94476" lon="6.19736">
        <ele>337</ele>
        <time>2026-08-26T11:57:16+00:00</time>
      </trkpt>
      <trkpt lat="49.94473" lon="6.19737">
        <ele>337</ele>
        <time>2026-08-26T11:57:19+00:00</time>
      </trkpt>
      <trkpt lat="49.94466" lon="6.1975">
        <ele>343</ele>
        <time>2026-08-26T11:57:22+00:00</time>
      </trkpt>
      <trkpt lat="49.94465" lon="6.19747">
        <ele>343</ele>
        <time>2026-08-26T11:57:25+00:00</time>
      </trkpt>
      <trkpt lat="49.94467" lon="6.19738">
        <ele>346</ele>
        <time>2026-08-26T11:57:28+00:00</time>
      </trkpt>
      <trkpt lat="49.94465" lon="6.19742">
        <ele>343</ele>
        <time>2026-08-26T11:57:31+00:00</time>
      </trkpt>
      <trkpt lat="49.94464" lon="6.19742">
        <ele>343</ele>
        <time>2026-08-26T11:57:34+00:00</time>
      </trkpt>
      <trkpt lat="49.94463" lon="6.1974">
        <ele>346</ele>
        <time>2026-08-26T11:57:37+00:00</time>
      </trkpt>
      <trkpt lat="49.94465" lon="6.19733">
        <ele>346</ele>
        <time>2026-08-26T11:57:40+00:00</time>
      </trkpt>
      <trkpt lat="49.94464" lon="6.1973">
        <ele>349</ele>
        <time>2026-08-26T11:57:43+00:00</time>
      </trkpt>
      <trkpt lat="49.94468" lon="6.19707">
        <ele>354</ele>
        <time>2026-08-26T11:57:46+00:00</time>
      </trkpt>
      <trkpt lat="49.94466" lon="6.19706">
        <ele>354</ele>
        <time>2026-08-26T11:57:49+00:00</time>
      </trkpt>
      <trkpt lat="49.94457" lon="6.19718">
        <ele>359</ele>
        <time>2026-08-26T11:57:52+00:00</time>
      </trkpt>
      <trkpt lat="49.9446" lon="6.19695">
        <ele>361</ele>
        <time>2026-08-26T11:57:55+00:00</time>
      </trkpt>
      <trkpt lat="49.9445" lon="6.19706">
        <ele>366</ele>
        <time>2026-08-26T11:57:58+00:00</time>
      </trkpt>
      <trkpt lat="49.9444" lon="6.19729">
        <ele>365</ele>
        <time>2026-08-26T11:58:01+00:00</time>
      </trkpt>
      <trkpt lat="49.94439" lon="6.19698">
        <ele>370</ele>
        <time>2026-08-26T11:58:04+00:00</time>
      </trkpt>
      <trkpt lat="49.9444" lon="6.1969">
        <ele>368</ele>
        <time>2026-08-26T11:58:07+00:00</time>
      </trkpt>
      <trkpt lat="49.94437" lon="6.19694">
        <ele>370</ele>
        <time>2026-08-26T11:58:10+00:00</time>
      </trkpt>
      <trkpt lat="49.94427" lon="6.19723">
        <ele>372</ele>
        <time>2026-08-26T11:58:13+00:00</time>
      </trkpt>
      <trkpt lat="49.94425" lon="6.1971">
        <ele>376</ele>
        <time>2026-08-26T11:58:16+00:00</time>
      </trkpt>
      <trkpt lat="49.94426" lon="6.19701">
        <ele>376</ele>
        <time>2026-08-26T11:58:19+00:00</time>
      </trkpt>
      <trkpt lat="49.94425" lon="6.19698">
        <ele>374</ele>
        <time>2026-08-26T11:58:22+00:00</time>
      </trkpt>
      <trkpt lat="49.94424" lon="6.19698">
        <ele>374</ele>
        <time>2026-08-26T11:58:25+00:00</time>
      </trkpt>
      <trkpt lat="49.94424" lon="6.19701">
        <ele>376</ele>
        <time>2026-08-26T11:58:28+00:00</time>
      </trkpt>
      <trkpt lat="49.94415" lon="6.19694">
        <ele>378</ele>
        <time>2026-08-26T11:58:31+00:00</time>
      </trkpt>
      <trkpt lat="49.94416" lon="6.19708">
        <ele>381</ele>
        <time>2026-08-26T11:58:34+00:00</time>
      </trkpt>
      <trkpt lat="49.94413" lon="6.19705">
        <ele>381</ele>
        <time>2026-08-26T11:58:37+00:00</time>
      </trkpt>
      <trkpt lat="49.94413" lon="6.19705">
        <ele>381</ele>
        <time>2026-08-26T11:58:40+00:00</time>
      </trkpt>
      <trkpt lat="49.94411" lon="6.19704">
        <ele>381</ele>
        <time>2026-08-26T11:58:43+00:00</time>
      </trkpt>
      <trkpt lat="49.9441" lon="6.19706">
        <ele>384</ele>
        <time>2026-08-26T11:58:46+00:00</time>
      </trkpt>
      <trkpt lat="49.94397" lon="6.19687">
        <ele>383</ele>
        <time>2026-08-26T11:58:49+00:00</time>
      </trkpt>
      <trkpt lat="49.94394" lon="6.19678">
        <ele>383</ele>
        <time>2026-08-26T11:58:52+00:00</time>
      </trkpt>
      <trkpt lat="49.94381" lon="6.19662">
        <ele>387</ele>
        <time>2026-08-26T11:58:55+00:00</time>
      </trkpt>
      <trkpt lat="49.9436" lon="6.19615">
        <ele>388</ele>
        <time>2026-08-26T11:58:58+00:00</time>
      </trkpt>
      <trkpt lat="49.94345" lon="6.19592">
        <ele>388</ele>
        <time>2026-08-26T11:59:01+00:00</time>
      </trkpt>
      <trkpt lat="49.94329" lon="6.19575">
        <ele>393</ele>
        <time>2026-08-26T11:59:04+00:00</time>
      </trkpt>
      <trkpt lat="49.94311" lon="6.19549">
        <ele>394</ele>
        <time>2026-08-26T11:59:07+00:00</time>
      </trkpt>
      <trkpt lat="49.94298" lon="6.1954">
        <ele>401</ele>
        <time>2026-08-26T11:59:10+00:00</time>
      </trkpt>
      <trkpt lat="49.94291" lon="6.19532">
        <ele>401</ele>
        <time>2026-08-26T11:59:13+00:00</time>
      </trkpt>
      <trkpt lat="49.94273" lon="6.19501">
        <ele>401</ele>
        <time>2026-08-26T11:59:16+00:00</time>
      </trkpt>
      <trkpt lat="49.94256" lon="6.19469">
        <ele>392</ele>
        <time>2026-08-26T11:59:19+00:00</time>
      </trkpt>
      <trkpt lat="49.94227" lon="6.19434">
        <ele>392</ele>
        <time>2026-08-26T11:59:22+00:00</time>
      </trkpt>
      <trkpt lat="49.94206" lon="6.1941">
        <ele>392</ele>
        <time>2026-08-26T11:59:25+00:00</time>
      </trkpt>
      <trkpt lat="49.94174" lon="6.19373">
        <ele>393</ele>
        <time>2026-08-26T11:59:28+00:00</time>
      </trkpt>
      <trkpt lat="49.94167" lon="6.19366">
        <ele>392</ele>
        <time>2026-08-26T11:59:31+00:00</time>
      </trkpt>
      <trkpt lat="49.94139" lon="6.19346">
        <ele>401</ele>
        <time>2026-08-26T11:59:34+00:00</time>
      </trkpt>
      <trkpt lat="49.94117" lon="6.19326">
        <ele>405</ele>
        <time>2026-08-26T11:59:37+00:00</time>
      </trkpt>
      <trkpt lat="49.94086" lon="6.19297">
        <ele>409</ele>
        <time>2026-08-26T11:59:40+00:00</time>
      </trkpt>
      <trkpt lat="49.94065" lon="6.19269">
        <ele>410</ele>
        <time>2026-08-26T11:59:43+00:00</time>
      </trkpt>
      <trkpt lat="49.94064" lon="6.19262">
        <ele>417</ele>
        <time>2026-08-26T11:59:46+00:00</time>
      </trkpt>
      <trkpt lat="49.94065" lon="6.19255">
        <ele>418</ele>
        <time>2026-08-26T11:59:49+00:00</time>
      </trkpt>
      <trkpt lat="49.9407" lon="6.19226">
        <ele>412</ele>
        <time>2026-08-26T11:59:52+00:00</time>
      </trkpt>
      <trkpt lat="49.94077" lon="6.19193">
        <ele>412</ele>
        <time>2026-08-26T11:59:55+00:00</time>
      </trkpt>
      <trkpt lat="49.94086" lon="6.19169">
        <ele>408</ele>
        <time>2026-08-26T11:59:58+00:00</time>
      </trkpt>
      <trkpt lat="49.94096" lon="6.19149">
        <ele>404</ele>
        <time>2026-08-26T12:00:01+00:00</time>
      </trkpt>
      <trkpt lat="49.94098" lon="6.1914">
        <ele>407</ele>
        <time>2026-08-26T12:00:04+00:00</time>
      </trkpt>
      <trkpt lat="49.94098" lon="6.19121">
        <ele>406</ele>
        <time>2026-08-26T12:00:07+00:00</time>
      </trkpt>
      <trkpt lat="49.9409" lon="6.19085">
        <ele>407</ele>
        <time>2026-08-26T12:00:10+00:00</time>
      </trkpt>
      <trkpt lat="49.94078" lon="6.19047">
        <ele>406</ele>
        <time>2026-08-26T12:00:13+00:00</time>
      </trkpt>
      <trkpt lat="49.9407" lon="6.19011">
        <ele>401</ele>
        <time>2026-08-26T12:00:16+00:00</time>
      </trkpt>
      <trkpt lat="49.9406" lon="6.18965">
        <ele>395</ele>
        <time>2026-08-26T12:00:19+00:00</time>
      </trkpt>
      <trkpt lat="49.94044" lon="6.18931">
        <ele>396</ele>
        <time>2026-08-26T12:00:22+00:00</time>
      </trkpt>
      <trkpt lat="49.94037" lon="6.18919">
        <ele>398</ele>
        <time>2026-08-26T12:00:25+00:00</time>
      </trkpt>
      <trkpt lat="49.94036" lon="6.18913">
        <ele>398</ele>
        <time>2026-08-26T12:00:28+00:00</time>
      </trkpt>
      <trkpt lat="49.94038" lon="6.18896">
        <ele>394</ele>
        <time>2026-08-26T12:00:31+00:00</time>
      </trkpt>
      <trkpt lat="49.94038" lon="6.18884">
        <ele>396</ele>
        <time>2026-08-26T12:00:34+00:00</time>
      </trkpt>
      <trkpt lat="49.94032" lon="6.18852">
        <ele>394</ele>
        <time>2026-08-26T12:00:37+00:00</time>
      </trkpt>
      <trkpt lat="49.94024" lon="6.1881">
        <ele>394</ele>
        <time>2026-08-26T12:00:40+00:00</time>
      </trkpt>
      <trkpt lat="49.94014" lon="6.1877">
        <ele>398</ele>
        <time>2026-08-26T12:00:43+00:00</time>
      </trkpt>
      <trkpt lat="49.93996" lon="6.18698">
        <ele>422</ele>
        <time>2026-08-26T12:00:46+00:00</time>
      </trkpt>
      <trkpt lat="49.93988" lon="6.18653">
        <ele>429</ele>
        <time>2026-08-26T12:00:49+00:00</time>
      </trkpt>
      <trkpt lat="49.93983" lon="6.18616">
        <ele>429</ele>
        <time>2026-08-26T12:00:52+00:00</time>
      </trkpt>
      <trkpt lat="49.93982" lon="6.18581">
        <ele>429</ele>
        <time>2026-08-26T12:00:55+00:00</time>
      </trkpt>
      <trkpt lat="49.93982" lon="6.18551">
        <ele>429</ele>
        <time>2026-08-26T12:00:58+00:00</time>
      </trkpt>
      <trkpt lat="49.93986" lon="6.18524">
        <ele>434</ele>
        <time>2026-08-26T12:01:01+00:00</time>
      </trkpt>
      <trkpt lat="49.93998" lon="6.18486">
        <ele>440</ele>
        <time>2026-08-26T12:01:04+00:00</time>
      </trkpt>
      <trkpt lat="49.9402" lon="6.1842">
        <ele>441</ele>
        <time>2026-08-26T12:01:07+00:00</time>
      </trkpt>
      <trkpt lat="49.94033" lon="6.18387">
        <ele>440</ele>
        <time>2026-08-26T12:01:10+00:00</time>
      </trkpt>
      <trkpt lat="49.94043" lon="6.18376">
        <ele>443</ele>
        <time>2026-08-26T12:01:13+00:00</time>
      </trkpt>
      <trkpt lat="49.9405" lon="6.18389">
        <ele>439</ele>
        <time>2026-08-26T12:01:16+00:00</time>
      </trkpt>
      <trkpt lat="49.94051" lon="6.184">
        <ele>434</ele>
        <time>2026-08-26T12:01:19+00:00</time>
      </trkpt>
      <trkpt lat="49.94047" lon="6.18449">
        <ele>429</ele>
        <time>2026-08-26T12:01:22+00:00</time>
      </trkpt>
      <trkpt lat="49.94046" lon="6.18484">
        <ele>422</ele>
        <time>2026-08-26T12:01:25+00:00</time>
      </trkpt>
      <trkpt lat="49.94046" lon="6.18522">
        <ele>404</ele>
        <time>2026-08-26T12:01:28+00:00</time>
      </trkpt>
      <trkpt lat="49.94048" lon="6.18566">
        <ele>402</ele>
        <time>2026-08-26T12:01:31+00:00</time>
      </trkpt>
      <trkpt lat="49.94053" lon="6.18652">
        <ele>372</ele>
        <time>2026-08-26T12:01:34+00:00</time>
      </trkpt>
      <trkpt lat="49.94061" lon="6.1869">
        <ele>370</ele>
        <time>2026-08-26T12:01:37+00:00</time>
      </trkpt>
      <trkpt lat="49.94072" lon="6.18721">
        <ele>361</ele>
        <time>2026-08-26T12:01:40+00:00</time>
      </trkpt>
      <trkpt lat="49.94085" lon="6.18753">
        <ele>357</ele>
        <time>2026-08-26T12:01:43+00:00</time>
      </trkpt>
      <trkpt lat="49.94103" lon="6.18794">
        <ele>349</ele>
        <time>2026-08-26T12:01:46+00:00</time>
      </trkpt>
      <trkpt lat="49.94115" lon="6.18827">
        <ele>347</ele>
        <time>2026-08-26T12:01:49+00:00</time>
      </trkpt>
      <trkpt lat="49.94128" lon="6.18861">
        <ele>347</ele>
        <time>2026-08-26T12:01:52+00:00</time>
      </trkpt>
      <trkpt lat="49.94141" lon="6.18889">
        <ele>347</ele>
        <time>2026-08-26T12:01:55+00:00</time>
      </trkpt>
      <trkpt lat="49.94157" lon="6.18936">
        <ele>345</ele>
        <time>2026-08-26T12:01:58+00:00</time>
      </trkpt>
      <trkpt lat="49.94175" lon="6.18981">
        <ele>344</ele>
        <time>2026-08-26T12:02:01+00:00</time>
      </trkpt>
      <trkpt lat="49.94189" lon="6.19023">
        <ele>342</ele>
        <time>2026-08-26T12:02:04+00:00</time>
      </trkpt>
      <trkpt lat="49.94203" lon="6.19055">
        <ele>329</ele>
        <time>2026-08-26T12:02:07+00:00</time>
      </trkpt>
      <trkpt lat="49.9422" lon="6.19107">
        <ele>325</ele>
        <time>2026-08-26T12:02:10+00:00</time>
      </trkpt>
      <trkpt lat="49.94232" lon="6.19129">
        <ele>321</ele>
        <time>2026-08-26T12:02:13+00:00</time>
      </trkpt>
      <trkpt lat="49.9425" lon="6.19179">
        <ele>313</ele>
        <time>2026-08-26T12:02:16+00:00</time>
      </trkpt>
      <trkpt lat="49.94265" lon="6.19225">
        <ele>306</ele>
        <time>2026-08-26T12:02:19+00:00</time>
      </trkpt>
      <trkpt lat="49.94271" lon="6.19235">
        <ele>303</ele>
        <time>2026-08-26T12:02:22+00:00</time>
      </trkpt>
      <trkpt lat="49.94277" lon="6.19244">
        <ele>301</ele>
        <time>2026-08-26T12:02:25+00:00</time>
      </trkpt>
      <trkpt lat="49.94293" lon="6.1926">
        <ele>301</ele>
        <time>2026-08-26T12:02:28+00:00</time>
      </trkpt>
      <trkpt lat="49.94313" lon="6.19269">
        <ele>300</ele>
        <time>2026-08-26T12:02:31+00:00</time>
      </trkpt>
      <trkpt lat="49.94332" lon="6.19276">
        <ele>294</ele>
        <time>2026-08-26T12:02:34+00:00</time>
      </trkpt>
      <trkpt lat="49.94338" lon="6.19276">
        <ele>294</ele>
        <time>2026-08-26T12:02:37+00:00</time>
      </trkpt>
      <trkpt lat="49.9436" lon="6.19287">
        <ele>288</ele>
        <time>2026-08-26T12:02:40+00:00</time>
      </trkpt>
      <trkpt lat="49.94393" lon="6.19304">
        <ele>284</ele>
        <time>2026-08-26T12:02:43+00:00</time>
      </trkpt>
      <trkpt lat="49.94403" lon="6.19312">
        <ele>279</ele>
        <time>2026-08-26T12:02:46+00:00</time>
      </trkpt>
      <trkpt lat="49.94405" lon="6.1931">
        <ele>280</ele>
        <time>2026-08-26T12:02:49+00:00</time>
      </trkpt>
      <trkpt lat="49.94413" lon="6.19313">
        <ele>283</ele>
        <time>2026-08-26T12:02:52+00:00</time>
      </trkpt>
      <trkpt lat="49.94444" lon="6.19308">
        <ele>283</ele>
        <time>2026-08-26T12:02:55+00:00</time>
      </trkpt>
      <trkpt lat="49.94448" lon="6.19305">
        <ele>283</ele>
        <time>2026-08-26T12:02:58+00:00</time>
      </trkpt>
      <trkpt lat="49.94476" lon="6.19309">
        <ele>280</ele>
        <time>2026-08-26T12:03:01+00:00</time>
      </trkpt>
      <trkpt lat="49.9449" lon="6.19306">
        <ele>279</ele>
        <time>2026-08-26T12:03:04+00:00</time>
      </trkpt>
      <trkpt lat="49.945" lon="6.19302">
        <ele>288</ele>
        <time>2026-08-26T12:03:07+00:00</time>
      </trkpt>
      <trkpt lat="49.94504" lon="6.19301">
        <ele>279</ele>
        <time>2026-08-26T12:03:10+00:00</time>
      </trkpt>
      <trkpt lat="49.94505" lon="6.19297">
        <ele>283</ele>
        <time>2026-08-26T12:03:13+00:00</time>
      </trkpt>
      <trkpt lat="49.94509" lon="6.19259">
        <ele>297</ele>
        <time>2026-08-26T12:03:16+00:00</time>
      </trkpt>
      <trkpt lat="49.94515" lon="6.19197">
        <ele>297</ele>
        <time>2026-08-26T12:03:19+00:00</time>
      </trkpt>
      <trkpt lat="49.94516" lon="6.19192">
        <ele>297</ele>
        <time>2026-08-26T12:03:22+00:00</time>
      </trkpt>
      <trkpt lat="49.94522" lon="6.19232">
        <ele>288</ele>
        <time>2026-08-26T12:03:25+00:00</time>
      </trkpt>
      <trkpt lat="49.94525" lon="6.19236">
        <ele>288</ele>
        <time>2026-08-26T12:03:28+00:00</time>
      </trkpt>
      <trkpt lat="49.94525" lon="6.19225">
        <ele>290</ele>
        <time>2026-08-26T12:03:31+00:00</time>
      </trkpt>
      <trkpt lat="49.94526" lon="6.19222">
        <ele>290</ele>
        <time>2026-08-26T12:03:34+00:00</time>
      </trkpt>
      <trkpt lat="49.94528" lon="6.19223">
        <ele>290</ele>
        <time>2026-08-26T12:03:37+00:00</time>
      </trkpt>
      <trkpt lat="49.94531" lon="6.19239">
        <ele>279</ele>
        <time>2026-08-26T12:03:40+00:00</time>
      </trkpt>
      <trkpt lat="49.94532" lon="6.19232">
        <ele>279</ele>
        <time>2026-08-26T12:03:43+00:00</time>
      </trkpt>
      <trkpt lat="49.94538" lon="6.19248">
        <ele>279</ele>
        <time>2026-08-26T12:03:46+00:00</time>
      </trkpt>
      <trkpt lat="49.9454" lon="6.19232">
        <ele>279</ele>
        <time>2026-08-26T12:03:49+00:00</time>
      </trkpt>
      <trkpt lat="49.94544" lon="6.19229">
        <ele>269</ele>
        <time>2026-08-26T12:03:52+00:00</time>
      </trkpt>
      <trkpt lat="49.94548" lon="6.19233">
        <ele>269</ele>
        <time>2026-08-26T12:03:55+00:00</time>
      </trkpt>
      <trkpt lat="49.9456" lon="6.1926">
        <ele>260</ele>
        <time>2026-08-26T12:03:58+00:00</time>
      </trkpt>
      <trkpt lat="49.94577" lon="6.19298">
        <ele>261</ele>
        <time>2026-08-26T12:04:01+00:00</time>
      </trkpt>
      <trkpt lat="49.94592" lon="6.19326">
        <ele>260</ele>
        <time>2026-08-26T12:04:04+00:00</time>
      </trkpt>
      <trkpt lat="49.9461" lon="6.19359">
        <ele>260</ele>
        <time>2026-08-26T12:04:07+00:00</time>
      </trkpt>
      <trkpt lat="49.94626" lon="6.19389">
        <ele>259</ele>
        <time>2026-08-26T12:04:10+00:00</time>
      </trkpt>
      <trkpt lat="49.94649" lon="6.1943">
        <ele>258</ele>
        <time>2026-08-26T12:04:13+00:00</time>
      </trkpt>
      <trkpt lat="49.94667" lon="6.1946">
        <ele>258</ele>
        <time>2026-08-26T12:04:16+00:00</time>
      </trkpt>
      <trkpt lat="49.94697" lon="6.19509">
        <ele>259</ele>
        <time>2026-08-26T12:04:19+00:00</time>
      </trkpt>
      <trkpt lat="49.94728" lon="6.19554">
        <ele>260</ele>
        <time>2026-08-26T12:04:22+00:00</time>
      </trkpt>
      <trkpt lat="49.94731" lon="6.19557">
        <ele>264</ele>
        <time>2026-08-26T12:04:25+00:00</time>
      </trkpt>
      <trkpt lat="49.94735" lon="6.1956">
        <ele>264</ele>
        <time>2026-08-26T12:04:28+00:00</time>
      </trkpt>
      <trkpt lat="49.94744" lon="6.19564">
        <ele>265</ele>
        <time>2026-08-26T12:04:31+00:00</time>
      </trkpt>
      <trkpt lat="49.94776" lon="6.19564">
        <ele>277</ele>
        <time>2026-08-26T12:04:34+00:00</time>
      </trkpt>
      <trkpt lat="49.948" lon="6.19562">
        <ele>281</ele>
        <time>2026-08-26T12:04:37+00:00</time>
      </trkpt>
      <trkpt lat="49.94828" lon="6.1956">
        <ele>281</ele>
        <time>2026-08-26T12:04:40+00:00</time>
      </trkpt>
      <trkpt lat="49.94832" lon="6.19558">
        <ele>281</ele>
        <time>2026-08-26T12:04:43+00:00</time>
      </trkpt>
      <trkpt lat="49.94834" lon="6.19553">
        <ele>281</ele>
        <time>2026-08-26T12:04:46+00:00</time>
      </trkpt>
      <trkpt lat="49.94832" lon="6.19548">
        <ele>285</ele>
        <time>2026-08-26T12:04:49+00:00</time>
      </trkpt>
      <trkpt lat="49.94813" lon="6.19543">
        <ele>286</ele>
        <time>2026-08-26T12:04:52+00:00</time>
      </trkpt>
      <trkpt lat="49.94789" lon="6.19532">
        <ele>289</ele>
        <time>2026-08-26T12:04:55+00:00</time>
      </trkpt>
      <trkpt lat="49.94765" lon="6.19514">
        <ele>290</ele>
        <time>2026-08-26T12:04:58+00:00</time>
      </trkpt>
      <trkpt lat="49.9475" lon="6.19486">
        <ele>292</ele>
        <time>2026-08-26T12:05:01+00:00</time>
      </trkpt>
      <trkpt lat="49.94729" lon="6.19441">
        <ele>296</ele>
        <time>2026-08-26T12:05:04+00:00</time>
      </trkpt>
      <trkpt lat="49.94713" lon="6.19391">
        <ele>306</ele>
        <time>2026-08-26T12:05:07+00:00</time>
      </trkpt>
      <trkpt lat="49.94704" lon="6.19365">
        <ele>311</ele>
        <time>2026-08-26T12:05:10+00:00</time>
      </trkpt>
      <trkpt lat="49.94696" lon="6.19333">
        <ele>315</ele>
        <time>2026-08-26T12:05:13+00:00</time>
      </trkpt>
      <trkpt lat="49.94687" lon="6.19298">
        <ele>321</ele>
        <time>2026-08-26T12:05:16+00:00</time>
      </trkpt>
      <trkpt lat="49.9468" lon="6.19262">
        <ele>326</ele>
        <time>2026-08-26T12:05:19+00:00</time>
      </trkpt>
      <trkpt lat="49.94671" lon="6.19215">
        <ele>333</ele>
        <time>2026-08-26T12:05:22+00:00</time>
      </trkpt>
      <trkpt lat="49.94663" lon="6.1916">
        <ele>334</ele>
        <time>2026-08-26T12:05:25+00:00</time>
      </trkpt>
      <trkpt lat="49.94659" lon="6.19102">
        <ele>335</ele>
        <time>2026-08-26T12:05:28+00:00</time>
      </trkpt>
      <trkpt lat="49.94656" lon="6.19042">
        <ele>339</ele>
        <time>2026-08-26T12:05:31+00:00</time>
      </trkpt>
      <trkpt lat="49.94657" lon="6.19006">
        <ele>345</ele>
        <time>2026-08-26T12:05:34+00:00</time>
      </trkpt>
      <trkpt lat="49.94657" lon="6.18978">
        <ele>352</ele>
        <time>2026-08-26T12:05:37+00:00</time>
      </trkpt>
      <trkpt lat="49.94672" lon="6.19008">
        <ele>359</ele>
        <time>2026-08-26T12:05:40+00:00</time>
      </trkpt>
      <trkpt lat="49.94693" lon="6.1905">
        <ele>370</ele>
        <time>2026-08-26T12:05:43+00:00</time>
      </trkpt>
      <trkpt lat="49.9472" lon="6.19092">
        <ele>373</ele>
        <time>2026-08-26T12:05:46+00:00</time>
      </trkpt>
      <trkpt lat="49.94741" lon="6.1911">
        <ele>379</ele>
        <time>2026-08-26T12:05:49+00:00</time>
      </trkpt>
      <trkpt lat="49.94766" lon="6.19141">
        <ele>386</ele>
        <time>2026-08-26T12:05:52+00:00</time>
      </trkpt>
      <trkpt lat="49.94786" lon="6.19174">
        <ele>388</ele>
        <time>2026-08-26T12:05:55+00:00</time>
      </trkpt>
      <trkpt lat="49.948" lon="6.1919">
        <ele>390</ele>
        <time>2026-08-26T12:05:58+00:00</time>
      </trkpt>
      <trkpt lat="49.94809" lon="6.19196">
        <ele>392</ele>
        <time>2026-08-26T12:06:01+00:00</time>
      </trkpt>
      <trkpt lat="49.94813" lon="6.19204">
        <ele>393</ele>
        <time>2026-08-26T12:06:04+00:00</time>
      </trkpt>
      <trkpt lat="49.94834" lon="6.19219">
        <ele>397</ele>
        <time>2026-08-26T12:06:07+00:00</time>
      </trkpt>
      <trkpt lat="49.9484" lon="6.19221">
        <ele>395</ele>
        <time>2026-08-26T12:06:10+00:00</time>
      </trkpt>
      <trkpt lat="49.94845" lon="6.19219">
        <ele>400</ele>
        <time>2026-08-26T12:06:13+00:00</time>
      </trkpt>
      <trkpt lat="49.94854" lon="6.19209">
        <ele>405</ele>
        <time>2026-08-26T12:06:16+00:00</time>
      </trkpt>
      <trkpt lat="49.94856" lon="6.19202">
        <ele>405</ele>
        <time>2026-08-26T12:06:19+00:00</time>
      </trkpt>
      <trkpt lat="49.94859" lon="6.192">
        <ele>407</ele>
        <time>2026-08-26T12:06:22+00:00</time>
      </trkpt>
      <trkpt lat="49.94872" lon="6.19175">
        <ele>407</ele>
        <time>2026-08-26T12:06:25+00:00</time>
      </trkpt>
      <trkpt lat="49.94879" lon="6.19156">
        <ele>413</ele>
        <time>2026-08-26T12:06:28+00:00</time>
      </trkpt>
      <trkpt lat="49.9489" lon="6.1914">
        <ele>409</ele>
        <time>2026-08-26T12:06:31+00:00</time>
      </trkpt>
      <trkpt lat="49.94902" lon="6.19123">
        <ele>409</ele>
        <time>2026-08-26T12:06:34+00:00</time>
      </trkpt>
      <trkpt lat="49.94916" lon="6.19112">
        <ele>410</ele>
        <time>2026-08-26T12:06:37+00:00</time>
      </trkpt>
      <trkpt lat="49.9492" lon="6.19108">
        <ele>410</ele>
        <time>2026-08-26T12:06:40+00:00</time>
      </trkpt>
      <trkpt lat="49.94945" lon="6.19097">
        <ele>407</ele>
        <time>2026-08-26T12:06:43+00:00</time>
      </trkpt>
      <trkpt lat="49.94954" lon="6.19097">
        <ele>411</ele>
        <time>2026-08-26T12:06:46+00:00</time>
      </trkpt>
      <trkpt lat="49.94966" lon="6.19101">
        <ele>405</ele>
        <time>2026-08-26T12:06:49+00:00</time>
      </trkpt>
      <trkpt lat="49.94981" lon="6.19108">
        <ele>407</ele>
        <time>2026-08-26T12:06:52+00:00</time>
      </trkpt>
      <trkpt lat="49.94981" lon="6.19108">
        <ele>407</ele>
        <time>2026-08-26T12:06:55+00:00</time>
      </trkpt>
      <trkpt lat="49.95003" lon="6.19123">
        <ele>399</ele>
        <time>2026-08-26T12:06:58+00:00</time>
      </trkpt>
      <trkpt lat="49.95014" lon="6.19142">
        <ele>390</ele>
        <time>2026-08-26T12:07:01+00:00</time>
      </trkpt>
      <trkpt lat="49.95023" lon="6.19152">
        <ele>386</ele>
        <time>2026-08-26T12:07:04+00:00</time>
      </trkpt>
      <trkpt lat="49.95025" lon="6.1916">
        <ele>386</ele>
        <time>2026-08-26T12:07:07+00:00</time>
      </trkpt>
      <trkpt lat="49.95026" lon="6.19164">
        <ele>380</ele>
        <time>2026-08-26T12:07:10+00:00</time>
      </trkpt>
      <trkpt lat="49.95029" lon="6.19167">
        <ele>380</ele>
        <time>2026-08-26T12:07:13+00:00</time>
      </trkpt>
      <trkpt lat="49.95039" lon="6.19163">
        <ele>389</ele>
        <time>2026-08-26T12:07:16+00:00</time>
      </trkpt>
      <trkpt lat="49.95059" lon="6.19147">
        <ele>389</ele>
        <time>2026-08-26T12:07:19+00:00</time>
      </trkpt>
      <trkpt lat="49.95079" lon="6.19131">
        <ele>389</ele>
        <time>2026-08-26T12:07:22+00:00</time>
      </trkpt>
      <trkpt lat="49.95103" lon="6.19106">
        <ele>381</ele>
        <time>2026-08-26T12:07:25+00:00</time>
      </trkpt>
      <trkpt lat="49.95127" lon="6.19077">
        <ele>374</ele>
        <time>2026-08-26T12:07:28+00:00</time>
      </trkpt>
      <trkpt lat="49.95143" lon="6.19057">
        <ele>366</ele>
        <time>2026-08-26T12:07:31+00:00</time>
      </trkpt>
      <trkpt lat="49.95153" lon="6.19039">
        <ele>361</ele>
        <time>2026-08-26T12:07:34+00:00</time>
      </trkpt>
      <trkpt lat="49.95163" lon="6.19018">
        <ele>360</ele>
        <time>2026-08-26T12:07:37+00:00</time>
      </trkpt>
      <trkpt lat="49.95178" lon="6.18972">
        <ele>359</ele>
        <time>2026-08-26T12:07:40+00:00</time>
      </trkpt>
      <trkpt lat="49.95184" lon="6.18947">
        <ele>358</ele>
        <time>2026-08-26T12:07:43+00:00</time>
      </trkpt>
      <trkpt lat="49.95191" lon="6.1891">
        <ele>351</ele>
        <time>2026-08-26T12:07:46+00:00</time>
      </trkpt>
      <trkpt lat="49.95197" lon="6.18874">
        <ele>350</ele>
        <time>2026-08-26T12:07:49+00:00</time>
      </trkpt>
      <trkpt lat="49.95205" lon="6.18831">
        <ele>347</ele>
        <time>2026-08-26T12:07:52+00:00</time>
      </trkpt>
      <trkpt lat="49.95208" lon="6.1882">
        <ele>347</ele>
        <time>2026-08-26T12:07:55+00:00</time>
      </trkpt>
      <trkpt lat="49.95211" lon="6.18811">
        <ele>345</ele>
        <time>2026-08-26T12:07:58+00:00</time>
      </trkpt>
      <trkpt lat="49.95217" lon="6.1881">
        <ele>345</ele>
        <time>2026-08-26T12:08:01+00:00</time>
      </trkpt>
      <trkpt lat="49.95221" lon="6.18814">
        <ele>343</ele>
        <time>2026-08-26T12:08:04+00:00</time>
      </trkpt>
      <trkpt lat="49.95249" lon="6.18855">
        <ele>339</ele>
        <time>2026-08-26T12:08:07+00:00</time>
      </trkpt>
      <trkpt lat="49.95255" lon="6.18861">
        <ele>337</ele>
        <time>2026-08-26T12:08:10+00:00</time>
      </trkpt>
      <trkpt lat="49.95262" lon="6.18863">
        <ele>336</ele>
        <time>2026-08-26T12:08:13+00:00</time>
      </trkpt>
      <trkpt lat="49.95274" lon="6.18878">
        <ele>334</ele>
        <time>2026-08-26T12:08:16+00:00</time>
      </trkpt>
      <trkpt lat="49.95299" lon="6.18914">
        <ele>331</ele>
        <time>2026-08-26T12:08:19+00:00</time>
      </trkpt>
      <trkpt lat="49.95327" lon="6.18946">
        <ele>329</ele>
        <time>2026-08-26T12:08:22+00:00</time>
      </trkpt>
      <trkpt lat="49.95345" lon="6.18971">
        <ele>328</ele>
        <time>2026-08-26T12:08:25+00:00</time>
      </trkpt>
      <trkpt lat="49.95368" lon="6.19003">
        <ele>326</ele>
        <time>2026-08-26T12:08:28+00:00</time>
      </trkpt>
      <trkpt lat="49.95385" lon="6.19031">
        <ele>323</ele>
        <time>2026-08-26T12:08:31+00:00</time>
      </trkpt>
      <trkpt lat="49.95407" lon="6.1906">
        <ele>322</ele>
        <time>2026-08-26T12:08:34+00:00</time>
      </trkpt>
      <trkpt lat="49.9543" lon="6.19089">
        <ele>319</ele>
        <time>2026-08-26T12:08:37+00:00</time>
      </trkpt>
      <trkpt lat="49.95453" lon="6.19119">
        <ele>313</ele>
        <time>2026-08-26T12:08:40+00:00</time>
      </trkpt>
      <trkpt lat="49.95481" lon="6.19143">
        <ele>305</ele>
        <time>2026-08-26T12:08:43+00:00</time>
      </trkpt>
      <trkpt lat="49.95495" lon="6.19155">
        <ele>302</ele>
        <time>2026-08-26T12:08:46+00:00</time>
      </trkpt>
      <trkpt lat="49.95513" lon="6.19163">
        <ele>301</ele>
        <time>2026-08-26T12:08:49+00:00</time>
      </trkpt>
      <trkpt lat="49.95538" lon="6.19167">
        <ele>301</ele>
        <time>2026-08-26T12:08:52+00:00</time>
      </trkpt>
      <trkpt lat="49.95554" lon="6.19165">
        <ele>301</ele>
        <time>2026-08-26T12:08:55+00:00</time>
      </trkpt>
      <trkpt lat="49.9557" lon="6.19159">
        <ele>300</ele>
        <time>2026-08-26T12:08:58+00:00</time>
      </trkpt>
      <trkpt lat="49.95589" lon="6.19153">
        <ele>300</ele>
        <time>2026-08-26T12:09:01+00:00</time>
      </trkpt>
      <trkpt lat="49.95604" lon="6.19143">
        <ele>301</ele>
        <time>2026-08-26T12:09:04+00:00</time>
      </trkpt>
      <trkpt lat="49.95617" lon="6.19127">
        <ele>298</ele>
        <time>2026-08-26T12:09:07+00:00</time>
      </trkpt>
      <trkpt lat="49.95632" lon="6.19109">
        <ele>296</ele>
        <time>2026-08-26T12:09:10+00:00</time>
      </trkpt>
      <trkpt lat="49.95643" lon="6.19088">
        <ele>293</ele>
        <time>2026-08-26T12:09:13+00:00</time>
      </trkpt>
      <trkpt lat="49.95647" lon="6.19071">
        <ele>294</ele>
        <time>2026-08-26T12:09:16+00:00</time>
      </trkpt>
      <trkpt lat="49.95652" lon="6.19066">
        <ele>285</ele>
        <time>2026-08-26T12:09:19+00:00</time>
      </trkpt>
      <trkpt lat="49.95661" lon="6.19066">
        <ele>281</ele>
        <time>2026-08-26T12:09:22+00:00</time>
      </trkpt>
      <trkpt lat="49.95659" lon="6.19053">
        <ele>283</ele>
        <time>2026-08-26T12:09:25+00:00</time>
      </trkpt>
      <trkpt lat="49.95655" lon="6.19043">
        <ele>282</ele>
        <time>2026-08-26T12:09:28+00:00</time>
      </trkpt>
      <trkpt lat="49.95648" lon="6.19034">
        <ele>281</ele>
        <time>2026-08-26T12:09:31+00:00</time>
      </trkpt>
      <trkpt lat="49.95652" lon="6.19024">
        <ele>282</ele>
        <time>2026-08-26T12:09:34+00:00</time>
      </trkpt>
      <trkpt lat="49.95654" lon="6.1902">
        <ele>281</ele>
        <time>2026-08-26T12:09:37+00:00</time>
      </trkpt>
      <trkpt lat="49.95663" lon="6.19019">
        <ele>282</ele>
        <time>2026-08-26T12:09:40+00:00</time>
      </trkpt>
      <trkpt lat="49.95664" lon="6.19019">
        <ele>282</ele>
        <time>2026-08-26T12:09:43+00:00</time>
      </trkpt>
      <trkpt lat="49.95673" lon="6.19015">
        <ele>282</ele>
        <time>2026-08-26T12:09:46+00:00</time>
      </trkpt>
      <trkpt lat="49.95694" lon="6.19012">
        <ele>282</ele>
        <time>2026-08-26T12:09:49+00:00</time>
      </trkpt>
      <trkpt lat="49.9573" lon="6.18992">
        <ele>282</ele>
        <time>2026-08-26T12:09:52+00:00</time>
      </trkpt>
      <trkpt lat="49.95739" lon="6.18982">
        <ele>282</ele>
        <time>2026-08-26T12:09:55+00:00</time>
      </trkpt>
      <trkpt lat="49.95747" lon="6.1897">
        <ele>282</ele>
        <time>2026-08-26T12:09:58+00:00</time>
      </trkpt>
      <trkpt lat="49.95753" lon="6.18968">
        <ele>286</ele>
        <time>2026-08-26T12:10:01+00:00</time>
      </trkpt>
      <trkpt lat="49.95757" lon="6.18959">
        <ele>286</ele>
        <time>2026-08-26T12:10:04+00:00</time>
      </trkpt>
      <trkpt lat="49.9576" lon="6.18959">
        <ele>286</ele>
        <time>2026-08-26T12:10:07+00:00</time>
      </trkpt>
      <trkpt lat="49.95763" lon="6.18959">
        <ele>289</ele>
        <time>2026-08-26T12:10:10+00:00</time>
      </trkpt>
      <trkpt lat="49.95763" lon="6.18956">
        <ele>289</ele>
        <time>2026-08-26T12:10:13+00:00</time>
      </trkpt>
      <trkpt lat="49.95768" lon="6.18955">
        <ele>289</ele>
        <time>2026-08-26T12:10:16+00:00</time>
      </trkpt>
      <trkpt lat="49.95774" lon="6.18949">
        <ele>293</ele>
        <time>2026-08-26T12:10:19+00:00</time>
      </trkpt>
      <trkpt lat="49.95779" lon="6.18942">
        <ele>293</ele>
        <time>2026-08-26T12:10:22+00:00</time>
      </trkpt>
      <trkpt lat="49.95779" lon="6.18939">
        <ele>294</ele>
        <time>2026-08-26T12:10:25+00:00</time>
      </trkpt>
      <trkpt lat="49.9578" lon="6.18939">
        <ele>294</ele>
        <time>2026-08-26T12:10:28+00:00</time>
      </trkpt>
      <trkpt lat="49.95783" lon="6.18937">
        <ele>299</ele>
        <time>2026-08-26T12:10:31+00:00</time>
      </trkpt>
      <trkpt lat="49.95784" lon="6.18939">
        <ele>299</ele>
        <time>2026-08-26T12:10:34+00:00</time>
      </trkpt>
      <trkpt lat="49.95788" lon="6.18935">
        <ele>299</ele>
        <time>2026-08-26T12:10:37+00:00</time>
      </trkpt>
      <trkpt lat="49.9579" lon="6.18931">
        <ele>299</ele>
        <time>2026-08-26T12:10:40+00:00</time>
      </trkpt>
      <trkpt lat="49.95801" lon="6.18925">
        <ele>310</ele>
        <time>2026-08-26T12:10:43+00:00</time>
      </trkpt>
      <trkpt lat="49.95798" lon="6.18918">
        <ele>306</ele>
        <time>2026-08-26T12:10:46+00:00</time>
      </trkpt>
      <trkpt lat="49.95799" lon="6.1891">
        <ele>306</ele>
        <time>2026-08-26T12:10:49+00:00</time>
      </trkpt>
      <trkpt lat="49.95807" lon="6.18893">
        <ele>316</ele>
        <time>2026-08-26T12:10:52+00:00</time>
      </trkpt>
      <trkpt lat="49.95805" lon="6.18866">
        <ele>316</ele>
        <time>2026-08-26T12:10:55+00:00</time>
      </trkpt>
      <trkpt lat="49.95807" lon="6.18861">
        <ele>316</ele>
        <time>2026-08-26T12:10:58+00:00</time>
      </trkpt>
      <trkpt lat="49.9581" lon="6.18871">
        <ele>316</ele>
        <time>2026-08-26T12:11:01+00:00</time>
      </trkpt>
      <trkpt lat="49.95812" lon="6.18863">
        <ele>322</ele>
        <time>2026-08-26T12:11:04+00:00</time>
      </trkpt>
      <trkpt lat="49.9582" lon="6.18853">
        <ele>322</ele>
        <time>2026-08-26T12:11:07+00:00</time>
      </trkpt>
      <trkpt lat="49.95819" lon="6.18865">
        <ele>322</ele>
        <time>2026-08-26T12:11:10+00:00</time>
      </trkpt>
      <trkpt lat="49.95822" lon="6.18868">
        <ele>325</ele>
        <time>2026-08-26T12:11:13+00:00</time>
      </trkpt>
      <trkpt lat="49.95828" lon="6.18859">
        <ele>326</ele>
        <time>2026-08-26T12:11:16+00:00</time>
      </trkpt>
      <trkpt lat="49.95835" lon="6.18856">
        <ele>327</ele>
        <time>2026-08-26T12:11:19+00:00</time>
      </trkpt>
      <trkpt lat="49.95839" lon="6.18852">
        <ele>327</ele>
        <time>2026-08-26T12:11:22+00:00</time>
      </trkpt>
      <trkpt lat="49.95846" lon="6.18841">
        <ele>325</ele>
        <time>2026-08-26T12:11:25+00:00</time>
      </trkpt>
      <trkpt lat="49.95857" lon="6.18829">
        <ele>324</ele>
        <time>2026-08-26T12:11:28+00:00</time>
      </trkpt>
      <trkpt lat="49.95866" lon="6.18826">
        <ele>324</ele>
        <time>2026-08-26T12:11:31+00:00</time>
      </trkpt>
      <trkpt lat="49.95883" lon="6.18829">
        <ele>321</ele>
        <time>2026-08-26T12:11:34+00:00</time>
      </trkpt>
      <trkpt lat="49.95903" lon="6.18836">
        <ele>320</ele>
        <time>2026-08-26T12:11:37+00:00</time>
      </trkpt>
      <trkpt lat="49.95904" lon="6.18837">
        <ele>320</ele>
        <time>2026-08-26T12:11:40+00:00</time>
      </trkpt>
      <trkpt lat="49.95904" lon="6.18829">
        <ele>318</ele>
        <time>2026-08-26T12:11:43+00:00</time>
      </trkpt>
      <trkpt lat="49.959" lon="6.18822">
        <ele>319</ele>
        <time>2026-08-26T12:11:46+00:00</time>
      </trkpt>
      <trkpt lat="49.95876" lon="6.18795">
        <ele>313</ele>
        <time>2026-08-26T12:11:49+00:00</time>
      </trkpt>
      <trkpt lat="49.95867" lon="6.18782">
        <ele>311</ele>
        <time>2026-08-26T12:11:52+00:00</time>
      </trkpt>
      <trkpt lat="49.9586" lon="6.18767">
        <ele>305</ele>
        <time>2026-08-26T12:11:55+00:00</time>
      </trkpt>
      <trkpt lat="49.95867" lon="6.18768">
        <ele>304</ele>
        <time>2026-08-26T12:11:58+00:00</time>
      </trkpt>
      <trkpt lat="49.95861" lon="6.18756">
        <ele>300</ele>
        <time>2026-08-26T12:12:01+00:00</time>
      </trkpt>
      <trkpt lat="49.95849" lon="6.18743">
        <ele>301</ele>
        <time>2026-08-26T12:12:04+00:00</time>
      </trkpt>
      <trkpt lat="49.95852" lon="6.18742">
        <ele>296</ele>
        <time>2026-08-26T12:12:07+00:00</time>
      </trkpt>
      <trkpt lat="49.95855" lon="6.18745">
        <ele>296</ele>
        <time>2026-08-26T12:12:10+00:00</time>
      </trkpt>
      <trkpt lat="49.95867" lon="6.18741">
        <ele>297</ele>
        <time>2026-08-26T12:12:13+00:00</time>
      </trkpt>
      <trkpt lat="49.9588" lon="6.18726">
        <ele>290</ele>
        <time>2026-08-26T12:12:16+00:00</time>
      </trkpt>
      <trkpt lat="49.9589" lon="6.18707">
        <ele>286</ele>
        <time>2026-08-26T12:12:19+00:00</time>
      </trkpt>
      <trkpt lat="49.95891" lon="6.187">
        <ele>284</ele>
        <time>2026-08-26T12:12:22+00:00</time>
      </trkpt>
      <trkpt lat="49.95913" lon="6.18658">
        <ele>276</ele>
        <time>2026-08-26T12:12:25+00:00</time>
      </trkpt>
      <trkpt lat="49.95928" lon="6.18635">
        <ele>274</ele>
        <time>2026-08-26T12:12:28+00:00</time>
      </trkpt>
      <trkpt lat="49.95953" lon="6.18605">
        <ele>273</ele>
        <time>2026-08-26T12:12:31+00:00</time>
      </trkpt>
      <trkpt lat="49.95978" lon="6.18575">
        <ele>270</ele>
        <time>2026-08-26T12:12:34+00:00</time>
      </trkpt>
      <trkpt lat="49.96019" lon="6.18525">
        <ele>264</ele>
        <time>2026-08-26T12:12:37+00:00</time>
      </trkpt>
      <trkpt lat="49.96037" lon="6.18504">
        <ele>262</ele>
        <time>2026-08-26T12:12:40+00:00</time>
      </trkpt>
      <trkpt lat="49.9606" lon="6.18482">
        <ele>259</ele>
        <time>2026-08-26T12:12:43+00:00</time>
      </trkpt>
      <trkpt lat="49.961" lon="6.18446">
        <ele>256</ele>
        <time>2026-08-26T12:12:46+00:00</time>
      </trkpt>
      <trkpt lat="49.96103" lon="6.18441">
        <ele>255</ele>
        <time>2026-08-26T12:12:49+00:00</time>
      </trkpt>
      <trkpt lat="49.96103" lon="6.18438">
        <ele>252</ele>
        <time>2026-08-26T12:12:52+00:00</time>
      </trkpt>
      <trkpt lat="49.96085" lon="6.18451">
        <ele>254</ele>
        <time>2026-08-26T12:12:55+00:00</time>
      </trkpt>
      <trkpt lat="49.96059" lon="6.18459">
        <ele>252</ele>
        <time>2026-08-26T12:12:58+00:00</time>
      </trkpt>
      <trkpt lat="49.9602" lon="6.18471">
        <ele>252</ele>
        <time>2026-08-26T12:13:01+00:00</time>
      </trkpt>
      <trkpt lat="49.96005" lon="6.18473">
        <ele>251</ele>
        <time>2026-08-26T12:13:04+00:00</time>
      </trkpt>
      <trkpt lat="49.95977" lon="6.1847">
        <ele>247</ele>
        <time>2026-08-26T12:13:07+00:00</time>
      </trkpt>
      <trkpt lat="49.95966" lon="6.18473">
        <ele>242</ele>
        <time>2026-08-26T12:13:10+00:00</time>
      </trkpt>
      <trkpt lat="49.95943" lon="6.18494">
        <ele>246</ele>
        <time>2026-08-26T12:13:13+00:00</time>
      </trkpt>
      <trkpt lat="49.95921" lon="6.18515">
        <ele>245</ele>
        <time>2026-08-26T12:13:16+00:00</time>
      </trkpt>
      <trkpt lat="49.95894" lon="6.1854">
        <ele>243</ele>
        <time>2026-08-26T12:13:19+00:00</time>
      </trkpt>
      <trkpt lat="49.95868" lon="6.18564">
        <ele>243</ele>
        <time>2026-08-26T12:13:22+00:00</time>
      </trkpt>
      <trkpt lat="49.95842" lon="6.18589">
        <ele>240</ele>
        <time>2026-08-26T12:13:25+00:00</time>
      </trkpt>
      <trkpt lat="49.95806" lon="6.18622">
        <ele>236</ele>
        <time>2026-08-26T12:13:28+00:00</time>
      </trkpt>
      <trkpt lat="49.95768" lon="6.18646">
        <ele>228</ele>
        <time>2026-08-26T12:13:31+00:00</time>
      </trkpt>
      <trkpt lat="49.95759" lon="6.18656">
        <ele>225</ele>
        <time>2026-08-26T12:13:34+00:00</time>
      </trkpt>
      <trkpt lat="49.95752" lon="6.18668">
        <ele>226</ele>
        <time>2026-08-26T12:13:37+00:00</time>
      </trkpt>
      <trkpt lat="49.95747" lon="6.18689">
        <ele>225</ele>
        <time>2026-08-26T12:13:40+00:00</time>
      </trkpt>
      <trkpt lat="49.95742" lon="6.18697">
        <ele>226</ele>
        <time>2026-08-26T12:13:43+00:00</time>
      </trkpt>
      <trkpt lat="49.95739" lon="6.18706">
        <ele>225</ele>
        <time>2026-08-26T12:13:46+00:00</time>
      </trkpt>
      <trkpt lat="49.95737" lon="6.18719">
        <ele>225</ele>
        <time>2026-08-26T12:13:49+00:00</time>
      </trkpt>
      <trkpt lat="49.95733" lon="6.18728">
        <ele>225</ele>
        <time>2026-08-26T12:13:52+00:00</time>
      </trkpt>
      <trkpt lat="49.95733" lon="6.1875">
        <ele>227</ele>
        <time>2026-08-26T12:13:55+00:00</time>
      </trkpt>
      <trkpt lat="49.95729" lon="6.1877">
        <ele>225</ele>
        <time>2026-08-26T12:13:58+00:00</time>
      </trkpt>
      <trkpt lat="49.9572" lon="6.18797">
        <ele>225</ele>
        <time>2026-08-26T12:14:01+00:00</time>
      </trkpt>
      <trkpt lat="49.95718" lon="6.18814">
        <ele>225</ele>
        <time>2026-08-26T12:14:04+00:00</time>
      </trkpt>
      <trkpt lat="49.95718" lon="6.1884">
        <ele>226</ele>
        <time>2026-08-26T12:14:07+00:00</time>
      </trkpt>
      <trkpt lat="49.9572" lon="6.18855">
        <ele>226</ele>
        <time>2026-08-26T12:14:10+00:00</time>
      </trkpt>
      <trkpt lat="49.95719" lon="6.18867">
        <ele>226</ele>
        <time>2026-08-26T12:14:13+00:00</time>
      </trkpt>
      <trkpt lat="49.95716" lon="6.18872">
        <ele>227</ele>
        <time>2026-08-26T12:14:16+00:00</time>
      </trkpt>
      <trkpt lat="49.95716" lon="6.18882">
        <ele>229</ele>
        <time>2026-08-26T12:14:19+00:00</time>
      </trkpt>
      <trkpt lat="49.95711" lon="6.18893">
        <ele>229</ele>
        <time>2026-08-26T12:14:22+00:00</time>
      </trkpt>
      <trkpt lat="49.957" lon="6.18902">
        <ele>229</ele>
        <time>2026-08-26T12:14:25+00:00</time>
      </trkpt>
      <trkpt lat="49.95679" lon="6.18911">
        <ele>230</ele>
        <time>2026-08-26T12:14:28+00:00</time>
      </trkpt>
      <trkpt lat="49.95661" lon="6.18914">
        <ele>229</ele>
        <time>2026-08-26T12:14:31+00:00</time>
      </trkpt>
      <trkpt lat="49.95639" lon="6.1891">
        <ele>229</ele>
        <time>2026-08-26T12:14:34+00:00</time>
      </trkpt>
      <trkpt lat="49.95622" lon="6.18903">
        <ele>230</ele>
        <time>2026-08-26T12:14:37+00:00</time>
      </trkpt>
      <trkpt lat="49.95601" lon="6.18888">
        <ele>230</ele>
        <time>2026-08-26T12:14:40+00:00</time>
      </trkpt>
      <trkpt lat="49.95582" lon="6.18867">
        <ele>232</ele>
        <time>2026-08-26T12:14:43+00:00</time>
      </trkpt>
      <trkpt lat="49.95566" lon="6.18845">
        <ele>235</ele>
        <time>2026-08-26T12:14:46+00:00</time>
      </trkpt>
      <trkpt lat="49.95549" lon="6.18822">
        <ele>236</ele>
        <time>2026-08-26T12:14:49+00:00</time>
      </trkpt>
      <trkpt lat="49.95528" lon="6.18791">
        <ele>232</ele>
        <time>2026-08-26T12:14:52+00:00</time>
      </trkpt>
      <trkpt lat="49.95487" lon="6.18729">
        <ele>230</ele>
        <time>2026-08-26T12:14:55+00:00</time>
      </trkpt>
      <trkpt lat="49.95463" lon="6.18695">
        <ele>233</ele>
        <time>2026-08-26T12:14:58+00:00</time>
      </trkpt>
      <trkpt lat="49.95439" lon="6.18662">
        <ele>232</ele>
        <time>2026-08-26T12:15:01+00:00</time>
      </trkpt>
      <trkpt lat="49.95392" lon="6.18597">
        <ele>232</ele>
        <time>2026-08-26T12:15:04+00:00</time>
      </trkpt>
      <trkpt lat="49.95376" lon="6.18563">
        <ele>237</ele>
        <time>2026-08-26T12:15:07+00:00</time>
      </trkpt>
      <trkpt lat="49.9535" lon="6.18507">
        <ele>239</ele>
        <time>2026-08-26T12:15:10+00:00</time>
      </trkpt>
      <trkpt lat="49.95339" lon="6.18476">
        <ele>237</ele>
        <time>2026-08-26T12:15:13+00:00</time>
      </trkpt>
      <trkpt lat="49.95327" lon="6.18443">
        <ele>236</ele>
        <time>2026-08-26T12:15:16+00:00</time>
      </trkpt>
      <trkpt lat="49.95314" lon="6.18397">
        <ele>231</ele>
        <time>2026-08-26T12:15:19+00:00</time>
      </trkpt>
      <trkpt lat="49.953" lon="6.18352">
        <ele>230</ele>
        <time>2026-08-26T12:15:22+00:00</time>
      </trkpt>
      <trkpt lat="49.95275" lon="6.18266">
        <ele>230</ele>
        <time>2026-08-26T12:15:25+00:00</time>
      </trkpt>
      <trkpt lat="49.95262" lon="6.18225">
        <ele>231</ele>
        <time>2026-08-26T12:15:28+00:00</time>
      </trkpt>
      <trkpt lat="49.9525" lon="6.18183">
        <ele>230</ele>
        <time>2026-08-26T12:15:31+00:00</time>
      </trkpt>
      <trkpt lat="49.95236" lon="6.18138">
        <ele>230</ele>
        <time>2026-08-26T12:15:34+00:00</time>
      </trkpt>
      <trkpt lat="49.95224" lon="6.18103">
        <ele>230</ele>
        <time>2026-08-26T12:15:37+00:00</time>
      </trkpt>
      <trkpt lat="49.95207" lon="6.18052">
        <ele>229</ele>
        <time>2026-08-26T12:15:40+00:00</time>
      </trkpt>
      <trkpt lat="49.95203" lon="6.18028">
        <ele>229</ele>
        <time>2026-08-26T12:15:43+00:00</time>
      </trkpt>
      <trkpt lat="49.95202" lon="6.18001">
        <ele>229</ele>
        <time>2026-08-26T12:15:46+00:00</time>
      </trkpt>
      <trkpt lat="49.95203" lon="6.17976">
        <ele>228</ele>
        <time>2026-08-26T12:15:49+00:00</time>
      </trkpt>
      <trkpt lat="49.95207" lon="6.17951">
        <ele>229</ele>
        <time>2026-08-26T12:15:52+00:00</time>
      </trkpt>
      <trkpt lat="49.95222" lon="6.17917">
        <ele>229</ele>
        <time>2026-08-26T12:15:55+00:00</time>
      </trkpt>
      <trkpt lat="49.95244" lon="6.17865">
        <ele>230</ele>
        <time>2026-08-26T12:15:58+00:00</time>
      </trkpt>
      <trkpt lat="49.95263" lon="6.17824">
        <ele>232</ele>
        <time>2026-08-26T12:16:01+00:00</time>
      </trkpt>
      <trkpt lat="49.95276" lon="6.17797">
        <ele>237</ele>
        <time>2026-08-26T12:16:04+00:00</time>
      </trkpt>
      <trkpt lat="49.9529" lon="6.17769">
        <ele>235</ele>
        <time>2026-08-26T12:16:07+00:00</time>
      </trkpt>
      <trkpt lat="49.95308" lon="6.17746">
        <ele>234</ele>
        <time>2026-08-26T12:16:10+00:00</time>
      </trkpt>
      <trkpt lat="49.95331" lon="6.17718">
        <ele>230</ele>
        <time>2026-08-26T12:16:13+00:00</time>
      </trkpt>
      <trkpt lat="49.9534" lon="6.17713">
        <ele>230</ele>
        <time>2026-08-26T12:16:16+00:00</time>
      </trkpt>
      <trkpt lat="49.95345" lon="6.1771">
        <ele>229</ele>
        <time>2026-08-26T12:16:19+00:00</time>
      </trkpt>
      <trkpt lat="49.95344" lon="6.17707">
        <ele>229</ele>
        <time>2026-08-26T12:16:22+00:00</time>
      </trkpt>
      <trkpt lat="49.95345" lon="6.1771">
        <ele>229</ele>
        <time>2026-08-26T12:16:25+00:00</time>
      </trkpt>
      <trkpt lat="49.95365" lon="6.17701">
        <ele>229</ele>
        <time>2026-08-26T12:16:28+00:00</time>
      </trkpt>
      <trkpt lat="49.95364" lon="6.17693">
        <ele>229</ele>
        <time>2026-08-26T12:16:31+00:00</time>
      </trkpt>
      <trkpt lat="49.95399" lon="6.17684">
        <ele>229</ele>
        <time>2026-08-26T12:16:34+00:00</time>
      </trkpt>
      <trkpt lat="49.95408" lon="6.17682">
        <ele>229</ele>
        <time>2026-08-26T12:16:37+00:00</time>
      </trkpt>
      <trkpt lat="49.95424" lon="6.17678">
        <ele>229</ele>
        <time>2026-08-26T12:16:40+00:00</time>
      </trkpt>
      <trkpt lat="49.95457" lon="6.17671">
        <ele>229</ele>
        <time>2026-08-26T12:16:43+00:00</time>
      </trkpt>
      <trkpt lat="49.9548" lon="6.17666">
        <ele>229</ele>
        <time>2026-08-26T12:16:46+00:00</time>
      </trkpt>
      <trkpt lat="49.95509" lon="6.1766">
        <ele>229</ele>
        <time>2026-08-26T12:16:49+00:00</time>
      </trkpt>
      <trkpt lat="49.9551" lon="6.17667">
        <ele>229</ele>
        <time>2026-08-26T12:16:52+00:00</time>
      </trkpt>
      <trkpt lat="49.95517" lon="6.17666">
        <ele>230</ele>
        <time>2026-08-26T12:16:55+00:00</time>
      </trkpt>
      <trkpt lat="49.95546" lon="6.1766">
        <ele>229</ele>
        <time>2026-08-26T12:16:58+00:00</time>
      </trkpt>
      <trkpt lat="49.95576" lon="6.17654">
        <ele>231</ele>
        <time>2026-08-26T12:17:01+00:00</time>
      </trkpt>
      <trkpt lat="49.95605" lon="6.17649">
        <ele>231</ele>
        <time>2026-08-26T12:17:04+00:00</time>
      </trkpt>
      <trkpt lat="49.95635" lon="6.17643">
        <ele>232</ele>
        <time>2026-08-26T12:17:07+00:00</time>
      </trkpt>
      <trkpt lat="49.95669" lon="6.1764">
        <ele>232</ele>
        <time>2026-08-26T12:17:10+00:00</time>
      </trkpt>
      <trkpt lat="49.95704" lon="6.17636">
        <ele>233</ele>
        <time>2026-08-26T12:17:13+00:00</time>
      </trkpt>
      <trkpt lat="49.95738" lon="6.17633">
        <ele>232</ele>
        <time>2026-08-26T12:17:16+00:00</time>
      </trkpt>
      <trkpt lat="49.958" lon="6.17627">
        <ele>232</ele>
        <time>2026-08-26T12:17:19+00:00</time>
      </trkpt>
      <trkpt lat="49.95825" lon="6.17624">
        <ele>232</ele>
        <time>2026-08-26T12:17:22+00:00</time>
      </trkpt>
      <trkpt lat="49.95838" lon="6.17622">
        <ele>232</ele>
        <time>2026-08-26T12:17:25+00:00</time>
      </trkpt>
      <trkpt lat="49.9586" lon="6.17615">
        <ele>231</ele>
        <time>2026-08-26T12:17:28+00:00</time>
      </trkpt>
      <trkpt lat="49.95895" lon="6.17605">
        <ele>231</ele>
        <time>2026-08-26T12:17:31+00:00</time>
      </trkpt>
      <trkpt lat="49.95921" lon="6.17595">
        <ele>231</ele>
        <time>2026-08-26T12:17:34+00:00</time>
      </trkpt>
      <trkpt lat="49.95966" lon="6.17579">
        <ele>232</ele>
        <time>2026-08-26T12:17:37+00:00</time>
      </trkpt>
      <trkpt lat="49.96007" lon="6.1757">
        <ele>233</ele>
        <time>2026-08-26T12:17:40+00:00</time>
      </trkpt>
      <trkpt lat="49.96042" lon="6.17567">
        <ele>233</ele>
        <time>2026-08-26T12:17:43+00:00</time>
      </trkpt>
      <trkpt lat="49.96068" lon="6.17568">
        <ele>231</ele>
        <time>2026-08-26T12:17:46+00:00</time>
      </trkpt>
      <trkpt lat="49.96108" lon="6.1757">
        <ele>231</ele>
        <time>2026-08-26T12:17:49+00:00</time>
      </trkpt>
      <trkpt lat="49.96136" lon="6.17571">
        <ele>232</ele>
        <time>2026-08-26T12:17:52+00:00</time>
      </trkpt>
      <trkpt lat="49.96147" lon="6.17567">
        <ele>229</ele>
        <time>2026-08-26T12:17:55+00:00</time>
      </trkpt>
      <trkpt lat="49.9615" lon="6.17565">
        <ele>229</ele>
        <time>2026-08-26T12:17:58+00:00</time>
      </trkpt>
      <trkpt lat="49.96164" lon="6.17553">
        <ele>233</ele>
        <time>2026-08-26T12:18:01+00:00</time>
      </trkpt>
      <trkpt lat="49.96176" lon="6.17527">
        <ele>240</ele>
        <time>2026-08-26T12:18:04+00:00</time>
      </trkpt>
      <trkpt lat="49.96183" lon="6.17495">
        <ele>247</ele>
        <time>2026-08-26T12:18:07+00:00</time>
      </trkpt>
      <trkpt lat="49.96189" lon="6.1746">
        <ele>251</ele>
        <time>2026-08-26T12:18:10+00:00</time>
      </trkpt>
      <trkpt lat="49.96197" lon="6.17418">
        <ele>250</ele>
        <time>2026-08-26T12:18:13+00:00</time>
      </trkpt>
      <trkpt lat="49.96203" lon="6.17366">
        <ele>249</ele>
        <time>2026-08-26T12:18:16+00:00</time>
      </trkpt>
      <trkpt lat="49.96204" lon="6.17327">
        <ele>249</ele>
        <time>2026-08-26T12:18:19+00:00</time>
      </trkpt>
      <trkpt lat="49.96206" lon="6.17275">
        <ele>253</ele>
        <time>2026-08-26T12:18:22+00:00</time>
      </trkpt>
      <trkpt lat="49.96214" lon="6.17227">
        <ele>256</ele>
        <time>2026-08-26T12:18:25+00:00</time>
      </trkpt>
      <trkpt lat="49.96225" lon="6.17185">
        <ele>258</ele>
        <time>2026-08-26T12:18:28+00:00</time>
      </trkpt>
      <trkpt lat="49.96236" lon="6.17143">
        <ele>258</ele>
        <time>2026-08-26T12:18:31+00:00</time>
      </trkpt>
      <trkpt lat="49.96247" lon="6.17101">
        <ele>258</ele>
        <time>2026-08-26T12:18:34+00:00</time>
      </trkpt>
      <trkpt lat="49.96254" lon="6.1708">
        <ele>258</ele>
        <time>2026-08-26T12:18:37+00:00</time>
      </trkpt>
      <trkpt lat="49.96265" lon="6.17054">
        <ele>258</ele>
        <time>2026-08-26T12:18:40+00:00</time>
      </trkpt>
      <trkpt lat="49.96267" lon="6.1705">
        <ele>260</ele>
        <time>2026-08-26T12:18:43+00:00</time>
      </trkpt>
      <trkpt lat="49.96282" lon="6.17027">
        <ele>249</ele>
        <time>2026-08-26T12:18:46+00:00</time>
      </trkpt>
      <trkpt lat="49.96299" lon="6.17002">
        <ele>244</ele>
        <time>2026-08-26T12:18:49+00:00</time>
      </trkpt>
      <trkpt lat="49.96299" lon="6.16994">
        <ele>245</ele>
        <time>2026-08-26T12:18:52+00:00</time>
      </trkpt>
      <trkpt lat="49.9631" lon="6.16979">
        <ele>238</ele>
        <time>2026-08-26T12:18:55+00:00</time>
      </trkpt>
      <trkpt lat="49.96324" lon="6.16959">
        <ele>235</ele>
        <time>2026-08-26T12:18:58+00:00</time>
      </trkpt>
      <trkpt lat="49.96322" lon="6.16956">
        <ele>229</ele>
        <time>2026-08-26T12:19:01+00:00</time>
      </trkpt>
      <trkpt lat="49.96304" lon="6.16928">
        <ele>235</ele>
        <time>2026-08-26T12:19:04+00:00</time>
      </trkpt>
      <trkpt lat="49.96302" lon="6.16925">
        <ele>232</ele>
        <time>2026-08-26T12:19:07+00:00</time>
      </trkpt>
      <trkpt lat="49.96286" lon="6.16901">
        <ele>235</ele>
        <time>2026-08-26T12:19:10+00:00</time>
      </trkpt>
      <trkpt lat="49.96268" lon="6.16874">
        <ele>240</ele>
        <time>2026-08-26T12:19:13+00:00</time>
      </trkpt>
      <trkpt lat="49.96251" lon="6.16847">
        <ele>240</ele>
        <time>2026-08-26T12:19:16+00:00</time>
      </trkpt>
      <trkpt lat="49.96231" lon="6.16814">
        <ele>243</ele>
        <time>2026-08-26T12:19:19+00:00</time>
      </trkpt>
      <trkpt lat="49.96209" lon="6.16784">
        <ele>251</ele>
        <time>2026-08-26T12:19:22+00:00</time>
      </trkpt>
      <trkpt lat="49.96187" lon="6.16754">
        <ele>254</ele>
        <time>2026-08-26T12:19:25+00:00</time>
      </trkpt>
      <trkpt lat="49.96165" lon="6.16723">
        <ele>256</ele>
        <time>2026-08-26T12:19:28+00:00</time>
      </trkpt>
      <trkpt lat="49.96153" lon="6.16711">
        <ele>257</ele>
        <time>2026-08-26T12:19:31+00:00</time>
      </trkpt>
      <trkpt lat="49.96131" lon="6.16703">
        <ele>259</ele>
        <time>2026-08-26T12:19:34+00:00</time>
      </trkpt>
      <trkpt lat="49.96131" lon="6.16716">
        <ele>263</ele>
        <time>2026-08-26T12:19:37+00:00</time>
      </trkpt>
      <trkpt lat="49.96143" lon="6.1673">
        <ele>262</ele>
        <time>2026-08-26T12:19:40+00:00</time>
      </trkpt>
      <trkpt lat="49.96164" lon="6.16769">
        <ele>272</ele>
        <time>2026-08-26T12:19:43+00:00</time>
      </trkpt>
      <trkpt lat="49.96171" lon="6.16786">
        <ele>275</ele>
        <time>2026-08-26T12:19:46+00:00</time>
      </trkpt>
      <trkpt lat="49.96179" lon="6.16815">
        <ele>274</ele>
        <time>2026-08-26T12:19:49+00:00</time>
      </trkpt>
      <trkpt lat="49.96192" lon="6.16858">
        <ele>277</ele>
        <time>2026-08-26T12:19:52+00:00</time>
      </trkpt>
      <trkpt lat="49.96202" lon="6.16895">
        <ele>286</ele>
        <time>2026-08-26T12:19:55+00:00</time>
      </trkpt>
      <trkpt lat="49.96217" lon="6.16951">
        <ele>293</ele>
        <time>2026-08-26T12:19:58+00:00</time>
      </trkpt>
      <trkpt lat="49.96217" lon="6.16966">
        <ele>295</ele>
        <time>2026-08-26T12:20:01+00:00</time>
      </trkpt>
      <trkpt lat="49.96209" lon="6.16983">
        <ele>301</ele>
        <time>2026-08-26T12:20:04+00:00</time>
      </trkpt>
      <trkpt lat="49.96203" lon="6.17009">
        <ele>301</ele>
        <time>2026-08-26T12:20:07+00:00</time>
      </trkpt>
      <trkpt lat="49.96199" lon="6.17015">
        <ele>305</ele>
        <time>2026-08-26T12:20:10+00:00</time>
      </trkpt>
      <trkpt lat="49.96187" lon="6.17025">
        <ele>306</ele>
        <time>2026-08-26T12:20:13+00:00</time>
      </trkpt>
      <trkpt lat="49.96159" lon="6.17054">
        <ele>306</ele>
        <time>2026-08-26T12:20:16+00:00</time>
      </trkpt>
      <trkpt lat="49.96153" lon="6.17064">
        <ele>306</ele>
        <time>2026-08-26T12:20:19+00:00</time>
      </trkpt>
      <trkpt lat="49.96154" lon="6.17074">
        <ele>306</ele>
        <time>2026-08-26T12:20:22+00:00</time>
      </trkpt>
      <trkpt lat="49.96159" lon="6.17079">
        <ele>306</ele>
        <time>2026-08-26T12:20:25+00:00</time>
      </trkpt>
      <trkpt lat="49.96161" lon="6.17085">
        <ele>306</ele>
        <time>2026-08-26T12:20:28+00:00</time>
      </trkpt>
      <trkpt lat="49.96161" lon="6.17089">
        <ele>306</ele>
        <time>2026-08-26T12:20:31+00:00</time>
      </trkpt>
      <trkpt lat="49.96154" lon="6.17095">
        <ele>307</ele>
        <time>2026-08-26T12:20:34+00:00</time>
      </trkpt>
      <trkpt lat="49.96147" lon="6.17098">
        <ele>307</ele>
        <time>2026-08-26T12:20:37+00:00</time>
      </trkpt>
      <trkpt lat="49.96143" lon="6.17099">
        <ele>307</ele>
        <time>2026-08-26T12:20:40+00:00</time>
      </trkpt>
      <trkpt lat="49.9614" lon="6.17111">
        <ele>308</ele>
        <time>2026-08-26T12:20:43+00:00</time>
      </trkpt>
      <trkpt lat="49.96134" lon="6.17117">
        <ele>308</ele>
        <time>2026-08-26T12:20:46+00:00</time>
      </trkpt>
      <trkpt lat="49.96128" lon="6.17118">
        <ele>309</ele>
        <time>2026-08-26T12:20:49+00:00</time>
      </trkpt>
      <trkpt lat="49.96123" lon="6.17114">
        <ele>309</ele>
        <time>2026-08-26T12:20:52+00:00</time>
      </trkpt>
      <trkpt lat="49.9611" lon="6.17093">
        <ele>312</ele>
        <time>2026-08-26T12:20:55+00:00</time>
      </trkpt>
      <trkpt lat="49.96113" lon="6.17049">
        <ele>315</ele>
        <time>2026-08-26T12:20:58+00:00</time>
      </trkpt>
      <trkpt lat="49.96116" lon="6.17029">
        <ele>316</ele>
        <time>2026-08-26T12:21:01+00:00</time>
      </trkpt>
      <trkpt lat="49.96121" lon="6.17008">
        <ele>320</ele>
        <time>2026-08-26T12:21:04+00:00</time>
      </trkpt>
      <trkpt lat="49.9613" lon="6.16982">
        <ele>324</ele>
        <time>2026-08-26T12:21:07+00:00</time>
      </trkpt>
      <trkpt lat="49.96147" lon="6.16948">
        <ele>326</ele>
        <time>2026-08-26T12:21:10+00:00</time>
      </trkpt>
      <trkpt lat="49.96147" lon="6.16943">
        <ele>326</ele>
        <time>2026-08-26T12:21:13+00:00</time>
      </trkpt>
      <trkpt lat="49.96146" lon="6.16942">
        <ele>326</ele>
        <time>2026-08-26T12:21:16+00:00</time>
      </trkpt>
      <trkpt lat="49.96144" lon="6.16939">
        <ele>328</ele>
        <time>2026-08-26T12:21:19+00:00</time>
      </trkpt>
      <trkpt lat="49.9614" lon="6.16939">
        <ele>331</ele>
        <time>2026-08-26T12:21:22+00:00</time>
      </trkpt>
      <trkpt lat="49.96124" lon="6.16968">
        <ele>327</ele>
        <time>2026-08-26T12:21:25+00:00</time>
      </trkpt>
      <trkpt lat="49.96113" lon="6.1698">
        <ele>327</ele>
        <time>2026-08-26T12:21:28+00:00</time>
      </trkpt>
      <trkpt lat="49.96101" lon="6.16986">
        <ele>327</ele>
        <time>2026-08-26T12:21:31+00:00</time>
      </trkpt>
      <trkpt lat="49.96077" lon="6.16984">
        <ele>329</ele>
        <time>2026-08-26T12:21:34+00:00</time>
      </trkpt>
      <trkpt lat="49.96055" lon="6.16972">
        <ele>329</ele>
        <time>2026-08-26T12:21:37+00:00</time>
      </trkpt>
      <trkpt lat="49.96031" lon="6.16949">
        <ele>334</ele>
        <time>2026-08-26T12:21:40+00:00</time>
      </trkpt>
      <trkpt lat="49.95985" lon="6.16906">
        <ele>339</ele>
        <time>2026-08-26T12:21:43+00:00</time>
      </trkpt>
      <trkpt lat="49.95957" lon="6.16882">
        <ele>343</ele>
        <time>2026-08-26T12:21:46+00:00</time>
      </trkpt>
      <trkpt lat="49.95944" lon="6.16877">
        <ele>345</ele>
        <time>2026-08-26T12:21:49+00:00</time>
      </trkpt>
      <trkpt lat="49.95924" lon="6.16876">
        <ele>347</ele>
        <time>2026-08-26T12:21:52+00:00</time>
      </trkpt>
      <trkpt lat="49.95897" lon="6.16874">
        <ele>357</ele>
        <time>2026-08-26T12:21:55+00:00</time>
      </trkpt>
      <trkpt lat="49.95879" lon="6.16869">
        <ele>365</ele>
        <time>2026-08-26T12:21:58+00:00</time>
      </trkpt>
      <trkpt lat="49.9585" lon="6.16866">
        <ele>367</ele>
        <time>2026-08-26T12:22:01+00:00</time>
      </trkpt>
      <trkpt lat="49.95829" lon="6.16877">
        <ele>366</ele>
        <time>2026-08-26T12:22:04+00:00</time>
      </trkpt>
      <trkpt lat="49.95815" lon="6.16888">
        <ele>366</ele>
        <time>2026-08-26T12:22:07+00:00</time>
      </trkpt>
      <trkpt lat="49.95814" lon="6.16889">
        <ele>366</ele>
        <time>2026-08-26T12:22:10+00:00</time>
      </trkpt>
      <trkpt lat="49.95808" lon="6.16887">
        <ele>366</ele>
        <time>2026-08-26T12:22:13+00:00</time>
      </trkpt>
      <trkpt lat="49.95808" lon="6.16882">
        <ele>366</ele>
        <time>2026-08-26T12:22:16+00:00</time>
      </trkpt>
      <trkpt lat="49.95809" lon="6.16877">
        <ele>369</ele>
        <time>2026-08-26T12:22:19+00:00</time>
      </trkpt>
      <trkpt lat="49.95835" lon="6.16855">
        <ele>368</ele>
        <time>2026-08-26T12:22:22+00:00</time>
      </trkpt>
      <trkpt lat="49.95866" lon="6.16837">
        <ele>371</ele>
        <time>2026-08-26T12:22:25+00:00</time>
      </trkpt>
      <trkpt lat="49.95872" lon="6.16829">
        <ele>366</ele>
        <time>2026-08-26T12:22:28+00:00</time>
      </trkpt>
      <trkpt lat="49.95874" lon="6.1682">
        <ele>366</ele>
        <time>2026-08-26T12:22:31+00:00</time>
      </trkpt>
      <trkpt lat="49.95851" lon="6.16811">
        <ele>373</ele>
        <time>2026-08-26T12:22:34+00:00</time>
      </trkpt>
      <trkpt lat="49.95841" lon="6.16803">
        <ele>375</ele>
        <time>2026-08-26T12:22:37+00:00</time>
      </trkpt>
      <trkpt lat="49.95826" lon="6.16791">
        <ele>379</ele>
        <time>2026-08-26T12:22:40+00:00</time>
      </trkpt>
      <trkpt lat="49.95818" lon="6.16779">
        <ele>380</ele>
        <time>2026-08-26T12:22:43+00:00</time>
      </trkpt>
      <trkpt lat="49.95806" lon="6.16765">
        <ele>382</ele>
        <time>2026-08-26T12:22:46+00:00</time>
      </trkpt>
      <trkpt lat="49.95788" lon="6.16742">
        <ele>385</ele>
        <time>2026-08-26T12:22:49+00:00</time>
      </trkpt>
      <trkpt lat="49.95765" lon="6.16713">
        <ele>389</ele>
        <time>2026-08-26T12:22:52+00:00</time>
      </trkpt>
      <trkpt lat="49.95743" lon="6.16684">
        <ele>392</ele>
        <time>2026-08-26T12:22:55+00:00</time>
      </trkpt>
      <trkpt lat="49.95718" lon="6.16652">
        <ele>392</ele>
        <time>2026-08-26T12:22:58+00:00</time>
      </trkpt>
      <trkpt lat="49.95704" lon="6.16632">
        <ele>392</ele>
        <time>2026-08-26T12:23:01+00:00</time>
      </trkpt>
      <trkpt lat="49.95698" lon="6.16619">
        <ele>393</ele>
        <time>2026-08-26T12:23:04+00:00</time>
      </trkpt>
      <trkpt lat="49.95689" lon="6.16594">
        <ele>394</ele>
        <time>2026-08-26T12:23:07+00:00</time>
      </trkpt>
      <trkpt lat="49.95679" lon="6.16566">
        <ele>397</ele>
        <time>2026-08-26T12:23:10+00:00</time>
      </trkpt>
      <trkpt lat="49.95666" lon="6.16541">
        <ele>400</ele>
        <time>2026-08-26T12:23:13+00:00</time>
      </trkpt>
      <trkpt lat="49.95643" lon="6.16508">
        <ele>402</ele>
        <time>2026-08-26T12:23:16+00:00</time>
      </trkpt>
      <trkpt lat="49.95618" lon="6.16484">
        <ele>404</ele>
        <time>2026-08-26T12:23:19+00:00</time>
      </trkpt>
      <trkpt lat="49.95592" lon="6.16459">
        <ele>404</ele>
        <time>2026-08-26T12:23:22+00:00</time>
      </trkpt>
      <trkpt lat="49.95562" lon="6.1643">
        <ele>404</ele>
        <time>2026-08-26T12:23:25+00:00</time>
      </trkpt>
      <trkpt lat="49.95539" lon="6.16415">
        <ele>405</ele>
        <time>2026-08-26T12:23:28+00:00</time>
      </trkpt>
      <trkpt lat="49.95506" lon="6.16394">
        <ele>409</ele>
        <time>2026-08-26T12:23:31+00:00</time>
      </trkpt>
      <trkpt lat="49.95496" lon="6.16391">
        <ele>409</ele>
        <time>2026-08-26T12:23:34+00:00</time>
      </trkpt>
      <trkpt lat="49.95478" lon="6.16375">
        <ele>410</ele>
        <time>2026-08-26T12:23:37+00:00</time>
      </trkpt>
      <trkpt lat="49.95459" lon="6.16351">
        <ele>411</ele>
        <time>2026-08-26T12:23:40+00:00</time>
      </trkpt>
      <trkpt lat="49.95435" lon="6.16319">
        <ele>415</ele>
        <time>2026-08-26T12:23:43+00:00</time>
      </trkpt>
      <trkpt lat="49.95402" lon="6.16281">
        <ele>422</ele>
        <time>2026-08-26T12:23:46+00:00</time>
      </trkpt>
      <trkpt lat="49.95393" lon="6.16269">
        <ele>425</ele>
        <time>2026-08-26T12:23:49+00:00</time>
      </trkpt>
      <trkpt lat="49.95392" lon="6.16263">
        <ele>425</ele>
        <time>2026-08-26T12:23:52+00:00</time>
      </trkpt>
      <trkpt lat="49.95391" lon="6.16245">
        <ele>423</ele>
        <time>2026-08-26T12:23:55+00:00</time>
      </trkpt>
      <trkpt lat="49.95388" lon="6.1623">
        <ele>425</ele>
        <time>2026-08-26T12:23:58+00:00</time>
      </trkpt>
      <trkpt lat="49.95382" lon="6.16211">
        <ele>424</ele>
        <time>2026-08-26T12:24:01+00:00</time>
      </trkpt>
      <trkpt lat="49.95373" lon="6.16191">
        <ele>425</ele>
        <time>2026-08-26T12:24:04+00:00</time>
      </trkpt>
      <trkpt lat="49.95357" lon="6.16165">
        <ele>430</ele>
        <time>2026-08-26T12:24:07+00:00</time>
      </trkpt>
      <trkpt lat="49.95328" lon="6.16117">
        <ele>441</ele>
        <time>2026-08-26T12:24:10+00:00</time>
      </trkpt>
      <trkpt lat="49.95311" lon="6.16082">
        <ele>448</ele>
        <time>2026-08-26T12:24:13+00:00</time>
      </trkpt>
      <trkpt lat="49.95297" lon="6.16031">
        <ele>461</ele>
        <time>2026-08-26T12:24:16+00:00</time>
      </trkpt>
      <trkpt lat="49.95291" lon="6.15995">
        <ele>461</ele>
        <time>2026-08-26T12:24:19+00:00</time>
      </trkpt>
      <trkpt lat="49.95284" lon="6.15951">
        <ele>462</ele>
        <time>2026-08-26T12:24:22+00:00</time>
      </trkpt>
      <trkpt lat="49.95275" lon="6.1591">
        <ele>463</ele>
        <time>2026-08-26T12:24:25+00:00</time>
      </trkpt>
      <trkpt lat="49.95258" lon="6.15837">
        <ele>463</ele>
        <time>2026-08-26T12:24:28+00:00</time>
      </trkpt>
      <trkpt lat="49.9525" lon="6.15788">
        <ele>458</ele>
        <time>2026-08-26T12:24:31+00:00</time>
      </trkpt>
      <trkpt lat="49.95254" lon="6.15767">
        <ele>458</ele>
        <time>2026-08-26T12:24:34+00:00</time>
      </trkpt>
      <trkpt lat="49.95261" lon="6.15755">
        <ele>457</ele>
        <time>2026-08-26T12:24:37+00:00</time>
      </trkpt>
      <trkpt lat="49.95281" lon="6.15739">
        <ele>457</ele>
        <time>2026-08-26T12:24:40+00:00</time>
      </trkpt>
      <trkpt lat="49.95285" lon="6.1573">
        <ele>457</ele>
        <time>2026-08-26T12:24:43+00:00</time>
      </trkpt>
      <trkpt lat="49.95285" lon="6.1573">
        <ele>457</ele>
        <time>2026-08-26T12:24:46+00:00</time>
      </trkpt>
      <trkpt lat="49.9527" lon="6.15717">
        <ele>458</ele>
        <time>2026-08-26T12:24:49+00:00</time>
      </trkpt>
      <trkpt lat="49.95258" lon="6.15702">
        <ele>459</ele>
        <time>2026-08-26T12:24:52+00:00</time>
      </trkpt>
      <trkpt lat="49.95241" lon="6.15676">
        <ele>462</ele>
        <time>2026-08-26T12:24:55+00:00</time>
      </trkpt>
      <trkpt lat="49.95224" lon="6.15649">
        <ele>463</ele>
        <time>2026-08-26T12:24:58+00:00</time>
      </trkpt>
      <trkpt lat="49.95206" lon="6.15622">
        <ele>464</ele>
        <time>2026-08-26T12:25:01+00:00</time>
      </trkpt>
      <trkpt lat="49.95194" lon="6.15608">
        <ele>464</ele>
        <time>2026-08-26T12:25:04+00:00</time>
      </trkpt>
      <trkpt lat="49.95172" lon="6.15588">
        <ele>465</ele>
        <time>2026-08-26T12:25:07+00:00</time>
      </trkpt>
      <trkpt lat="49.95162" lon="6.15583">
        <ele>466</ele>
        <time>2026-08-26T12:25:10+00:00</time>
      </trkpt>
      <trkpt lat="49.95155" lon="6.15583">
        <ele>467</ele>
        <time>2026-08-26T12:25:13+00:00</time>
      </trkpt>
      <trkpt lat="49.95149" lon="6.15588">
        <ele>467</ele>
        <time>2026-08-26T12:25:16+00:00</time>
      </trkpt>
      <trkpt lat="49.95145" lon="6.15596">
        <ele>468</ele>
        <time>2026-08-26T12:25:19+00:00</time>
      </trkpt>
      <trkpt lat="49.95143" lon="6.15609">
        <ele>468</ele>
        <time>2026-08-26T12:25:22+00:00</time>
      </trkpt>
      <trkpt lat="49.95143" lon="6.15628">
        <ele>470</ele>
        <time>2026-08-26T12:25:25+00:00</time>
      </trkpt>
      <trkpt lat="49.95148" lon="6.15668">
        <ele>472</ele>
        <time>2026-08-26T12:25:28+00:00</time>
      </trkpt>
      <trkpt lat="49.95152" lon="6.15708">
        <ele>473</ele>
        <time>2026-08-26T12:25:31+00:00</time>
      </trkpt>
      <trkpt lat="49.95158" lon="6.15759">
        <ele>476</ele>
        <time>2026-08-26T12:25:34+00:00</time>
      </trkpt>
      <trkpt lat="49.95158" lon="6.15783">
        <ele>477</ele>
        <time>2026-08-26T12:25:37+00:00</time>
      </trkpt>
      <trkpt lat="49.95156" lon="6.15806">
        <ele>477</ele>
        <time>2026-08-26T12:25:40+00:00</time>
      </trkpt>
      <trkpt lat="49.95143" lon="6.15861">
        <ele>480</ele>
        <time>2026-08-26T12:25:43+00:00</time>
      </trkpt>
      <trkpt lat="49.95138" lon="6.15879">
        <ele>482</ele>
        <time>2026-08-26T12:25:46+00:00</time>
      </trkpt>
      <trkpt lat="49.95135" lon="6.15886">
        <ele>482</ele>
        <time>2026-08-26T12:25:49+00:00</time>
      </trkpt>
      <trkpt lat="49.95124" lon="6.15909">
        <ele>484</ele>
        <time>2026-08-26T12:25:52+00:00</time>
      </trkpt>
      <trkpt lat="49.95113" lon="6.15921">
        <ele>485</ele>
        <time>2026-08-26T12:25:55+00:00</time>
      </trkpt>
      <trkpt lat="49.95101" lon="6.1593">
        <ele>486</ele>
        <time>2026-08-26T12:25:58+00:00</time>
      </trkpt>
      <trkpt lat="49.95083" lon="6.15937">
        <ele>487</ele>
        <time>2026-08-26T12:26:01+00:00</time>
      </trkpt>
      <trkpt lat="49.95075" lon="6.15938">
        <ele>488</ele>
        <time>2026-08-26T12:26:04+00:00</time>
      </trkpt>
      <trkpt lat="49.95068" lon="6.15936">
        <ele>489</ele>
        <time>2026-08-26T12:26:07+00:00</time>
      </trkpt>
      <trkpt lat="49.9506" lon="6.15932">
        <ele>490</ele>
        <time>2026-08-26T12:26:10+00:00</time>
      </trkpt>
      <trkpt lat="49.95053" lon="6.15923">
        <ele>490</ele>
        <time>2026-08-26T12:26:13+00:00</time>
      </trkpt>
      <trkpt lat="49.95047" lon="6.15911">
        <ele>491</ele>
        <time>2026-08-26T12:26:16+00:00</time>
      </trkpt>
      <trkpt lat="49.95041" lon="6.15894">
        <ele>491</ele>
        <time>2026-08-26T12:26:19+00:00</time>
      </trkpt>
      <trkpt lat="49.95031" lon="6.15859">
        <ele>493</ele>
        <time>2026-08-26T12:26:22+00:00</time>
      </trkpt>
      <trkpt lat="49.95013" lon="6.15791">
        <ele>495</ele>
        <time>2026-08-26T12:26:25+00:00</time>
      </trkpt>
      <trkpt lat="49.95" lon="6.15747">
        <ele>496</ele>
        <time>2026-08-26T12:26:28+00:00</time>
      </trkpt>
      <trkpt lat="49.94986" lon="6.15711">
        <ele>497</ele>
        <time>2026-08-26T12:26:31+00:00</time>
      </trkpt>
      <trkpt lat="49.94964" lon="6.15653">
        <ele>498</ele>
        <time>2026-08-26T12:26:34+00:00</time>
      </trkpt>
      <trkpt lat="49.94953" lon="6.15616">
        <ele>498</ele>
        <time>2026-08-26T12:26:37+00:00</time>
      </trkpt>
      <trkpt lat="49.94935" lon="6.15557">
        <ele>500</ele>
        <time>2026-08-26T12:26:40+00:00</time>
      </trkpt>
      <trkpt lat="49.94922" lon="6.15511">
        <ele>500</ele>
        <time>2026-08-26T12:26:43+00:00</time>
      </trkpt>
      <trkpt lat="49.9491" lon="6.15466">
        <ele>501</ele>
        <time>2026-08-26T12:26:46+00:00</time>
      </trkpt>
      <trkpt lat="49.94888" lon="6.15386">
        <ele>502</ele>
        <time>2026-08-26T12:26:49+00:00</time>
      </trkpt>
      <trkpt lat="49.94877" lon="6.15339">
        <ele>504</ele>
        <time>2026-08-26T12:26:52+00:00</time>
      </trkpt>
      <trkpt lat="49.94865" lon="6.15292">
        <ele>505</ele>
        <time>2026-08-26T12:26:55+00:00</time>
      </trkpt>
      <trkpt lat="49.94844" lon="6.15204">
        <ele>510</ele>
        <time>2026-08-26T12:26:58+00:00</time>
      </trkpt>
      <trkpt lat="49.94833" lon="6.15162">
        <ele>511</ele>
        <time>2026-08-26T12:27:01+00:00</time>
      </trkpt>
      <trkpt lat="49.94821" lon="6.15119">
        <ele>512</ele>
        <time>2026-08-26T12:27:04+00:00</time>
      </trkpt>
      <trkpt lat="49.94809" lon="6.15072">
        <ele>512</ele>
        <time>2026-08-26T12:27:07+00:00</time>
      </trkpt>
      <trkpt lat="49.94798" lon="6.15038">
        <ele>512</ele>
        <time>2026-08-26T12:27:10+00:00</time>
      </trkpt>
      <trkpt lat="49.94784" lon="6.14994">
        <ele>512</ele>
        <time>2026-08-26T12:27:13+00:00</time>
      </trkpt>
      <trkpt lat="49.94769" lon="6.14955">
        <ele>512</ele>
        <time>2026-08-26T12:27:16+00:00</time>
      </trkpt>
      <trkpt lat="49.94745" lon="6.14904">
        <ele>513</ele>
        <time>2026-08-26T12:27:19+00:00</time>
      </trkpt>
      <trkpt lat="49.9472" lon="6.14869">
        <ele>513</ele>
        <time>2026-08-26T12:27:22+00:00</time>
      </trkpt>
      <trkpt lat="49.94696" lon="6.14844">
        <ele>513</ele>
        <time>2026-08-26T12:27:25+00:00</time>
      </trkpt>
      <trkpt lat="49.94688" lon="6.14836">
        <ele>513</ele>
        <time>2026-08-26T12:27:28+00:00</time>
      </trkpt>
      <trkpt lat="49.94693" lon="6.14832">
        <ele>513</ele>
        <time>2026-08-26T12:27:31+00:00</time>
      </trkpt>
      <trkpt lat="49.94698" lon="6.1481">
        <ele>513</ele>
        <time>2026-08-26T12:27:34+00:00</time>
      </trkpt>
      <trkpt lat="49.94702" lon="6.14782">
        <ele>512</ele>
        <time>2026-08-26T12:27:37+00:00</time>
      </trkpt>
      <trkpt lat="49.94703" lon="6.14763">
        <ele>511</ele>
        <time>2026-08-26T12:27:40+00:00</time>
      </trkpt>
      <trkpt lat="49.94701" lon="6.14738">
        <ele>510</ele>
        <time>2026-08-26T12:27:43+00:00</time>
      </trkpt>
      <trkpt lat="49.94694" lon="6.14726">
        <ele>511</ele>
        <time>2026-08-26T12:27:46+00:00</time>
      </trkpt>
      <trkpt lat="49.94694" lon="6.14717">
        <ele>510</ele>
        <time>2026-08-26T12:27:49+00:00</time>
      </trkpt>
      <trkpt lat="49.94692" lon="6.14691">
        <ele>509</ele>
        <time>2026-08-26T12:27:52+00:00</time>
      </trkpt>
      <trkpt lat="49.9469" lon="6.1466">
        <ele>508</ele>
        <time>2026-08-26T12:27:55+00:00</time>
      </trkpt>
      <trkpt lat="49.94677" lon="6.14606">
        <ele>506</ele>
        <time>2026-08-26T12:27:58+00:00</time>
      </trkpt>
      <trkpt lat="49.94668" lon="6.14575">
        <ele>505</ele>
        <time>2026-08-26T12:28:01+00:00</time>
      </trkpt>
      <trkpt lat="49.94659" lon="6.14544">
        <ele>504</ele>
        <time>2026-08-26T12:28:04+00:00</time>
      </trkpt>
      <trkpt lat="49.94631" lon="6.14519">
        <ele>504</ele>
        <time>2026-08-26T12:28:07+00:00</time>
      </trkpt>
      <trkpt lat="49.94612" lon="6.14507">
        <ele>506</ele>
        <time>2026-08-26T12:28:10+00:00</time>
      </trkpt>
      <trkpt lat="49.94591" lon="6.14492">
        <ele>506</ele>
        <time>2026-08-26T12:28:13+00:00</time>
      </trkpt>
      <trkpt lat="49.9457" lon="6.14473">
        <ele>505</ele>
        <time>2026-08-26T12:28:16+00:00</time>
      </trkpt>
      <trkpt lat="49.94557" lon="6.14468">
        <ele>504</ele>
        <time>2026-08-26T12:28:19+00:00</time>
      </trkpt>
      <trkpt lat="49.94559" lon="6.14425">
        <ele>503</ele>
        <time>2026-08-26T12:28:22+00:00</time>
      </trkpt>
      <trkpt lat="49.94559" lon="6.14389">
        <ele>502</ele>
        <time>2026-08-26T12:28:25+00:00</time>
      </trkpt>
      <trkpt lat="49.94559" lon="6.1435">
        <ele>501</ele>
        <time>2026-08-26T12:28:28+00:00</time>
      </trkpt>
      <trkpt lat="49.9457" lon="6.14291">
        <ele>499</ele>
        <time>2026-08-26T12:28:31+00:00</time>
      </trkpt>
      <trkpt lat="49.94574" lon="6.1427">
        <ele>499</ele>
        <time>2026-08-26T12:28:34+00:00</time>
      </trkpt>
      <trkpt lat="49.94577" lon="6.14239">
        <ele>498</ele>
        <time>2026-08-26T12:28:37+00:00</time>
      </trkpt>
      <trkpt lat="49.94582" lon="6.14192">
        <ele>496</ele>
        <time>2026-08-26T12:28:40+00:00</time>
      </trkpt>
      <trkpt lat="49.94586" lon="6.14173">
        <ele>495</ele>
        <time>2026-08-26T12:28:43+00:00</time>
      </trkpt>
      <trkpt lat="49.94597" lon="6.14139">
        <ele>494</ele>
        <time>2026-08-26T12:28:46+00:00</time>
      </trkpt>
      <trkpt lat="49.94608" lon="6.1411">
        <ele>493</ele>
        <time>2026-08-26T12:28:49+00:00</time>
      </trkpt>
      <trkpt lat="49.9462" lon="6.1408">
        <ele>492</ele>
        <time>2026-08-26T12:28:52+00:00</time>
      </trkpt>
      <trkpt lat="49.94635" lon="6.14042">
        <ele>490</ele>
        <time>2026-08-26T12:28:55+00:00</time>
      </trkpt>
      <trkpt lat="49.94663" lon="6.1397">
        <ele>486</ele>
        <time>2026-08-26T12:28:58+00:00</time>
      </trkpt>
      <trkpt lat="49.94672" lon="6.13952">
        <ele>485</ele>
        <time>2026-08-26T12:29:01+00:00</time>
      </trkpt>
      <trkpt lat="49.94681" lon="6.13936">
        <ele>484</ele>
        <time>2026-08-26T12:29:04+00:00</time>
      </trkpt>
      <trkpt lat="49.94696" lon="6.13917">
        <ele>483</ele>
        <time>2026-08-26T12:29:07+00:00</time>
      </trkpt>
      <trkpt lat="49.94725" lon="6.13884">
        <ele>479</ele>
        <time>2026-08-26T12:29:10+00:00</time>
      </trkpt>
      <trkpt lat="49.94725" lon="6.13884">
        <ele>479</ele>
        <time>2026-08-26T12:29:13+00:00</time>
      </trkpt>
      <trkpt lat="49.94731" lon="6.13878">
        <ele>478</ele>
        <time>2026-08-26T12:29:16+00:00</time>
      </trkpt>
      <trkpt lat="49.94735" lon="6.13843">
        <ele>477</ele>
        <time>2026-08-26T12:29:19+00:00</time>
      </trkpt>
      <trkpt lat="49.9474" lon="6.13792">
        <ele>475</ele>
        <time>2026-08-26T12:29:22+00:00</time>
      </trkpt>
      <trkpt lat="49.94746" lon="6.13752">
        <ele>473</ele>
        <time>2026-08-26T12:29:25+00:00</time>
      </trkpt>
      <trkpt lat="49.94754" lon="6.13718">
        <ele>472</ele>
        <time>2026-08-26T12:29:28+00:00</time>
      </trkpt>
      <trkpt lat="49.94765" lon="6.13676">
        <ele>470</ele>
        <time>2026-08-26T12:29:31+00:00</time>
      </trkpt>
      <trkpt lat="49.94777" lon="6.13636">
        <ele>468</ele>
        <time>2026-08-26T12:29:34+00:00</time>
      </trkpt>
      <trkpt lat="49.94802" lon="6.13557">
        <ele>464</ele>
        <time>2026-08-26T12:29:37+00:00</time>
      </trkpt>
      <trkpt lat="49.94806" lon="6.13538">
        <ele>464</ele>
        <time>2026-08-26T12:29:40+00:00</time>
      </trkpt>
      <trkpt lat="49.94807" lon="6.13525">
        <ele>464</ele>
        <time>2026-08-26T12:29:43+00:00</time>
      </trkpt>
      <trkpt lat="49.94806" lon="6.13512">
        <ele>464</ele>
        <time>2026-08-26T12:29:46+00:00</time>
      </trkpt>
      <trkpt lat="49.94795" lon="6.13481">
        <ele>465</ele>
        <time>2026-08-26T12:29:49+00:00</time>
      </trkpt>
      <trkpt lat="49.94779" lon="6.13433">
        <ele>466</ele>
        <time>2026-08-26T12:29:52+00:00</time>
      </trkpt>
      <trkpt lat="49.94764" lon="6.13377">
        <ele>467</ele>
        <time>2026-08-26T12:29:55+00:00</time>
      </trkpt>
      <trkpt lat="49.94754" lon="6.13319">
        <ele>468</ele>
        <time>2026-08-26T12:29:58+00:00</time>
      </trkpt>
      <trkpt lat="49.94749" lon="6.13283">
        <ele>469</ele>
        <time>2026-08-26T12:30:01+00:00</time>
      </trkpt>
      <trkpt lat="49.94744" lon="6.1324">
        <ele>470</ele>
        <time>2026-08-26T12:30:04+00:00</time>
      </trkpt>
      <trkpt lat="49.94741" lon="6.13193">
        <ele>471</ele>
        <time>2026-08-26T12:30:07+00:00</time>
      </trkpt>
      <trkpt lat="49.94743" lon="6.1316">
        <ele>471</ele>
        <time>2026-08-26T12:30:10+00:00</time>
      </trkpt>
      <trkpt lat="49.94748" lon="6.13127">
        <ele>472</ele>
        <time>2026-08-26T12:30:13+00:00</time>
      </trkpt>
      <trkpt lat="49.94756" lon="6.13092">
        <ele>474</ele>
        <time>2026-08-26T12:30:16+00:00</time>
      </trkpt>
      <trkpt lat="49.94773" lon="6.13042">
        <ele>476</ele>
        <time>2026-08-26T12:30:19+00:00</time>
      </trkpt>
      <trkpt lat="49.94782" lon="6.13022">
        <ele>477</ele>
        <time>2026-08-26T12:30:22+00:00</time>
      </trkpt>
      <trkpt lat="49.94794" lon="6.13">
        <ele>477</ele>
        <time>2026-08-26T12:30:25+00:00</time>
      </trkpt>
      <trkpt lat="49.94812" lon="6.1297">
        <ele>477</ele>
        <time>2026-08-26T12:30:28+00:00</time>
      </trkpt>
      <trkpt lat="49.94831" lon="6.12919">
        <ele>478</ele>
        <time>2026-08-26T12:30:31+00:00</time>
      </trkpt>
      <trkpt lat="49.94833" lon="6.12912">
        <ele>478</ele>
        <time>2026-08-26T12:30:34+00:00</time>
      </trkpt>
      <trkpt lat="49.94824" lon="6.12897">
        <ele>478</ele>
        <time>2026-08-26T12:30:37+00:00</time>
      </trkpt>
      <trkpt lat="49.94797" lon="6.12845">
        <ele>478</ele>
        <time>2026-08-26T12:30:40+00:00</time>
      </trkpt>
      <trkpt lat="49.94781" lon="6.12817">
        <ele>478</ele>
        <time>2026-08-26T12:30:43+00:00</time>
      </trkpt>
      <trkpt lat="49.94771" lon="6.12805">
        <ele>478</ele>
        <time>2026-08-26T12:30:46+00:00</time>
      </trkpt>
      <trkpt lat="49.94766" lon="6.12792">
        <ele>478</ele>
        <time>2026-08-26T12:30:49+00:00</time>
      </trkpt>
      <trkpt lat="49.94755" lon="6.12763">
        <ele>478</ele>
        <time>2026-08-26T12:30:52+00:00</time>
      </trkpt>
      <trkpt lat="49.94743" lon="6.12732">
        <ele>479</ele>
        <time>2026-08-26T12:30:55+00:00</time>
      </trkpt>
      <trkpt lat="49.94734" lon="6.12716">
        <ele>481</ele>
        <time>2026-08-26T12:30:58+00:00</time>
      </trkpt>
      <trkpt lat="49.94744" lon="6.12697">
        <ele>479</ele>
        <time>2026-08-26T12:31:01+00:00</time>
      </trkpt>
      <trkpt lat="49.94755" lon="6.12677">
        <ele>479</ele>
        <time>2026-08-26T12:31:04+00:00</time>
      </trkpt>
      <trkpt lat="49.94758" lon="6.12654">
        <ele>478</ele>
        <time>2026-08-26T12:31:07+00:00</time>
      </trkpt>
      <trkpt lat="49.94757" lon="6.12621">
        <ele>477</ele>
        <time>2026-08-26T12:31:10+00:00</time>
      </trkpt>
      <trkpt lat="49.94751" lon="6.12557">
        <ele>474</ele>
        <time>2026-08-26T12:31:13+00:00</time>
      </trkpt>
      <trkpt lat="49.94743" lon="6.12516">
        <ele>474</ele>
        <time>2026-08-26T12:31:16+00:00</time>
      </trkpt>
      <trkpt lat="49.9473" lon="6.12448">
        <ele>474</ele>
        <time>2026-08-26T12:31:19+00:00</time>
      </trkpt>
      <trkpt lat="49.94724" lon="6.12396">
        <ele>472</ele>
        <time>2026-08-26T12:31:22+00:00</time>
      </trkpt>
      <trkpt lat="49.94718" lon="6.12345">
        <ele>467</ele>
        <time>2026-08-26T12:31:25+00:00</time>
      </trkpt>
      <trkpt lat="49.94713" lon="6.12293">
        <ele>466</ele>
        <time>2026-08-26T12:31:28+00:00</time>
      </trkpt>
      <trkpt lat="49.94704" lon="6.12215">
        <ele>458</ele>
        <time>2026-08-26T12:31:31+00:00</time>
      </trkpt>
      <trkpt lat="49.94707" lon="6.12171">
        <ele>458</ele>
        <time>2026-08-26T12:31:34+00:00</time>
      </trkpt>
      <trkpt lat="49.94712" lon="6.12087">
        <ele>458</ele>
        <time>2026-08-26T12:31:37+00:00</time>
      </trkpt>
      <trkpt lat="49.94712" lon="6.1205">
        <ele>458</ele>
        <time>2026-08-26T12:31:40+00:00</time>
      </trkpt>
      <trkpt lat="49.94712" lon="6.12003">
        <ele>455</ele>
        <time>2026-08-26T12:31:43+00:00</time>
      </trkpt>
      <trkpt lat="49.94711" lon="6.11961">
        <ele>455</ele>
        <time>2026-08-26T12:31:46+00:00</time>
      </trkpt>
      <trkpt lat="49.94708" lon="6.11944">
        <ele>460</ele>
        <time>2026-08-26T12:31:49+00:00</time>
      </trkpt>
      <trkpt lat="49.94703" lon="6.11915">
        <ele>454</ele>
        <time>2026-08-26T12:31:52+00:00</time>
      </trkpt>
      <trkpt lat="49.94697" lon="6.1188">
        <ele>453</ele>
        <time>2026-08-26T12:31:55+00:00</time>
      </trkpt>
      <trkpt lat="49.94687" lon="6.11843">
        <ele>451</ele>
        <time>2026-08-26T12:31:58+00:00</time>
      </trkpt>
      <trkpt lat="49.94673" lon="6.11787">
        <ele>445</ele>
        <time>2026-08-26T12:32:01+00:00</time>
      </trkpt>
      <trkpt lat="49.9466" lon="6.11751">
        <ele>440</ele>
        <time>2026-08-26T12:32:04+00:00</time>
      </trkpt>
      <trkpt lat="49.94639" lon="6.11692">
        <ele>434</ele>
        <time>2026-08-26T12:32:07+00:00</time>
      </trkpt>
      <trkpt lat="49.94628" lon="6.11656">
        <ele>422</ele>
        <time>2026-08-26T12:32:10+00:00</time>
      </trkpt>
      <trkpt lat="49.94611" lon="6.11601">
        <ele>408</ele>
        <time>2026-08-26T12:32:13+00:00</time>
      </trkpt>
      <trkpt lat="49.94604" lon="6.11581">
        <ele>404</ele>
        <time>2026-08-26T12:32:16+00:00</time>
      </trkpt>
      <trkpt lat="49.94595" lon="6.11567">
        <ele>401</ele>
        <time>2026-08-26T12:32:19+00:00</time>
      </trkpt>
      <trkpt lat="49.94584" lon="6.11554">
        <ele>397</ele>
        <time>2026-08-26T12:32:22+00:00</time>
      </trkpt>
      <trkpt lat="49.94569" lon="6.11547">
        <ele>395</ele>
        <time>2026-08-26T12:32:25+00:00</time>
      </trkpt>
      <trkpt lat="49.94553" lon="6.11539">
        <ele>394</ele>
        <time>2026-08-26T12:32:28+00:00</time>
      </trkpt>
      <trkpt lat="49.94549" lon="6.11533">
        <ele>396</ele>
        <time>2026-08-26T12:32:31+00:00</time>
      </trkpt>
      <trkpt lat="49.94547" lon="6.11529">
        <ele>393</ele>
        <time>2026-08-26T12:32:34+00:00</time>
      </trkpt>
      <trkpt lat="49.94537" lon="6.11524">
        <ele>393</ele>
        <time>2026-08-26T12:32:37+00:00</time>
      </trkpt>
      <trkpt lat="49.94519" lon="6.11521">
        <ele>393</ele>
        <time>2026-08-26T12:32:40+00:00</time>
      </trkpt>
      <trkpt lat="49.94486" lon="6.11526">
        <ele>386</ele>
        <time>2026-08-26T12:32:43+00:00</time>
      </trkpt>
      <trkpt lat="49.94473" lon="6.1153">
        <ele>391</ele>
        <time>2026-08-26T12:32:46+00:00</time>
      </trkpt>
      <trkpt lat="49.94471" lon="6.11531">
        <ele>389</ele>
        <time>2026-08-26T12:32:49+00:00</time>
      </trkpt>
      <trkpt lat="49.94453" lon="6.11535">
        <ele>390</ele>
        <time>2026-08-26T12:32:52+00:00</time>
      </trkpt>
      <trkpt lat="49.94449" lon="6.11533">
        <ele>384</ele>
        <time>2026-08-26T12:32:55+00:00</time>
      </trkpt>
      <trkpt lat="49.94445" lon="6.1153">
        <ele>389</ele>
        <time>2026-08-26T12:32:58+00:00</time>
      </trkpt>
      <trkpt lat="49.94439" lon="6.11517">
        <ele>395</ele>
        <time>2026-08-26T12:33:01+00:00</time>
      </trkpt>
      <trkpt lat="49.94432" lon="6.11522">
        <ele>393</ele>
        <time>2026-08-26T12:33:04+00:00</time>
      </trkpt>
      <trkpt lat="49.94427" lon="6.11518">
        <ele>398</ele>
        <time>2026-08-26T12:33:07+00:00</time>
      </trkpt>
      <trkpt lat="49.94419" lon="6.11518">
        <ele>401</ele>
        <time>2026-08-26T12:33:10+00:00</time>
      </trkpt>
      <trkpt lat="49.94408" lon="6.11514">
        <ele>402</ele>
        <time>2026-08-26T12:33:13+00:00</time>
      </trkpt>
      <trkpt lat="49.94407" lon="6.11511">
        <ele>402</ele>
        <time>2026-08-26T12:33:16+00:00</time>
      </trkpt>
      <trkpt lat="49.94411" lon="6.11503">
        <ele>402</ele>
        <time>2026-08-26T12:33:19+00:00</time>
      </trkpt>
      <trkpt lat="49.94404" lon="6.11491">
        <ele>405</ele>
        <time>2026-08-26T12:33:22+00:00</time>
      </trkpt>
      <trkpt lat="49.94403" lon="6.1148">
        <ele>406</ele>
        <time>2026-08-26T12:33:25+00:00</time>
      </trkpt>
      <trkpt lat="49.94397" lon="6.11467">
        <ele>409</ele>
        <time>2026-08-26T12:33:28+00:00</time>
      </trkpt>
      <trkpt lat="49.94389" lon="6.11461">
        <ele>411</ele>
        <time>2026-08-26T12:33:31+00:00</time>
      </trkpt>
      <trkpt lat="49.94375" lon="6.11446">
        <ele>414</ele>
        <time>2026-08-26T12:33:34+00:00</time>
      </trkpt>
      <trkpt lat="49.94369" lon="6.11435">
        <ele>416</ele>
        <time>2026-08-26T12:33:37+00:00</time>
      </trkpt>
      <trkpt lat="49.94351" lon="6.11408">
        <ele>416</ele>
        <time>2026-08-26T12:33:40+00:00</time>
      </trkpt>
      <trkpt lat="49.94342" lon="6.11402">
        <ele>417</ele>
        <time>2026-08-26T12:33:43+00:00</time>
      </trkpt>
      <trkpt lat="49.94339" lon="6.11397">
        <ele>417</ele>
        <time>2026-08-26T12:33:46+00:00</time>
      </trkpt>
      <trkpt lat="49.94328" lon="6.11387">
        <ele>418</ele>
        <time>2026-08-26T12:33:49+00:00</time>
      </trkpt>
      <trkpt lat="49.94325" lon="6.11381">
        <ele>418</ele>
        <time>2026-08-26T12:33:52+00:00</time>
      </trkpt>
      <trkpt lat="49.94311" lon="6.11372">
        <ele>422</ele>
        <time>2026-08-26T12:33:55+00:00</time>
      </trkpt>
      <trkpt lat="49.94301" lon="6.1135">
        <ele>428</ele>
        <time>2026-08-26T12:33:58+00:00</time>
      </trkpt>
      <trkpt lat="49.94298" lon="6.11339">
        <ele>429</ele>
        <time>2026-08-26T12:34:01+00:00</time>
      </trkpt>
      <trkpt lat="49.94288" lon="6.11318">
        <ele>430</ele>
        <time>2026-08-26T12:34:04+00:00</time>
      </trkpt>
      <trkpt lat="49.94281" lon="6.1129">
        <ele>433</ele>
        <time>2026-08-26T12:34:07+00:00</time>
      </trkpt>
      <trkpt lat="49.94276" lon="6.11283">
        <ele>434</ele>
        <time>2026-08-26T12:34:10+00:00</time>
      </trkpt>
      <trkpt lat="49.94275" lon="6.11278">
        <ele>436</ele>
        <time>2026-08-26T12:34:13+00:00</time>
      </trkpt>
      <trkpt lat="49.94272" lon="6.11277">
        <ele>436</ele>
        <time>2026-08-26T12:34:16+00:00</time>
      </trkpt>
      <trkpt lat="49.94268" lon="6.11267">
        <ele>438</ele>
        <time>2026-08-26T12:34:19+00:00</time>
      </trkpt>
      <trkpt lat="49.94262" lon="6.11245">
        <ele>443</ele>
        <time>2026-08-26T12:34:22+00:00</time>
      </trkpt>
      <trkpt lat="49.94254" lon="6.11223">
        <ele>448</ele>
        <time>2026-08-26T12:34:25+00:00</time>
      </trkpt>
      <trkpt lat="49.94249" lon="6.11216">
        <ele>450</ele>
        <time>2026-08-26T12:34:28+00:00</time>
      </trkpt>
      <trkpt lat="49.94243" lon="6.11187">
        <ele>458</ele>
        <time>2026-08-26T12:34:31+00:00</time>
      </trkpt>
      <trkpt lat="49.94236" lon="6.11154">
        <ele>460</ele>
        <time>2026-08-26T12:34:34+00:00</time>
      </trkpt>
      <trkpt lat="49.94233" lon="6.11103">
        <ele>468</ele>
        <time>2026-08-26T12:34:37+00:00</time>
      </trkpt>
      <trkpt lat="49.94233" lon="6.11079">
        <ele>470</ele>
        <time>2026-08-26T12:34:40+00:00</time>
      </trkpt>
      <trkpt lat="49.94235" lon="6.11058">
        <ele>473</ele>
        <time>2026-08-26T12:34:43+00:00</time>
      </trkpt>
      <trkpt lat="49.94243" lon="6.11033">
        <ele>478</ele>
        <time>2026-08-26T12:34:46+00:00</time>
      </trkpt>
      <trkpt lat="49.94262" lon="6.10989">
        <ele>482</ele>
        <time>2026-08-26T12:34:49+00:00</time>
      </trkpt>
      <trkpt lat="49.94276" lon="6.10951">
        <ele>484</ele>
        <time>2026-08-26T12:34:52+00:00</time>
      </trkpt>
      <trkpt lat="49.94277" lon="6.10937">
        <ele>485</ele>
        <time>2026-08-26T12:34:55+00:00</time>
      </trkpt>
      <trkpt lat="49.94274" lon="6.10925">
        <ele>485</ele>
        <time>2026-08-26T12:34:58+00:00</time>
      </trkpt>
      <trkpt lat="49.94267" lon="6.10914">
        <ele>486</ele>
        <time>2026-08-26T12:35:01+00:00</time>
      </trkpt>
      <trkpt lat="49.94241" lon="6.10886">
        <ele>487</ele>
        <time>2026-08-26T12:35:04+00:00</time>
      </trkpt>
      <trkpt lat="49.9423" lon="6.10869">
        <ele>488</ele>
        <time>2026-08-26T12:35:07+00:00</time>
      </trkpt>
      <trkpt lat="49.94222" lon="6.10852">
        <ele>487</ele>
        <time>2026-08-26T12:35:10+00:00</time>
      </trkpt>
      <trkpt lat="49.94211" lon="6.10818">
        <ele>486</ele>
        <time>2026-08-26T12:35:13+00:00</time>
      </trkpt>
      <trkpt lat="49.94202" lon="6.10764">
        <ele>484</ele>
        <time>2026-08-26T12:35:16+00:00</time>
      </trkpt>
      <trkpt lat="49.94203" lon="6.10756">
        <ele>483</ele>
        <time>2026-08-26T12:35:19+00:00</time>
      </trkpt>
      <trkpt lat="49.94208" lon="6.10739">
        <ele>483</ele>
        <time>2026-08-26T12:35:22+00:00</time>
      </trkpt>
      <trkpt lat="49.94209" lon="6.10717">
        <ele>481</ele>
        <time>2026-08-26T12:35:25+00:00</time>
      </trkpt>
      <trkpt lat="49.94206" lon="6.10696">
        <ele>479</ele>
        <time>2026-08-26T12:35:28+00:00</time>
      </trkpt>
      <trkpt lat="49.942" lon="6.10667">
        <ele>481</ele>
        <time>2026-08-26T12:35:31+00:00</time>
      </trkpt>
      <trkpt lat="49.94191" lon="6.10625">
        <ele>481</ele>
        <time>2026-08-26T12:35:34+00:00</time>
      </trkpt>
      <trkpt lat="49.9419" lon="6.10622">
        <ele>480</ele>
        <time>2026-08-26T12:35:37+00:00</time>
      </trkpt>
      <trkpt lat="49.94178" lon="6.10578">
        <ele>481</ele>
        <time>2026-08-26T12:35:40+00:00</time>
      </trkpt>
      <trkpt lat="49.94166" lon="6.10534">
        <ele>482</ele>
        <time>2026-08-26T12:35:43+00:00</time>
      </trkpt>
      <trkpt lat="49.94146" lon="6.10464">
        <ele>484</ele>
        <time>2026-08-26T12:35:46+00:00</time>
      </trkpt>
      <trkpt lat="49.94135" lon="6.10439">
        <ele>485</ele>
        <time>2026-08-26T12:35:49+00:00</time>
      </trkpt>
      <trkpt lat="49.9413" lon="6.10433">
        <ele>484</ele>
        <time>2026-08-26T12:35:52+00:00</time>
      </trkpt>
      <trkpt lat="49.94129" lon="6.10422">
        <ele>485</ele>
        <time>2026-08-26T12:35:55+00:00</time>
      </trkpt>
      <trkpt lat="49.9412" lon="6.10392">
        <ele>485</ele>
        <time>2026-08-26T12:35:58+00:00</time>
      </trkpt>
      <trkpt lat="49.94114" lon="6.10357">
        <ele>485</ele>
        <time>2026-08-26T12:36:01+00:00</time>
      </trkpt>
      <trkpt lat="49.9411" lon="6.10319">
        <ele>486</ele>
        <time>2026-08-26T12:36:04+00:00</time>
      </trkpt>
      <trkpt lat="49.94105" lon="6.10269">
        <ele>488</ele>
        <time>2026-08-26T12:36:07+00:00</time>
      </trkpt>
      <trkpt lat="49.94103" lon="6.10228">
        <ele>488</ele>
        <time>2026-08-26T12:36:10+00:00</time>
      </trkpt>
      <trkpt lat="49.941" lon="6.10163">
        <ele>488</ele>
        <time>2026-08-26T12:36:13+00:00</time>
      </trkpt>
      <trkpt lat="49.941" lon="6.10122">
        <ele>488</ele>
        <time>2026-08-26T12:36:16+00:00</time>
      </trkpt>
      <trkpt lat="49.94101" lon="6.1006">
        <ele>485</ele>
        <time>2026-08-26T12:36:19+00:00</time>
      </trkpt>
      <trkpt lat="49.94065" lon="6.10047">
        <ele>484</ele>
        <time>2026-08-26T12:36:22+00:00</time>
      </trkpt>
      <trkpt lat="49.9405" lon="6.10036">
        <ele>484</ele>
        <time>2026-08-26T12:36:25+00:00</time>
      </trkpt>
      <trkpt lat="49.94039" lon="6.10024">
        <ele>484</ele>
        <time>2026-08-26T12:36:28+00:00</time>
      </trkpt>
      <trkpt lat="49.94027" lon="6.10013">
        <ele>484</ele>
        <time>2026-08-26T12:36:31+00:00</time>
      </trkpt>
      <trkpt lat="49.94021" lon="6.1">
        <ele>485</ele>
        <time>2026-08-26T12:36:34+00:00</time>
      </trkpt>
      <trkpt lat="49.93995" lon="6.09974">
        <ele>484</ele>
        <time>2026-08-26T12:36:37+00:00</time>
      </trkpt>
      <trkpt lat="49.93968" lon="6.09949">
        <ele>484</ele>
        <time>2026-08-26T12:36:40+00:00</time>
      </trkpt>
      <trkpt lat="49.93942" lon="6.09923">
        <ele>484</ele>
        <time>2026-08-26T12:36:43+00:00</time>
      </trkpt>
      <trkpt lat="49.93907" lon="6.09889">
        <ele>484</ele>
        <time>2026-08-26T12:36:46+00:00</time>
      </trkpt>
      <trkpt lat="49.93889" lon="6.0988">
        <ele>484</ele>
        <time>2026-08-26T12:36:49+00:00</time>
      </trkpt>
      <trkpt lat="49.93866" lon="6.09879">
        <ele>484</ele>
        <time>2026-08-26T12:36:52+00:00</time>
      </trkpt>
      <trkpt lat="49.93842" lon="6.09878">
        <ele>484</ele>
        <time>2026-08-26T12:36:55+00:00</time>
      </trkpt>
      <trkpt lat="49.9384" lon="6.09877">
        <ele>484</ele>
        <time>2026-08-26T12:36:58+00:00</time>
      </trkpt>
      <trkpt lat="49.93838" lon="6.09872">
        <ele>484</ele>
        <time>2026-08-26T12:37:01+00:00</time>
      </trkpt>
      <trkpt lat="49.93835" lon="6.09872">
        <ele>484</ele>
        <time>2026-08-26T12:37:04+00:00</time>
      </trkpt>
      <trkpt lat="49.93835" lon="6.09839">
        <ele>484</ele>
        <time>2026-08-26T12:37:07+00:00</time>
      </trkpt>
      <trkpt lat="49.93832" lon="6.09796">
        <ele>484</ele>
        <time>2026-08-26T12:37:10+00:00</time>
      </trkpt>
      <trkpt lat="49.93834" lon="6.09754">
        <ele>484</ele>
        <time>2026-08-26T12:37:13+00:00</time>
      </trkpt>
      <trkpt lat="49.93839" lon="6.09751">
        <ele>484</ele>
        <time>2026-08-26T12:37:16+00:00</time>
      </trkpt>
      <trkpt lat="49.93863" lon="6.09724">
        <ele>483</ele>
        <time>2026-08-26T12:37:19+00:00</time>
      </trkpt>
      <trkpt lat="49.93874" lon="6.09716">
        <ele>481</ele>
        <time>2026-08-26T12:37:22+00:00</time>
      </trkpt>
      <trkpt lat="49.93887" lon="6.09714">
        <ele>481</ele>
        <time>2026-08-26T12:37:25+00:00</time>
      </trkpt>
      <trkpt lat="49.93897" lon="6.09708">
        <ele>479</ele>
        <time>2026-08-26T12:37:28+00:00</time>
      </trkpt>
      <trkpt lat="49.93906" lon="6.09702">
        <ele>478</ele>
        <time>2026-08-26T12:37:31+00:00</time>
      </trkpt>
      <trkpt lat="49.93932" lon="6.09683">
        <ele>473</ele>
        <time>2026-08-26T12:37:34+00:00</time>
      </trkpt>
      <trkpt lat="49.9394" lon="6.09673">
        <ele>472</ele>
        <time>2026-08-26T12:37:37+00:00</time>
      </trkpt>
      <trkpt lat="49.93961" lon="6.0964">
        <ele>466</ele>
        <time>2026-08-26T12:37:40+00:00</time>
      </trkpt>
      <trkpt lat="49.93965" lon="6.09627">
        <ele>465</ele>
        <time>2026-08-26T12:37:43+00:00</time>
      </trkpt>
      <trkpt lat="49.93965" lon="6.09621">
        <ele>465</ele>
        <time>2026-08-26T12:37:46+00:00</time>
      </trkpt>
      <trkpt lat="49.93961" lon="6.0961">
        <ele>462</ele>
        <time>2026-08-26T12:37:49+00:00</time>
      </trkpt>
      <trkpt lat="49.93944" lon="6.09587">
        <ele>461</ele>
        <time>2026-08-26T12:37:52+00:00</time>
      </trkpt>
      <trkpt lat="49.93926" lon="6.09563">
        <ele>458</ele>
        <time>2026-08-26T12:37:55+00:00</time>
      </trkpt>
      <trkpt lat="49.93921" lon="6.09552">
        <ele>457</ele>
        <time>2026-08-26T12:37:58+00:00</time>
      </trkpt>
      <trkpt lat="49.93918" lon="6.0954">
        <ele>456</ele>
        <time>2026-08-26T12:38:01+00:00</time>
      </trkpt>
      <trkpt lat="49.93913" lon="6.09515">
        <ele>455</ele>
        <time>2026-08-26T12:38:04+00:00</time>
      </trkpt>
      <trkpt lat="49.93912" lon="6.09479">
        <ele>451</ele>
        <time>2026-08-26T12:38:07+00:00</time>
      </trkpt>
      <trkpt lat="49.93915" lon="6.09457">
        <ele>450</ele>
        <time>2026-08-26T12:38:10+00:00</time>
      </trkpt>
      <trkpt lat="49.93922" lon="6.09426">
        <ele>449</ele>
        <time>2026-08-26T12:38:13+00:00</time>
      </trkpt>
      <trkpt lat="49.93923" lon="6.09418">
        <ele>446</ele>
        <time>2026-08-26T12:38:16+00:00</time>
      </trkpt>
      <trkpt lat="49.93928" lon="6.09373">
        <ele>449</ele>
        <time>2026-08-26T12:38:19+00:00</time>
      </trkpt>
      <trkpt lat="49.93929" lon="6.09336">
        <ele>449</ele>
        <time>2026-08-26T12:38:22+00:00</time>
      </trkpt>
      <trkpt lat="49.93928" lon="6.09304">
        <ele>448</ele>
        <time>2026-08-26T12:38:25+00:00</time>
      </trkpt>
      <trkpt lat="49.93924" lon="6.09273">
        <ele>442</ele>
        <time>2026-08-26T12:38:28+00:00</time>
      </trkpt>
      <trkpt lat="49.93914" lon="6.09228">
        <ele>439</ele>
        <time>2026-08-26T12:38:31+00:00</time>
      </trkpt>
      <trkpt lat="49.93905" lon="6.09182">
        <ele>433</ele>
        <time>2026-08-26T12:38:34+00:00</time>
      </trkpt>
      <trkpt lat="49.93891" lon="6.09117">
        <ele>419</ele>
        <time>2026-08-26T12:38:37+00:00</time>
      </trkpt>
      <trkpt lat="49.93881" lon="6.09085">
        <ele>410</ele>
        <time>2026-08-26T12:38:40+00:00</time>
      </trkpt>
      <trkpt lat="49.93871" lon="6.09049">
        <ele>401</ele>
        <time>2026-08-26T12:38:43+00:00</time>
      </trkpt>
      <trkpt lat="49.93862" lon="6.09014">
        <ele>400</ele>
        <time>2026-08-26T12:38:46+00:00</time>
      </trkpt>
      <trkpt lat="49.93851" lon="6.08969">
        <ele>391</ele>
        <time>2026-08-26T12:38:49+00:00</time>
      </trkpt>
      <trkpt lat="49.93842" lon="6.08933">
        <ele>387</ele>
        <time>2026-08-26T12:38:52+00:00</time>
      </trkpt>
      <trkpt lat="49.93828" lon="6.08891">
        <ele>384</ele>
        <time>2026-08-26T12:38:55+00:00</time>
      </trkpt>
      <trkpt lat="49.93802" lon="6.08871">
        <ele>381</ele>
        <time>2026-08-26T12:38:58+00:00</time>
      </trkpt>
      <trkpt lat="49.93775" lon="6.08859">
        <ele>378</ele>
        <time>2026-08-26T12:39:01+00:00</time>
      </trkpt>
      <trkpt lat="49.93722" lon="6.08836">
        <ele>375</ele>
        <time>2026-08-26T12:39:04+00:00</time>
      </trkpt>
      <trkpt lat="49.93717" lon="6.08829">
        <ele>376</ele>
        <time>2026-08-26T12:39:07+00:00</time>
      </trkpt>
      <trkpt lat="49.93717" lon="6.08819">
        <ele>375</ele>
        <time>2026-08-26T12:39:10+00:00</time>
      </trkpt>
      <trkpt lat="49.93722" lon="6.08793">
        <ele>372</ele>
        <time>2026-08-26T12:39:13+00:00</time>
      </trkpt>
      <trkpt lat="49.93728" lon="6.08762">
        <ele>373</ele>
        <time>2026-08-26T12:39:16+00:00</time>
      </trkpt>
      <trkpt lat="49.9373" lon="6.08742">
        <ele>372</ele>
        <time>2026-08-26T12:39:19+00:00</time>
      </trkpt>
      <trkpt lat="49.93727" lon="6.08729">
        <ele>375</ele>
        <time>2026-08-26T12:39:22+00:00</time>
      </trkpt>
      <trkpt lat="49.93722" lon="6.0872">
        <ele>380</ele>
        <time>2026-08-26T12:39:25+00:00</time>
      </trkpt>
      <trkpt lat="49.93715" lon="6.08713">
        <ele>377</ele>
        <time>2026-08-26T12:39:28+00:00</time>
      </trkpt>
      <trkpt lat="49.93688" lon="6.08695">
        <ele>383</ele>
        <time>2026-08-26T12:39:31+00:00</time>
      </trkpt>
      <trkpt lat="49.9366" lon="6.08678">
        <ele>384</ele>
        <time>2026-08-26T12:39:34+00:00</time>
      </trkpt>
      <trkpt lat="49.93633" lon="6.0866">
        <ele>386</ele>
        <time>2026-08-26T12:39:37+00:00</time>
      </trkpt>
      <trkpt lat="49.93596" lon="6.08637">
        <ele>395</ele>
        <time>2026-08-26T12:39:40+00:00</time>
      </trkpt>
      <trkpt lat="49.93571" lon="6.08626">
        <ele>398</ele>
        <time>2026-08-26T12:39:43+00:00</time>
      </trkpt>
      <trkpt lat="49.93532" lon="6.0861">
        <ele>406</ele>
        <time>2026-08-26T12:39:46+00:00</time>
      </trkpt>
      <trkpt lat="49.93522" lon="6.08608">
        <ele>407</ele>
        <time>2026-08-26T12:39:49+00:00</time>
      </trkpt>
      <trkpt lat="49.93496" lon="6.08611">
        <ele>407</ele>
        <time>2026-08-26T12:39:52+00:00</time>
      </trkpt>
      <trkpt lat="49.9347" lon="6.08614">
        <ele>409</ele>
        <time>2026-08-26T12:39:55+00:00</time>
      </trkpt>
      <trkpt lat="49.93443" lon="6.08617">
        <ele>413</ele>
        <time>2026-08-26T12:39:58+00:00</time>
      </trkpt>
      <trkpt lat="49.93414" lon="6.08625">
        <ele>413</ele>
        <time>2026-08-26T12:40:01+00:00</time>
      </trkpt>
      <trkpt lat="49.93386" lon="6.08634">
        <ele>411</ele>
        <time>2026-08-26T12:40:04+00:00</time>
      </trkpt>
      <trkpt lat="49.93357" lon="6.08643">
        <ele>408</ele>
        <time>2026-08-26T12:40:07+00:00</time>
      </trkpt>
      <trkpt lat="49.93338" lon="6.08645">
        <ele>412</ele>
        <time>2026-08-26T12:40:10+00:00</time>
      </trkpt>
      <trkpt lat="49.93331" lon="6.08643">
        <ele>406</ele>
        <time>2026-08-26T12:40:13+00:00</time>
      </trkpt>
      <trkpt lat="49.93328" lon="6.08637">
        <ele>414</ele>
        <time>2026-08-26T12:40:16+00:00</time>
      </trkpt>
      <trkpt lat="49.93327" lon="6.08629">
        <ele>420</ele>
        <time>2026-08-26T12:40:19+00:00</time>
      </trkpt>
      <trkpt lat="49.93332" lon="6.08623">
        <ele>417</ele>
        <time>2026-08-26T12:40:22+00:00</time>
      </trkpt>
      <trkpt lat="49.93367" lon="6.08621">
        <ele>419</ele>
        <time>2026-08-26T12:40:25+00:00</time>
      </trkpt>
      <trkpt lat="49.93382" lon="6.08613">
        <ele>421</ele>
        <time>2026-08-26T12:40:28+00:00</time>
      </trkpt>
      <trkpt lat="49.93402" lon="6.08599">
        <ele>428</ele>
        <time>2026-08-26T12:40:31+00:00</time>
      </trkpt>
      <trkpt lat="49.93439" lon="6.08575">
        <ele>429</ele>
        <time>2026-08-26T12:40:34+00:00</time>
      </trkpt>
      <trkpt lat="49.93466" lon="6.0856">
        <ele>427</ele>
        <time>2026-08-26T12:40:37+00:00</time>
      </trkpt>
      <trkpt lat="49.93517" lon="6.08533">
        <ele>426</ele>
        <time>2026-08-26T12:40:40+00:00</time>
      </trkpt>
      <trkpt lat="49.9354" lon="6.08526">
        <ele>426</ele>
        <time>2026-08-26T12:40:43+00:00</time>
      </trkpt>
      <trkpt lat="49.93567" lon="6.08519">
        <ele>428</ele>
        <time>2026-08-26T12:40:46+00:00</time>
      </trkpt>
      <trkpt lat="49.93576" lon="6.08514">
        <ele>428</ele>
        <time>2026-08-26T12:40:49+00:00</time>
      </trkpt>
      <trkpt lat="49.93607" lon="6.08497">
        <ele>428</ele>
        <time>2026-08-26T12:40:52+00:00</time>
      </trkpt>
      <trkpt lat="49.93614" lon="6.0849">
        <ele>427</ele>
        <time>2026-08-26T12:40:55+00:00</time>
      </trkpt>
      <trkpt lat="49.9362" lon="6.08477">
        <ele>428</ele>
        <time>2026-08-26T12:40:58+00:00</time>
      </trkpt>
      <trkpt lat="49.93651" lon="6.08478">
        <ele>426</ele>
        <time>2026-08-26T12:41:01+00:00</time>
      </trkpt>
      <trkpt lat="49.93683" lon="6.0848">
        <ele>426</ele>
        <time>2026-08-26T12:41:04+00:00</time>
      </trkpt>
      <trkpt lat="49.93734" lon="6.08482">
        <ele>426</ele>
        <time>2026-08-26T12:41:07+00:00</time>
      </trkpt>
      <trkpt lat="49.9375" lon="6.0849">
        <ele>426</ele>
        <time>2026-08-26T12:41:10+00:00</time>
      </trkpt>
      <trkpt lat="49.93764" lon="6.08503">
        <ele>426</ele>
        <time>2026-08-26T12:41:13+00:00</time>
      </trkpt>
      <trkpt lat="49.93781" lon="6.08518">
        <ele>427</ele>
        <time>2026-08-26T12:41:16+00:00</time>
      </trkpt>
      <trkpt lat="49.93797" lon="6.08527">
        <ele>427</ele>
        <time>2026-08-26T12:41:19+00:00</time>
      </trkpt>
      <trkpt lat="49.93807" lon="6.08528">
        <ele>427</ele>
        <time>2026-08-26T12:41:22+00:00</time>
      </trkpt>
      <trkpt lat="49.93819" lon="6.08523">
        <ele>428</ele>
        <time>2026-08-26T12:41:25+00:00</time>
      </trkpt>
      <trkpt lat="49.93826" lon="6.08513">
        <ele>429</ele>
        <time>2026-08-26T12:41:28+00:00</time>
      </trkpt>
      <trkpt lat="49.93833" lon="6.08498">
        <ele>430</ele>
        <time>2026-08-26T12:41:31+00:00</time>
      </trkpt>
      <trkpt lat="49.93837" lon="6.0848">
        <ele>429</ele>
        <time>2026-08-26T12:41:34+00:00</time>
      </trkpt>
      <trkpt lat="49.9384" lon="6.08449">
        <ele>429</ele>
        <time>2026-08-26T12:41:37+00:00</time>
      </trkpt>
      <trkpt lat="49.9384" lon="6.08435">
        <ele>429</ele>
        <time>2026-08-26T12:41:40+00:00</time>
      </trkpt>
      <trkpt lat="49.9384" lon="6.08432">
        <ele>429</ele>
        <time>2026-08-26T12:41:43+00:00</time>
      </trkpt>
      <trkpt lat="49.93829" lon="6.08443">
        <ele>428</ele>
        <time>2026-08-26T12:41:46+00:00</time>
      </trkpt>
      <trkpt lat="49.93821" lon="6.08445">
        <ele>428</ele>
        <time>2026-08-26T12:41:49+00:00</time>
      </trkpt>
      <trkpt lat="49.93811" lon="6.08443">
        <ele>428</ele>
        <time>2026-08-26T12:41:52+00:00</time>
      </trkpt>
      <trkpt lat="49.93804" lon="6.08437">
        <ele>427</ele>
        <time>2026-08-26T12:41:55+00:00</time>
      </trkpt>
      <trkpt lat="49.93798" lon="6.08426">
        <ele>427</ele>
        <time>2026-08-26T12:41:58+00:00</time>
      </trkpt>
      <trkpt lat="49.93794" lon="6.0841">
        <ele>426</ele>
        <time>2026-08-26T12:42:01+00:00</time>
      </trkpt>
      <trkpt lat="49.93771" lon="6.08398">
        <ele>425</ele>
        <time>2026-08-26T12:42:04+00:00</time>
      </trkpt>
      <trkpt lat="49.93748" lon="6.08376">
        <ele>424</ele>
        <time>2026-08-26T12:42:07+00:00</time>
      </trkpt>
      <trkpt lat="49.93711" lon="6.0834">
        <ele>423</ele>
        <time>2026-08-26T12:42:10+00:00</time>
      </trkpt>
      <trkpt lat="49.93693" lon="6.08326">
        <ele>422</ele>
        <time>2026-08-26T12:42:13+00:00</time>
      </trkpt>
      <trkpt lat="49.93675" lon="6.08317">
        <ele>422</ele>
        <time>2026-08-26T12:42:16+00:00</time>
      </trkpt>
      <trkpt lat="49.93633" lon="6.08302">
        <ele>421</ele>
        <time>2026-08-26T12:42:19+00:00</time>
      </trkpt>
      <trkpt lat="49.93628" lon="6.08291">
        <ele>419</ele>
        <time>2026-08-26T12:42:22+00:00</time>
      </trkpt>
      <trkpt lat="49.93626" lon="6.08284">
        <ele>418</ele>
        <time>2026-08-26T12:42:25+00:00</time>
      </trkpt>
      <trkpt lat="49.93612" lon="6.08251">
        <ele>416</ele>
        <time>2026-08-26T12:42:28+00:00</time>
      </trkpt>
      <trkpt lat="49.93597" lon="6.08217">
        <ele>413</ele>
        <time>2026-08-26T12:42:31+00:00</time>
      </trkpt>
      <trkpt lat="49.9358" lon="6.08176">
        <ele>412</ele>
        <time>2026-08-26T12:42:34+00:00</time>
      </trkpt>
      <trkpt lat="49.93567" lon="6.08133">
        <ele>411</ele>
        <time>2026-08-26T12:42:37+00:00</time>
      </trkpt>
      <trkpt lat="49.93559" lon="6.081">
        <ele>411</ele>
        <time>2026-08-26T12:42:40+00:00</time>
      </trkpt>
      <trkpt lat="49.93551" lon="6.08066">
        <ele>412</ele>
        <time>2026-08-26T12:42:43+00:00</time>
      </trkpt>
      <trkpt lat="49.93542" lon="6.08034">
        <ele>413</ele>
        <time>2026-08-26T12:42:46+00:00</time>
      </trkpt>
      <trkpt lat="49.93532" lon="6.07998">
        <ele>413</ele>
        <time>2026-08-26T12:42:49+00:00</time>
      </trkpt>
      <trkpt lat="49.93517" lon="6.07957">
        <ele>413</ele>
        <time>2026-08-26T12:42:52+00:00</time>
      </trkpt>
      <trkpt lat="49.93502" lon="6.07916">
        <ele>408</ele>
        <time>2026-08-26T12:42:55+00:00</time>
      </trkpt>
      <trkpt lat="49.93481" lon="6.07861">
        <ele>407</ele>
        <time>2026-08-26T12:42:58+00:00</time>
      </trkpt>
      <trkpt lat="49.93467" lon="6.07832">
        <ele>406</ele>
        <time>2026-08-26T12:43:01+00:00</time>
      </trkpt>
      <trkpt lat="49.9345" lon="6.07797">
        <ele>405</ele>
        <time>2026-08-26T12:43:04+00:00</time>
      </trkpt>
      <trkpt lat="49.93443" lon="6.07766">
        <ele>401</ele>
        <time>2026-08-26T12:43:07+00:00</time>
      </trkpt>
      <trkpt lat="49.93439" lon="6.07722">
        <ele>401</ele>
        <time>2026-08-26T12:43:10+00:00</time>
      </trkpt>
      <trkpt lat="49.93439" lon="6.07701">
        <ele>398</ele>
        <time>2026-08-26T12:43:13+00:00</time>
      </trkpt>
      <trkpt lat="49.93435" lon="6.07668">
        <ele>395</ele>
        <time>2026-08-26T12:43:16+00:00</time>
      </trkpt>
      <trkpt lat="49.93428" lon="6.07615">
        <ele>389</ele>
        <time>2026-08-26T12:43:19+00:00</time>
      </trkpt>
      <trkpt lat="49.93429" lon="6.07565">
        <ele>384</ele>
        <time>2026-08-26T12:43:22+00:00</time>
      </trkpt>
      <trkpt lat="49.93427" lon="6.07538">
        <ele>379</ele>
        <time>2026-08-26T12:43:25+00:00</time>
      </trkpt>
      <trkpt lat="49.93422" lon="6.0751">
        <ele>374</ele>
        <time>2026-08-26T12:43:28+00:00</time>
      </trkpt>
      <trkpt lat="49.93417" lon="6.07483">
        <ele>373</ele>
        <time>2026-08-26T12:43:31+00:00</time>
      </trkpt>
      <trkpt lat="49.93403" lon="6.07433">
        <ele>370</ele>
        <time>2026-08-26T12:43:34+00:00</time>
      </trkpt>
      <trkpt lat="49.93383" lon="6.0739">
        <ele>363</ele>
        <time>2026-08-26T12:43:37+00:00</time>
      </trkpt>
      <trkpt lat="49.93372" lon="6.07379">
        <ele>356</ele>
        <time>2026-08-26T12:43:40+00:00</time>
      </trkpt>
      <trkpt lat="49.93372" lon="6.07373">
        <ele>356</ele>
        <time>2026-08-26T12:43:43+00:00</time>
      </trkpt>
      <trkpt lat="49.93388" lon="6.07378">
        <ele>361</ele>
        <time>2026-08-26T12:43:46+00:00</time>
      </trkpt>
      <trkpt lat="49.93399" lon="6.07385">
        <ele>358</ele>
        <time>2026-08-26T12:43:49+00:00</time>
      </trkpt>
      <trkpt lat="49.93428" lon="6.07394">
        <ele>360</ele>
        <time>2026-08-26T12:43:52+00:00</time>
      </trkpt>
      <trkpt lat="49.93445" lon="6.07406">
        <ele>357</ele>
        <time>2026-08-26T12:43:55+00:00</time>
      </trkpt>
      <trkpt lat="49.93454" lon="6.0742">
        <ele>357</ele>
        <time>2026-08-26T12:43:58+00:00</time>
      </trkpt>
      <trkpt lat="49.93461" lon="6.07443">
        <ele>355</ele>
        <time>2026-08-26T12:44:01+00:00</time>
      </trkpt>
      <trkpt lat="49.93465" lon="6.0745">
        <ele>355</ele>
        <time>2026-08-26T12:44:04+00:00</time>
      </trkpt>
      <trkpt lat="49.93467" lon="6.07442">
        <ele>355</ele>
        <time>2026-08-26T12:44:07+00:00</time>
      </trkpt>
      <trkpt lat="49.93464" lon="6.074">
        <ele>347</ele>
        <time>2026-08-26T12:44:10+00:00</time>
      </trkpt>
      <trkpt lat="49.93459" lon="6.07375">
        <ele>349</ele>
        <time>2026-08-26T12:44:13+00:00</time>
      </trkpt>
      <trkpt lat="49.93449" lon="6.07344">
        <ele>343</ele>
        <time>2026-08-26T12:44:16+00:00</time>
      </trkpt>
      <trkpt lat="49.93432" lon="6.07312">
        <ele>339</ele>
        <time>2026-08-26T12:44:19+00:00</time>
      </trkpt>
      <trkpt lat="49.93423" lon="6.07304">
        <ele>330</ele>
        <time>2026-08-26T12:44:22+00:00</time>
      </trkpt>
      <trkpt lat="49.93407" lon="6.07304">
        <ele>336</ele>
        <time>2026-08-26T12:44:25+00:00</time>
      </trkpt>
      <trkpt lat="49.93405" lon="6.073">
        <ele>332</ele>
        <time>2026-08-26T12:44:28+00:00</time>
      </trkpt>
      <trkpt lat="49.93406" lon="6.07294">
        <ele>332</ele>
        <time>2026-08-26T12:44:31+00:00</time>
      </trkpt>
      <trkpt lat="49.9341" lon="6.07288">
        <ele>328</ele>
        <time>2026-08-26T12:44:34+00:00</time>
      </trkpt>
      <trkpt lat="49.93417" lon="6.07282">
        <ele>328</ele>
        <time>2026-08-26T12:44:37+00:00</time>
      </trkpt>
      <trkpt lat="49.93426" lon="6.07281">
        <ele>324</ele>
        <time>2026-08-26T12:44:40+00:00</time>
      </trkpt>
      <trkpt lat="49.93438" lon="6.07287">
        <ele>326</ele>
        <time>2026-08-26T12:44:43+00:00</time>
      </trkpt>
      <trkpt lat="49.93454" lon="6.07302">
        <ele>325</ele>
        <time>2026-08-26T12:44:46+00:00</time>
      </trkpt>
      <trkpt lat="49.93476" lon="6.07326">
        <ele>321</ele>
        <time>2026-08-26T12:44:49+00:00</time>
      </trkpt>
      <trkpt lat="49.93502" lon="6.07367">
        <ele>316</ele>
        <time>2026-08-26T12:44:52+00:00</time>
      </trkpt>
      <trkpt lat="49.93514" lon="6.07396">
        <ele>315</ele>
        <time>2026-08-26T12:44:55+00:00</time>
      </trkpt>
      <trkpt lat="49.93516" lon="6.07398">
        <ele>313</ele>
        <time>2026-08-26T12:44:58+00:00</time>
      </trkpt>
      <trkpt lat="49.93519" lon="6.07396">
        <ele>313</ele>
        <time>2026-08-26T12:45:01+00:00</time>
      </trkpt>
      <trkpt lat="49.93519" lon="6.07391">
        <ele>313</ele>
        <time>2026-08-26T12:45:04+00:00</time>
      </trkpt>
      <trkpt lat="49.93509" lon="6.07359">
        <ele>314</ele>
        <time>2026-08-26T12:45:07+00:00</time>
      </trkpt>
      <trkpt lat="49.93494" lon="6.07309">
        <ele>308</ele>
        <time>2026-08-26T12:45:10+00:00</time>
      </trkpt>
      <trkpt lat="49.93484" lon="6.07275">
        <ele>305</ele>
        <time>2026-08-26T12:45:13+00:00</time>
      </trkpt>
      <trkpt lat="49.93472" lon="6.07232">
        <ele>297</ele>
        <time>2026-08-26T12:45:16+00:00</time>
      </trkpt>
      <trkpt lat="49.93462" lon="6.07208">
        <ele>291</ele>
        <time>2026-08-26T12:45:19+00:00</time>
      </trkpt>
      <trkpt lat="49.93453" lon="6.07197">
        <ele>289</ele>
        <time>2026-08-26T12:45:22+00:00</time>
      </trkpt>
      <trkpt lat="49.93442" lon="6.07189">
        <ele>285</ele>
        <time>2026-08-26T12:45:25+00:00</time>
      </trkpt>
      <trkpt lat="49.9344" lon="6.07184">
        <ele>285</ele>
        <time>2026-08-26T12:45:28+00:00</time>
      </trkpt>
      <trkpt lat="49.93442" lon="6.07181">
        <ele>285</ele>
        <time>2026-08-26T12:45:31+00:00</time>
      </trkpt>
      <trkpt lat="49.93446" lon="6.07181">
        <ele>285</ele>
        <time>2026-08-26T12:45:34+00:00</time>
      </trkpt>
      <trkpt lat="49.9346" lon="6.0719">
        <ele>285</ele>
        <time>2026-08-26T12:45:37+00:00</time>
      </trkpt>
      <trkpt lat="49.93473" lon="6.07202">
        <ele>288</ele>
        <time>2026-08-26T12:45:40+00:00</time>
      </trkpt>
      <trkpt lat="49.93492" lon="6.07229">
        <ele>287</ele>
        <time>2026-08-26T12:45:43+00:00</time>
      </trkpt>
      <trkpt lat="49.93511" lon="6.07262">
        <ele>287</ele>
        <time>2026-08-26T12:45:46+00:00</time>
      </trkpt>
      <trkpt lat="49.93545" lon="6.07323">
        <ele>287</ele>
        <time>2026-08-26T12:45:49+00:00</time>
      </trkpt>
      <trkpt lat="49.93559" lon="6.07348">
        <ele>285</ele>
        <time>2026-08-26T12:45:52+00:00</time>
      </trkpt>
      <trkpt lat="49.93565" lon="6.07351">
        <ele>277</ele>
        <time>2026-08-26T12:45:55+00:00</time>
      </trkpt>
      <trkpt lat="49.93548" lon="6.073">
        <ele>278</ele>
        <time>2026-08-26T12:45:58+00:00</time>
      </trkpt>
      <trkpt lat="49.93536" lon="6.07262">
        <ele>277</ele>
        <time>2026-08-26T12:46:01+00:00</time>
      </trkpt>
      <trkpt lat="49.93514" lon="6.07196">
        <ele>264</ele>
        <time>2026-08-26T12:46:04+00:00</time>
      </trkpt>
      <trkpt lat="49.93499" lon="6.07155">
        <ele>262</ele>
        <time>2026-08-26T12:46:07+00:00</time>
      </trkpt>
      <trkpt lat="49.93491" lon="6.07137">
        <ele>253</ele>
        <time>2026-08-26T12:46:10+00:00</time>
      </trkpt>
      <trkpt lat="49.93479" lon="6.07122">
        <ele>253</ele>
        <time>2026-08-26T12:46:13+00:00</time>
      </trkpt>
      <trkpt lat="49.93473" lon="6.07117">
        <ele>251</ele>
        <time>2026-08-26T12:46:16+00:00</time>
      </trkpt>
      <trkpt lat="49.9346" lon="6.07113">
        <ele>249</ele>
        <time>2026-08-26T12:46:19+00:00</time>
      </trkpt>
      <trkpt lat="49.9346" lon="6.07106">
        <ele>247</ele>
        <time>2026-08-26T12:46:22+00:00</time>
      </trkpt>
      <trkpt lat="49.93468" lon="6.07106">
        <ele>249</ele>
        <time>2026-08-26T12:46:25+00:00</time>
      </trkpt>
      <trkpt lat="49.93469" lon="6.07104">
        <ele>249</ele>
        <time>2026-08-26T12:46:28+00:00</time>
      </trkpt>
      <trkpt lat="49.93464" lon="6.07088">
        <ele>243</ele>
        <time>2026-08-26T12:46:31+00:00</time>
      </trkpt>
      <trkpt lat="49.93459" lon="6.07072">
        <ele>241</ele>
        <time>2026-08-26T12:46:34+00:00</time>
      </trkpt>
      <trkpt lat="49.93462" lon="6.07067">
        <ele>240</ele>
        <time>2026-08-26T12:46:37+00:00</time>
      </trkpt>
      <trkpt lat="49.93455" lon="6.07049">
        <ele>240</ele>
        <time>2026-08-26T12:46:40+00:00</time>
      </trkpt>
      <trkpt lat="49.93447" lon="6.0703">
        <ele>240</ele>
        <time>2026-08-26T12:46:43+00:00</time>
      </trkpt>
      <trkpt lat="49.93449" lon="6.06986">
        <ele>240</ele>
        <time>2026-08-26T12:46:46+00:00</time>
      </trkpt>
      <trkpt lat="49.93449" lon="6.06945">
        <ele>241</ele>
        <time>2026-08-26T12:46:49+00:00</time>
      </trkpt>
      <trkpt lat="49.93455" lon="6.06884">
        <ele>241</ele>
        <time>2026-08-26T12:46:52+00:00</time>
      </trkpt>
      <trkpt lat="49.93464" lon="6.0683">
        <ele>242</ele>
        <time>2026-08-26T12:46:55+00:00</time>
      </trkpt>
      <trkpt lat="49.93467" lon="6.06823">
        <ele>242</ele>
        <time>2026-08-26T12:46:58+00:00</time>
      </trkpt>
      <trkpt lat="49.93473" lon="6.06815">
        <ele>243</ele>
        <time>2026-08-26T12:47:01+00:00</time>
      </trkpt>
      <trkpt lat="49.93486" lon="6.06803">
        <ele>243</ele>
        <time>2026-08-26T12:47:04+00:00</time>
      </trkpt>
      <trkpt lat="49.93494" lon="6.06787">
        <ele>243</ele>
        <time>2026-08-26T12:47:07+00:00</time>
      </trkpt>
      <trkpt lat="49.93502" lon="6.06758">
        <ele>245</ele>
        <time>2026-08-26T12:47:10+00:00</time>
      </trkpt>
      <trkpt lat="49.93513" lon="6.06717">
        <ele>246</ele>
        <time>2026-08-26T12:47:13+00:00</time>
      </trkpt>
      <trkpt lat="49.93522" lon="6.06655">
        <ele>249</ele>
        <time>2026-08-26T12:47:16+00:00</time>
      </trkpt>
      <trkpt lat="49.93522" lon="6.06634">
        <ele>250</ele>
        <time>2026-08-26T12:47:19+00:00</time>
      </trkpt>
      <trkpt lat="49.93513" lon="6.06593">
        <ele>252</ele>
        <time>2026-08-26T12:47:22+00:00</time>
      </trkpt>
      <trkpt lat="49.93515" lon="6.06577">
        <ele>254</ele>
        <time>2026-08-26T12:47:25+00:00</time>
      </trkpt>
      <trkpt lat="49.93517" lon="6.06566">
        <ele>250</ele>
        <time>2026-08-26T12:47:28+00:00</time>
      </trkpt>
      <trkpt lat="49.93523" lon="6.06553">
        <ele>250</ele>
        <time>2026-08-26T12:47:31+00:00</time>
      </trkpt>
      <trkpt lat="49.93533" lon="6.06543">
        <ele>248</ele>
        <time>2026-08-26T12:47:34+00:00</time>
      </trkpt>
      <trkpt lat="49.93551" lon="6.06535">
        <ele>248</ele>
        <time>2026-08-26T12:47:37+00:00</time>
      </trkpt>
      <trkpt lat="49.93564" lon="6.06534">
        <ele>250</ele>
        <time>2026-08-26T12:47:40+00:00</time>
      </trkpt>
      <trkpt lat="49.93581" lon="6.06531">
        <ele>255</ele>
        <time>2026-08-26T12:47:43+00:00</time>
      </trkpt>
      <trkpt lat="49.93602" lon="6.06522">
        <ele>261</ele>
        <time>2026-08-26T12:47:46+00:00</time>
      </trkpt>
      <trkpt lat="49.93625" lon="6.06512">
        <ele>264</ele>
        <time>2026-08-26T12:47:49+00:00</time>
      </trkpt>
      <trkpt lat="49.93636" lon="6.06511">
        <ele>268</ele>
        <time>2026-08-26T12:47:52+00:00</time>
      </trkpt>
      <trkpt lat="49.93637" lon="6.06511">
        <ele>268</ele>
        <time>2026-08-26T12:47:55+00:00</time>
      </trkpt>
      <trkpt lat="49.93636" lon="6.06511">
        <ele>268</ele>
        <time>2026-08-26T12:47:58+00:00</time>
      </trkpt>
      <trkpt lat="49.93648" lon="6.0652">
        <ele>263</ele>
        <time>2026-08-26T12:48:01+00:00</time>
      </trkpt>
      <trkpt lat="49.93658" lon="6.0652">
        <ele>265</ele>
        <time>2026-08-26T12:48:04+00:00</time>
      </trkpt>
      <trkpt lat="49.93667" lon="6.06516">
        <ele>263</ele>
        <time>2026-08-26T12:48:07+00:00</time>
      </trkpt>
      <trkpt lat="49.93682" lon="6.06519">
        <ele>257</ele>
        <time>2026-08-26T12:48:10+00:00</time>
      </trkpt>
      <trkpt lat="49.93695" lon="6.0651">
        <ele>265</ele>
        <time>2026-08-26T12:48:13+00:00</time>
      </trkpt>
      <trkpt lat="49.93724" lon="6.06508">
        <ele>266</ele>
        <time>2026-08-26T12:48:16+00:00</time>
      </trkpt>
      <trkpt lat="49.93779" lon="6.06503">
        <ele>267</ele>
        <time>2026-08-26T12:48:19+00:00</time>
      </trkpt>
      <trkpt lat="49.93803" lon="6.06497">
        <ele>271</ele>
        <time>2026-08-26T12:48:22+00:00</time>
      </trkpt>
      <trkpt lat="49.93833" lon="6.06489">
        <ele>271</ele>
        <time>2026-08-26T12:48:25+00:00</time>
      </trkpt>
      <trkpt lat="49.93854" lon="6.06481">
        <ele>272</ele>
        <time>2026-08-26T12:48:28+00:00</time>
      </trkpt>
      <trkpt lat="49.93876" lon="6.06473">
        <ele>272</ele>
        <time>2026-08-26T12:48:31+00:00</time>
      </trkpt>
      <trkpt lat="49.93904" lon="6.06456">
        <ele>272</ele>
        <time>2026-08-26T12:48:34+00:00</time>
      </trkpt>
      <trkpt lat="49.93945" lon="6.06438">
        <ele>270</ele>
        <time>2026-08-26T12:48:37+00:00</time>
      </trkpt>
      <trkpt lat="49.93975" lon="6.06431">
        <ele>269</ele>
        <time>2026-08-26T12:48:40+00:00</time>
      </trkpt>
      <trkpt lat="49.94005" lon="6.06424">
        <ele>267</ele>
        <time>2026-08-26T12:48:43+00:00</time>
      </trkpt>
      <trkpt lat="49.94045" lon="6.06415">
        <ele>267</ele>
        <time>2026-08-26T12:48:46+00:00</time>
      </trkpt>
      <trkpt lat="49.9407" lon="6.06406">
        <ele>268</ele>
        <time>2026-08-26T12:48:49+00:00</time>
      </trkpt>
      <trkpt lat="49.941" lon="6.06379">
        <ele>270</ele>
        <time>2026-08-26T12:48:52+00:00</time>
      </trkpt>
      <trkpt lat="49.94115" lon="6.06369">
        <ele>277</ele>
        <time>2026-08-26T12:48:55+00:00</time>
      </trkpt>
      <trkpt lat="49.9413" lon="6.06364">
        <ele>280</ele>
        <time>2026-08-26T12:48:58+00:00</time>
      </trkpt>
      <trkpt lat="49.94147" lon="6.06359">
        <ele>283</ele>
        <time>2026-08-26T12:49:01+00:00</time>
      </trkpt>
      <trkpt lat="49.94172" lon="6.06356">
        <ele>284</ele>
        <time>2026-08-26T12:49:04+00:00</time>
      </trkpt>
      <trkpt lat="49.9419" lon="6.06359">
        <ele>285</ele>
        <time>2026-08-26T12:49:07+00:00</time>
      </trkpt>
      <trkpt lat="49.94205" lon="6.06371">
        <ele>290</ele>
        <time>2026-08-26T12:49:10+00:00</time>
      </trkpt>
      <trkpt lat="49.94224" lon="6.06392">
        <ele>291</ele>
        <time>2026-08-26T12:49:13+00:00</time>
      </trkpt>
      <trkpt lat="49.94244" lon="6.06412">
        <ele>295</ele>
        <time>2026-08-26T12:49:16+00:00</time>
      </trkpt>
      <trkpt lat="49.94264" lon="6.06434">
        <ele>296</ele>
        <time>2026-08-26T12:49:19+00:00</time>
      </trkpt>
      <trkpt lat="49.94294" lon="6.06456">
        <ele>296</ele>
        <time>2026-08-26T12:49:22+00:00</time>
      </trkpt>
      <trkpt lat="49.94315" lon="6.06462">
        <ele>295</ele>
        <time>2026-08-26T12:49:25+00:00</time>
      </trkpt>
      <trkpt lat="49.94337" lon="6.06462">
        <ele>295</ele>
        <time>2026-08-26T12:49:28+00:00</time>
      </trkpt>
      <trkpt lat="49.94352" lon="6.06467">
        <ele>292</ele>
        <time>2026-08-26T12:49:31+00:00</time>
      </trkpt>
      <trkpt lat="49.9437" lon="6.06482">
        <ele>296</ele>
        <time>2026-08-26T12:49:34+00:00</time>
      </trkpt>
      <trkpt lat="49.94371" lon="6.06484">
        <ele>293</ele>
        <time>2026-08-26T12:49:37+00:00</time>
      </trkpt>
      <trkpt lat="49.94382" lon="6.06504">
        <ele>298</ele>
        <time>2026-08-26T12:49:40+00:00</time>
      </trkpt>
      <trkpt lat="49.94407" lon="6.06533">
        <ele>303</ele>
        <time>2026-08-26T12:49:43+00:00</time>
      </trkpt>
      <trkpt lat="49.94429" lon="6.06544">
        <ele>301</ele>
        <time>2026-08-26T12:49:46+00:00</time>
      </trkpt>
      <trkpt lat="49.9445" lon="6.06544">
        <ele>299</ele>
        <time>2026-08-26T12:49:49+00:00</time>
      </trkpt>
      <trkpt lat="49.94473" lon="6.06533">
        <ele>299</ele>
        <time>2026-08-26T12:49:52+00:00</time>
      </trkpt>
      <trkpt lat="49.94508" lon="6.06521">
        <ele>299</ele>
        <time>2026-08-26T12:49:55+00:00</time>
      </trkpt>
      <trkpt lat="49.94529" lon="6.06508">
        <ele>302</ele>
        <time>2026-08-26T12:49:58+00:00</time>
      </trkpt>
      <trkpt lat="49.94553" lon="6.06493">
        <ele>298</ele>
        <time>2026-08-26T12:50:01+00:00</time>
      </trkpt>
      <trkpt lat="49.94579" lon="6.06476">
        <ele>295</ele>
        <time>2026-08-26T12:50:04+00:00</time>
      </trkpt>
      <trkpt lat="49.94603" lon="6.06458">
        <ele>295</ele>
        <time>2026-08-26T12:50:07+00:00</time>
      </trkpt>
      <trkpt lat="49.94619" lon="6.06442">
        <ele>295</ele>
        <time>2026-08-26T12:50:10+00:00</time>
      </trkpt>
      <trkpt lat="49.94635" lon="6.06412">
        <ele>298</ele>
        <time>2026-08-26T12:50:13+00:00</time>
      </trkpt>
      <trkpt lat="49.94645" lon="6.06373">
        <ele>299</ele>
        <time>2026-08-26T12:50:16+00:00</time>
      </trkpt>
      <trkpt lat="49.94653" lon="6.06361">
        <ele>298</ele>
        <time>2026-08-26T12:50:19+00:00</time>
      </trkpt>
      <trkpt lat="49.94661" lon="6.06356">
        <ele>298</ele>
        <time>2026-08-26T12:50:22+00:00</time>
      </trkpt>
      <trkpt lat="49.94671" lon="6.06348">
        <ele>301</ele>
        <time>2026-08-26T12:50:25+00:00</time>
      </trkpt>
      <trkpt lat="49.94695" lon="6.06321">
        <ele>298</ele>
        <time>2026-08-26T12:50:28+00:00</time>
      </trkpt>
      <trkpt lat="49.94717" lon="6.06289">
        <ele>298</ele>
        <time>2026-08-26T12:50:31+00:00</time>
      </trkpt>
      <trkpt lat="49.94728" lon="6.0628">
        <ele>300</ele>
        <time>2026-08-26T12:50:34+00:00</time>
      </trkpt>
      <trkpt lat="49.94737" lon="6.06279">
        <ele>297</ele>
        <time>2026-08-26T12:50:37+00:00</time>
      </trkpt>
      <trkpt lat="49.94756" lon="6.06286">
        <ele>297</ele>
        <time>2026-08-26T12:50:40+00:00</time>
      </trkpt>
      <trkpt lat="49.94767" lon="6.06295">
        <ele>297</ele>
        <time>2026-08-26T12:50:43+00:00</time>
      </trkpt>
      <trkpt lat="49.94787" lon="6.06319">
        <ele>298</ele>
        <time>2026-08-26T12:50:46+00:00</time>
      </trkpt>
      <trkpt lat="49.94798" lon="6.06326">
        <ele>302</ele>
        <time>2026-08-26T12:50:49+00:00</time>
      </trkpt>
      <trkpt lat="49.94817" lon="6.06332">
        <ele>299</ele>
        <time>2026-08-26T12:50:52+00:00</time>
      </trkpt>
      <trkpt lat="49.94833" lon="6.06336">
        <ele>302</ele>
        <time>2026-08-26T12:50:55+00:00</time>
      </trkpt>
      <trkpt lat="49.9484" lon="6.0634">
        <ele>299</ele>
        <time>2026-08-26T12:50:58+00:00</time>
      </trkpt>
      <trkpt lat="49.94833" lon="6.06336">
        <ele>302</ele>
        <time>2026-08-26T12:51:01+00:00</time>
      </trkpt>
      <trkpt lat="49.94817" lon="6.06332">
        <ele>299</ele>
        <time>2026-08-26T12:51:04+00:00</time>
      </trkpt>
      <trkpt lat="49.94835" lon="6.06349">
        <ele>303</ele>
        <time>2026-08-26T12:51:07+00:00</time>
      </trkpt>
      <trkpt lat="49.94826" lon="6.06352">
        <ele>306</ele>
        <time>2026-08-26T12:51:10+00:00</time>
      </trkpt>
      <trkpt lat="49.94798" lon="6.0635">
        <ele>307</ele>
        <time>2026-08-26T12:51:13+00:00</time>
      </trkpt>
      <trkpt lat="49.94777" lon="6.06362">
        <ele>318</ele>
        <time>2026-08-26T12:51:16+00:00</time>
      </trkpt>
      <trkpt lat="49.9475" lon="6.06353">
        <ele>320</ele>
        <time>2026-08-26T12:51:19+00:00</time>
      </trkpt>
      <trkpt lat="49.94743" lon="6.06354">
        <ele>320</ele>
        <time>2026-08-26T12:51:22+00:00</time>
      </trkpt>
      <trkpt lat="49.94735" lon="6.0635">
        <ele>312</ele>
        <time>2026-08-26T12:51:25+00:00</time>
      </trkpt>
      <trkpt lat="49.94741" lon="6.06368">
        <ele>323</ele>
        <time>2026-08-26T12:51:28+00:00</time>
      </trkpt>
      <trkpt lat="49.94737" lon="6.06368">
        <ele>319</ele>
        <time>2026-08-26T12:51:31+00:00</time>
      </trkpt>
      <trkpt lat="49.94736" lon="6.0637">
        <ele>319</ele>
        <time>2026-08-26T12:51:34+00:00</time>
      </trkpt>
      <trkpt lat="49.94738" lon="6.06377">
        <ele>319</ele>
        <time>2026-08-26T12:51:37+00:00</time>
      </trkpt>
      <trkpt lat="49.94745" lon="6.06384">
        <ele>325</ele>
        <time>2026-08-26T12:51:40+00:00</time>
      </trkpt>
      <trkpt lat="49.9475" lon="6.06409">
        <ele>326</ele>
        <time>2026-08-26T12:51:43+00:00</time>
      </trkpt>
      <trkpt lat="49.94755" lon="6.06412">
        <ele>332</ele>
        <time>2026-08-26T12:51:46+00:00</time>
      </trkpt>
      <trkpt lat="49.94767" lon="6.0644">
        <ele>337</ele>
        <time>2026-08-26T12:51:49+00:00</time>
      </trkpt>
      <trkpt lat="49.94779" lon="6.06469">
        <ele>341</ele>
        <time>2026-08-26T12:51:52+00:00</time>
      </trkpt>
      <trkpt lat="49.94783" lon="6.06475">
        <ele>347</ele>
        <time>2026-08-26T12:51:55+00:00</time>
      </trkpt>
      <trkpt lat="49.94788" lon="6.06486">
        <ele>346</ele>
        <time>2026-08-26T12:51:58+00:00</time>
      </trkpt>
      <trkpt lat="49.94791" lon="6.06487">
        <ele>351</ele>
        <time>2026-08-26T12:52:01+00:00</time>
      </trkpt>
      <trkpt lat="49.94797" lon="6.06496">
        <ele>351</ele>
        <time>2026-08-26T12:52:04+00:00</time>
      </trkpt>
      <trkpt lat="49.94802" lon="6.06507">
        <ele>355</ele>
        <time>2026-08-26T12:52:07+00:00</time>
      </trkpt>
      <trkpt lat="49.94808" lon="6.06529">
        <ele>351</ele>
        <time>2026-08-26T12:52:10+00:00</time>
      </trkpt>
      <trkpt lat="49.94816" lon="6.06569">
        <ele>348</ele>
        <time>2026-08-26T12:52:13+00:00</time>
      </trkpt>
      <trkpt lat="49.94817" lon="6.06588">
        <ele>348</ele>
        <time>2026-08-26T12:52:16+00:00</time>
      </trkpt>
      <trkpt lat="49.9482" lon="6.06607">
        <ele>347</ele>
        <time>2026-08-26T12:52:19+00:00</time>
      </trkpt>
      <trkpt lat="49.94828" lon="6.06631">
        <ele>347</ele>
        <time>2026-08-26T12:52:22+00:00</time>
      </trkpt>
      <trkpt lat="49.94829" lon="6.06644">
        <ele>346</ele>
        <time>2026-08-26T12:52:25+00:00</time>
      </trkpt>
      <trkpt lat="49.94829" lon="6.06645">
        <ele>346</ele>
        <time>2026-08-26T12:52:28+00:00</time>
      </trkpt>
      <trkpt lat="49.94838" lon="6.06684">
        <ele>351</ele>
        <time>2026-08-26T12:52:31+00:00</time>
      </trkpt>
      <trkpt lat="49.94849" lon="6.06729">
        <ele>356</ele>
        <time>2026-08-26T12:52:34+00:00</time>
      </trkpt>
      <trkpt lat="49.94859" lon="6.06761">
        <ele>357</ele>
        <time>2026-08-26T12:52:37+00:00</time>
      </trkpt>
      <trkpt lat="49.94861" lon="6.06779">
        <ele>356</ele>
        <time>2026-08-26T12:52:40+00:00</time>
      </trkpt>
      <trkpt lat="49.94865" lon="6.06785">
        <ele>357</ele>
        <time>2026-08-26T12:52:43+00:00</time>
      </trkpt>
      <trkpt lat="49.94868" lon="6.06796">
        <ele>358</ele>
        <time>2026-08-26T12:52:46+00:00</time>
      </trkpt>
      <trkpt lat="49.9487" lon="6.06821">
        <ele>361</ele>
        <time>2026-08-26T12:52:49+00:00</time>
      </trkpt>
      <trkpt lat="49.94877" lon="6.06853">
        <ele>365</ele>
        <time>2026-08-26T12:52:52+00:00</time>
      </trkpt>
      <trkpt lat="49.94882" lon="6.06872">
        <ele>371</ele>
        <time>2026-08-26T12:52:55+00:00</time>
      </trkpt>
      <trkpt lat="49.94885" lon="6.06873">
        <ele>371</ele>
        <time>2026-08-26T12:52:58+00:00</time>
      </trkpt>
      <trkpt lat="49.94891" lon="6.06908">
        <ele>381</ele>
        <time>2026-08-26T12:53:01+00:00</time>
      </trkpt>
      <trkpt lat="49.94895" lon="6.06918">
        <ele>383</ele>
        <time>2026-08-26T12:53:04+00:00</time>
      </trkpt>
      <trkpt lat="49.94898" lon="6.06932">
        <ele>386</ele>
        <time>2026-08-26T12:53:07+00:00</time>
      </trkpt>
      <trkpt lat="49.949" lon="6.06935">
        <ele>386</ele>
        <time>2026-08-26T12:53:10+00:00</time>
      </trkpt>
      <trkpt lat="49.94901" lon="6.06949">
        <ele>389</ele>
        <time>2026-08-26T12:53:13+00:00</time>
      </trkpt>
      <trkpt lat="49.94903" lon="6.0695">
        <ele>389</ele>
        <time>2026-08-26T12:53:16+00:00</time>
      </trkpt>
      <trkpt lat="49.94906" lon="6.06961">
        <ele>396</ele>
        <time>2026-08-26T12:53:19+00:00</time>
      </trkpt>
      <trkpt lat="49.94904" lon="6.06967">
        <ele>396</ele>
        <time>2026-08-26T12:53:22+00:00</time>
      </trkpt>
      <trkpt lat="49.94904" lon="6.06976">
        <ele>400</ele>
        <time>2026-08-26T12:53:25+00:00</time>
      </trkpt>
      <trkpt lat="49.94908" lon="6.07001">
        <ele>408</ele>
        <time>2026-08-26T12:53:28+00:00</time>
      </trkpt>
      <trkpt lat="49.94909" lon="6.07028">
        <ele>412</ele>
        <time>2026-08-26T12:53:31+00:00</time>
      </trkpt>
      <trkpt lat="49.94912" lon="6.07063">
        <ele>421</ele>
        <time>2026-08-26T12:53:34+00:00</time>
      </trkpt>
      <trkpt lat="49.94915" lon="6.07104">
        <ele>423</ele>
        <time>2026-08-26T12:53:37+00:00</time>
      </trkpt>
      <trkpt lat="49.94915" lon="6.07126">
        <ele>424</ele>
        <time>2026-08-26T12:53:40+00:00</time>
      </trkpt>
      <trkpt lat="49.94912" lon="6.07153">
        <ele>427</ele>
        <time>2026-08-26T12:53:43+00:00</time>
      </trkpt>
      <trkpt lat="49.94908" lon="6.07185">
        <ele>431</ele>
        <time>2026-08-26T12:53:46+00:00</time>
      </trkpt>
      <trkpt lat="49.94909" lon="6.07208">
        <ele>433</ele>
        <time>2026-08-26T12:53:49+00:00</time>
      </trkpt>
      <trkpt lat="49.94911" lon="6.07234">
        <ele>438</ele>
        <time>2026-08-26T12:53:52+00:00</time>
      </trkpt>
      <trkpt lat="49.94914" lon="6.07266">
        <ele>443</ele>
        <time>2026-08-26T12:53:55+00:00</time>
      </trkpt>
      <trkpt lat="49.94914" lon="6.07289">
        <ele>444</ele>
        <time>2026-08-26T12:53:58+00:00</time>
      </trkpt>
      <trkpt lat="49.9492" lon="6.07326">
        <ele>448</ele>
        <time>2026-08-26T12:54:01+00:00</time>
      </trkpt>
      <trkpt lat="49.94921" lon="6.07342">
        <ele>450</ele>
        <time>2026-08-26T12:54:04+00:00</time>
      </trkpt>
      <trkpt lat="49.94925" lon="6.07385">
        <ele>453</ele>
        <time>2026-08-26T12:54:07+00:00</time>
      </trkpt>
      <trkpt lat="49.94928" lon="6.07429">
        <ele>456</ele>
        <time>2026-08-26T12:54:10+00:00</time>
      </trkpt>
      <trkpt lat="49.94934" lon="6.07496">
        <ele>462</ele>
        <time>2026-08-26T12:54:13+00:00</time>
      </trkpt>
      <trkpt lat="49.94943" lon="6.07545">
        <ele>467</ele>
        <time>2026-08-26T12:54:16+00:00</time>
      </trkpt>
      <trkpt lat="49.94946" lon="6.0758">
        <ele>470</ele>
        <time>2026-08-26T12:54:19+00:00</time>
      </trkpt>
      <trkpt lat="49.9495" lon="6.07621">
        <ele>473</ele>
        <time>2026-08-26T12:54:22+00:00</time>
      </trkpt>
      <trkpt lat="49.94957" lon="6.07657">
        <ele>476</ele>
        <time>2026-08-26T12:54:25+00:00</time>
      </trkpt>
      <trkpt lat="49.94959" lon="6.0767">
        <ele>476</ele>
        <time>2026-08-26T12:54:28+00:00</time>
      </trkpt>
      <trkpt lat="49.94944" lon="6.07694">
        <ele>478</ele>
        <time>2026-08-26T12:54:31+00:00</time>
      </trkpt>
      <trkpt lat="49.94923" lon="6.07729">
        <ele>478</ele>
        <time>2026-08-26T12:54:34+00:00</time>
      </trkpt>
      <trkpt lat="49.94899" lon="6.07773">
        <ele>480</ele>
        <time>2026-08-26T12:54:37+00:00</time>
      </trkpt>
      <trkpt lat="49.9488" lon="6.07809">
        <ele>481</ele>
        <time>2026-08-26T12:54:40+00:00</time>
      </trkpt>
      <trkpt lat="49.94861" lon="6.07845">
        <ele>483</ele>
        <time>2026-08-26T12:54:43+00:00</time>
      </trkpt>
      <trkpt lat="49.94838" lon="6.07888">
        <ele>486</ele>
        <time>2026-08-26T12:54:46+00:00</time>
      </trkpt>
      <trkpt lat="49.94824" lon="6.07918">
        <ele>487</ele>
        <time>2026-08-26T12:54:49+00:00</time>
      </trkpt>
      <trkpt lat="49.9482" lon="6.07936">
        <ele>487</ele>
        <time>2026-08-26T12:54:52+00:00</time>
      </trkpt>
      <trkpt lat="49.94819" lon="6.07936">
        <ele>487</ele>
        <time>2026-08-26T12:54:55+00:00</time>
      </trkpt>
      <trkpt lat="49.9482" lon="6.07936">
        <ele>487</ele>
        <time>2026-08-26T12:54:58+00:00</time>
      </trkpt>
      <trkpt lat="49.94821" lon="6.07943">
        <ele>487</ele>
        <time>2026-08-26T12:55:01+00:00</time>
      </trkpt>
      <trkpt lat="49.94864" lon="6.07944">
        <ele>486</ele>
        <time>2026-08-26T12:55:04+00:00</time>
      </trkpt>
      <trkpt lat="49.94888" lon="6.07941">
        <ele>486</ele>
        <time>2026-08-26T12:55:07+00:00</time>
      </trkpt>
      <trkpt lat="49.94917" lon="6.07938">
        <ele>486</ele>
        <time>2026-08-26T12:55:10+00:00</time>
      </trkpt>
      <trkpt lat="49.94936" lon="6.0794">
        <ele>486</ele>
        <time>2026-08-26T12:55:13+00:00</time>
      </trkpt>
      <trkpt lat="49.94967" lon="6.07948">
        <ele>488</ele>
        <time>2026-08-26T12:55:16+00:00</time>
      </trkpt>
      <trkpt lat="49.94983" lon="6.07955">
        <ele>488</ele>
        <time>2026-08-26T12:55:19+00:00</time>
      </trkpt>
      <trkpt lat="49.95005" lon="6.07973">
        <ele>489</ele>
        <time>2026-08-26T12:55:22+00:00</time>
      </trkpt>
      <trkpt lat="49.95027" lon="6.0799">
        <ele>489</ele>
        <time>2026-08-26T12:55:25+00:00</time>
      </trkpt>
      <trkpt lat="49.95054" lon="6.08012">
        <ele>490</ele>
        <time>2026-08-26T12:55:28+00:00</time>
      </trkpt>
      <trkpt lat="49.95076" lon="6.08035">
        <ele>491</ele>
        <time>2026-08-26T12:55:31+00:00</time>
      </trkpt>
      <trkpt lat="49.95109" lon="6.08072">
        <ele>493</ele>
        <time>2026-08-26T12:55:34+00:00</time>
      </trkpt>
      <trkpt lat="49.95115" lon="6.08079">
        <ele>493</ele>
        <time>2026-08-26T12:55:37+00:00</time>
      </trkpt>
      <trkpt lat="49.9512" lon="6.08064">
        <ele>493</ele>
        <time>2026-08-26T12:55:40+00:00</time>
      </trkpt>
      <trkpt lat="49.9513" lon="6.08025">
        <ele>493</ele>
        <time>2026-08-26T12:55:43+00:00</time>
      </trkpt>
      <trkpt lat="49.95143" lon="6.07986">
        <ele>493</ele>
        <time>2026-08-26T12:55:46+00:00</time>
      </trkpt>
      <trkpt lat="49.95169" lon="6.07909">
        <ele>490</ele>
        <time>2026-08-26T12:55:49+00:00</time>
      </trkpt>
      <trkpt lat="49.95171" lon="6.07861">
        <ele>488</ele>
        <time>2026-08-26T12:55:52+00:00</time>
      </trkpt>
      <trkpt lat="49.95175" lon="6.07823">
        <ele>486</ele>
        <time>2026-08-26T12:55:55+00:00</time>
      </trkpt>
      <trkpt lat="49.95178" lon="6.07807">
        <ele>485</ele>
        <time>2026-08-26T12:55:58+00:00</time>
      </trkpt>
      <trkpt lat="49.95187" lon="6.07783">
        <ele>484</ele>
        <time>2026-08-26T12:56:01+00:00</time>
      </trkpt>
      <trkpt lat="49.95197" lon="6.07755">
        <ele>481</ele>
        <time>2026-08-26T12:56:04+00:00</time>
      </trkpt>
      <trkpt lat="49.95201" lon="6.0775">
        <ele>480</ele>
        <time>2026-08-26T12:56:07+00:00</time>
      </trkpt>
      <trkpt lat="49.95209" lon="6.07749">
        <ele>480</ele>
        <time>2026-08-26T12:56:10+00:00</time>
      </trkpt>
      <trkpt lat="49.95216" lon="6.07758">
        <ele>479</ele>
        <time>2026-08-26T12:56:13+00:00</time>
      </trkpt>
      <trkpt lat="49.95221" lon="6.07769">
        <ele>478</ele>
        <time>2026-08-26T12:56:16+00:00</time>
      </trkpt>
      <trkpt lat="49.95234" lon="6.07798">
        <ele>479</ele>
        <time>2026-08-26T12:56:19+00:00</time>
      </trkpt>
      <trkpt lat="49.95248" lon="6.07812">
        <ele>478</ele>
        <time>2026-08-26T12:56:22+00:00</time>
      </trkpt>
      <trkpt lat="49.95273" lon="6.07812">
        <ele>478</ele>
        <time>2026-08-26T12:56:25+00:00</time>
      </trkpt>
      <trkpt lat="49.95299" lon="6.07812">
        <ele>477</ele>
        <time>2026-08-26T12:56:28+00:00</time>
      </trkpt>
      <trkpt lat="49.95333" lon="6.07812">
        <ele>471</ele>
        <time>2026-08-26T12:56:31+00:00</time>
      </trkpt>
      <trkpt lat="49.95354" lon="6.07807">
        <ele>468</ele>
        <time>2026-08-26T12:56:34+00:00</time>
      </trkpt>
      <trkpt lat="49.9537" lon="6.07796">
        <ele>467</ele>
        <time>2026-08-26T12:56:37+00:00</time>
      </trkpt>
      <trkpt lat="49.95382" lon="6.07782">
        <ele>464</ele>
        <time>2026-08-26T12:56:40+00:00</time>
      </trkpt>
      <trkpt lat="49.95396" lon="6.07761">
        <ele>462</ele>
        <time>2026-08-26T12:56:43+00:00</time>
      </trkpt>
      <trkpt lat="49.95417" lon="6.07729">
        <ele>456</ele>
        <time>2026-08-26T12:56:46+00:00</time>
      </trkpt>
      <trkpt lat="49.9543" lon="6.0772">
        <ele>453</ele>
        <time>2026-08-26T12:56:49+00:00</time>
      </trkpt>
      <trkpt lat="49.9545" lon="6.0771">
        <ele>451</ele>
        <time>2026-08-26T12:56:52+00:00</time>
      </trkpt>
      <trkpt lat="49.9548" lon="6.07695">
        <ele>448</ele>
        <time>2026-08-26T12:56:55+00:00</time>
      </trkpt>
      <trkpt lat="49.95518" lon="6.07667">
        <ele>440</ele>
        <time>2026-08-26T12:56:58+00:00</time>
      </trkpt>
      <trkpt lat="49.95537" lon="6.07663">
        <ele>437</ele>
        <time>2026-08-26T12:57:01+00:00</time>
      </trkpt>
      <trkpt lat="49.95547" lon="6.07643">
        <ele>436</ele>
        <time>2026-08-26T12:57:04+00:00</time>
      </trkpt>
      <trkpt lat="49.9556" lon="6.07627">
        <ele>435</ele>
        <time>2026-08-26T12:57:07+00:00</time>
      </trkpt>
      <trkpt lat="49.95571" lon="6.07609">
        <ele>435</ele>
        <time>2026-08-26T12:57:10+00:00</time>
      </trkpt>
      <trkpt lat="49.95584" lon="6.07594">
        <ele>434</ele>
        <time>2026-08-26T12:57:13+00:00</time>
      </trkpt>
      <trkpt lat="49.95596" lon="6.07583">
        <ele>433</ele>
        <time>2026-08-26T12:57:16+00:00</time>
      </trkpt>
      <trkpt lat="49.95621" lon="6.07568">
        <ele>432</ele>
        <time>2026-08-26T12:57:19+00:00</time>
      </trkpt>
      <trkpt lat="49.95646" lon="6.07552">
        <ele>431</ele>
        <time>2026-08-26T12:57:22+00:00</time>
      </trkpt>
      <trkpt lat="49.95682" lon="6.0753">
        <ele>428</ele>
        <time>2026-08-26T12:57:25+00:00</time>
      </trkpt>
      <trkpt lat="49.95696" lon="6.07526">
        <ele>424</ele>
        <time>2026-08-26T12:57:28+00:00</time>
      </trkpt>
      <trkpt lat="49.95706" lon="6.07519">
        <ele>426</ele>
        <time>2026-08-26T12:57:31+00:00</time>
      </trkpt>
      <trkpt lat="49.95713" lon="6.07502">
        <ele>424</ele>
        <time>2026-08-26T12:57:34+00:00</time>
      </trkpt>
      <trkpt lat="49.95719" lon="6.07472">
        <ele>421</ele>
        <time>2026-08-26T12:57:37+00:00</time>
      </trkpt>
      <trkpt lat="49.95717" lon="6.07439">
        <ele>412</ele>
        <time>2026-08-26T12:57:40+00:00</time>
      </trkpt>
      <trkpt lat="49.95711" lon="6.07414">
        <ele>410</ele>
        <time>2026-08-26T12:57:43+00:00</time>
      </trkpt>
      <trkpt lat="49.95702" lon="6.07389">
        <ele>407</ele>
        <time>2026-08-26T12:57:46+00:00</time>
      </trkpt>
      <trkpt lat="49.95689" lon="6.07352">
        <ele>400</ele>
        <time>2026-08-26T12:57:49+00:00</time>
      </trkpt>
      <trkpt lat="49.95677" lon="6.07324">
        <ele>387</ele>
        <time>2026-08-26T12:57:52+00:00</time>
      </trkpt>
      <trkpt lat="49.95664" lon="6.07296">
        <ele>377</ele>
        <time>2026-08-26T12:57:55+00:00</time>
      </trkpt>
      <trkpt lat="49.95659" lon="6.07274">
        <ele>373</ele>
        <time>2026-08-26T12:57:58+00:00</time>
      </trkpt>
      <trkpt lat="49.95657" lon="6.07241">
        <ele>372</ele>
        <time>2026-08-26T12:58:01+00:00</time>
      </trkpt>
      <trkpt lat="49.95656" lon="6.07208">
        <ele>365</ele>
        <time>2026-08-26T12:58:04+00:00</time>
      </trkpt>
      <trkpt lat="49.95658" lon="6.07179">
        <ele>362</ele>
        <time>2026-08-26T12:58:07+00:00</time>
      </trkpt>
      <trkpt lat="49.9567" lon="6.07165">
        <ele>358</ele>
        <time>2026-08-26T12:58:10+00:00</time>
      </trkpt>
      <trkpt lat="49.95676" lon="6.07167">
        <ele>359</ele>
        <time>2026-08-26T12:58:13+00:00</time>
      </trkpt>
      <trkpt lat="49.9568" lon="6.07168">
        <ele>359</ele>
        <time>2026-08-26T12:58:16+00:00</time>
      </trkpt>
      <trkpt lat="49.95682" lon="6.07165">
        <ele>358</ele>
        <time>2026-08-26T12:58:19+00:00</time>
      </trkpt>
      <trkpt lat="49.95688" lon="6.07166">
        <ele>358</ele>
        <time>2026-08-26T12:58:22+00:00</time>
      </trkpt>
      <trkpt lat="49.95692" lon="6.07165">
        <ele>356</ele>
        <time>2026-08-26T12:58:25+00:00</time>
      </trkpt>
      <trkpt lat="49.95696" lon="6.07173">
        <ele>357</ele>
        <time>2026-08-26T12:58:28+00:00</time>
      </trkpt>
      <trkpt lat="49.95699" lon="6.07171">
        <ele>357</ele>
        <time>2026-08-26T12:58:31+00:00</time>
      </trkpt>
      <trkpt lat="49.95711" lon="6.07177">
        <ele>347</ele>
        <time>2026-08-26T12:58:34+00:00</time>
      </trkpt>
      <trkpt lat="49.95721" lon="6.07169">
        <ele>353</ele>
        <time>2026-08-26T12:58:37+00:00</time>
      </trkpt>
      <trkpt lat="49.95729" lon="6.07194">
        <ele>352</ele>
        <time>2026-08-26T12:58:40+00:00</time>
      </trkpt>
      <trkpt lat="49.95732" lon="6.07159">
        <ele>352</ele>
        <time>2026-08-26T12:58:43+00:00</time>
      </trkpt>
      <trkpt lat="49.95746" lon="6.07194">
        <ele>354</ele>
        <time>2026-08-26T12:58:46+00:00</time>
      </trkpt>
      <trkpt lat="49.95768" lon="6.07223">
        <ele>356</ele>
        <time>2026-08-26T12:58:49+00:00</time>
      </trkpt>
      <trkpt lat="49.95791" lon="6.07251">
        <ele>371</ele>
        <time>2026-08-26T12:58:52+00:00</time>
      </trkpt>
      <trkpt lat="49.95813" lon="6.0728">
        <ele>378</ele>
        <time>2026-08-26T12:58:55+00:00</time>
      </trkpt>
      <trkpt lat="49.95823" lon="6.07297">
        <ele>378</ele>
        <time>2026-08-26T12:58:58+00:00</time>
      </trkpt>
      <trkpt lat="49.95826" lon="6.07296">
        <ele>378</ele>
        <time>2026-08-26T12:59:01+00:00</time>
      </trkpt>
      <trkpt lat="49.95827" lon="6.07292">
        <ele>378</ele>
        <time>2026-08-26T12:59:04+00:00</time>
      </trkpt>
      <trkpt lat="49.9582" lon="6.0727">
        <ele>380</ele>
        <time>2026-08-26T12:59:07+00:00</time>
      </trkpt>
      <trkpt lat="49.95809" lon="6.07227">
        <ele>381</ele>
        <time>2026-08-26T12:59:10+00:00</time>
      </trkpt>
      <trkpt lat="49.95798" lon="6.07184">
        <ele>382</ele>
        <time>2026-08-26T12:59:13+00:00</time>
      </trkpt>
      <trkpt lat="49.95785" lon="6.07132">
        <ele>382</ele>
        <time>2026-08-26T12:59:16+00:00</time>
      </trkpt>
      <trkpt lat="49.95779" lon="6.07099">
        <ele>381</ele>
        <time>2026-08-26T12:59:19+00:00</time>
      </trkpt>
      <trkpt lat="49.95773" lon="6.07067">
        <ele>381</ele>
        <time>2026-08-26T12:59:22+00:00</time>
      </trkpt>
      <trkpt lat="49.95773" lon="6.07062">
        <ele>381</ele>
        <time>2026-08-26T12:59:25+00:00</time>
      </trkpt>
      <trkpt lat="49.95776" lon="6.07062">
        <ele>381</ele>
        <time>2026-08-26T12:59:28+00:00</time>
      </trkpt>
      <trkpt lat="49.95778" lon="6.07066">
        <ele>381</ele>
        <time>2026-08-26T12:59:31+00:00</time>
      </trkpt>
      <trkpt lat="49.95794" lon="6.07096">
        <ele>390</ele>
        <time>2026-08-26T12:59:34+00:00</time>
      </trkpt>
      <trkpt lat="49.95824" lon="6.07153">
        <ele>403</ele>
        <time>2026-08-26T12:59:37+00:00</time>
      </trkpt>
      <trkpt lat="49.95837" lon="6.07171">
        <ele>407</ele>
        <time>2026-08-26T12:59:40+00:00</time>
      </trkpt>
      <trkpt lat="49.95859" lon="6.07205">
        <ele>412</ele>
        <time>2026-08-26T12:59:43+00:00</time>
      </trkpt>
      <trkpt lat="49.95881" lon="6.07238">
        <ele>421</ele>
        <time>2026-08-26T12:59:46+00:00</time>
      </trkpt>
      <trkpt lat="49.95915" lon="6.07289">
        <ele>424</ele>
        <time>2026-08-26T12:59:49+00:00</time>
      </trkpt>
      <trkpt lat="49.9592" lon="6.07294">
        <ele>423</ele>
        <time>2026-08-26T12:59:52+00:00</time>
      </trkpt>
      <trkpt lat="49.9592" lon="6.07283">
        <ele>424</ele>
        <time>2026-08-26T12:59:55+00:00</time>
      </trkpt>
      <trkpt lat="49.95913" lon="6.07257">
        <ele>431</ele>
        <time>2026-08-26T12:59:58+00:00</time>
      </trkpt>
      <trkpt lat="49.95901" lon="6.07219">
        <ele>436</ele>
        <time>2026-08-26T13:00:01+00:00</time>
      </trkpt>
      <trkpt lat="49.95881" lon="6.07156">
        <ele>431</ele>
        <time>2026-08-26T13:00:04+00:00</time>
      </trkpt>
      <trkpt lat="49.95868" lon="6.07108">
        <ele>429</ele>
        <time>2026-08-26T13:00:07+00:00</time>
      </trkpt>
      <trkpt lat="49.95862" lon="6.07066">
        <ele>432</ele>
        <time>2026-08-26T13:00:10+00:00</time>
      </trkpt>
      <trkpt lat="49.95851" lon="6.06995">
        <ele>435</ele>
        <time>2026-08-26T13:00:13+00:00</time>
      </trkpt>
      <trkpt lat="49.95853" lon="6.06992">
        <ele>435</ele>
        <time>2026-08-26T13:00:16+00:00</time>
      </trkpt>
      <trkpt lat="49.95858" lon="6.06997">
        <ele>435</ele>
        <time>2026-08-26T13:00:19+00:00</time>
      </trkpt>
      <trkpt lat="49.95875" lon="6.07027">
        <ele>437</ele>
        <time>2026-08-26T13:00:22+00:00</time>
      </trkpt>
      <trkpt lat="49.95905" lon="6.07072">
        <ele>443</ele>
        <time>2026-08-26T13:00:25+00:00</time>
      </trkpt>
      <trkpt lat="49.95927" lon="6.07093">
        <ele>455</ele>
        <time>2026-08-26T13:00:28+00:00</time>
      </trkpt>
      <trkpt lat="49.95958" lon="6.07124">
        <ele>465</ele>
        <time>2026-08-26T13:00:31+00:00</time>
      </trkpt>
      <trkpt lat="49.95965" lon="6.07127">
        <ele>466</ele>
        <time>2026-08-26T13:00:34+00:00</time>
      </trkpt>
      <trkpt lat="49.95962" lon="6.07094">
        <ele>462</ele>
        <time>2026-08-26T13:00:37+00:00</time>
      </trkpt>
      <trkpt lat="49.95959" lon="6.07051">
        <ele>459</ele>
        <time>2026-08-26T13:00:40+00:00</time>
      </trkpt>
      <trkpt lat="49.95959" lon="6.07032">
        <ele>457</ele>
        <time>2026-08-26T13:00:43+00:00</time>
      </trkpt>
      <trkpt lat="49.95963" lon="6.07021">
        <ele>458</ele>
        <time>2026-08-26T13:00:46+00:00</time>
      </trkpt>
      <trkpt lat="49.95978" lon="6.07011">
        <ele>458</ele>
        <time>2026-08-26T13:00:49+00:00</time>
      </trkpt>
      <trkpt lat="49.95977" lon="6.07009">
        <ele>457</ele>
        <time>2026-08-26T13:00:52+00:00</time>
      </trkpt>
      <trkpt lat="49.95967" lon="6.06981">
        <ele>457</ele>
        <time>2026-08-26T13:00:55+00:00</time>
      </trkpt>
      <trkpt lat="49.95942" lon="6.06938">
        <ele>457</ele>
        <time>2026-08-26T13:00:58+00:00</time>
      </trkpt>
      <trkpt lat="49.95931" lon="6.06909">
        <ele>461</ele>
        <time>2026-08-26T13:01:01+00:00</time>
      </trkpt>
      <trkpt lat="49.95919" lon="6.06879">
        <ele>461</ele>
        <time>2026-08-26T13:01:04+00:00</time>
      </trkpt>
      <trkpt lat="49.9591" lon="6.0686">
        <ele>463</ele>
        <time>2026-08-26T13:01:07+00:00</time>
      </trkpt>
      <trkpt lat="49.95899" lon="6.06844">
        <ele>461</ele>
        <time>2026-08-26T13:01:10+00:00</time>
      </trkpt>
      <trkpt lat="49.95882" lon="6.06824">
        <ele>458</ele>
        <time>2026-08-26T13:01:13+00:00</time>
      </trkpt>
      <trkpt lat="49.95864" lon="6.06803">
        <ele>457</ele>
        <time>2026-08-26T13:01:16+00:00</time>
      </trkpt>
      <trkpt lat="49.95847" lon="6.06774">
        <ele>453</ele>
        <time>2026-08-26T13:01:19+00:00</time>
      </trkpt>
      <trkpt lat="49.95823" lon="6.06733">
        <ele>450</ele>
        <time>2026-08-26T13:01:22+00:00</time>
      </trkpt>
      <trkpt lat="49.95805" lon="6.06708">
        <ele>444</ele>
        <time>2026-08-26T13:01:25+00:00</time>
      </trkpt>
      <trkpt lat="49.95784" lon="6.06686">
        <ele>440</ele>
        <time>2026-08-26T13:01:28+00:00</time>
      </trkpt>
      <trkpt lat="49.95773" lon="6.0667">
        <ele>440</ele>
        <time>2026-08-26T13:01:31+00:00</time>
      </trkpt>
      <trkpt lat="49.95758" lon="6.0664">
        <ele>437</ele>
        <time>2026-08-26T13:01:34+00:00</time>
      </trkpt>
      <trkpt lat="49.95742" lon="6.06599">
        <ele>434</ele>
        <time>2026-08-26T13:01:37+00:00</time>
      </trkpt>
      <trkpt lat="49.95728" lon="6.06554">
        <ele>431</ele>
        <time>2026-08-26T13:01:40+00:00</time>
      </trkpt>
      <trkpt lat="49.95709" lon="6.06514">
        <ele>430</ele>
        <time>2026-08-26T13:01:43+00:00</time>
      </trkpt>
      <trkpt lat="49.95702" lon="6.06486">
        <ele>430</ele>
        <time>2026-08-26T13:01:46+00:00</time>
      </trkpt>
      <trkpt lat="49.95699" lon="6.06446">
        <ele>428</ele>
        <time>2026-08-26T13:01:49+00:00</time>
      </trkpt>
      <trkpt lat="49.95695" lon="6.06432">
        <ele>431</ele>
        <time>2026-08-26T13:01:52+00:00</time>
      </trkpt>
      <trkpt lat="49.95676" lon="6.0639">
        <ele>426</ele>
        <time>2026-08-26T13:01:55+00:00</time>
      </trkpt>
      <trkpt lat="49.95668" lon="6.06366">
        <ele>423</ele>
        <time>2026-08-26T13:01:58+00:00</time>
      </trkpt>
      <trkpt lat="49.95665" lon="6.06348">
        <ele>422</ele>
        <time>2026-08-26T13:02:01+00:00</time>
      </trkpt>
      <trkpt lat="49.95661" lon="6.06338">
        <ele>421</ele>
        <time>2026-08-26T13:02:04+00:00</time>
      </trkpt>
      <trkpt lat="49.95659" lon="6.06323">
        <ele>416</ele>
        <time>2026-08-26T13:02:07+00:00</time>
      </trkpt>
      <trkpt lat="49.95656" lon="6.06316">
        <ele>415</ele>
        <time>2026-08-26T13:02:10+00:00</time>
      </trkpt>
      <trkpt lat="49.95655" lon="6.06306">
        <ele>415</ele>
        <time>2026-08-26T13:02:13+00:00</time>
      </trkpt>
      <trkpt lat="49.95645" lon="6.06268">
        <ele>402</ele>
        <time>2026-08-26T13:02:16+00:00</time>
      </trkpt>
      <trkpt lat="49.95641" lon="6.06263">
        <ele>402</ele>
        <time>2026-08-26T13:02:19+00:00</time>
      </trkpt>
      <trkpt lat="49.95636" lon="6.06262">
        <ele>397</ele>
        <time>2026-08-26T13:02:22+00:00</time>
      </trkpt>
      <trkpt lat="49.95633" lon="6.0625">
        <ele>394</ele>
        <time>2026-08-26T13:02:25+00:00</time>
      </trkpt>
      <trkpt lat="49.95635" lon="6.06245">
        <ele>394</ele>
        <time>2026-08-26T13:02:28+00:00</time>
      </trkpt>
      <trkpt lat="49.95634" lon="6.06238">
        <ele>393</ele>
        <time>2026-08-26T13:02:31+00:00</time>
      </trkpt>
      <trkpt lat="49.95632" lon="6.06236">
        <ele>393</ele>
        <time>2026-08-26T13:02:34+00:00</time>
      </trkpt>
      <trkpt lat="49.95629" lon="6.06233">
        <ele>389</ele>
        <time>2026-08-26T13:02:37+00:00</time>
      </trkpt>
      <trkpt lat="49.95628" lon="6.06234">
        <ele>389</ele>
        <time>2026-08-26T13:02:40+00:00</time>
      </trkpt>
      <trkpt lat="49.95618" lon="6.06263">
        <ele>387</ele>
        <time>2026-08-26T13:02:43+00:00</time>
      </trkpt>
      <trkpt lat="49.95617" lon="6.06271">
        <ele>388</ele>
        <time>2026-08-26T13:02:46+00:00</time>
      </trkpt>
      <trkpt lat="49.95603" lon="6.06313">
        <ele>386</ele>
        <time>2026-08-26T13:02:49+00:00</time>
      </trkpt>
      <trkpt lat="49.956" lon="6.06327">
        <ele>381</ele>
        <time>2026-08-26T13:02:52+00:00</time>
      </trkpt>
      <trkpt lat="49.95594" lon="6.06338">
        <ele>382</ele>
        <time>2026-08-26T13:02:55+00:00</time>
      </trkpt>
      <trkpt lat="49.95587" lon="6.06363">
        <ele>379</ele>
        <time>2026-08-26T13:02:58+00:00</time>
      </trkpt>
      <trkpt lat="49.95575" lon="6.06393">
        <ele>377</ele>
        <time>2026-08-26T13:03:01+00:00</time>
      </trkpt>
      <trkpt lat="49.95555" lon="6.06423">
        <ele>372</ele>
        <time>2026-08-26T13:03:04+00:00</time>
      </trkpt>
      <trkpt lat="49.95541" lon="6.06438">
        <ele>369</ele>
        <time>2026-08-26T13:03:07+00:00</time>
      </trkpt>
      <trkpt lat="49.95532" lon="6.0644">
        <ele>363</ele>
        <time>2026-08-26T13:03:10+00:00</time>
      </trkpt>
      <trkpt lat="49.95539" lon="6.06426">
        <ele>361</ele>
        <time>2026-08-26T13:03:13+00:00</time>
      </trkpt>
      <trkpt lat="49.95545" lon="6.06402">
        <ele>363</ele>
        <time>2026-08-26T13:03:16+00:00</time>
      </trkpt>
      <trkpt lat="49.95547" lon="6.06379">
        <ele>357</ele>
        <time>2026-08-26T13:03:19+00:00</time>
      </trkpt>
      <trkpt lat="49.95546" lon="6.06369">
        <ele>361</ele>
        <time>2026-08-26T13:03:22+00:00</time>
      </trkpt>
      <trkpt lat="49.95551" lon="6.06342">
        <ele>360</ele>
        <time>2026-08-26T13:03:25+00:00</time>
      </trkpt>
      <trkpt lat="49.95551" lon="6.06327">
        <ele>358</ele>
        <time>2026-08-26T13:03:28+00:00</time>
      </trkpt>
      <trkpt lat="49.95551" lon="6.06325">
        <ele>358</ele>
        <time>2026-08-26T13:03:31+00:00</time>
      </trkpt>
      <trkpt lat="49.95548" lon="6.06328">
        <ele>352</ele>
        <time>2026-08-26T13:03:34+00:00</time>
      </trkpt>
      <trkpt lat="49.95547" lon="6.06326">
        <ele>352</ele>
        <time>2026-08-26T13:03:37+00:00</time>
      </trkpt>
      <trkpt lat="49.95547" lon="6.06295">
        <ele>348</ele>
        <time>2026-08-26T13:03:40+00:00</time>
      </trkpt>
      <trkpt lat="49.95545" lon="6.06294">
        <ele>348</ele>
        <time>2026-08-26T13:03:43+00:00</time>
      </trkpt>
      <trkpt lat="49.95533" lon="6.06319">
        <ele>344</ele>
        <time>2026-08-26T13:03:46+00:00</time>
      </trkpt>
      <trkpt lat="49.95526" lon="6.06326">
        <ele>337</ele>
        <time>2026-08-26T13:03:49+00:00</time>
      </trkpt>
      <trkpt lat="49.95525" lon="6.06298">
        <ele>339</ele>
        <time>2026-08-26T13:03:52+00:00</time>
      </trkpt>
      <trkpt lat="49.95523" lon="6.06287">
        <ele>331</ele>
        <time>2026-08-26T13:03:55+00:00</time>
      </trkpt>
      <trkpt lat="49.95534" lon="6.06244">
        <ele>334</ele>
        <time>2026-08-26T13:03:58+00:00</time>
      </trkpt>
      <trkpt lat="49.95536" lon="6.06225">
        <ele>332</ele>
        <time>2026-08-26T13:04:01+00:00</time>
      </trkpt>
      <trkpt lat="49.95532" lon="6.06233">
        <ele>333</ele>
        <time>2026-08-26T13:04:04+00:00</time>
      </trkpt>
      <trkpt lat="49.95519" lon="6.06281">
        <ele>322</ele>
        <time>2026-08-26T13:04:07+00:00</time>
      </trkpt>
      <trkpt lat="49.95511" lon="6.06298">
        <ele>324</ele>
        <time>2026-08-26T13:04:10+00:00</time>
      </trkpt>
      <trkpt lat="49.95502" lon="6.06328">
        <ele>323</ele>
        <time>2026-08-26T13:04:13+00:00</time>
      </trkpt>
      <trkpt lat="49.95488" lon="6.06363">
        <ele>321</ele>
        <time>2026-08-26T13:04:16+00:00</time>
      </trkpt>
      <trkpt lat="49.95476" lon="6.06402">
        <ele>320</ele>
        <time>2026-08-26T13:04:19+00:00</time>
      </trkpt>
      <trkpt lat="49.9547" lon="6.06416">
        <ele>314</ele>
        <time>2026-08-26T13:04:22+00:00</time>
      </trkpt>
      <trkpt lat="49.95455" lon="6.0643">
        <ele>314</ele>
        <time>2026-08-26T13:04:25+00:00</time>
      </trkpt>
      <trkpt lat="49.9545" lon="6.06442">
        <ele>310</ele>
        <time>2026-08-26T13:04:28+00:00</time>
      </trkpt>
      <trkpt lat="49.95448" lon="6.06458">
        <ele>312</ele>
        <time>2026-08-26T13:04:31+00:00</time>
      </trkpt>
      <trkpt lat="49.95448" lon="6.0646">
        <ele>309</ele>
        <time>2026-08-26T13:04:34+00:00</time>
      </trkpt>
      <trkpt lat="49.95445" lon="6.06457">
        <ele>309</ele>
        <time>2026-08-26T13:04:37+00:00</time>
      </trkpt>
      <trkpt lat="49.95439" lon="6.06451">
        <ele>310</ele>
        <time>2026-08-26T13:04:40+00:00</time>
      </trkpt>
      <trkpt lat="49.95432" lon="6.06442">
        <ele>315</ele>
        <time>2026-08-26T13:04:43+00:00</time>
      </trkpt>
      <trkpt lat="49.95429" lon="6.06418">
        <ele>317</ele>
        <time>2026-08-26T13:04:46+00:00</time>
      </trkpt>
      <trkpt lat="49.95429" lon="6.06404">
        <ele>319</ele>
        <time>2026-08-26T13:04:49+00:00</time>
      </trkpt>
      <trkpt lat="49.95432" lon="6.06393">
        <ele>321</ele>
        <time>2026-08-26T13:04:52+00:00</time>
      </trkpt>
      <trkpt lat="49.95442" lon="6.06369">
        <ele>321</ele>
        <time>2026-08-26T13:04:55+00:00</time>
      </trkpt>
      <trkpt lat="49.95438" lon="6.0637">
        <ele>327</ele>
        <time>2026-08-26T13:04:58+00:00</time>
      </trkpt>
      <trkpt lat="49.95434" lon="6.06375">
        <ele>325</ele>
        <time>2026-08-26T13:05:01+00:00</time>
      </trkpt>
      <trkpt lat="49.95429" lon="6.06377">
        <ele>324</ele>
        <time>2026-08-26T13:05:04+00:00</time>
      </trkpt>
      <trkpt lat="49.95419" lon="6.06372">
        <ele>321</ele>
        <time>2026-08-26T13:05:07+00:00</time>
      </trkpt>
      <trkpt lat="49.95416" lon="6.06373">
        <ele>323</ele>
        <time>2026-08-26T13:05:10+00:00</time>
      </trkpt>
      <trkpt lat="49.95409" lon="6.06381">
        <ele>320</ele>
        <time>2026-08-26T13:05:13+00:00</time>
      </trkpt>
      <trkpt lat="49.95401" lon="6.06378">
        <ele>322</ele>
        <time>2026-08-26T13:05:16+00:00</time>
      </trkpt>
      <trkpt lat="49.95398" lon="6.06368">
        <ele>322</ele>
        <time>2026-08-26T13:05:19+00:00</time>
      </trkpt>
      <trkpt lat="49.95399" lon="6.06361">
        <ele>322</ele>
        <time>2026-08-26T13:05:22+00:00</time>
      </trkpt>
      <trkpt lat="49.95401" lon="6.06351">
        <ele>326</ele>
        <time>2026-08-26T13:05:25+00:00</time>
      </trkpt>
      <trkpt lat="49.95403" lon="6.06337">
        <ele>330</ele>
        <time>2026-08-26T13:05:28+00:00</time>
      </trkpt>
      <trkpt lat="49.95409" lon="6.06328">
        <ele>332</ele>
        <time>2026-08-26T13:05:31+00:00</time>
      </trkpt>
      <trkpt lat="49.95413" lon="6.06306">
        <ele>338</ele>
        <time>2026-08-26T13:05:34+00:00</time>
      </trkpt>
      <trkpt lat="49.95413" lon="6.06274">
        <ele>346</ele>
        <time>2026-08-26T13:05:37+00:00</time>
      </trkpt>
      <trkpt lat="49.95414" lon="6.06261">
        <ele>349</ele>
        <time>2026-08-26T13:05:40+00:00</time>
      </trkpt>
      <trkpt lat="49.95412" lon="6.06248">
        <ele>355</ele>
        <time>2026-08-26T13:05:43+00:00</time>
      </trkpt>
      <trkpt lat="49.95408" lon="6.06237">
        <ele>357</ele>
        <time>2026-08-26T13:05:46+00:00</time>
      </trkpt>
      <trkpt lat="49.95408" lon="6.06228">
        <ele>360</ele>
        <time>2026-08-26T13:05:49+00:00</time>
      </trkpt>
      <trkpt lat="49.95405" lon="6.06219">
        <ele>363</ele>
        <time>2026-08-26T13:05:52+00:00</time>
      </trkpt>
      <trkpt lat="49.95401" lon="6.06214">
        <ele>363</ele>
        <time>2026-08-26T13:05:55+00:00</time>
      </trkpt>
      <trkpt lat="49.95399" lon="6.06201">
        <ele>366</ele>
        <time>2026-08-26T13:05:58+00:00</time>
      </trkpt>
      <trkpt lat="49.95396" lon="6.06197">
        <ele>371</ele>
        <time>2026-08-26T13:06:01+00:00</time>
      </trkpt>
      <trkpt lat="49.95394" lon="6.0619">
        <ele>377</ele>
        <time>2026-08-26T13:06:04+00:00</time>
      </trkpt>
      <trkpt lat="49.95395" lon="6.06184">
        <ele>377</ele>
        <time>2026-08-26T13:06:07+00:00</time>
      </trkpt>
      <trkpt lat="49.95389" lon="6.06161">
        <ele>385</ele>
        <time>2026-08-26T13:06:10+00:00</time>
      </trkpt>
      <trkpt lat="49.95389" lon="6.06145">
        <ele>392</ele>
        <time>2026-08-26T13:06:13+00:00</time>
      </trkpt>
      <trkpt lat="49.95385" lon="6.06145">
        <ele>392</ele>
        <time>2026-08-26T13:06:16+00:00</time>
      </trkpt>
      <trkpt lat="49.95375" lon="6.06132">
        <ele>394</ele>
        <time>2026-08-26T13:06:19+00:00</time>
      </trkpt>
      <trkpt lat="49.95375" lon="6.06132">
        <ele>394</ele>
        <time>2026-08-26T13:06:22+00:00</time>
      </trkpt>
      <trkpt lat="49.95375" lon="6.06132">
        <ele>394</ele>
        <time>2026-08-26T13:06:25+00:00</time>
      </trkpt>
      <trkpt lat="49.95379" lon="6.06129">
        <ele>398</ele>
        <time>2026-08-26T13:06:28+00:00</time>
      </trkpt>
      <trkpt lat="49.95386" lon="6.06116">
        <ele>400</ele>
        <time>2026-08-26T13:06:31+00:00</time>
      </trkpt>
      <trkpt lat="49.95393" lon="6.06097">
        <ele>402</ele>
        <time>2026-08-26T13:06:34+00:00</time>
      </trkpt>
      <trkpt lat="49.95401" lon="6.06079">
        <ele>402</ele>
        <time>2026-08-26T13:06:37+00:00</time>
      </trkpt>
      <trkpt lat="49.95406" lon="6.0606">
        <ele>404</ele>
        <time>2026-08-26T13:06:40+00:00</time>
      </trkpt>
      <trkpt lat="49.95409" lon="6.06034">
        <ele>406</ele>
        <time>2026-08-26T13:06:43+00:00</time>
      </trkpt>
      <trkpt lat="49.95409" lon="6.06008">
        <ele>408</ele>
        <time>2026-08-26T13:06:46+00:00</time>
      </trkpt>
      <trkpt lat="49.95408" lon="6.05985">
        <ele>408</ele>
        <time>2026-08-26T13:06:49+00:00</time>
      </trkpt>
      <trkpt lat="49.95407" lon="6.0596">
        <ele>408</ele>
        <time>2026-08-26T13:06:52+00:00</time>
      </trkpt>
      <trkpt lat="49.95402" lon="6.05912">
        <ele>408</ele>
        <time>2026-08-26T13:06:55+00:00</time>
      </trkpt>
      <trkpt lat="49.95393" lon="6.0586">
        <ele>411</ele>
        <time>2026-08-26T13:06:58+00:00</time>
      </trkpt>
      <trkpt lat="49.9539" lon="6.05824">
        <ele>415</ele>
        <time>2026-08-26T13:07:01+00:00</time>
      </trkpt>
      <trkpt lat="49.95389" lon="6.05783">
        <ele>415</ele>
        <time>2026-08-26T13:07:04+00:00</time>
      </trkpt>
      <trkpt lat="49.95397" lon="6.05747">
        <ele>416</ele>
        <time>2026-08-26T13:07:07+00:00</time>
      </trkpt>
      <trkpt lat="49.95397" lon="6.05742">
        <ele>416</ele>
        <time>2026-08-26T13:07:10+00:00</time>
      </trkpt>
      <trkpt lat="49.95395" lon="6.05736">
        <ele>418</ele>
        <time>2026-08-26T13:07:13+00:00</time>
      </trkpt>
      <trkpt lat="49.95392" lon="6.05737">
        <ele>418</ele>
        <time>2026-08-26T13:07:16+00:00</time>
      </trkpt>
      <trkpt lat="49.9539" lon="6.05742">
        <ele>423</ele>
        <time>2026-08-26T13:07:19+00:00</time>
      </trkpt>
      <trkpt lat="49.9538" lon="6.05782">
        <ele>418</ele>
        <time>2026-08-26T13:07:22+00:00</time>
      </trkpt>
      <trkpt lat="49.95375" lon="6.05813">
        <ele>421</ele>
        <time>2026-08-26T13:07:25+00:00</time>
      </trkpt>
      <trkpt lat="49.95372" lon="6.05851">
        <ele>421</ele>
        <time>2026-08-26T13:07:28+00:00</time>
      </trkpt>
      <trkpt lat="49.95369" lon="6.05899">
        <ele>430</ele>
        <time>2026-08-26T13:07:31+00:00</time>
      </trkpt>
      <trkpt lat="49.95365" lon="6.05925">
        <ele>428</ele>
        <time>2026-08-26T13:07:34+00:00</time>
      </trkpt>
      <trkpt lat="49.95359" lon="6.0594">
        <ele>430</ele>
        <time>2026-08-26T13:07:37+00:00</time>
      </trkpt>
      <trkpt lat="49.95346" lon="6.05957">
        <ele>429</ele>
        <time>2026-08-26T13:07:40+00:00</time>
      </trkpt>
      <trkpt lat="49.95338" lon="6.05965">
        <ele>430</ele>
        <time>2026-08-26T13:07:43+00:00</time>
      </trkpt>
      <trkpt lat="49.9533" lon="6.05969">
        <ele>430</ele>
        <time>2026-08-26T13:07:46+00:00</time>
      </trkpt>
      <trkpt lat="49.95322" lon="6.05969">
        <ele>430</ele>
        <time>2026-08-26T13:07:49+00:00</time>
      </trkpt>
      <trkpt lat="49.95316" lon="6.05967">
        <ele>431</ele>
        <time>2026-08-26T13:07:52+00:00</time>
      </trkpt>
      <trkpt lat="49.95316" lon="6.05967">
        <ele>431</ele>
        <time>2026-08-26T13:07:55+00:00</time>
      </trkpt>
      <trkpt lat="49.95313" lon="6.05964">
        <ele>431</ele>
        <time>2026-08-26T13:07:58+00:00</time>
      </trkpt>
      <trkpt lat="49.95311" lon="6.05955">
        <ele>432</ele>
        <time>2026-08-26T13:08:01+00:00</time>
      </trkpt>
      <trkpt lat="49.95313" lon="6.05943">
        <ele>433</ele>
        <time>2026-08-26T13:08:04+00:00</time>
      </trkpt>
      <trkpt lat="49.95317" lon="6.05934">
        <ele>433</ele>
        <time>2026-08-26T13:08:07+00:00</time>
      </trkpt>
      <trkpt lat="49.9531" lon="6.05911">
        <ele>435</ele>
        <time>2026-08-26T13:08:10+00:00</time>
      </trkpt>
      <trkpt lat="49.95295" lon="6.05882">
        <ele>437</ele>
        <time>2026-08-26T13:08:13+00:00</time>
      </trkpt>
      <trkpt lat="49.95277" lon="6.05848">
        <ele>437</ele>
        <time>2026-08-26T13:08:16+00:00</time>
      </trkpt>
      <trkpt lat="49.95271" lon="6.0584">
        <ele>439</ele>
        <time>2026-08-26T13:08:19+00:00</time>
      </trkpt>
      <trkpt lat="49.95252" lon="6.05826">
        <ele>437</ele>
        <time>2026-08-26T13:08:22+00:00</time>
      </trkpt>
      <trkpt lat="49.95235" lon="6.05799">
        <ele>437</ele>
        <time>2026-08-26T13:08:25+00:00</time>
      </trkpt>
      <trkpt lat="49.95221" lon="6.05785">
        <ele>437</ele>
        <time>2026-08-26T13:08:28+00:00</time>
      </trkpt>
      <trkpt lat="49.95211" lon="6.05774">
        <ele>438</ele>
        <time>2026-08-26T13:08:31+00:00</time>
      </trkpt>
      <trkpt lat="49.95204" lon="6.0576">
        <ele>440</ele>
        <time>2026-08-26T13:08:34+00:00</time>
      </trkpt>
      <trkpt lat="49.95195" lon="6.05719">
        <ele>440</ele>
        <time>2026-08-26T13:08:37+00:00</time>
      </trkpt>
      <trkpt lat="49.95185" lon="6.05678">
        <ele>442</ele>
        <time>2026-08-26T13:08:40+00:00</time>
      </trkpt>
      <trkpt lat="49.95171" lon="6.05615">
        <ele>444</ele>
        <time>2026-08-26T13:08:43+00:00</time>
      </trkpt>
      <trkpt lat="49.95158" lon="6.05577">
        <ele>444</ele>
        <time>2026-08-26T13:08:46+00:00</time>
      </trkpt>
      <trkpt lat="49.95142" lon="6.05584">
        <ele>443</ele>
        <time>2026-08-26T13:08:49+00:00</time>
      </trkpt>
      <trkpt lat="49.95128" lon="6.05585">
        <ele>443</ele>
        <time>2026-08-26T13:08:52+00:00</time>
      </trkpt>
      <trkpt lat="49.95115" lon="6.05586">
        <ele>443</ele>
        <time>2026-08-26T13:08:55+00:00</time>
      </trkpt>
      <trkpt lat="49.9511" lon="6.05566">
        <ele>443</ele>
        <time>2026-08-26T13:08:58+00:00</time>
      </trkpt>
      <trkpt lat="49.95102" lon="6.05533">
        <ele>440</ele>
        <time>2026-08-26T13:09:01+00:00</time>
      </trkpt>
      <trkpt lat="49.9509" lon="6.05471">
        <ele>437</ele>
        <time>2026-08-26T13:09:04+00:00</time>
      </trkpt>
      <trkpt lat="49.95071" lon="6.05418">
        <ele>433</ele>
        <time>2026-08-26T13:09:07+00:00</time>
      </trkpt>
      <trkpt lat="49.95069" lon="6.05401">
        <ele>431</ele>
        <time>2026-08-26T13:09:10+00:00</time>
      </trkpt>
      <trkpt lat="49.95072" lon="6.05385">
        <ele>435</ele>
        <time>2026-08-26T13:09:13+00:00</time>
      </trkpt>
      <trkpt lat="49.95078" lon="6.0537">
        <ele>433</ele>
        <time>2026-08-26T13:09:16+00:00</time>
      </trkpt>
      <trkpt lat="49.95082" lon="6.0536">
        <ele>438</ele>
        <time>2026-08-26T13:09:19+00:00</time>
      </trkpt>
      <trkpt lat="49.95084" lon="6.05345">
        <ele>438</ele>
        <time>2026-08-26T13:09:22+00:00</time>
      </trkpt>
      <trkpt lat="49.95083" lon="6.05317">
        <ele>438</ele>
        <time>2026-08-26T13:09:25+00:00</time>
      </trkpt>
      <trkpt lat="49.95081" lon="6.05287">
        <ele>438</ele>
        <time>2026-08-26T13:09:28+00:00</time>
      </trkpt>
      <trkpt lat="49.9508" lon="6.05278">
        <ele>434</ele>
        <time>2026-08-26T13:09:31+00:00</time>
      </trkpt>
      <trkpt lat="49.95062" lon="6.05233">
        <ele>431</ele>
        <time>2026-08-26T13:09:34+00:00</time>
      </trkpt>
      <trkpt lat="49.95057" lon="6.05215">
        <ele>427</ele>
        <time>2026-08-26T13:09:37+00:00</time>
      </trkpt>
      <trkpt lat="49.95051" lon="6.05186">
        <ele>427</ele>
        <time>2026-08-26T13:09:40+00:00</time>
      </trkpt>
      <trkpt lat="49.95043" lon="6.05148">
        <ele>423</ele>
        <time>2026-08-26T13:09:43+00:00</time>
      </trkpt>
      <trkpt lat="49.95038" lon="6.05112">
        <ele>421</ele>
        <time>2026-08-26T13:09:46+00:00</time>
      </trkpt>
      <trkpt lat="49.95037" lon="6.05082">
        <ele>418</ele>
        <time>2026-08-26T13:09:49+00:00</time>
      </trkpt>
      <trkpt lat="49.95034" lon="6.05076">
        <ele>418</ele>
        <time>2026-08-26T13:09:52+00:00</time>
      </trkpt>
      <trkpt lat="49.95033" lon="6.05063">
        <ele>418</ele>
        <time>2026-08-26T13:09:55+00:00</time>
      </trkpt>
      <trkpt lat="49.9503" lon="6.05061">
        <ele>418</ele>
        <time>2026-08-26T13:09:58+00:00</time>
      </trkpt>
      <trkpt lat="49.95018" lon="6.05065">
        <ele>417</ele>
        <time>2026-08-26T13:10:01+00:00</time>
      </trkpt>
      <trkpt lat="49.95009" lon="6.05062">
        <ele>414</ele>
        <time>2026-08-26T13:10:04+00:00</time>
      </trkpt>
      <trkpt lat="49.95009" lon="6.05062">
        <ele>414</ele>
        <time>2026-08-26T13:10:07+00:00</time>
      </trkpt>
      <trkpt lat="49.95002" lon="6.05064">
        <ele>414</ele>
        <time>2026-08-26T13:10:10+00:00</time>
      </trkpt>
      <trkpt lat="49.94998" lon="6.05069">
        <ele>410</ele>
        <time>2026-08-26T13:10:13+00:00</time>
      </trkpt>
      <trkpt lat="49.94992" lon="6.05086">
        <ele>410</ele>
        <time>2026-08-26T13:10:16+00:00</time>
      </trkpt>
      <trkpt lat="49.94978" lon="6.05057">
        <ele>407</ele>
        <time>2026-08-26T13:10:19+00:00</time>
      </trkpt>
      <trkpt lat="49.94973" lon="6.0505">
        <ele>406</ele>
        <time>2026-08-26T13:10:22+00:00</time>
      </trkpt>
      <trkpt lat="49.94964" lon="6.05025">
        <ele>404</ele>
        <time>2026-08-26T13:10:25+00:00</time>
      </trkpt>
      <trkpt lat="49.94952" lon="6.05007">
        <ele>401</ele>
        <time>2026-08-26T13:10:28+00:00</time>
      </trkpt>
      <trkpt lat="49.9494" lon="6.0498">
        <ele>398</ele>
        <time>2026-08-26T13:10:31+00:00</time>
      </trkpt>
      <trkpt lat="49.94933" lon="6.04964">
        <ele>398</ele>
        <time>2026-08-26T13:10:34+00:00</time>
      </trkpt>
      <trkpt lat="49.94929" lon="6.04939">
        <ele>401</ele>
        <time>2026-08-26T13:10:37+00:00</time>
      </trkpt>
      <trkpt lat="49.94928" lon="6.04922">
        <ele>396</ele>
        <time>2026-08-26T13:10:40+00:00</time>
      </trkpt>
      <trkpt lat="49.94932" lon="6.04895">
        <ele>402</ele>
        <time>2026-08-26T13:10:43+00:00</time>
      </trkpt>
      <trkpt lat="49.94936" lon="6.04865">
        <ele>400</ele>
        <time>2026-08-26T13:10:46+00:00</time>
      </trkpt>
      <trkpt lat="49.94939" lon="6.04832">
        <ele>399</ele>
        <time>2026-08-26T13:10:49+00:00</time>
      </trkpt>
      <trkpt lat="49.94946" lon="6.04819">
        <ele>397</ele>
        <time>2026-08-26T13:10:52+00:00</time>
      </trkpt>
      <trkpt lat="49.94954" lon="6.04812">
        <ele>398</ele>
        <time>2026-08-26T13:10:55+00:00</time>
      </trkpt>
      <trkpt lat="49.94959" lon="6.04804">
        <ele>394</ele>
        <time>2026-08-26T13:10:58+00:00</time>
      </trkpt>
      <trkpt lat="49.94965" lon="6.04799">
        <ele>391</ele>
        <time>2026-08-26T13:11:01+00:00</time>
      </trkpt>
      <trkpt lat="49.94983" lon="6.04776">
        <ele>389</ele>
        <time>2026-08-26T13:11:04+00:00</time>
      </trkpt>
      <trkpt lat="49.94987" lon="6.04773">
        <ele>389</ele>
        <time>2026-08-26T13:11:07+00:00</time>
      </trkpt>
      <trkpt lat="49.94994" lon="6.04762">
        <ele>388</ele>
        <time>2026-08-26T13:11:10+00:00</time>
      </trkpt>
      <trkpt lat="49.95007" lon="6.04737">
        <ele>383</ele>
        <time>2026-08-26T13:11:13+00:00</time>
      </trkpt>
      <trkpt lat="49.95026" lon="6.04699">
        <ele>378</ele>
        <time>2026-08-26T13:11:16+00:00</time>
      </trkpt>
      <trkpt lat="49.95046" lon="6.04677">
        <ele>378</ele>
        <time>2026-08-26T13:11:19+00:00</time>
      </trkpt>
      <trkpt lat="49.95047" lon="6.04672">
        <ele>375</ele>
        <time>2026-08-26T13:11:22+00:00</time>
      </trkpt>
      <trkpt lat="49.95046" lon="6.04669">
        <ele>377</ele>
        <time>2026-08-26T13:11:25+00:00</time>
      </trkpt>
      <trkpt lat="49.95044" lon="6.04666">
        <ele>377</ele>
        <time>2026-08-26T13:11:28+00:00</time>
      </trkpt>
      <trkpt lat="49.95024" lon="6.04658">
        <ele>378</ele>
        <time>2026-08-26T13:11:31+00:00</time>
      </trkpt>
      <trkpt lat="49.95002" lon="6.04649">
        <ele>380</ele>
        <time>2026-08-26T13:11:34+00:00</time>
      </trkpt>
      <trkpt lat="49.94979" lon="6.04639">
        <ele>381</ele>
        <time>2026-08-26T13:11:37+00:00</time>
      </trkpt>
      <trkpt lat="49.94972" lon="6.04633">
        <ele>381</ele>
        <time>2026-08-26T13:11:40+00:00</time>
      </trkpt>
      <trkpt lat="49.94967" lon="6.04622">
        <ele>382</ele>
        <time>2026-08-26T13:11:43+00:00</time>
      </trkpt>
      <trkpt lat="49.94965" lon="6.04584">
        <ele>395</ele>
        <time>2026-08-26T13:11:46+00:00</time>
      </trkpt>
      <trkpt lat="49.94965" lon="6.04583">
        <ele>395</ele>
        <time>2026-08-26T13:11:49+00:00</time>
      </trkpt>
      <trkpt lat="49.94961" lon="6.04564">
        <ele>400</ele>
        <time>2026-08-26T13:11:52+00:00</time>
      </trkpt>
      <trkpt lat="49.94958" lon="6.04535">
        <ele>399</ele>
        <time>2026-08-26T13:11:55+00:00</time>
      </trkpt>
      <trkpt lat="49.9496" lon="6.04486">
        <ele>404</ele>
        <time>2026-08-26T13:11:58+00:00</time>
      </trkpt>
      <trkpt lat="49.94959" lon="6.0446">
        <ele>408</ele>
        <time>2026-08-26T13:12:01+00:00</time>
      </trkpt>
      <trkpt lat="49.94957" lon="6.0443">
        <ele>410</ele>
        <time>2026-08-26T13:12:04+00:00</time>
      </trkpt>
      <trkpt lat="49.94953" lon="6.04383">
        <ele>412</ele>
        <time>2026-08-26T13:12:07+00:00</time>
      </trkpt>
      <trkpt lat="49.94943" lon="6.04322">
        <ele>414</ele>
        <time>2026-08-26T13:12:10+00:00</time>
      </trkpt>
      <trkpt lat="49.94941" lon="6.04279">
        <ele>419</ele>
        <time>2026-08-26T13:12:13+00:00</time>
      </trkpt>
      <trkpt lat="49.94942" lon="6.04257">
        <ele>422</ele>
        <time>2026-08-26T13:12:16+00:00</time>
      </trkpt>
      <trkpt lat="49.94948" lon="6.04233">
        <ele>425</ele>
        <time>2026-08-26T13:12:19+00:00</time>
      </trkpt>
      <trkpt lat="49.94955" lon="6.04206">
        <ele>427</ele>
        <time>2026-08-26T13:12:22+00:00</time>
      </trkpt>
      <trkpt lat="49.94961" lon="6.042">
        <ele>427</ele>
        <time>2026-08-26T13:12:25+00:00</time>
      </trkpt>
      <trkpt lat="49.94968" lon="6.04199">
        <ele>427</ele>
        <time>2026-08-26T13:12:28+00:00</time>
      </trkpt>
      <trkpt lat="49.94984" lon="6.04209">
        <ele>431</ele>
        <time>2026-08-26T13:12:31+00:00</time>
      </trkpt>
      <trkpt lat="49.95004" lon="6.04227">
        <ele>433</ele>
        <time>2026-08-26T13:12:34+00:00</time>
      </trkpt>
      <trkpt lat="49.95025" lon="6.04246">
        <ele>434</ele>
        <time>2026-08-26T13:12:37+00:00</time>
      </trkpt>
      <trkpt lat="49.95033" lon="6.04257">
        <ele>437</ele>
        <time>2026-08-26T13:12:40+00:00</time>
      </trkpt>
      <trkpt lat="49.95046" lon="6.04287">
        <ele>444</ele>
        <time>2026-08-26T13:12:43+00:00</time>
      </trkpt>
      <trkpt lat="49.95069" lon="6.04337">
        <ele>447</ele>
        <time>2026-08-26T13:12:46+00:00</time>
      </trkpt>
      <trkpt lat="49.95088" lon="6.04367">
        <ele>447</ele>
        <time>2026-08-26T13:12:49+00:00</time>
      </trkpt>
      <trkpt lat="49.95113" lon="6.04395">
        <ele>447</ele>
        <time>2026-08-26T13:12:52+00:00</time>
      </trkpt>
      <trkpt lat="49.95138" lon="6.04434">
        <ele>444</ele>
        <time>2026-08-26T13:12:55+00:00</time>
      </trkpt>
      <trkpt lat="49.95156" lon="6.04455">
        <ele>444</ele>
        <time>2026-08-26T13:12:58+00:00</time>
      </trkpt>
      <trkpt lat="49.95176" lon="6.04477">
        <ele>444</ele>
        <time>2026-08-26T13:13:01+00:00</time>
      </trkpt>
      <trkpt lat="49.95198" lon="6.04493">
        <ele>444</ele>
        <time>2026-08-26T13:13:04+00:00</time>
      </trkpt>
      <trkpt lat="49.95216" lon="6.04498">
        <ele>447</ele>
        <time>2026-08-26T13:13:07+00:00</time>
      </trkpt>
      <trkpt lat="49.95223" lon="6.04498">
        <ele>448</ele>
        <time>2026-08-26T13:13:10+00:00</time>
      </trkpt>
      <trkpt lat="49.95249" lon="6.04471">
        <ele>454</ele>
        <time>2026-08-26T13:13:13+00:00</time>
      </trkpt>
      <trkpt lat="49.95259" lon="6.04465">
        <ele>456</ele>
        <time>2026-08-26T13:13:16+00:00</time>
      </trkpt>
      <trkpt lat="49.9529" lon="6.04456">
        <ele>460</ele>
        <time>2026-08-26T13:13:19+00:00</time>
      </trkpt>
      <trkpt lat="49.95291" lon="6.04456">
        <ele>461</ele>
        <time>2026-08-26T13:13:22+00:00</time>
      </trkpt>
      <trkpt lat="49.95317" lon="6.04445">
        <ele>463</ele>
        <time>2026-08-26T13:13:25+00:00</time>
      </trkpt>
      <trkpt lat="49.95361" lon="6.04426">
        <ele>467</ele>
        <time>2026-08-26T13:13:28+00:00</time>
      </trkpt>
      <trkpt lat="49.95369" lon="6.04361">
        <ele>468</ele>
        <time>2026-08-26T13:13:31+00:00</time>
      </trkpt>
      <trkpt lat="49.9537" lon="6.0432">
        <ele>469</ele>
        <time>2026-08-26T13:13:34+00:00</time>
      </trkpt>
      <trkpt lat="49.95368" lon="6.0429">
        <ele>468</ele>
        <time>2026-08-26T13:13:37+00:00</time>
      </trkpt>
      <trkpt lat="49.95361" lon="6.04252">
        <ele>468</ele>
        <time>2026-08-26T13:13:40+00:00</time>
      </trkpt>
      <trkpt lat="49.95356" lon="6.04216">
        <ele>464</ele>
        <time>2026-08-26T13:13:43+00:00</time>
      </trkpt>
      <trkpt lat="49.95351" lon="6.04198">
        <ele>463</ele>
        <time>2026-08-26T13:13:46+00:00</time>
      </trkpt>
      <trkpt lat="49.95342" lon="6.04151">
        <ele>463</ele>
        <time>2026-08-26T13:13:49+00:00</time>
      </trkpt>
      <trkpt lat="49.95333" lon="6.04103">
        <ele>463</ele>
        <time>2026-08-26T13:13:52+00:00</time>
      </trkpt>
      <trkpt lat="49.95325" lon="6.04056">
        <ele>463</ele>
        <time>2026-08-26T13:13:55+00:00</time>
      </trkpt>
      <trkpt lat="49.95309" lon="6.03971">
        <ele>463</ele>
        <time>2026-08-26T13:13:58+00:00</time>
      </trkpt>
      <trkpt lat="49.95299" lon="6.0393">
        <ele>464</ele>
        <time>2026-08-26T13:14:01+00:00</time>
      </trkpt>
      <trkpt lat="49.95295" lon="6.03908">
        <ele>466</ele>
        <time>2026-08-26T13:14:04+00:00</time>
      </trkpt>
      <trkpt lat="49.95285" lon="6.03876">
        <ele>466</ele>
        <time>2026-08-26T13:14:07+00:00</time>
      </trkpt>
      <trkpt lat="49.95295" lon="6.03908">
        <ele>466</ele>
        <time>2026-08-26T13:14:10+00:00</time>
      </trkpt>
      <trkpt lat="49.95299" lon="6.0393">
        <ele>464</ele>
        <time>2026-08-26T13:14:13+00:00</time>
      </trkpt>
      <trkpt lat="49.9528" lon="6.03898">
        <ele>465</ele>
        <time>2026-08-26T13:14:16+00:00</time>
      </trkpt>
      <trkpt lat="49.95261" lon="6.03866">
        <ele>464</ele>
        <time>2026-08-26T13:14:19+00:00</time>
      </trkpt>
      <trkpt lat="49.95229" lon="6.03811">
        <ele>459</ele>
        <time>2026-08-26T13:14:22+00:00</time>
      </trkpt>
      <trkpt lat="49.95208" lon="6.03784">
        <ele>458</ele>
        <time>2026-08-26T13:14:25+00:00</time>
      </trkpt>
      <trkpt lat="49.95174" lon="6.03741">
        <ele>458</ele>
        <time>2026-08-26T13:14:28+00:00</time>
      </trkpt>
      <trkpt lat="49.95162" lon="6.03719">
        <ele>458</ele>
        <time>2026-08-26T13:14:31+00:00</time>
      </trkpt>
      <trkpt lat="49.95148" lon="6.0369">
        <ele>454</ele>
        <time>2026-08-26T13:14:34+00:00</time>
      </trkpt>
      <trkpt lat="49.95126" lon="6.03642">
        <ele>450</ele>
        <time>2026-08-26T13:14:37+00:00</time>
      </trkpt>
      <trkpt lat="49.95113" lon="6.03594">
        <ele>448</ele>
        <time>2026-08-26T13:14:40+00:00</time>
      </trkpt>
      <trkpt lat="49.95103" lon="6.0358">
        <ele>446</ele>
        <time>2026-08-26T13:14:43+00:00</time>
      </trkpt>
      <trkpt lat="49.95096" lon="6.0356">
        <ele>444</ele>
        <time>2026-08-26T13:14:46+00:00</time>
      </trkpt>
      <trkpt lat="49.95079" lon="6.03522">
        <ele>438</ele>
        <time>2026-08-26T13:14:49+00:00</time>
      </trkpt>
      <trkpt lat="49.95073" lon="6.03514">
        <ele>438</ele>
        <time>2026-08-26T13:14:52+00:00</time>
      </trkpt>
      <trkpt lat="49.95066" lon="6.03552">
        <ele>437</ele>
        <time>2026-08-26T13:14:55+00:00</time>
      </trkpt>
      <trkpt lat="49.95064" lon="6.03587">
        <ele>437</ele>
        <time>2026-08-26T13:14:58+00:00</time>
      </trkpt>
      <trkpt lat="49.95061" lon="6.03625">
        <ele>437</ele>
        <time>2026-08-26T13:15:01+00:00</time>
      </trkpt>
      <trkpt lat="49.95062" lon="6.0365">
        <ele>438</ele>
        <time>2026-08-26T13:15:04+00:00</time>
      </trkpt>
      <trkpt lat="49.95067" lon="6.03675">
        <ele>437</ele>
        <time>2026-08-26T13:15:07+00:00</time>
      </trkpt>
      <trkpt lat="49.95068" lon="6.03683">
        <ele>436</ele>
        <time>2026-08-26T13:15:10+00:00</time>
      </trkpt>
      <trkpt lat="49.95065" lon="6.03689">
        <ele>436</ele>
        <time>2026-08-26T13:15:13+00:00</time>
      </trkpt>
      <trkpt lat="49.9506" lon="6.0369">
        <ele>436</ele>
        <time>2026-08-26T13:15:16+00:00</time>
      </trkpt>
      <trkpt lat="49.95056" lon="6.03685">
        <ele>436</ele>
        <time>2026-08-26T13:15:19+00:00</time>
      </trkpt>
      <trkpt lat="49.95049" lon="6.03671">
        <ele>434</ele>
        <time>2026-08-26T13:15:22+00:00</time>
      </trkpt>
      <trkpt lat="49.95036" lon="6.03654">
        <ele>431</ele>
        <time>2026-08-26T13:15:25+00:00</time>
      </trkpt>
      <trkpt lat="49.95023" lon="6.03637">
        <ele>427</ele>
        <time>2026-08-26T13:15:28+00:00</time>
      </trkpt>
      <trkpt lat="49.94996" lon="6.03665">
        <ele>427</ele>
        <time>2026-08-26T13:15:31+00:00</time>
      </trkpt>
      <trkpt lat="49.94995" lon="6.03666">
        <ele>427</ele>
        <time>2026-08-26T13:15:34+00:00</time>
      </trkpt>
      <trkpt lat="49.94985" lon="6.0367">
        <ele>426</ele>
        <time>2026-08-26T13:15:37+00:00</time>
      </trkpt>
      <trkpt lat="49.94968" lon="6.03672">
        <ele>427</ele>
        <time>2026-08-26T13:15:40+00:00</time>
      </trkpt>
      <trkpt lat="49.94949" lon="6.03674">
        <ele>428</ele>
        <time>2026-08-26T13:15:43+00:00</time>
      </trkpt>
      <trkpt lat="49.94932" lon="6.03683">
        <ele>433</ele>
        <time>2026-08-26T13:15:46+00:00</time>
      </trkpt>
      <trkpt lat="49.9492" lon="6.03687">
        <ele>435</ele>
        <time>2026-08-26T13:15:49+00:00</time>
      </trkpt>
      <trkpt lat="49.94902" lon="6.03685">
        <ele>433</ele>
        <time>2026-08-26T13:15:52+00:00</time>
      </trkpt>
      <trkpt lat="49.94878" lon="6.03677">
        <ele>433</ele>
        <time>2026-08-26T13:15:55+00:00</time>
      </trkpt>
      <trkpt lat="49.94847" lon="6.03661">
        <ele>432</ele>
        <time>2026-08-26T13:15:58+00:00</time>
      </trkpt>
      <trkpt lat="49.94825" lon="6.03645">
        <ele>431</ele>
        <time>2026-08-26T13:16:01+00:00</time>
      </trkpt>
      <trkpt lat="49.94797" lon="6.03626">
        <ele>430</ele>
        <time>2026-08-26T13:16:04+00:00</time>
      </trkpt>
      <trkpt lat="49.94779" lon="6.03605">
        <ele>430</ele>
        <time>2026-08-26T13:16:07+00:00</time>
      </trkpt>
      <trkpt lat="49.94761" lon="6.03582">
        <ele>431</ele>
        <time>2026-08-26T13:16:10+00:00</time>
      </trkpt>
      <trkpt lat="49.94741" lon="6.03563">
        <ele>432</ele>
        <time>2026-08-26T13:16:13+00:00</time>
      </trkpt>
      <trkpt lat="49.94718" lon="6.0354">
        <ele>432</ele>
        <time>2026-08-26T13:16:16+00:00</time>
      </trkpt>
      <trkpt lat="49.94694" lon="6.03513">
        <ele>433</ele>
        <time>2026-08-26T13:16:19+00:00</time>
      </trkpt>
      <trkpt lat="49.94669" lon="6.03486">
        <ele>433</ele>
        <time>2026-08-26T13:16:22+00:00</time>
      </trkpt>
      <trkpt lat="49.9464" lon="6.03454">
        <ele>429</ele>
        <time>2026-08-26T13:16:25+00:00</time>
      </trkpt>
      <trkpt lat="49.94612" lon="6.03437">
        <ele>426</ele>
        <time>2026-08-26T13:16:28+00:00</time>
      </trkpt>
      <trkpt lat="49.94594" lon="6.03407">
        <ele>425</ele>
        <time>2026-08-26T13:16:31+00:00</time>
      </trkpt>
      <trkpt lat="49.94564" lon="6.03358">
        <ele>421</ele>
        <time>2026-08-26T13:16:34+00:00</time>
      </trkpt>
      <trkpt lat="49.9456" lon="6.03347">
        <ele>419</ele>
        <time>2026-08-26T13:16:37+00:00</time>
      </trkpt>
      <trkpt lat="49.9456" lon="6.03335">
        <ele>418</ele>
        <time>2026-08-26T13:16:40+00:00</time>
      </trkpt>
      <trkpt lat="49.94567" lon="6.03308">
        <ele>417</ele>
        <time>2026-08-26T13:16:43+00:00</time>
      </trkpt>
      <trkpt lat="49.94577" lon="6.03271">
        <ele>417</ele>
        <time>2026-08-26T13:16:46+00:00</time>
      </trkpt>
      <trkpt lat="49.94578" lon="6.0325">
        <ele>415</ele>
        <time>2026-08-26T13:16:49+00:00</time>
      </trkpt>
      <trkpt lat="49.94576" lon="6.03235">
        <ele>415</ele>
        <time>2026-08-26T13:16:52+00:00</time>
      </trkpt>
      <trkpt lat="49.94571" lon="6.03219">
        <ele>412</ele>
        <time>2026-08-26T13:16:55+00:00</time>
      </trkpt>
      <trkpt lat="49.94565" lon="6.03184">
        <ele>402</ele>
        <time>2026-08-26T13:16:58+00:00</time>
      </trkpt>
      <trkpt lat="49.94554" lon="6.03126">
        <ele>393</ele>
        <time>2026-08-26T13:17:01+00:00</time>
      </trkpt>
      <trkpt lat="49.94538" lon="6.03084">
        <ele>387</ele>
        <time>2026-08-26T13:17:04+00:00</time>
      </trkpt>
      <trkpt lat="49.94532" lon="6.03091">
        <ele>388</ele>
        <time>2026-08-26T13:17:07+00:00</time>
      </trkpt>
      <trkpt lat="49.9451" lon="6.03112">
        <ele>387</ele>
        <time>2026-08-26T13:17:10+00:00</time>
      </trkpt>
      <trkpt lat="49.94468" lon="6.03153">
        <ele>384</ele>
        <time>2026-08-26T13:17:13+00:00</time>
      </trkpt>
      <trkpt lat="49.94438" lon="6.03198">
        <ele>381</ele>
        <time>2026-08-26T13:17:16+00:00</time>
      </trkpt>
      <trkpt lat="49.94417" lon="6.03238">
        <ele>378</ele>
        <time>2026-08-26T13:17:19+00:00</time>
      </trkpt>
      <trkpt lat="49.94406" lon="6.03268">
        <ele>378</ele>
        <time>2026-08-26T13:17:22+00:00</time>
      </trkpt>
      <trkpt lat="49.94394" lon="6.03299">
        <ele>378</ele>
        <time>2026-08-26T13:17:25+00:00</time>
      </trkpt>
      <trkpt lat="49.94386" lon="6.0331">
        <ele>377</ele>
        <time>2026-08-26T13:17:28+00:00</time>
      </trkpt>
      <trkpt lat="49.94384" lon="6.03312">
        <ele>378</ele>
        <time>2026-08-26T13:17:31+00:00</time>
      </trkpt>
      <trkpt lat="49.94371" lon="6.03322">
        <ele>378</ele>
        <time>2026-08-26T13:17:34+00:00</time>
      </trkpt>
      <trkpt lat="49.94351" lon="6.03333">
        <ele>379</ele>
        <time>2026-08-26T13:17:37+00:00</time>
      </trkpt>
      <trkpt lat="49.94337" lon="6.03337">
        <ele>379</ele>
        <time>2026-08-26T13:17:40+00:00</time>
      </trkpt>
      <trkpt lat="49.94324" lon="6.03336">
        <ele>379</ele>
        <time>2026-08-26T13:17:43+00:00</time>
      </trkpt>
      <trkpt lat="49.94309" lon="6.03332">
        <ele>382</ele>
        <time>2026-08-26T13:17:46+00:00</time>
      </trkpt>
      <trkpt lat="49.94295" lon="6.03325">
        <ele>385</ele>
        <time>2026-08-26T13:17:49+00:00</time>
      </trkpt>
      <trkpt lat="49.9427" lon="6.03296">
        <ele>384</ele>
        <time>2026-08-26T13:17:52+00:00</time>
      </trkpt>
      <trkpt lat="49.94244" lon="6.03266">
        <ele>383</ele>
        <time>2026-08-26T13:17:55+00:00</time>
      </trkpt>
      <trkpt lat="49.94201" lon="6.03216">
        <ele>377</ele>
        <time>2026-08-26T13:17:58+00:00</time>
      </trkpt>
      <trkpt lat="49.94183" lon="6.03201">
        <ele>373</ele>
        <time>2026-08-26T13:18:01+00:00</time>
      </trkpt>
      <trkpt lat="49.94171" lon="6.03193">
        <ele>369</ele>
        <time>2026-08-26T13:18:04+00:00</time>
      </trkpt>
      <trkpt lat="49.94161" lon="6.03194">
        <ele>367</ele>
        <time>2026-08-26T13:18:07+00:00</time>
      </trkpt>
      <trkpt lat="49.94137" lon="6.03217">
        <ele>364</ele>
        <time>2026-08-26T13:18:10+00:00</time>
      </trkpt>
      <trkpt lat="49.94111" lon="6.03234">
        <ele>362</ele>
        <time>2026-08-26T13:18:13+00:00</time>
      </trkpt>
      <trkpt lat="49.941" lon="6.03247">
        <ele>353</ele>
        <time>2026-08-26T13:18:16+00:00</time>
      </trkpt>
      <trkpt lat="49.94091" lon="6.03264">
        <ele>359</ele>
        <time>2026-08-26T13:18:19+00:00</time>
      </trkpt>
      <trkpt lat="49.94086" lon="6.0328">
        <ele>352</ele>
        <time>2026-08-26T13:18:22+00:00</time>
      </trkpt>
      <trkpt lat="49.94084" lon="6.03302">
        <ele>359</ele>
        <time>2026-08-26T13:18:25+00:00</time>
      </trkpt>
      <trkpt lat="49.94083" lon="6.03327">
        <ele>358</ele>
        <time>2026-08-26T13:18:28+00:00</time>
      </trkpt>
      <trkpt lat="49.94085" lon="6.03348">
        <ele>359</ele>
        <time>2026-08-26T13:18:31+00:00</time>
      </trkpt>
      <trkpt lat="49.94087" lon="6.03369">
        <ele>358</ele>
        <time>2026-08-26T13:18:34+00:00</time>
      </trkpt>
      <trkpt lat="49.94093" lon="6.03412">
        <ele>356</ele>
        <time>2026-08-26T13:18:37+00:00</time>
      </trkpt>
      <trkpt lat="49.94077" lon="6.03376">
        <ele>355</ele>
        <time>2026-08-26T13:18:40+00:00</time>
      </trkpt>
      <trkpt lat="49.94047" lon="6.03311">
        <ele>348</ele>
        <time>2026-08-26T13:18:43+00:00</time>
      </trkpt>
      <trkpt lat="49.94039" lon="6.03282">
        <ele>338</ele>
        <time>2026-08-26T13:18:46+00:00</time>
      </trkpt>
      <trkpt lat="49.94036" lon="6.03254">
        <ele>337</ele>
        <time>2026-08-26T13:18:49+00:00</time>
      </trkpt>
      <trkpt lat="49.94036" lon="6.03229">
        <ele>335</ele>
        <time>2026-08-26T13:18:52+00:00</time>
      </trkpt>
      <trkpt lat="49.9404" lon="6.03209">
        <ele>339</ele>
        <time>2026-08-26T13:18:55+00:00</time>
      </trkpt>
      <trkpt lat="49.94053" lon="6.03181">
        <ele>338</ele>
        <time>2026-08-26T13:18:58+00:00</time>
      </trkpt>
      <trkpt lat="49.94068" lon="6.03152">
        <ele>341</ele>
        <time>2026-08-26T13:19:01+00:00</time>
      </trkpt>
      <trkpt lat="49.94083" lon="6.03112">
        <ele>344</ele>
        <time>2026-08-26T13:19:04+00:00</time>
      </trkpt>
      <trkpt lat="49.94097" lon="6.03072">
        <ele>344</ele>
        <time>2026-08-26T13:19:07+00:00</time>
      </trkpt>
      <trkpt lat="49.94115" lon="6.03024">
        <ele>341</ele>
        <time>2026-08-26T13:19:10+00:00</time>
      </trkpt>
      <trkpt lat="49.94132" lon="6.02994">
        <ele>340</ele>
        <time>2026-08-26T13:19:13+00:00</time>
      </trkpt>
      <trkpt lat="49.94144" lon="6.02979">
        <ele>338</ele>
        <time>2026-08-26T13:19:16+00:00</time>
      </trkpt>
      <trkpt lat="49.94159" lon="6.0297">
        <ele>335</ele>
        <time>2026-08-26T13:19:19+00:00</time>
      </trkpt>
      <trkpt lat="49.94194" lon="6.02962">
        <ele>330</ele>
        <time>2026-08-26T13:19:22+00:00</time>
      </trkpt>
      <trkpt lat="49.94215" lon="6.02964">
        <ele>321</ele>
        <time>2026-08-26T13:19:25+00:00</time>
      </trkpt>
      <trkpt lat="49.94227" lon="6.02969">
        <ele>319</ele>
        <time>2026-08-26T13:19:28+00:00</time>
      </trkpt>
      <trkpt lat="49.94229" lon="6.02969">
        <ele>319</ele>
        <time>2026-08-26T13:19:31+00:00</time>
      </trkpt>
      <trkpt lat="49.94233" lon="6.02967">
        <ele>319</ele>
        <time>2026-08-26T13:19:34+00:00</time>
      </trkpt>
      <trkpt lat="49.94232" lon="6.02958">
        <ele>320</ele>
        <time>2026-08-26T13:19:37+00:00</time>
      </trkpt>
      <trkpt lat="49.94208" lon="6.02914">
        <ele>317</ele>
        <time>2026-08-26T13:19:40+00:00</time>
      </trkpt>
      <trkpt lat="49.94178" lon="6.02878">
        <ele>314</ele>
        <time>2026-08-26T13:19:43+00:00</time>
      </trkpt>
      <trkpt lat="49.94166" lon="6.02859">
        <ele>314</ele>
        <time>2026-08-26T13:19:46+00:00</time>
      </trkpt>
      <trkpt lat="49.94155" lon="6.02831">
        <ele>313</ele>
        <time>2026-08-26T13:19:49+00:00</time>
      </trkpt>
      <trkpt lat="49.94135" lon="6.02783">
        <ele>310</ele>
        <time>2026-08-26T13:19:52+00:00</time>
      </trkpt>
      <trkpt lat="49.9411" lon="6.02746">
        <ele>304</ele>
        <time>2026-08-26T13:19:55+00:00</time>
      </trkpt>
      <trkpt lat="49.94097" lon="6.02726">
        <ele>303</ele>
        <time>2026-08-26T13:19:58+00:00</time>
      </trkpt>
      <trkpt lat="49.94095" lon="6.02719">
        <ele>300</ele>
        <time>2026-08-26T13:20:01+00:00</time>
      </trkpt>
      <trkpt lat="49.94095" lon="6.02711">
        <ele>300</ele>
        <time>2026-08-26T13:20:04+00:00</time>
      </trkpt>
      <trkpt lat="49.94098" lon="6.02705">
        <ele>300</ele>
        <time>2026-08-26T13:20:07+00:00</time>
      </trkpt>
      <trkpt lat="49.94113" lon="6.02699">
        <ele>302</ele>
        <time>2026-08-26T13:20:10+00:00</time>
      </trkpt>
      <trkpt lat="49.94131" lon="6.02693">
        <ele>302</ele>
        <time>2026-08-26T13:20:13+00:00</time>
      </trkpt>
      <trkpt lat="49.94138" lon="6.02686">
        <ele>303</ele>
        <time>2026-08-26T13:20:16+00:00</time>
      </trkpt>
      <trkpt lat="49.94145" lon="6.02672">
        <ele>304</ele>
        <time>2026-08-26T13:20:19+00:00</time>
      </trkpt>
      <trkpt lat="49.94148" lon="6.02659">
        <ele>306</ele>
        <time>2026-08-26T13:20:22+00:00</time>
      </trkpt>
      <trkpt lat="49.94148" lon="6.02643">
        <ele>300</ele>
        <time>2026-08-26T13:20:25+00:00</time>
      </trkpt>
      <trkpt lat="49.94144" lon="6.02629">
        <ele>307</ele>
        <time>2026-08-26T13:20:28+00:00</time>
      </trkpt>
      <trkpt lat="49.94129" lon="6.02584">
        <ele>297</ele>
        <time>2026-08-26T13:20:31+00:00</time>
      </trkpt>
      <trkpt lat="49.94129" lon="6.02571">
        <ele>293</ele>
        <time>2026-08-26T13:20:34+00:00</time>
      </trkpt>
      <trkpt lat="49.94134" lon="6.02559">
        <ele>293</ele>
        <time>2026-08-26T13:20:37+00:00</time>
      </trkpt>
      <trkpt lat="49.94143" lon="6.02556">
        <ele>291</ele>
        <time>2026-08-26T13:20:40+00:00</time>
      </trkpt>
      <trkpt lat="49.94156" lon="6.02542">
        <ele>290</ele>
        <time>2026-08-26T13:20:43+00:00</time>
      </trkpt>
      <trkpt lat="49.94168" lon="6.02522">
        <ele>282</ele>
        <time>2026-08-26T13:20:46+00:00</time>
      </trkpt>
      <trkpt lat="49.94181" lon="6.0251">
        <ele>274</ele>
        <time>2026-08-26T13:20:49+00:00</time>
      </trkpt>
      <trkpt lat="49.94209" lon="6.0251">
        <ele>281</ele>
        <time>2026-08-26T13:20:52+00:00</time>
      </trkpt>
      <trkpt lat="49.94242" lon="6.02498">
        <ele>281</ele>
        <time>2026-08-26T13:20:55+00:00</time>
      </trkpt>
      <trkpt lat="49.94269" lon="6.02506">
        <ele>280</ele>
        <time>2026-08-26T13:20:58+00:00</time>
      </trkpt>
      <trkpt lat="49.94316" lon="6.02521">
        <ele>280</ele>
        <time>2026-08-26T13:21:01+00:00</time>
      </trkpt>
      <trkpt lat="49.94345" lon="6.02537">
        <ele>277</ele>
        <time>2026-08-26T13:21:04+00:00</time>
      </trkpt>
      <trkpt lat="49.94373" lon="6.02553">
        <ele>272</ele>
        <time>2026-08-26T13:21:07+00:00</time>
      </trkpt>
      <trkpt lat="49.94412" lon="6.02574">
        <ele>263</ele>
        <time>2026-08-26T13:21:10+00:00</time>
      </trkpt>
      <trkpt lat="49.94436" lon="6.02594">
        <ele>261</ele>
        <time>2026-08-26T13:21:13+00:00</time>
      </trkpt>
      <trkpt lat="49.94441" lon="6.02598">
        <ele>254</ele>
        <time>2026-08-26T13:21:16+00:00</time>
      </trkpt>
      <trkpt lat="49.94422" lon="6.02571">
        <ele>261</ele>
        <time>2026-08-26T13:21:19+00:00</time>
      </trkpt>
      <trkpt lat="49.94391" lon="6.02538">
        <ele>257</ele>
        <time>2026-08-26T13:21:22+00:00</time>
      </trkpt>
      <trkpt lat="49.94364" lon="6.02499">
        <ele>254</ele>
        <time>2026-08-26T13:21:25+00:00</time>
      </trkpt>
      <trkpt lat="49.9435" lon="6.02451">
        <ele>252</ele>
        <time>2026-08-26T13:21:28+00:00</time>
      </trkpt>
      <trkpt lat="49.94345" lon="6.02445">
        <ele>253</ele>
        <time>2026-08-26T13:21:31+00:00</time>
      </trkpt>
      <trkpt lat="49.94338" lon="6.02442">
        <ele>251</ele>
        <time>2026-08-26T13:21:34+00:00</time>
      </trkpt>
      <trkpt lat="49.94333" lon="6.02441">
        <ele>257</ele>
        <time>2026-08-26T13:21:37+00:00</time>
      </trkpt>
      <trkpt lat="49.94334" lon="6.02436">
        <ele>253</ele>
        <time>2026-08-26T13:21:40+00:00</time>
      </trkpt>
      <trkpt lat="49.94338" lon="6.02439">
        <ele>253</ele>
        <time>2026-08-26T13:21:43+00:00</time>
      </trkpt>
      <trkpt lat="49.94343" lon="6.02417">
        <ele>262</ele>
        <time>2026-08-26T13:21:46+00:00</time>
      </trkpt>
      <trkpt lat="49.94341" lon="6.02415">
        <ele>262</ele>
        <time>2026-08-26T13:21:49+00:00</time>
      </trkpt>
      <trkpt lat="49.94323" lon="6.02402">
        <ele>266</ele>
        <time>2026-08-26T13:21:52+00:00</time>
      </trkpt>
      <trkpt lat="49.94317" lon="6.02403">
        <ele>264</ele>
        <time>2026-08-26T13:21:55+00:00</time>
      </trkpt>
      <trkpt lat="49.94285" lon="6.02378">
        <ele>266</ele>
        <time>2026-08-26T13:21:58+00:00</time>
      </trkpt>
      <trkpt lat="49.94265" lon="6.02369">
        <ele>266</ele>
        <time>2026-08-26T13:22:01+00:00</time>
      </trkpt>
      <trkpt lat="49.94251" lon="6.02366">
        <ele>267</ele>
        <time>2026-08-26T13:22:04+00:00</time>
      </trkpt>
      <trkpt lat="49.94238" lon="6.02368">
        <ele>266</ele>
        <time>2026-08-26T13:22:07+00:00</time>
      </trkpt>
      <trkpt lat="49.94211" lon="6.02365">
        <ele>266</ele>
        <time>2026-08-26T13:22:10+00:00</time>
      </trkpt>
      <trkpt lat="49.94188" lon="6.02362">
        <ele>266</ele>
        <time>2026-08-26T13:22:13+00:00</time>
      </trkpt>
      <trkpt lat="49.94182" lon="6.02358">
        <ele>267</ele>
        <time>2026-08-26T13:22:16+00:00</time>
      </trkpt>
      <trkpt lat="49.94176" lon="6.02329">
        <ele>269</ele>
        <time>2026-08-26T13:22:19+00:00</time>
      </trkpt>
      <trkpt lat="49.94176" lon="6.02315">
        <ele>269</ele>
        <time>2026-08-26T13:22:22+00:00</time>
      </trkpt>
      <trkpt lat="49.94173" lon="6.02287">
        <ele>271</ele>
        <time>2026-08-26T13:22:25+00:00</time>
      </trkpt>
      <trkpt lat="49.94167" lon="6.0224">
        <ele>276</ele>
        <time>2026-08-26T13:22:28+00:00</time>
      </trkpt>
      <trkpt lat="49.94161" lon="6.02193">
        <ele>280</ele>
        <time>2026-08-26T13:22:31+00:00</time>
      </trkpt>
      <trkpt lat="49.94153" lon="6.02125">
        <ele>281</ele>
        <time>2026-08-26T13:22:34+00:00</time>
      </trkpt>
      <trkpt lat="49.94153" lon="6.02116">
        <ele>280</ele>
        <time>2026-08-26T13:22:37+00:00</time>
      </trkpt>
      <trkpt lat="49.94159" lon="6.02093">
        <ele>281</ele>
        <time>2026-08-26T13:22:40+00:00</time>
      </trkpt>
      <trkpt lat="49.94158" lon="6.02079">
        <ele>282</ele>
        <time>2026-08-26T13:22:43+00:00</time>
      </trkpt>
      <trkpt lat="49.9416" lon="6.02071">
        <ele>282</ele>
        <time>2026-08-26T13:22:46+00:00</time>
      </trkpt>
      <trkpt lat="49.94156" lon="6.02047">
        <ele>280</ele>
        <time>2026-08-26T13:22:49+00:00</time>
      </trkpt>
      <trkpt lat="49.94155" lon="6.02015">
        <ele>283</ele>
        <time>2026-08-26T13:22:52+00:00</time>
      </trkpt>
      <trkpt lat="49.94155" lon="6.01981">
        <ele>286</ele>
        <time>2026-08-26T13:22:55+00:00</time>
      </trkpt>
      <trkpt lat="49.94155" lon="6.01947">
        <ele>291</ele>
        <time>2026-08-26T13:22:58+00:00</time>
      </trkpt>
      <trkpt lat="49.94151" lon="6.01895">
        <ele>290</ele>
        <time>2026-08-26T13:23:01+00:00</time>
      </trkpt>
      <trkpt lat="49.94146" lon="6.01859">
        <ele>290</ele>
        <time>2026-08-26T13:23:04+00:00</time>
      </trkpt>
      <trkpt lat="49.94139" lon="6.01816">
        <ele>300</ele>
        <time>2026-08-26T13:23:07+00:00</time>
      </trkpt>
      <trkpt lat="49.94138" lon="6.01764">
        <ele>305</ele>
        <time>2026-08-26T13:23:10+00:00</time>
      </trkpt>
      <trkpt lat="49.9413" lon="6.01727">
        <ele>307</ele>
        <time>2026-08-26T13:23:13+00:00</time>
      </trkpt>
      <trkpt lat="49.94118" lon="6.01676">
        <ele>297</ele>
        <time>2026-08-26T13:23:16+00:00</time>
      </trkpt>
      <trkpt lat="49.941" lon="6.01627">
        <ele>287</ele>
        <time>2026-08-26T13:23:19+00:00</time>
      </trkpt>
      <trkpt lat="49.9409" lon="6.0161">
        <ele>287</ele>
        <time>2026-08-26T13:23:22+00:00</time>
      </trkpt>
      <trkpt lat="49.94084" lon="6.01611">
        <ele>296</ele>
        <time>2026-08-26T13:23:25+00:00</time>
      </trkpt>
      <trkpt lat="49.94078" lon="6.01612">
        <ele>291</ele>
        <time>2026-08-26T13:23:28+00:00</time>
      </trkpt>
      <trkpt lat="49.94076" lon="6.01612">
        <ele>291</ele>
        <time>2026-08-26T13:23:31+00:00</time>
      </trkpt>
      <trkpt lat="49.94084" lon="6.01656">
        <ele>305</ele>
        <time>2026-08-26T13:23:34+00:00</time>
      </trkpt>
      <trkpt lat="49.94093" lon="6.017">
        <ele>316</ele>
        <time>2026-08-26T13:23:37+00:00</time>
      </trkpt>
      <trkpt lat="49.94108" lon="6.01779">
        <ele>314</ele>
        <time>2026-08-26T13:23:40+00:00</time>
      </trkpt>
      <trkpt lat="49.9411" lon="6.01838">
        <ele>312</ele>
        <time>2026-08-26T13:23:43+00:00</time>
      </trkpt>
      <trkpt lat="49.94111" lon="6.01897">
        <ele>309</ele>
        <time>2026-08-26T13:23:46+00:00</time>
      </trkpt>
      <trkpt lat="49.94113" lon="6.01957">
        <ele>307</ele>
        <time>2026-08-26T13:23:49+00:00</time>
      </trkpt>
      <trkpt lat="49.94115" lon="6.02016">
        <ele>306</ele>
        <time>2026-08-26T13:23:52+00:00</time>
      </trkpt>
      <trkpt lat="49.94117" lon="6.02076">
        <ele>305</ele>
        <time>2026-08-26T13:23:55+00:00</time>
      </trkpt>
      <trkpt lat="49.94119" lon="6.02135">
        <ele>305</ele>
        <time>2026-08-26T13:23:58+00:00</time>
      </trkpt>
      <trkpt lat="49.94121" lon="6.02195">
        <ele>306</ele>
        <time>2026-08-26T13:24:01+00:00</time>
      </trkpt>
      <trkpt lat="49.94124" lon="6.02287">
        <ele>307</ele>
        <time>2026-08-26T13:24:04+00:00</time>
      </trkpt>
      <trkpt lat="49.94089" lon="6.02302">
        <ele>318</ele>
        <time>2026-08-26T13:24:07+00:00</time>
      </trkpt>
      <trkpt lat="49.94055" lon="6.02317">
        <ele>318</ele>
        <time>2026-08-26T13:24:10+00:00</time>
      </trkpt>
      <trkpt lat="49.9402" lon="6.02332">
        <ele>318</ele>
        <time>2026-08-26T13:24:13+00:00</time>
      </trkpt>
      <trkpt lat="49.93986" lon="6.02347">
        <ele>314</ele>
        <time>2026-08-26T13:24:16+00:00</time>
      </trkpt>
      <trkpt lat="49.93922" lon="6.02374">
        <ele>314</ele>
        <time>2026-08-26T13:24:19+00:00</time>
      </trkpt>
      <trkpt lat="49.93894" lon="6.02373">
        <ele>314</ele>
        <time>2026-08-26T13:24:22+00:00</time>
      </trkpt>
      <trkpt lat="49.93846" lon="6.02369">
        <ele>318</ele>
        <time>2026-08-26T13:24:25+00:00</time>
      </trkpt>
      <trkpt lat="49.93841" lon="6.02413">
        <ele>319</ele>
        <time>2026-08-26T13:24:28+00:00</time>
      </trkpt>
      <trkpt lat="49.93833" lon="6.025">
        <ele>324</ele>
        <time>2026-08-26T13:24:31+00:00</time>
      </trkpt>
      <trkpt lat="49.93819" lon="6.02549">
        <ele>324</ele>
        <time>2026-08-26T13:24:34+00:00</time>
      </trkpt>
      <trkpt lat="49.93806" lon="6.02599">
        <ele>323</ele>
        <time>2026-08-26T13:24:37+00:00</time>
      </trkpt>
      <trkpt lat="49.93793" lon="6.02649">
        <ele>325</ele>
        <time>2026-08-26T13:24:40+00:00</time>
      </trkpt>
      <trkpt lat="49.93779" lon="6.02699">
        <ele>326</ele>
        <time>2026-08-26T13:24:43+00:00</time>
      </trkpt>
      <trkpt lat="49.93765" lon="6.0275">
        <ele>324</ele>
        <time>2026-08-26T13:24:46+00:00</time>
      </trkpt>
      <trkpt lat="49.93764" lon="6.02785">
        <ele>323</ele>
        <time>2026-08-26T13:24:49+00:00</time>
      </trkpt>
      <trkpt lat="49.93762" lon="6.02824">
        <ele>318</ele>
        <time>2026-08-26T13:24:52+00:00</time>
      </trkpt>
      <trkpt lat="49.93742" lon="6.02848">
        <ele>317</ele>
        <time>2026-08-26T13:24:55+00:00</time>
      </trkpt>
      <trkpt lat="49.93714" lon="6.02881">
        <ele>314</ele>
        <time>2026-08-26T13:24:58+00:00</time>
      </trkpt>
      <trkpt lat="49.93698" lon="6.02853">
        <ele>314</ele>
        <time>2026-08-26T13:25:01+00:00</time>
      </trkpt>
      <trkpt lat="49.93678" lon="6.02819">
        <ele>314</ele>
        <time>2026-08-26T13:25:04+00:00</time>
      </trkpt>
      <trkpt lat="49.93652" lon="6.02819">
        <ele>314</ele>
        <time>2026-08-26T13:25:07+00:00</time>
      </trkpt>
      <trkpt lat="49.93614" lon="6.02819">
        <ele>314</ele>
        <time>2026-08-26T13:25:10+00:00</time>
      </trkpt>
      <trkpt lat="49.93586" lon="6.0285">
        <ele>315</ele>
        <time>2026-08-26T13:25:13+00:00</time>
      </trkpt>
      <trkpt lat="49.93558" lon="6.02881">
        <ele>317</ele>
        <time>2026-08-26T13:25:16+00:00</time>
      </trkpt>
      <trkpt lat="49.9353" lon="6.02911">
        <ele>320</ele>
        <time>2026-08-26T13:25:19+00:00</time>
      </trkpt>
      <trkpt lat="49.93484" lon="6.02963">
        <ele>343</ele>
        <time>2026-08-26T13:25:22+00:00</time>
      </trkpt>
      <trkpt lat="49.9347" lon="6.03005">
        <ele>346</ele>
        <time>2026-08-26T13:25:25+00:00</time>
      </trkpt>
      <trkpt lat="49.93455" lon="6.03047">
        <ele>349</ele>
        <time>2026-08-26T13:25:28+00:00</time>
      </trkpt>
      <trkpt lat="49.93435" lon="6.03108">
        <ele>353</ele>
        <time>2026-08-26T13:25:31+00:00</time>
      </trkpt>
      <trkpt lat="49.93407" lon="6.0314">
        <ele>349</ele>
        <time>2026-08-26T13:25:34+00:00</time>
      </trkpt>
      <trkpt lat="49.9338" lon="6.03171">
        <ele>346</ele>
        <time>2026-08-26T13:25:37+00:00</time>
      </trkpt>
      <trkpt lat="49.93353" lon="6.03203">
        <ele>346</ele>
        <time>2026-08-26T13:25:40+00:00</time>
      </trkpt>
      <trkpt lat="49.93309" lon="6.03254">
        <ele>346</ele>
        <time>2026-08-26T13:25:43+00:00</time>
      </trkpt>
      <trkpt lat="49.9334" lon="6.03288">
        <ele>347</ele>
        <time>2026-08-26T13:25:46+00:00</time>
      </trkpt>
      <trkpt lat="49.93371" lon="6.03321">
        <ele>349</ele>
        <time>2026-08-26T13:25:49+00:00</time>
      </trkpt>
      <trkpt lat="49.93401" lon="6.03355">
        <ele>352</ele>
        <time>2026-08-26T13:25:52+00:00</time>
      </trkpt>
      <trkpt lat="49.93432" lon="6.03388">
        <ele>352</ele>
        <time>2026-08-26T13:25:55+00:00</time>
      </trkpt>
      <trkpt lat="49.93463" lon="6.03422">
        <ele>364</ele>
        <time>2026-08-26T13:25:58+00:00</time>
      </trkpt>
      <trkpt lat="49.93494" lon="6.03456">
        <ele>364</ele>
        <time>2026-08-26T13:26:01+00:00</time>
      </trkpt>
      <trkpt lat="49.93538" lon="6.03505">
        <ele>364</ele>
        <time>2026-08-26T13:26:04+00:00</time>
      </trkpt>
      <trkpt lat="49.9353" lon="6.03561">
        <ele>362</ele>
        <time>2026-08-26T13:26:07+00:00</time>
      </trkpt>
      <trkpt lat="49.93547" lon="6.03598">
        <ele>360</ele>
        <time>2026-08-26T13:26:10+00:00</time>
      </trkpt>
      <trkpt lat="49.93564" lon="6.03635">
        <ele>357</ele>
        <time>2026-08-26T13:26:13+00:00</time>
      </trkpt>
      <trkpt lat="49.93583" lon="6.03676">
        <ele>354</ele>
        <time>2026-08-26T13:26:16+00:00</time>
      </trkpt>
      <trkpt lat="49.936" lon="6.03716">
        <ele>346</ele>
        <time>2026-08-26T13:26:19+00:00</time>
      </trkpt>
      <trkpt lat="49.93618" lon="6.03756">
        <ele>338</ele>
        <time>2026-08-26T13:26:22+00:00</time>
      </trkpt>
      <trkpt lat="49.93645" lon="6.03819">
        <ele>327</ele>
        <time>2026-08-26T13:26:25+00:00</time>
      </trkpt>
      <trkpt lat="49.93613" lon="6.03824">
        <ele>326</ele>
        <time>2026-08-26T13:26:28+00:00</time>
      </trkpt>
      <trkpt lat="49.9358" lon="6.03829">
        <ele>325</ele>
        <time>2026-08-26T13:26:31+00:00</time>
      </trkpt>
      <trkpt lat="49.93548" lon="6.03834">
        <ele>325</ele>
        <time>2026-08-26T13:26:34+00:00</time>
      </trkpt>
      <trkpt lat="49.93514" lon="6.0384">
        <ele>325</ele>
        <time>2026-08-26T13:26:37+00:00</time>
      </trkpt>
      <trkpt lat="49.93485" lon="6.03865">
        <ele>320</ele>
        <time>2026-08-26T13:26:40+00:00</time>
      </trkpt>
      <trkpt lat="49.93457" lon="6.03891">
        <ele>318</ele>
        <time>2026-08-26T13:26:43+00:00</time>
      </trkpt>
      <trkpt lat="49.93428" lon="6.03917">
        <ele>318</ele>
        <time>2026-08-26T13:26:46+00:00</time>
      </trkpt>
      <trkpt lat="49.93395" lon="6.03947">
        <ele>317</ele>
        <time>2026-08-26T13:26:49+00:00</time>
      </trkpt>
      <trkpt lat="49.93373" lon="6.0398">
        <ele>317</ele>
        <time>2026-08-26T13:26:52+00:00</time>
      </trkpt>
      <trkpt lat="49.9335" lon="6.04013">
        <ele>317</ele>
        <time>2026-08-26T13:26:55+00:00</time>
      </trkpt>
      <trkpt lat="49.93318" lon="6.0406">
        <ele>316</ele>
        <time>2026-08-26T13:26:58+00:00</time>
      </trkpt>
      <trkpt lat="49.93314" lon="6.04099">
        <ele>315</ele>
        <time>2026-08-26T13:27:01+00:00</time>
      </trkpt>
      <trkpt lat="49.9331" lon="6.04151">
        <ele>311</ele>
        <time>2026-08-26T13:27:04+00:00</time>
      </trkpt>
      <trkpt lat="49.93317" lon="6.04189">
        <ele>306</ele>
        <time>2026-08-26T13:27:07+00:00</time>
      </trkpt>
      <trkpt lat="49.93327" lon="6.04241">
        <ele>297</ele>
        <time>2026-08-26T13:27:10+00:00</time>
      </trkpt>
      <trkpt lat="49.93291" lon="6.04276">
        <ele>294</ele>
        <time>2026-08-26T13:27:13+00:00</time>
      </trkpt>
      <trkpt lat="49.93261" lon="6.04279">
        <ele>292</ele>
        <time>2026-08-26T13:27:16+00:00</time>
      </trkpt>
      <trkpt lat="49.93231" lon="6.04282">
        <ele>286</ele>
        <time>2026-08-26T13:27:19+00:00</time>
      </trkpt>
      <trkpt lat="49.93195" lon="6.04286">
        <ele>287</ele>
        <time>2026-08-26T13:27:22+00:00</time>
      </trkpt>
      <trkpt lat="49.93162" lon="6.04265">
        <ele>288</ele>
        <time>2026-08-26T13:27:25+00:00</time>
      </trkpt>
      <trkpt lat="49.9314" lon="6.04282">
        <ele>288</ele>
        <time>2026-08-26T13:27:28+00:00</time>
      </trkpt>
      <trkpt lat="49.93112" lon="6.04305">
        <ele>281</ele>
        <time>2026-08-26T13:27:31+00:00</time>
      </trkpt>
      <trkpt lat="49.93086" lon="6.04322">
        <ele>283</ele>
        <time>2026-08-26T13:27:34+00:00</time>
      </trkpt>
      <trkpt lat="49.93044" lon="6.04349">
        <ele>283</ele>
        <time>2026-08-26T13:27:37+00:00</time>
      </trkpt>
      <trkpt lat="49.93021" lon="6.04384">
        <ele>283</ele>
        <time>2026-08-26T13:27:40+00:00</time>
      </trkpt>
      <trkpt lat="49.92999" lon="6.04419">
        <ele>284</ele>
        <time>2026-08-26T13:27:43+00:00</time>
      </trkpt>
      <trkpt lat="49.92958" lon="6.04482">
        <ele>280</ele>
        <time>2026-08-26T13:27:46+00:00</time>
      </trkpt>
      <trkpt lat="49.92946" lon="6.04523">
        <ele>276</ele>
        <time>2026-08-26T13:27:49+00:00</time>
      </trkpt>
      <trkpt lat="49.92933" lon="6.04565">
        <ele>271</ele>
        <time>2026-08-26T13:27:52+00:00</time>
      </trkpt>
      <trkpt lat="49.92919" lon="6.04612">
        <ele>268</ele>
        <time>2026-08-26T13:27:55+00:00</time>
      </trkpt>
      <trkpt lat="49.92902" lon="6.04646">
        <ele>264</ele>
        <time>2026-08-26T13:27:58+00:00</time>
      </trkpt>
      <trkpt lat="49.92873" lon="6.04708">
        <ele>259</ele>
        <time>2026-08-26T13:28:01+00:00</time>
      </trkpt>
      <trkpt lat="49.92849" lon="6.0473">
        <ele>254</ele>
        <time>2026-08-26T13:28:04+00:00</time>
      </trkpt>
      <trkpt lat="49.92809" lon="6.0477">
        <ele>249</ele>
        <time>2026-08-26T13:28:07+00:00</time>
      </trkpt>
      <trkpt lat="49.9278" lon="6.04781">
        <ele>249</ele>
        <time>2026-08-26T13:28:10+00:00</time>
      </trkpt>
      <trkpt lat="49.92752" lon="6.04791">
        <ele>242</ele>
        <time>2026-08-26T13:28:13+00:00</time>
      </trkpt>
      <trkpt lat="49.92719" lon="6.04803">
        <ele>236</ele>
        <time>2026-08-26T13:28:16+00:00</time>
      </trkpt>
      <trkpt lat="49.92684" lon="6.04811">
        <ele>236</ele>
        <time>2026-08-26T13:28:19+00:00</time>
      </trkpt>
      <trkpt lat="49.92649" lon="6.04819">
        <ele>236</ele>
        <time>2026-08-26T13:28:22+00:00</time>
      </trkpt>
      <trkpt lat="49.92614" lon="6.04828">
        <ele>236</ele>
        <time>2026-08-26T13:28:25+00:00</time>
      </trkpt>
      <trkpt lat="49.9258" lon="6.04836">
        <ele>236</ele>
        <time>2026-08-26T13:28:28+00:00</time>
      </trkpt>
      <trkpt lat="49.92537" lon="6.04845">
        <ele>243</ele>
        <time>2026-08-26T13:28:31+00:00</time>
      </trkpt>
      <trkpt lat="49.92508" lon="6.0485">
        <ele>242</ele>
        <time>2026-08-26T13:28:34+00:00</time>
      </trkpt>
      <trkpt lat="49.92479" lon="6.04854">
        <ele>242</ele>
        <time>2026-08-26T13:28:37+00:00</time>
      </trkpt>
      <trkpt lat="49.92448" lon="6.04859">
        <ele>241</ele>
        <time>2026-08-26T13:28:40+00:00</time>
      </trkpt>
      <trkpt lat="49.92472" lon="6.04825">
        <ele>241</ele>
        <time>2026-08-26T13:28:43+00:00</time>
      </trkpt>
      <trkpt lat="49.92496" lon="6.04792">
        <ele>242</ele>
        <time>2026-08-26T13:28:46+00:00</time>
      </trkpt>
      <trkpt lat="49.92521" lon="6.04759">
        <ele>244</ele>
        <time>2026-08-26T13:28:49+00:00</time>
      </trkpt>
      <trkpt lat="49.92546" lon="6.04724">
        <ele>246</ele>
        <time>2026-08-26T13:28:52+00:00</time>
      </trkpt>
      <trkpt lat="49.9256" lon="6.04738">
        <ele>249</ele>
        <time>2026-08-26T13:28:55+00:00</time>
      </trkpt>
      <trkpt lat="49.92573" lon="6.04719">
        <ele>255</ele>
        <time>2026-08-26T13:28:58+00:00</time>
      </trkpt>
      <trkpt lat="49.92592" lon="6.04694">
        <ele>262</ele>
        <time>2026-08-26T13:29:01+00:00</time>
      </trkpt>
      <trkpt lat="49.92621" lon="6.04656">
        <ele>281</ele>
        <time>2026-08-26T13:29:04+00:00</time>
      </trkpt>
      <trkpt lat="49.9263" lon="6.04613">
        <ele>289</ele>
        <time>2026-08-26T13:29:07+00:00</time>
      </trkpt>
      <trkpt lat="49.92639" lon="6.0457">
        <ele>290</ele>
        <time>2026-08-26T13:29:10+00:00</time>
      </trkpt>
      <trkpt lat="49.92649" lon="6.04522">
        <ele>294</ele>
        <time>2026-08-26T13:29:13+00:00</time>
      </trkpt>
      <trkpt lat="49.92665" lon="6.04487">
        <ele>310</ele>
        <time>2026-08-26T13:29:16+00:00</time>
      </trkpt>
      <trkpt lat="49.92689" lon="6.04432">
        <ele>319</ele>
        <time>2026-08-26T13:29:19+00:00</time>
      </trkpt>
      <trkpt lat="49.92694" lon="6.04465">
        <ele>329</ele>
        <time>2026-08-26T13:29:22+00:00</time>
      </trkpt>
      <trkpt lat="49.92699" lon="6.04501">
        <ele>332</ele>
        <time>2026-08-26T13:29:25+00:00</time>
      </trkpt>
      <trkpt lat="49.92716" lon="6.04522">
        <ele>341</ele>
        <time>2026-08-26T13:29:28+00:00</time>
      </trkpt>
      <trkpt lat="49.92735" lon="6.04545">
        <ele>346</ele>
        <time>2026-08-26T13:29:31+00:00</time>
      </trkpt>
      <trkpt lat="49.92757" lon="6.04535">
        <ele>347</ele>
        <time>2026-08-26T13:29:34+00:00</time>
      </trkpt>
      <trkpt lat="49.92782" lon="6.04524">
        <ele>348</ele>
        <time>2026-08-26T13:29:37+00:00</time>
      </trkpt>
      <trkpt lat="49.92794" lon="6.04491">
        <ele>362</ele>
        <time>2026-08-26T13:29:40+00:00</time>
      </trkpt>
      <trkpt lat="49.92808" lon="6.04448">
        <ele>373</ele>
        <time>2026-08-26T13:29:43+00:00</time>
      </trkpt>
      <trkpt lat="49.92819" lon="6.04407">
        <ele>383</ele>
        <time>2026-08-26T13:29:46+00:00</time>
      </trkpt>
      <trkpt lat="49.92839" lon="6.04328">
        <ele>387</ele>
        <time>2026-08-26T13:29:49+00:00</time>
      </trkpt>
      <trkpt lat="49.92812" lon="6.04337">
        <ele>384</ele>
        <time>2026-08-26T13:29:52+00:00</time>
      </trkpt>
      <trkpt lat="49.92806" lon="6.04303">
        <ele>382</ele>
        <time>2026-08-26T13:29:55+00:00</time>
      </trkpt>
      <trkpt lat="49.92809" lon="6.04267">
        <ele>384</ele>
        <time>2026-08-26T13:29:58+00:00</time>
      </trkpt>
      <trkpt lat="49.92813" lon="6.04224">
        <ele>384</ele>
        <time>2026-08-26T13:30:01+00:00</time>
      </trkpt>
      <trkpt lat="49.92812" lon="6.04178">
        <ele>384</ele>
        <time>2026-08-26T13:30:04+00:00</time>
      </trkpt>
      <trkpt lat="49.9281" lon="6.04133">
        <ele>384</ele>
        <time>2026-08-26T13:30:07+00:00</time>
      </trkpt>
      <trkpt lat="49.92808" lon="6.0408">
        <ele>385</ele>
        <time>2026-08-26T13:30:10+00:00</time>
      </trkpt>
      <trkpt lat="49.928" lon="6.04035">
        <ele>384</ele>
        <time>2026-08-26T13:30:13+00:00</time>
      </trkpt>
      <trkpt lat="49.92792" lon="6.0399">
        <ele>384</ele>
        <time>2026-08-26T13:30:16+00:00</time>
      </trkpt>
      <trkpt lat="49.92781" lon="6.03934">
        <ele>382</ele>
        <time>2026-08-26T13:30:19+00:00</time>
      </trkpt>
      <trkpt lat="49.92767" lon="6.03895">
        <ele>383</ele>
        <time>2026-08-26T13:30:22+00:00</time>
      </trkpt>
      <trkpt lat="49.92753" lon="6.03855">
        <ele>380</ele>
        <time>2026-08-26T13:30:25+00:00</time>
      </trkpt>
      <trkpt lat="49.92738" lon="6.03814">
        <ele>380</ele>
        <time>2026-08-26T13:30:28+00:00</time>
      </trkpt>
      <trkpt lat="49.92723" lon="6.03788">
        <ele>377</ele>
        <time>2026-08-26T13:30:31+00:00</time>
      </trkpt>
      <trkpt lat="49.92704" lon="6.03756">
        <ele>375</ele>
        <time>2026-08-26T13:30:34+00:00</time>
      </trkpt>
      <trkpt lat="49.9268" lon="6.03728">
        <ele>375</ele>
        <time>2026-08-26T13:30:37+00:00</time>
      </trkpt>
      <trkpt lat="49.9267" lon="6.03679">
        <ele>375</ele>
        <time>2026-08-26T13:30:40+00:00</time>
      </trkpt>
      <trkpt lat="49.92644" lon="6.03661">
        <ele>375</ele>
        <time>2026-08-26T13:30:43+00:00</time>
      </trkpt>
      <trkpt lat="49.92591" lon="6.03627">
        <ele>375</ele>
        <time>2026-08-26T13:30:46+00:00</time>
      </trkpt>
      <trkpt lat="49.92567" lon="6.03619">
        <ele>375</ele>
        <time>2026-08-26T13:30:49+00:00</time>
      </trkpt>
      <trkpt lat="49.92537" lon="6.0361">
        <ele>375</ele>
        <time>2026-08-26T13:30:52+00:00</time>
      </trkpt>
      <trkpt lat="49.92503" lon="6.0358">
        <ele>371</ele>
        <time>2026-08-26T13:30:55+00:00</time>
      </trkpt>
      <trkpt lat="49.92475" lon="6.03568">
        <ele>365</ele>
        <time>2026-08-26T13:30:58+00:00</time>
      </trkpt>
      <trkpt lat="49.92421" lon="6.03544">
        <ele>346</ele>
        <time>2026-08-26T13:31:01+00:00</time>
      </trkpt>
      <trkpt lat="49.92388" lon="6.03539">
        <ele>345</ele>
        <time>2026-08-26T13:31:04+00:00</time>
      </trkpt>
      <trkpt lat="49.92354" lon="6.03533">
        <ele>345</ele>
        <time>2026-08-26T13:31:07+00:00</time>
      </trkpt>
      <trkpt lat="49.9232" lon="6.03528">
        <ele>345</ele>
        <time>2026-08-26T13:31:10+00:00</time>
      </trkpt>
      <trkpt lat="49.92266" lon="6.03519">
        <ele>328</ele>
        <time>2026-08-26T13:31:13+00:00</time>
      </trkpt>
      <trkpt lat="49.92255" lon="6.0355">
        <ele>324</ele>
        <time>2026-08-26T13:31:16+00:00</time>
      </trkpt>
      <trkpt lat="49.92275" lon="6.03581">
        <ele>320</ele>
        <time>2026-08-26T13:31:19+00:00</time>
      </trkpt>
      <trkpt lat="49.92276" lon="6.03628">
        <ele>315</ele>
        <time>2026-08-26T13:31:22+00:00</time>
      </trkpt>
      <trkpt lat="49.92259" lon="6.03666">
        <ele>300</ele>
        <time>2026-08-26T13:31:25+00:00</time>
      </trkpt>
      <trkpt lat="49.92231" lon="6.03677">
        <ele>293</ele>
        <time>2026-08-26T13:31:28+00:00</time>
      </trkpt>
      <trkpt lat="49.92231" lon="6.03719">
        <ele>285</ele>
        <time>2026-08-26T13:31:31+00:00</time>
      </trkpt>
      <trkpt lat="49.92247" lon="6.0373">
        <ele>285</ele>
        <time>2026-08-26T13:31:34+00:00</time>
      </trkpt>
      <trkpt lat="49.92282" lon="6.03735">
        <ele>285</ele>
        <time>2026-08-26T13:31:37+00:00</time>
      </trkpt>
      <trkpt lat="49.92257" lon="6.03744">
        <ele>280</ele>
        <time>2026-08-26T13:31:40+00:00</time>
      </trkpt>
      <trkpt lat="49.92223" lon="6.03756">
        <ele>273</ele>
        <time>2026-08-26T13:31:43+00:00</time>
      </trkpt>
      <trkpt lat="49.922" lon="6.03746">
        <ele>272</ele>
        <time>2026-08-26T13:31:46+00:00</time>
      </trkpt>
      <trkpt lat="49.9218" lon="6.03774">
        <ele>272</ele>
        <time>2026-08-26T13:31:49+00:00</time>
      </trkpt>
      <trkpt lat="49.92154" lon="6.0378">
        <ele>272</ele>
        <time>2026-08-26T13:31:52+00:00</time>
      </trkpt>
      <trkpt lat="49.92124" lon="6.03792">
        <ele>272</ele>
        <time>2026-08-26T13:31:55+00:00</time>
      </trkpt>
      <trkpt lat="49.92091" lon="6.03821">
        <ele>272</ele>
        <time>2026-08-26T13:31:58+00:00</time>
      </trkpt>
      <trkpt lat="49.92057" lon="6.03828">
        <ele>258</ele>
        <time>2026-08-26T13:32:01+00:00</time>
      </trkpt>
      <trkpt lat="49.92044" lon="6.03844">
        <ele>257</ele>
        <time>2026-08-26T13:32:04+00:00</time>
      </trkpt>
      <trkpt lat="49.92044" lon="6.03858">
        <ele>259</ele>
        <time>2026-08-26T13:32:07+00:00</time>
      </trkpt>
      <trkpt lat="49.92067" lon="6.03864">
        <ele>260</ele>
        <time>2026-08-26T13:32:10+00:00</time>
      </trkpt>
      <trkpt lat="49.92096" lon="6.03872">
        <ele>267</ele>
        <time>2026-08-26T13:32:13+00:00</time>
      </trkpt>
      <trkpt lat="49.92128" lon="6.03866">
        <ele>271</ele>
        <time>2026-08-26T13:32:16+00:00</time>
      </trkpt>
      <trkpt lat="49.92149" lon="6.0386">
        <ele>271</ele>
        <time>2026-08-26T13:32:19+00:00</time>
      </trkpt>
      <trkpt lat="49.92171" lon="6.03853">
        <ele>267</ele>
        <time>2026-08-26T13:32:22+00:00</time>
      </trkpt>
      <trkpt lat="49.92202" lon="6.03853">
        <ele>261</ele>
        <time>2026-08-26T13:32:25+00:00</time>
      </trkpt>
      <trkpt lat="49.92216" lon="6.03861">
        <ele>253</ele>
        <time>2026-08-26T13:32:28+00:00</time>
      </trkpt>
      <trkpt lat="49.92193" lon="6.03868">
        <ele>261</ele>
        <time>2026-08-26T13:32:31+00:00</time>
      </trkpt>
      <trkpt lat="49.92152" lon="6.03881">
        <ele>261</ele>
        <time>2026-08-26T13:32:34+00:00</time>
      </trkpt>
      <trkpt lat="49.92125" lon="6.03892">
        <ele>261</ele>
        <time>2026-08-26T13:32:37+00:00</time>
      </trkpt>
      <trkpt lat="49.92077" lon="6.03911">
        <ele>254</ele>
        <time>2026-08-26T13:32:40+00:00</time>
      </trkpt>
      <trkpt lat="49.92052" lon="6.0392">
        <ele>251</ele>
        <time>2026-08-26T13:32:43+00:00</time>
      </trkpt>
      <trkpt lat="49.9202" lon="6.03932">
        <ele>249</ele>
        <time>2026-08-26T13:32:46+00:00</time>
      </trkpt>
      <trkpt lat="49.91988" lon="6.0393">
        <ele>246</ele>
        <time>2026-08-26T13:32:49+00:00</time>
      </trkpt>
      <trkpt lat="49.91965" lon="6.03917">
        <ele>245</ele>
        <time>2026-08-26T13:32:52+00:00</time>
      </trkpt>
      <trkpt lat="49.91947" lon="6.03883">
        <ele>245</ele>
        <time>2026-08-26T13:32:55+00:00</time>
      </trkpt>
      <trkpt lat="49.91952" lon="6.03845">
        <ele>246</ele>
        <time>2026-08-26T13:32:58+00:00</time>
      </trkpt>
      <trkpt lat="49.91966" lon="6.03813">
        <ele>246</ele>
        <time>2026-08-26T13:33:01+00:00</time>
      </trkpt>
      <trkpt lat="49.91986" lon="6.03797">
        <ele>246</ele>
        <time>2026-08-26T13:33:04+00:00</time>
      </trkpt>
      <trkpt lat="49.92002" lon="6.03785">
        <ele>246</ele>
        <time>2026-08-26T13:33:07+00:00</time>
      </trkpt>
      <trkpt lat="49.9202" lon="6.03782">
        <ele>246</ele>
        <time>2026-08-26T13:33:10+00:00</time>
      </trkpt>
      <trkpt lat="49.92039" lon="6.03772">
        <ele>241</ele>
        <time>2026-08-26T13:33:13+00:00</time>
      </trkpt>
      <trkpt lat="49.9203" lon="6.03725">
        <ele>241</ele>
        <time>2026-08-26T13:33:16+00:00</time>
      </trkpt>
      <trkpt lat="49.92029" lon="6.03716">
        <ele>242</ele>
        <time>2026-08-26T13:33:19+00:00</time>
      </trkpt>
      <trkpt lat="49.92055" lon="6.03707">
        <ele>243</ele>
        <time>2026-08-26T13:33:22+00:00</time>
      </trkpt>
      <trkpt lat="49.92064" lon="6.03681">
        <ele>244</ele>
        <time>2026-08-26T13:33:25+00:00</time>
      </trkpt>
      <trkpt lat="49.92027" lon="6.03693">
        <ele>244</ele>
        <time>2026-08-26T13:33:28+00:00</time>
      </trkpt>
      <trkpt lat="49.91996" lon="6.0369">
        <ele>244</ele>
        <time>2026-08-26T13:33:31+00:00</time>
      </trkpt>
      <trkpt lat="49.9198" lon="6.03704">
        <ele>244</ele>
        <time>2026-08-26T13:33:34+00:00</time>
      </trkpt>
      <trkpt lat="49.91955" lon="6.0371">
        <ele>248</ele>
        <time>2026-08-26T13:33:37+00:00</time>
      </trkpt>
      <trkpt lat="49.91924" lon="6.03723">
        <ele>250</ele>
        <time>2026-08-26T13:33:40+00:00</time>
      </trkpt>
      <trkpt lat="49.91923" lon="6.03734">
        <ele>249</ele>
        <time>2026-08-26T13:33:43+00:00</time>
      </trkpt>
      <trkpt lat="49.91913" lon="6.03746">
        <ele>250</ele>
        <time>2026-08-26T13:33:46+00:00</time>
      </trkpt>
      <trkpt lat="49.91905" lon="6.03753">
        <ele>254</ele>
        <time>2026-08-26T13:33:49+00:00</time>
      </trkpt>
      <trkpt lat="49.91913" lon="6.03763">
        <ele>250</ele>
        <time>2026-08-26T13:33:52+00:00</time>
      </trkpt>
      <trkpt lat="49.91915" lon="6.03774">
        <ele>252</ele>
        <time>2026-08-26T13:33:55+00:00</time>
      </trkpt>
      <trkpt lat="49.91908" lon="6.03783">
        <ele>260</ele>
        <time>2026-08-26T13:33:58+00:00</time>
      </trkpt>
      <trkpt lat="49.91891" lon="6.03796">
        <ele>265</ele>
        <time>2026-08-26T13:34:01+00:00</time>
      </trkpt>
      <trkpt lat="49.91882" lon="6.03818">
        <ele>271</ele>
        <time>2026-08-26T13:34:04+00:00</time>
      </trkpt>
      <trkpt lat="49.91873" lon="6.03852">
        <ele>280</ele>
        <time>2026-08-26T13:34:07+00:00</time>
      </trkpt>
      <trkpt lat="49.91865" lon="6.03854">
        <ele>287</ele>
        <time>2026-08-26T13:34:10+00:00</time>
      </trkpt>
      <trkpt lat="49.91853" lon="6.0387">
        <ele>284</ele>
        <time>2026-08-26T13:34:13+00:00</time>
      </trkpt>
      <trkpt lat="49.91848" lon="6.03884">
        <ele>291</ele>
        <time>2026-08-26T13:34:16+00:00</time>
      </trkpt>
      <trkpt lat="49.91849" lon="6.03895">
        <ele>292</ele>
        <time>2026-08-26T13:34:19+00:00</time>
      </trkpt>
      <trkpt lat="49.91861" lon="6.03903">
        <ele>288</ele>
        <time>2026-08-26T13:34:22+00:00</time>
      </trkpt>
      <trkpt lat="49.91865" lon="6.03927">
        <ele>290</ele>
        <time>2026-08-26T13:34:25+00:00</time>
      </trkpt>
      <trkpt lat="49.91871" lon="6.03952">
        <ele>291</ele>
        <time>2026-08-26T13:34:28+00:00</time>
      </trkpt>
      <trkpt lat="49.91853" lon="6.03956">
        <ele>300</ele>
        <time>2026-08-26T13:34:31+00:00</time>
      </trkpt>
      <trkpt lat="49.91843" lon="6.03977">
        <ele>310</ele>
        <time>2026-08-26T13:34:34+00:00</time>
      </trkpt>
      <trkpt lat="49.91826" lon="6.03981">
        <ele>319</ele>
        <time>2026-08-26T13:34:37+00:00</time>
      </trkpt>
      <trkpt lat="49.91795" lon="6.04001">
        <ele>330</ele>
        <time>2026-08-26T13:34:40+00:00</time>
      </trkpt>
      <trkpt lat="49.91757" lon="6.04021">
        <ele>339</ele>
        <time>2026-08-26T13:34:43+00:00</time>
      </trkpt>
      <trkpt lat="49.91735" lon="6.04033">
        <ele>345</ele>
        <time>2026-08-26T13:34:46+00:00</time>
      </trkpt>
      <trkpt lat="49.9171" lon="6.04048">
        <ele>346</ele>
        <time>2026-08-26T13:34:49+00:00</time>
      </trkpt>
      <trkpt lat="49.91726" lon="6.04066">
        <ele>347</ele>
        <time>2026-08-26T13:34:52+00:00</time>
      </trkpt>
      <trkpt lat="49.91747" lon="6.04086">
        <ele>354</ele>
        <time>2026-08-26T13:34:55+00:00</time>
      </trkpt>
      <trkpt lat="49.91765" lon="6.04095">
        <ele>356</ele>
        <time>2026-08-26T13:34:58+00:00</time>
      </trkpt>
      <trkpt lat="49.91784" lon="6.04114">
        <ele>358</ele>
        <time>2026-08-26T13:35:01+00:00</time>
      </trkpt>
      <trkpt lat="49.91804" lon="6.04134">
        <ele>357</ele>
        <time>2026-08-26T13:35:04+00:00</time>
      </trkpt>
      <trkpt lat="49.9183" lon="6.04156">
        <ele>356</ele>
        <time>2026-08-26T13:35:07+00:00</time>
      </trkpt>
      <trkpt lat="49.9185" lon="6.04169">
        <ele>355</ele>
        <time>2026-08-26T13:35:10+00:00</time>
      </trkpt>
      <trkpt lat="49.91885" lon="6.04182">
        <ele>355</ele>
        <time>2026-08-26T13:35:13+00:00</time>
      </trkpt>
      <trkpt lat="49.91906" lon="6.04197">
        <ele>355</ele>
        <time>2026-08-26T13:35:16+00:00</time>
      </trkpt>
      <trkpt lat="49.91929" lon="6.04214">
        <ele>359</ele>
        <time>2026-08-26T13:35:19+00:00</time>
      </trkpt>
      <trkpt lat="49.91946" lon="6.04229">
        <ele>361</ele>
        <time>2026-08-26T13:35:22+00:00</time>
      </trkpt>
      <trkpt lat="49.9195" lon="6.04237">
        <ele>366</ele>
        <time>2026-08-26T13:35:25+00:00</time>
      </trkpt>
      <trkpt lat="49.91938" lon="6.04235">
        <ele>361</ele>
        <time>2026-08-26T13:35:28+00:00</time>
      </trkpt>
      <trkpt lat="49.91909" lon="6.04236">
        <ele>362</ele>
        <time>2026-08-26T13:35:31+00:00</time>
      </trkpt>
      <trkpt lat="49.91853" lon="6.04239">
        <ele>369</ele>
        <time>2026-08-26T13:35:34+00:00</time>
      </trkpt>
      <trkpt lat="49.9184" lon="6.04236">
        <ele>373</ele>
        <time>2026-08-26T13:35:37+00:00</time>
      </trkpt>
      <trkpt lat="49.91832" lon="6.04227">
        <ele>371</ele>
        <time>2026-08-26T13:35:40+00:00</time>
      </trkpt>
      <trkpt lat="49.91809" lon="6.0421">
        <ele>377</ele>
        <time>2026-08-26T13:35:43+00:00</time>
      </trkpt>
      <trkpt lat="49.91788" lon="6.04195">
        <ele>381</ele>
        <time>2026-08-26T13:35:46+00:00</time>
      </trkpt>
      <trkpt lat="49.91765" lon="6.04182">
        <ele>381</ele>
        <time>2026-08-26T13:35:49+00:00</time>
      </trkpt>
      <trkpt lat="49.91743" lon="6.04176">
        <ele>381</ele>
        <time>2026-08-26T13:35:52+00:00</time>
      </trkpt>
      <trkpt lat="49.91725" lon="6.04173">
        <ele>379</ele>
        <time>2026-08-26T13:35:55+00:00</time>
      </trkpt>
      <trkpt lat="49.91703" lon="6.04173">
        <ele>374</ele>
        <time>2026-08-26T13:35:58+00:00</time>
      </trkpt>
      <trkpt lat="49.9168" lon="6.04178">
        <ele>369</ele>
        <time>2026-08-26T13:36:01+00:00</time>
      </trkpt>
      <trkpt lat="49.91652" lon="6.04184">
        <ele>369</ele>
        <time>2026-08-26T13:36:04+00:00</time>
      </trkpt>
      <trkpt lat="49.91644" lon="6.04183">
        <ele>371</ele>
        <time>2026-08-26T13:36:07+00:00</time>
      </trkpt>
      <trkpt lat="49.91639" lon="6.04176">
        <ele>374</ele>
        <time>2026-08-26T13:36:10+00:00</time>
      </trkpt>
      <trkpt lat="49.91634" lon="6.04162">
        <ele>373</ele>
        <time>2026-08-26T13:36:13+00:00</time>
      </trkpt>
      <trkpt lat="49.91631" lon="6.0414">
        <ele>371</ele>
        <time>2026-08-26T13:36:16+00:00</time>
      </trkpt>
      <trkpt lat="49.91629" lon="6.04111">
        <ele>378</ele>
        <time>2026-08-26T13:36:19+00:00</time>
      </trkpt>
      <trkpt lat="49.91627" lon="6.04073">
        <ele>381</ele>
        <time>2026-08-26T13:36:22+00:00</time>
      </trkpt>
      <trkpt lat="49.91624" lon="6.04057">
        <ele>382</ele>
        <time>2026-08-26T13:36:25+00:00</time>
      </trkpt>
      <trkpt lat="49.91618" lon="6.04044">
        <ele>387</ele>
        <time>2026-08-26T13:36:28+00:00</time>
      </trkpt>
      <trkpt lat="49.91609" lon="6.04031">
        <ele>390</ele>
        <time>2026-08-26T13:36:31+00:00</time>
      </trkpt>
      <trkpt lat="49.91583" lon="6.04012">
        <ele>389</ele>
        <time>2026-08-26T13:36:34+00:00</time>
      </trkpt>
      <trkpt lat="49.91577" lon="6.04018">
        <ele>390</ele>
        <time>2026-08-26T13:36:37+00:00</time>
      </trkpt>
      <trkpt lat="49.91552" lon="6.0403">
        <ele>392</ele>
        <time>2026-08-26T13:36:40+00:00</time>
      </trkpt>
      <trkpt lat="49.91501" lon="6.04054">
        <ele>400</ele>
        <time>2026-08-26T13:36:43+00:00</time>
      </trkpt>
      <trkpt lat="49.91474" lon="6.04063">
        <ele>404</ele>
        <time>2026-08-26T13:36:46+00:00</time>
      </trkpt>
      <trkpt lat="49.91429" lon="6.0408">
        <ele>410</ele>
        <time>2026-08-26T13:36:49+00:00</time>
      </trkpt>
      <trkpt lat="49.91424" lon="6.04083">
        <ele>410</ele>
        <time>2026-08-26T13:36:52+00:00</time>
      </trkpt>
      <trkpt lat="49.91424" lon="6.04088">
        <ele>410</ele>
        <time>2026-08-26T13:36:55+00:00</time>
      </trkpt>
      <trkpt lat="49.9143" lon="6.0409">
        <ele>410</ele>
        <time>2026-08-26T13:36:58+00:00</time>
      </trkpt>
      <trkpt lat="49.91445" lon="6.04096">
        <ele>411</ele>
        <time>2026-08-26T13:37:01+00:00</time>
      </trkpt>
      <trkpt lat="49.91467" lon="6.04107">
        <ele>415</ele>
        <time>2026-08-26T13:37:04+00:00</time>
      </trkpt>
      <trkpt lat="49.91478" lon="6.04116">
        <ele>418</ele>
        <time>2026-08-26T13:37:07+00:00</time>
      </trkpt>
      <trkpt lat="49.91499" lon="6.04142">
        <ele>427</ele>
        <time>2026-08-26T13:37:10+00:00</time>
      </trkpt>
      <trkpt lat="49.91508" lon="6.04172">
        <ele>427</ele>
        <time>2026-08-26T13:37:13+00:00</time>
      </trkpt>
      <trkpt lat="49.91511" lon="6.0421">
        <ele>427</ele>
        <time>2026-08-26T13:37:16+00:00</time>
      </trkpt>
      <trkpt lat="49.91506" lon="6.04228">
        <ele>427</ele>
        <time>2026-08-26T13:37:19+00:00</time>
      </trkpt>
      <trkpt lat="49.91494" lon="6.04251">
        <ele>431</ele>
        <time>2026-08-26T13:37:22+00:00</time>
      </trkpt>
      <trkpt lat="49.91486" lon="6.04256">
        <ele>433</ele>
        <time>2026-08-26T13:37:25+00:00</time>
      </trkpt>
      <trkpt lat="49.91478" lon="6.04264">
        <ele>436</ele>
        <time>2026-08-26T13:37:28+00:00</time>
      </trkpt>
      <trkpt lat="49.91474" lon="6.0428">
        <ele>437</ele>
        <time>2026-08-26T13:37:31+00:00</time>
      </trkpt>
      <trkpt lat="49.91466" lon="6.04303">
        <ele>439</ele>
        <time>2026-08-26T13:37:34+00:00</time>
      </trkpt>
      <trkpt lat="49.91458" lon="6.04327">
        <ele>442</ele>
        <time>2026-08-26T13:37:37+00:00</time>
      </trkpt>
      <trkpt lat="49.91458" lon="6.04345">
        <ele>443</ele>
        <time>2026-08-26T13:37:40+00:00</time>
      </trkpt>
      <trkpt lat="49.91462" lon="6.04381">
        <ele>444</ele>
        <time>2026-08-26T13:37:43+00:00</time>
      </trkpt>
      <trkpt lat="49.91469" lon="6.04427">
        <ele>446</ele>
        <time>2026-08-26T13:37:46+00:00</time>
      </trkpt>
      <trkpt lat="49.91477" lon="6.04474">
        <ele>446</ele>
        <time>2026-08-26T13:37:49+00:00</time>
      </trkpt>
      <trkpt lat="49.91488" lon="6.04541">
        <ele>450</ele>
        <time>2026-08-26T13:37:52+00:00</time>
      </trkpt>
      <trkpt lat="49.91493" lon="6.04598">
        <ele>452</ele>
        <time>2026-08-26T13:37:55+00:00</time>
      </trkpt>
      <trkpt lat="49.91494" lon="6.04626">
        <ele>453</ele>
        <time>2026-08-26T13:37:58+00:00</time>
      </trkpt>
      <trkpt lat="49.9149" lon="6.04664">
        <ele>456</ele>
        <time>2026-08-26T13:38:01+00:00</time>
      </trkpt>
      <trkpt lat="49.91482" lon="6.04702">
        <ele>457</ele>
        <time>2026-08-26T13:38:04+00:00</time>
      </trkpt>
      <trkpt lat="49.91471" lon="6.04758">
        <ele>459</ele>
        <time>2026-08-26T13:38:07+00:00</time>
      </trkpt>
      <trkpt lat="49.91464" lon="6.04786">
        <ele>460</ele>
        <time>2026-08-26T13:38:10+00:00</time>
      </trkpt>
      <trkpt lat="49.9145" lon="6.04824">
        <ele>462</ele>
        <time>2026-08-26T13:38:13+00:00</time>
      </trkpt>
      <trkpt lat="49.91437" lon="6.04855">
        <ele>462</ele>
        <time>2026-08-26T13:38:16+00:00</time>
      </trkpt>
      <trkpt lat="49.91422" lon="6.04891">
        <ele>462</ele>
        <time>2026-08-26T13:38:19+00:00</time>
      </trkpt>
      <trkpt lat="49.91398" lon="6.04942">
        <ele>465</ele>
        <time>2026-08-26T13:38:22+00:00</time>
      </trkpt>
      <trkpt lat="49.91382" lon="6.04973">
        <ele>465</ele>
        <time>2026-08-26T13:38:25+00:00</time>
      </trkpt>
      <trkpt lat="49.91359" lon="6.05017">
        <ele>468</ele>
        <time>2026-08-26T13:38:28+00:00</time>
      </trkpt>
      <trkpt lat="49.91345" lon="6.05057">
        <ele>468</ele>
        <time>2026-08-26T13:38:31+00:00</time>
      </trkpt>
      <trkpt lat="49.91339" lon="6.05085">
        <ele>469</ele>
        <time>2026-08-26T13:38:34+00:00</time>
      </trkpt>
      <trkpt lat="49.91332" lon="6.05147">
        <ele>469</ele>
        <time>2026-08-26T13:38:37+00:00</time>
      </trkpt>
      <trkpt lat="49.91331" lon="6.05167">
        <ele>470</ele>
        <time>2026-08-26T13:38:40+00:00</time>
      </trkpt>
      <trkpt lat="49.9132" lon="6.052">
        <ele>472</ele>
        <time>2026-08-26T13:38:43+00:00</time>
      </trkpt>
      <trkpt lat="49.913" lon="6.05261">
        <ele>474</ele>
        <time>2026-08-26T13:38:46+00:00</time>
      </trkpt>
      <trkpt lat="49.91301" lon="6.05244">
        <ele>476</ele>
        <time>2026-08-26T13:38:49+00:00</time>
      </trkpt>
      <trkpt lat="49.91304" lon="6.05198">
        <ele>477</ele>
        <time>2026-08-26T13:38:52+00:00</time>
      </trkpt>
      <trkpt lat="49.91305" lon="6.0514">
        <ele>477</ele>
        <time>2026-08-26T13:38:55+00:00</time>
      </trkpt>
      <trkpt lat="49.91304" lon="6.05102">
        <ele>477</ele>
        <time>2026-08-26T13:38:58+00:00</time>
      </trkpt>
      <trkpt lat="49.913" lon="6.05065">
        <ele>477</ele>
        <time>2026-08-26T13:39:01+00:00</time>
      </trkpt>
      <trkpt lat="49.91296" lon="6.05018">
        <ele>478</ele>
        <time>2026-08-26T13:39:04+00:00</time>
      </trkpt>
      <trkpt lat="49.91285" lon="6.04957">
        <ele>479</ele>
        <time>2026-08-26T13:39:07+00:00</time>
      </trkpt>
      <trkpt lat="49.91279" lon="6.04944">
        <ele>480</ele>
        <time>2026-08-26T13:39:10+00:00</time>
      </trkpt>
      <trkpt lat="49.91271" lon="6.04937">
        <ele>480</ele>
        <time>2026-08-26T13:39:13+00:00</time>
      </trkpt>
      <trkpt lat="49.91266" lon="6.04937">
        <ele>480</ele>
        <time>2026-08-26T13:39:16+00:00</time>
      </trkpt>
      <trkpt lat="49.91263" lon="6.04938">
        <ele>480</ele>
        <time>2026-08-26T13:39:19+00:00</time>
      </trkpt>
      <trkpt lat="49.91255" lon="6.04943">
        <ele>481</ele>
        <time>2026-08-26T13:39:22+00:00</time>
      </trkpt>
      <trkpt lat="49.91241" lon="6.04955">
        <ele>482</ele>
        <time>2026-08-26T13:39:25+00:00</time>
      </trkpt>
      <trkpt lat="49.91223" lon="6.0497">
        <ele>484</ele>
        <time>2026-08-26T13:39:28+00:00</time>
      </trkpt>
      <trkpt lat="49.91203" lon="6.04998">
        <ele>487</ele>
        <time>2026-08-26T13:39:31+00:00</time>
      </trkpt>
      <trkpt lat="49.91175" lon="6.05042">
        <ele>492</ele>
        <time>2026-08-26T13:39:34+00:00</time>
      </trkpt>
      <trkpt lat="49.91156" lon="6.05068">
        <ele>494</ele>
        <time>2026-08-26T13:39:37+00:00</time>
      </trkpt>
      <trkpt lat="49.91127" lon="6.05107">
        <ele>498</ele>
        <time>2026-08-26T13:39:40+00:00</time>
      </trkpt>
      <trkpt lat="49.91105" lon="6.05149">
        <ele>502</ele>
        <time>2026-08-26T13:39:43+00:00</time>
      </trkpt>
      <trkpt lat="49.9109" lon="6.05184">
        <ele>504</ele>
        <time>2026-08-26T13:39:46+00:00</time>
      </trkpt>
      <trkpt lat="49.91067" lon="6.05239">
        <ele>505</ele>
        <time>2026-08-26T13:39:49+00:00</time>
      </trkpt>
      <trkpt lat="49.9106" lon="6.05255">
        <ele>505</ele>
        <time>2026-08-26T13:39:52+00:00</time>
      </trkpt>
      <trkpt lat="49.91055" lon="6.05279">
        <ele>505</ele>
        <time>2026-08-26T13:39:55+00:00</time>
      </trkpt>
      <trkpt lat="49.91055" lon="6.05288">
        <ele>505</ele>
        <time>2026-08-26T13:39:58+00:00</time>
      </trkpt>
      <trkpt lat="49.9106" lon="6.05346">
        <ele>504</ele>
        <time>2026-08-26T13:40:01+00:00</time>
      </trkpt>
      <trkpt lat="49.91066" lon="6.05404">
        <ele>503</ele>
        <time>2026-08-26T13:40:04+00:00</time>
      </trkpt>
      <trkpt lat="49.91071" lon="6.05462">
        <ele>502</ele>
        <time>2026-08-26T13:40:07+00:00</time>
      </trkpt>
      <trkpt lat="49.91077" lon="6.0552">
        <ele>502</ele>
        <time>2026-08-26T13:40:10+00:00</time>
      </trkpt>
      <trkpt lat="49.91082" lon="6.05577">
        <ele>501</ele>
        <time>2026-08-26T13:40:13+00:00</time>
      </trkpt>
      <trkpt lat="49.91088" lon="6.05635">
        <ele>501</ele>
        <time>2026-08-26T13:40:16+00:00</time>
      </trkpt>
      <trkpt lat="49.91093" lon="6.05693">
        <ele>501</ele>
        <time>2026-08-26T13:40:19+00:00</time>
      </trkpt>
      <trkpt lat="49.91102" lon="6.05787">
        <ele>500</ele>
        <time>2026-08-26T13:40:22+00:00</time>
      </trkpt>
      <trkpt lat="49.91104" lon="6.05799">
        <ele>500</ele>
        <time>2026-08-26T13:40:25+00:00</time>
      </trkpt>
      <trkpt lat="49.91105" lon="6.05806">
        <ele>500</ele>
        <time>2026-08-26T13:40:28+00:00</time>
      </trkpt>
      <trkpt lat="49.91129" lon="6.05793">
        <ele>499</ele>
        <time>2026-08-26T13:40:31+00:00</time>
      </trkpt>
      <trkpt lat="49.91139" lon="6.05836">
        <ele>499</ele>
        <time>2026-08-26T13:40:34+00:00</time>
      </trkpt>
      <trkpt lat="49.91128" lon="6.05874">
        <ele>497</ele>
        <time>2026-08-26T13:40:37+00:00</time>
      </trkpt>
      <trkpt lat="49.9111" lon="6.05937">
        <ele>496</ele>
        <time>2026-08-26T13:40:40+00:00</time>
      </trkpt>
      <trkpt lat="49.91104" lon="6.05972">
        <ele>496</ele>
        <time>2026-08-26T13:40:43+00:00</time>
      </trkpt>
      <trkpt lat="49.91104" lon="6.05979">
        <ele>496</ele>
        <time>2026-08-26T13:40:46+00:00</time>
      </trkpt>
      <trkpt lat="49.91104" lon="6.05972">
        <ele>496</ele>
        <time>2026-08-26T13:40:49+00:00</time>
      </trkpt>
      <trkpt lat="49.91131" lon="6.05969">
        <ele>495</ele>
        <time>2026-08-26T13:40:52+00:00</time>
      </trkpt>
      <trkpt lat="49.91158" lon="6.05966">
        <ele>495</ele>
        <time>2026-08-26T13:40:55+00:00</time>
      </trkpt>
      <trkpt lat="49.91192" lon="6.05962">
        <ele>493</ele>
        <time>2026-08-26T13:40:58+00:00</time>
      </trkpt>
      <trkpt lat="49.91211" lon="6.05956">
        <ele>490</ele>
        <time>2026-08-26T13:41:01+00:00</time>
      </trkpt>
      <trkpt lat="49.91229" lon="6.05939">
        <ele>488</ele>
        <time>2026-08-26T13:41:04+00:00</time>
      </trkpt>
      <trkpt lat="49.91255" lon="6.05914">
        <ele>483</ele>
        <time>2026-08-26T13:41:07+00:00</time>
      </trkpt>
      <trkpt lat="49.91282" lon="6.05889">
        <ele>481</ele>
        <time>2026-08-26T13:41:10+00:00</time>
      </trkpt>
      <trkpt lat="49.91321" lon="6.05853">
        <ele>479</ele>
        <time>2026-08-26T13:41:13+00:00</time>
      </trkpt>
      <trkpt lat="49.91343" lon="6.05844">
        <ele>476</ele>
        <time>2026-08-26T13:41:16+00:00</time>
      </trkpt>
      <trkpt lat="49.9136" lon="6.05842">
        <ele>472</ele>
        <time>2026-08-26T13:41:19+00:00</time>
      </trkpt>
      <trkpt lat="49.91375" lon="6.05842">
        <ele>465</ele>
        <time>2026-08-26T13:41:22+00:00</time>
      </trkpt>
      <trkpt lat="49.91393" lon="6.05843">
        <ele>461</ele>
        <time>2026-08-26T13:41:25+00:00</time>
      </trkpt>
      <trkpt lat="49.91397" lon="6.05844">
        <ele>461</ele>
        <time>2026-08-26T13:41:28+00:00</time>
      </trkpt>
      <trkpt lat="49.91406" lon="6.05838">
        <ele>455</ele>
        <time>2026-08-26T13:41:31+00:00</time>
      </trkpt>
      <trkpt lat="49.91418" lon="6.0582">
        <ele>452</ele>
        <time>2026-08-26T13:41:34+00:00</time>
      </trkpt>
      <trkpt lat="49.91428" lon="6.05798">
        <ele>452</ele>
        <time>2026-08-26T13:41:37+00:00</time>
      </trkpt>
      <trkpt lat="49.91434" lon="6.05779">
        <ele>449</ele>
        <time>2026-08-26T13:41:40+00:00</time>
      </trkpt>
      <trkpt lat="49.9144" lon="6.0576">
        <ele>449</ele>
        <time>2026-08-26T13:41:43+00:00</time>
      </trkpt>
      <trkpt lat="49.91447" lon="6.05724">
        <ele>445</ele>
        <time>2026-08-26T13:41:46+00:00</time>
      </trkpt>
      <trkpt lat="49.9145" lon="6.05693">
        <ele>441</ele>
        <time>2026-08-26T13:41:49+00:00</time>
      </trkpt>
      <trkpt lat="49.91451" lon="6.05659">
        <ele>439</ele>
        <time>2026-08-26T13:41:52+00:00</time>
      </trkpt>
      <trkpt lat="49.91455" lon="6.05636">
        <ele>436</ele>
        <time>2026-08-26T13:41:55+00:00</time>
      </trkpt>
      <trkpt lat="49.91461" lon="6.05635">
        <ele>434</ele>
        <time>2026-08-26T13:41:58+00:00</time>
      </trkpt>
      <trkpt lat="49.9147" lon="6.05642">
        <ele>436</ele>
        <time>2026-08-26T13:42:01+00:00</time>
      </trkpt>
      <trkpt lat="49.91478" lon="6.05658">
        <ele>434</ele>
        <time>2026-08-26T13:42:04+00:00</time>
      </trkpt>
      <trkpt lat="49.91487" lon="6.05681">
        <ele>430</ele>
        <time>2026-08-26T13:42:07+00:00</time>
      </trkpt>
      <trkpt lat="49.91496" lon="6.05706">
        <ele>426</ele>
        <time>2026-08-26T13:42:10+00:00</time>
      </trkpt>
      <trkpt lat="49.91509" lon="6.05742">
        <ele>418</ele>
        <time>2026-08-26T13:42:13+00:00</time>
      </trkpt>
      <trkpt lat="49.91524" lon="6.05772">
        <ele>410</ele>
        <time>2026-08-26T13:42:16+00:00</time>
      </trkpt>
      <trkpt lat="49.91542" lon="6.0581">
        <ele>406</ele>
        <time>2026-08-26T13:42:19+00:00</time>
      </trkpt>
      <trkpt lat="49.91556" lon="6.05843">
        <ele>405</ele>
        <time>2026-08-26T13:42:22+00:00</time>
      </trkpt>
      <trkpt lat="49.91575" lon="6.05889">
        <ele>402</ele>
        <time>2026-08-26T13:42:25+00:00</time>
      </trkpt>
      <trkpt lat="49.91579" lon="6.05892">
        <ele>399</ele>
        <time>2026-08-26T13:42:28+00:00</time>
      </trkpt>
      <trkpt lat="49.91583" lon="6.05892">
        <ele>397</ele>
        <time>2026-08-26T13:42:31+00:00</time>
      </trkpt>
      <trkpt lat="49.91586" lon="6.05887">
        <ele>398</ele>
        <time>2026-08-26T13:42:34+00:00</time>
      </trkpt>
      <trkpt lat="49.91597" lon="6.05853">
        <ele>399</ele>
        <time>2026-08-26T13:42:37+00:00</time>
      </trkpt>
      <trkpt lat="49.91603" lon="6.05792">
        <ele>396</ele>
        <time>2026-08-26T13:42:40+00:00</time>
      </trkpt>
      <trkpt lat="49.91608" lon="6.05758">
        <ele>395</ele>
        <time>2026-08-26T13:42:43+00:00</time>
      </trkpt>
      <trkpt lat="49.91611" lon="6.05748">
        <ele>389</ele>
        <time>2026-08-26T13:42:46+00:00</time>
      </trkpt>
      <trkpt lat="49.91623" lon="6.0578">
        <ele>381</ele>
        <time>2026-08-26T13:42:49+00:00</time>
      </trkpt>
      <trkpt lat="49.91641" lon="6.05829">
        <ele>372</ele>
        <time>2026-08-26T13:42:52+00:00</time>
      </trkpt>
      <trkpt lat="49.91656" lon="6.05882">
        <ele>373</ele>
        <time>2026-08-26T13:42:55+00:00</time>
      </trkpt>
      <trkpt lat="49.91656" lon="6.05892">
        <ele>370</ele>
        <time>2026-08-26T13:42:58+00:00</time>
      </trkpt>
      <trkpt lat="49.91656" lon="6.05894">
        <ele>370</ele>
        <time>2026-08-26T13:43:01+00:00</time>
      </trkpt>
      <trkpt lat="49.91653" lon="6.05903">
        <ele>371</ele>
        <time>2026-08-26T13:43:04+00:00</time>
      </trkpt>
      <trkpt lat="49.91643" lon="6.05919">
        <ele>375</ele>
        <time>2026-08-26T13:43:07+00:00</time>
      </trkpt>
      <trkpt lat="49.91632" lon="6.05928">
        <ele>378</ele>
        <time>2026-08-26T13:43:10+00:00</time>
      </trkpt>
      <trkpt lat="49.9162" lon="6.05943">
        <ele>379</ele>
        <time>2026-08-26T13:43:13+00:00</time>
      </trkpt>
      <trkpt lat="49.91593" lon="6.05965">
        <ele>381</ele>
        <time>2026-08-26T13:43:16+00:00</time>
      </trkpt>
      <trkpt lat="49.91579" lon="6.05984">
        <ele>377</ele>
        <time>2026-08-26T13:43:19+00:00</time>
      </trkpt>
      <trkpt lat="49.91575" lon="6.05991">
        <ele>382</ele>
        <time>2026-08-26T13:43:22+00:00</time>
      </trkpt>
      <trkpt lat="49.91575" lon="6.05997">
        <ele>382</ele>
        <time>2026-08-26T13:43:25+00:00</time>
      </trkpt>
      <trkpt lat="49.91577" lon="6.06003">
        <ele>381</ele>
        <time>2026-08-26T13:43:28+00:00</time>
      </trkpt>
      <trkpt lat="49.91594" lon="6.06013">
        <ele>376</ele>
        <time>2026-08-26T13:43:31+00:00</time>
      </trkpt>
      <trkpt lat="49.91617" lon="6.06027">
        <ele>376</ele>
        <time>2026-08-26T13:43:34+00:00</time>
      </trkpt>
      <trkpt lat="49.91644" lon="6.06038">
        <ele>370</ele>
        <time>2026-08-26T13:43:37+00:00</time>
      </trkpt>
      <trkpt lat="49.91671" lon="6.06046">
        <ele>368</ele>
        <time>2026-08-26T13:43:40+00:00</time>
      </trkpt>
      <trkpt lat="49.9172" lon="6.0606">
        <ele>364</ele>
        <time>2026-08-26T13:43:43+00:00</time>
      </trkpt>
      <trkpt lat="49.91745" lon="6.0607">
        <ele>362</ele>
        <time>2026-08-26T13:43:46+00:00</time>
      </trkpt>
      <trkpt lat="49.91758" lon="6.06078">
        <ele>361</ele>
        <time>2026-08-26T13:43:49+00:00</time>
      </trkpt>
      <trkpt lat="49.91761" lon="6.06082">
        <ele>362</ele>
        <time>2026-08-26T13:43:52+00:00</time>
      </trkpt>
      <trkpt lat="49.91771" lon="6.06093">
        <ele>361</ele>
        <time>2026-08-26T13:43:55+00:00</time>
      </trkpt>
      <trkpt lat="49.91778" lon="6.0611">
        <ele>362</ele>
        <time>2026-08-26T13:43:58+00:00</time>
      </trkpt>
      <trkpt lat="49.91794" lon="6.06171">
        <ele>365</ele>
        <time>2026-08-26T13:44:01+00:00</time>
      </trkpt>
      <trkpt lat="49.91809" lon="6.06218">
        <ele>361</ele>
        <time>2026-08-26T13:44:04+00:00</time>
      </trkpt>
      <trkpt lat="49.91832" lon="6.06266">
        <ele>361</ele>
        <time>2026-08-26T13:44:07+00:00</time>
      </trkpt>
      <trkpt lat="49.9186" lon="6.06313">
        <ele>361</ele>
        <time>2026-08-26T13:44:10+00:00</time>
      </trkpt>
      <trkpt lat="49.91878" lon="6.06339">
        <ele>355</ele>
        <time>2026-08-26T13:44:13+00:00</time>
      </trkpt>
      <trkpt lat="49.91903" lon="6.06375">
        <ele>342</ele>
        <time>2026-08-26T13:44:16+00:00</time>
      </trkpt>
      <trkpt lat="49.91913" lon="6.06392">
        <ele>337</ele>
        <time>2026-08-26T13:44:19+00:00</time>
      </trkpt>
      <trkpt lat="49.91917" lon="6.06402">
        <ele>341</ele>
        <time>2026-08-26T13:44:22+00:00</time>
      </trkpt>
      <trkpt lat="49.91921" lon="6.06419">
        <ele>334</ele>
        <time>2026-08-26T13:44:25+00:00</time>
      </trkpt>
      <trkpt lat="49.9192" lon="6.06435">
        <ele>340</ele>
        <time>2026-08-26T13:44:28+00:00</time>
      </trkpt>
      <trkpt lat="49.91916" lon="6.06475">
        <ele>338</ele>
        <time>2026-08-26T13:44:31+00:00</time>
      </trkpt>
      <trkpt lat="49.91911" lon="6.06533">
        <ele>344</ele>
        <time>2026-08-26T13:44:34+00:00</time>
      </trkpt>
      <trkpt lat="49.91908" lon="6.06543">
        <ele>351</ele>
        <time>2026-08-26T13:44:37+00:00</time>
      </trkpt>
      <trkpt lat="49.91904" lon="6.06541">
        <ele>351</ele>
        <time>2026-08-26T13:44:40+00:00</time>
      </trkpt>
      <trkpt lat="49.91902" lon="6.06556">
        <ele>351</ele>
        <time>2026-08-26T13:44:43+00:00</time>
      </trkpt>
      <trkpt lat="49.91899" lon="6.06618">
        <ele>363</ele>
        <time>2026-08-26T13:44:46+00:00</time>
      </trkpt>
      <trkpt lat="49.91899" lon="6.06652">
        <ele>363</ele>
        <time>2026-08-26T13:44:49+00:00</time>
      </trkpt>
      <trkpt lat="49.91903" lon="6.06702">
        <ele>363</ele>
        <time>2026-08-26T13:44:52+00:00</time>
      </trkpt>
      <trkpt lat="49.91905" lon="6.06717">
        <ele>364</ele>
        <time>2026-08-26T13:44:55+00:00</time>
      </trkpt>
      <trkpt lat="49.91917" lon="6.06757">
        <ele>349</ele>
        <time>2026-08-26T13:44:58+00:00</time>
      </trkpt>
      <trkpt lat="49.91923" lon="6.06763">
        <ele>340</ele>
        <time>2026-08-26T13:45:01+00:00</time>
      </trkpt>
      <trkpt lat="49.91925" lon="6.06769">
        <ele>340</ele>
        <time>2026-08-26T13:45:04+00:00</time>
      </trkpt>
      <trkpt lat="49.91933" lon="6.06792">
        <ele>334</ele>
        <time>2026-08-26T13:45:07+00:00</time>
      </trkpt>
      <trkpt lat="49.91941" lon="6.06781">
        <ele>329</ele>
        <time>2026-08-26T13:45:10+00:00</time>
      </trkpt>
      <trkpt lat="49.91945" lon="6.06779">
        <ele>327</ele>
        <time>2026-08-26T13:45:13+00:00</time>
      </trkpt>
      <trkpt lat="49.91948" lon="6.06808">
        <ele>331</ele>
        <time>2026-08-26T13:45:16+00:00</time>
      </trkpt>
      <trkpt lat="49.91943" lon="6.06819">
        <ele>325</ele>
        <time>2026-08-26T13:45:19+00:00</time>
      </trkpt>
      <trkpt lat="49.91934" lon="6.06816">
        <ele>332</ele>
        <time>2026-08-26T13:45:22+00:00</time>
      </trkpt>
      <trkpt lat="49.91927" lon="6.06823">
        <ele>330</ele>
        <time>2026-08-26T13:45:25+00:00</time>
      </trkpt>
      <trkpt lat="49.9192" lon="6.06835">
        <ele>334</ele>
        <time>2026-08-26T13:45:28+00:00</time>
      </trkpt>
      <trkpt lat="49.91917" lon="6.06833">
        <ele>334</ele>
        <time>2026-08-26T13:45:31+00:00</time>
      </trkpt>
      <trkpt lat="49.91915" lon="6.06835">
        <ele>334</ele>
        <time>2026-08-26T13:45:34+00:00</time>
      </trkpt>
      <trkpt lat="49.91912" lon="6.0684">
        <ele>334</ele>
        <time>2026-08-26T13:45:37+00:00</time>
      </trkpt>
      <trkpt lat="49.91901" lon="6.0685">
        <ele>331</ele>
        <time>2026-08-26T13:45:40+00:00</time>
      </trkpt>
      <trkpt lat="49.91897" lon="6.0685">
        <ele>341</ele>
        <time>2026-08-26T13:45:43+00:00</time>
      </trkpt>
      <trkpt lat="49.9189" lon="6.06863">
        <ele>338</ele>
        <time>2026-08-26T13:45:46+00:00</time>
      </trkpt>
      <trkpt lat="49.91886" lon="6.06881">
        <ele>329</ele>
        <time>2026-08-26T13:45:49+00:00</time>
      </trkpt>
      <trkpt lat="49.91878" lon="6.0689">
        <ele>332</ele>
        <time>2026-08-26T13:45:52+00:00</time>
      </trkpt>
      <trkpt lat="49.91875" lon="6.06889">
        <ele>332</ele>
        <time>2026-08-26T13:45:55+00:00</time>
      </trkpt>
      <trkpt lat="49.91869" lon="6.06897">
        <ele>329</ele>
        <time>2026-08-26T13:45:58+00:00</time>
      </trkpt>
      <trkpt lat="49.91858" lon="6.06896">
        <ele>336</ele>
        <time>2026-08-26T13:46:01+00:00</time>
      </trkpt>
      <trkpt lat="49.91842" lon="6.06905">
        <ele>340</ele>
        <time>2026-08-26T13:46:04+00:00</time>
      </trkpt>
      <trkpt lat="49.9183" lon="6.06917">
        <ele>345</ele>
        <time>2026-08-26T13:46:07+00:00</time>
      </trkpt>
      <trkpt lat="49.9183" lon="6.06918">
        <ele>345</ele>
        <time>2026-08-26T13:46:10+00:00</time>
      </trkpt>
      <trkpt lat="49.9182" lon="6.06933">
        <ele>340</ele>
        <time>2026-08-26T13:46:13+00:00</time>
      </trkpt>
      <trkpt lat="49.91815" lon="6.06931">
        <ele>340</ele>
        <time>2026-08-26T13:46:16+00:00</time>
      </trkpt>
      <trkpt lat="49.91808" lon="6.06941">
        <ele>342</ele>
        <time>2026-08-26T13:46:19+00:00</time>
      </trkpt>
      <trkpt lat="49.918" lon="6.0694">
        <ele>353</ele>
        <time>2026-08-26T13:46:22+00:00</time>
      </trkpt>
      <trkpt lat="49.91778" lon="6.06965">
        <ele>350</ele>
        <time>2026-08-26T13:46:25+00:00</time>
      </trkpt>
      <trkpt lat="49.91775" lon="6.06974">
        <ele>358</ele>
        <time>2026-08-26T13:46:28+00:00</time>
      </trkpt>
      <trkpt lat="49.91777" lon="6.06985">
        <ele>357</ele>
        <time>2026-08-26T13:46:31+00:00</time>
      </trkpt>
      <trkpt lat="49.91782" lon="6.06999">
        <ele>350</ele>
        <time>2026-08-26T13:46:34+00:00</time>
      </trkpt>
      <trkpt lat="49.91782" lon="6.07004">
        <ele>345</ele>
        <time>2026-08-26T13:46:37+00:00</time>
      </trkpt>
      <trkpt lat="49.91778" lon="6.0701">
        <ele>353</ele>
        <time>2026-08-26T13:46:40+00:00</time>
      </trkpt>
      <trkpt lat="49.9177" lon="6.0703">
        <ele>350</ele>
        <time>2026-08-26T13:46:43+00:00</time>
      </trkpt>
      <trkpt lat="49.91761" lon="6.07032">
        <ele>346</ele>
        <time>2026-08-26T13:46:46+00:00</time>
      </trkpt>
      <trkpt lat="49.91754" lon="6.07044">
        <ele>349</ele>
        <time>2026-08-26T13:46:49+00:00</time>
      </trkpt>
      <trkpt lat="49.91753" lon="6.07059">
        <ele>345</ele>
        <time>2026-08-26T13:46:52+00:00</time>
      </trkpt>
      <trkpt lat="49.91751" lon="6.07067">
        <ele>342</ele>
        <time>2026-08-26T13:46:55+00:00</time>
      </trkpt>
      <trkpt lat="49.91748" lon="6.07069">
        <ele>348</ele>
        <time>2026-08-26T13:46:58+00:00</time>
      </trkpt>
      <trkpt lat="49.91738" lon="6.07085">
        <ele>347</ele>
        <time>2026-08-26T13:47:01+00:00</time>
      </trkpt>
      <trkpt lat="49.91734" lon="6.07095">
        <ele>344</ele>
        <time>2026-08-26T13:47:04+00:00</time>
      </trkpt>
      <trkpt lat="49.91727" lon="6.07101">
        <ele>343</ele>
        <time>2026-08-26T13:47:07+00:00</time>
      </trkpt>
      <trkpt lat="49.91722" lon="6.0711">
        <ele>343</ele>
        <time>2026-08-26T13:47:10+00:00</time>
      </trkpt>
      <trkpt lat="49.91718" lon="6.0712">
        <ele>338</ele>
        <time>2026-08-26T13:47:13+00:00</time>
      </trkpt>
      <trkpt lat="49.91717" lon="6.07129">
        <ele>336</ele>
        <time>2026-08-26T13:47:16+00:00</time>
      </trkpt>
      <trkpt lat="49.91715" lon="6.07133">
        <ele>335</ele>
        <time>2026-08-26T13:47:19+00:00</time>
      </trkpt>
      <trkpt lat="49.91712" lon="6.07134">
        <ele>335</ele>
        <time>2026-08-26T13:47:22+00:00</time>
      </trkpt>
      <trkpt lat="49.91694" lon="6.07134">
        <ele>336</ele>
        <time>2026-08-26T13:47:25+00:00</time>
      </trkpt>
      <trkpt lat="49.91689" lon="6.07132">
        <ele>326</ele>
        <time>2026-08-26T13:47:28+00:00</time>
      </trkpt>
      <trkpt lat="49.91681" lon="6.07137">
        <ele>326</ele>
        <time>2026-08-26T13:47:31+00:00</time>
      </trkpt>
      <trkpt lat="49.9167" lon="6.07171">
        <ele>334</ele>
        <time>2026-08-26T13:47:34+00:00</time>
      </trkpt>
      <trkpt lat="49.91649" lon="6.07226">
        <ele>329</ele>
        <time>2026-08-26T13:47:37+00:00</time>
      </trkpt>
      <trkpt lat="49.9164" lon="6.07258">
        <ele>326</ele>
        <time>2026-08-26T13:47:40+00:00</time>
      </trkpt>
      <trkpt lat="49.91626" lon="6.07289">
        <ele>325</ele>
        <time>2026-08-26T13:47:43+00:00</time>
      </trkpt>
      <trkpt lat="49.91613" lon="6.07323">
        <ele>320</ele>
        <time>2026-08-26T13:47:46+00:00</time>
      </trkpt>
      <trkpt lat="49.91596" lon="6.07369">
        <ele>316</ele>
        <time>2026-08-26T13:47:49+00:00</time>
      </trkpt>
      <trkpt lat="49.91574" lon="6.07382">
        <ele>315</ele>
        <time>2026-08-26T13:47:52+00:00</time>
      </trkpt>
      <trkpt lat="49.91549" lon="6.07397">
        <ele>315</ele>
        <time>2026-08-26T13:47:55+00:00</time>
      </trkpt>
      <trkpt lat="49.91525" lon="6.07409">
        <ele>314</ele>
        <time>2026-08-26T13:47:58+00:00</time>
      </trkpt>
      <trkpt lat="49.91494" lon="6.07424">
        <ele>313</ele>
        <time>2026-08-26T13:48:01+00:00</time>
      </trkpt>
      <trkpt lat="49.91467" lon="6.07431">
        <ele>311</ele>
        <time>2026-08-26T13:48:04+00:00</time>
      </trkpt>
      <trkpt lat="49.91419" lon="6.07443">
        <ele>311</ele>
        <time>2026-08-26T13:48:07+00:00</time>
      </trkpt>
      <trkpt lat="49.91395" lon="6.07446">
        <ele>312</ele>
        <time>2026-08-26T13:48:10+00:00</time>
      </trkpt>
      <trkpt lat="49.91367" lon="6.07449">
        <ele>314</ele>
        <time>2026-08-26T13:48:13+00:00</time>
      </trkpt>
      <trkpt lat="49.91357" lon="6.07445">
        <ele>313</ele>
        <time>2026-08-26T13:48:16+00:00</time>
      </trkpt>
      <trkpt lat="49.91351" lon="6.07438">
        <ele>316</ele>
        <time>2026-08-26T13:48:19+00:00</time>
      </trkpt>
      <trkpt lat="49.91351" lon="6.07438">
        <ele>316</ele>
        <time>2026-08-26T13:48:22+00:00</time>
      </trkpt>
      <trkpt lat="49.91342" lon="6.07407">
        <ele>317</ele>
        <time>2026-08-26T13:48:25+00:00</time>
      </trkpt>
      <trkpt lat="49.91329" lon="6.07352">
        <ele>319</ele>
        <time>2026-08-26T13:48:28+00:00</time>
      </trkpt>
      <trkpt lat="49.91321" lon="6.07331">
        <ele>323</ele>
        <time>2026-08-26T13:48:31+00:00</time>
      </trkpt>
      <trkpt lat="49.91314" lon="6.07308">
        <ele>324</ele>
        <time>2026-08-26T13:48:34+00:00</time>
      </trkpt>
      <trkpt lat="49.91307" lon="6.07281">
        <ele>325</ele>
        <time>2026-08-26T13:48:37+00:00</time>
      </trkpt>
      <trkpt lat="49.91298" lon="6.07256">
        <ele>325</ele>
        <time>2026-08-26T13:48:40+00:00</time>
      </trkpt>
      <trkpt lat="49.91294" lon="6.07253">
        <ele>328</ele>
        <time>2026-08-26T13:48:43+00:00</time>
      </trkpt>
      <trkpt lat="49.91291" lon="6.07255">
        <ele>328</ele>
        <time>2026-08-26T13:48:46+00:00</time>
      </trkpt>
      <trkpt lat="49.91288" lon="6.07262">
        <ele>323</ele>
        <time>2026-08-26T13:48:49+00:00</time>
      </trkpt>
      <trkpt lat="49.91279" lon="6.07302">
        <ele>325</ele>
        <time>2026-08-26T13:48:52+00:00</time>
      </trkpt>
      <trkpt lat="49.91269" lon="6.07334">
        <ele>327</ele>
        <time>2026-08-26T13:48:55+00:00</time>
      </trkpt>
      <trkpt lat="49.9126" lon="6.07347">
        <ele>328</ele>
        <time>2026-08-26T13:48:58+00:00</time>
      </trkpt>
      <trkpt lat="49.91247" lon="6.07362">
        <ele>327</ele>
        <time>2026-08-26T13:49:01+00:00</time>
      </trkpt>
      <trkpt lat="49.91233" lon="6.07378">
        <ele>329</ele>
        <time>2026-08-26T13:49:04+00:00</time>
      </trkpt>
      <trkpt lat="49.91209" lon="6.07389">
        <ele>336</ele>
        <time>2026-08-26T13:49:07+00:00</time>
      </trkpt>
      <trkpt lat="49.91179" lon="6.07403">
        <ele>342</ele>
        <time>2026-08-26T13:49:10+00:00</time>
      </trkpt>
      <trkpt lat="49.91163" lon="6.07406">
        <ele>344</ele>
        <time>2026-08-26T13:49:13+00:00</time>
      </trkpt>
      <trkpt lat="49.91155" lon="6.0741">
        <ele>346</ele>
        <time>2026-08-26T13:49:16+00:00</time>
      </trkpt>
      <trkpt lat="49.91134" lon="6.07418">
        <ele>348</ele>
        <time>2026-08-26T13:49:19+00:00</time>
      </trkpt>
      <trkpt lat="49.91113" lon="6.07427">
        <ele>350</ele>
        <time>2026-08-26T13:49:22+00:00</time>
      </trkpt>
      <trkpt lat="49.91097" lon="6.07431">
        <ele>351</ele>
        <time>2026-08-26T13:49:25+00:00</time>
      </trkpt>
      <trkpt lat="49.91085" lon="6.0743">
        <ele>355</ele>
        <time>2026-08-26T13:49:28+00:00</time>
      </trkpt>
      <trkpt lat="49.91074" lon="6.07426">
        <ele>354</ele>
        <time>2026-08-26T13:49:31+00:00</time>
      </trkpt>
      <trkpt lat="49.91053" lon="6.07411">
        <ele>355</ele>
        <time>2026-08-26T13:49:34+00:00</time>
      </trkpt>
      <trkpt lat="49.91042" lon="6.07408">
        <ele>359</ele>
        <time>2026-08-26T13:49:37+00:00</time>
      </trkpt>
      <trkpt lat="49.91017" lon="6.0741">
        <ele>364</ele>
        <time>2026-08-26T13:49:40+00:00</time>
      </trkpt>
      <trkpt lat="49.90987" lon="6.0742">
        <ele>364</ele>
        <time>2026-08-26T13:49:43+00:00</time>
      </trkpt>
      <trkpt lat="49.9098" lon="6.07426">
        <ele>370</ele>
        <time>2026-08-26T13:49:46+00:00</time>
      </trkpt>
      <trkpt lat="49.90971" lon="6.07439">
        <ele>362</ele>
        <time>2026-08-26T13:49:49+00:00</time>
      </trkpt>
      <trkpt lat="49.90964" lon="6.07452">
        <ele>359</ele>
        <time>2026-08-26T13:49:52+00:00</time>
      </trkpt>
      <trkpt lat="49.90957" lon="6.07457">
        <ele>364</ele>
        <time>2026-08-26T13:49:55+00:00</time>
      </trkpt>
      <trkpt lat="49.90949" lon="6.07457">
        <ele>360</ele>
        <time>2026-08-26T13:49:58+00:00</time>
      </trkpt>
      <trkpt lat="49.90924" lon="6.0745">
        <ele>363</ele>
        <time>2026-08-26T13:50:01+00:00</time>
      </trkpt>
      <trkpt lat="49.90892" lon="6.0746">
        <ele>363</ele>
        <time>2026-08-26T13:50:04+00:00</time>
      </trkpt>
      <trkpt lat="49.90877" lon="6.07454">
        <ele>365</ele>
        <time>2026-08-26T13:50:07+00:00</time>
      </trkpt>
      <trkpt lat="49.90859" lon="6.07457">
        <ele>370</ele>
        <time>2026-08-26T13:50:10+00:00</time>
      </trkpt>
      <trkpt lat="49.9085" lon="6.07464">
        <ele>367</ele>
        <time>2026-08-26T13:50:13+00:00</time>
      </trkpt>
      <trkpt lat="49.90823" lon="6.07475">
        <ele>370</ele>
        <time>2026-08-26T13:50:16+00:00</time>
      </trkpt>
      <trkpt lat="49.90816" lon="6.07481">
        <ele>368</ele>
        <time>2026-08-26T13:50:19+00:00</time>
      </trkpt>
      <trkpt lat="49.90798" lon="6.07505">
        <ele>361</ele>
        <time>2026-08-26T13:50:22+00:00</time>
      </trkpt>
      <trkpt lat="49.90784" lon="6.07511">
        <ele>357</ele>
        <time>2026-08-26T13:50:25+00:00</time>
      </trkpt>
      <trkpt lat="49.90777" lon="6.07511">
        <ele>364</ele>
        <time>2026-08-26T13:50:28+00:00</time>
      </trkpt>
      <trkpt lat="49.90772" lon="6.0751">
        <ele>362</ele>
        <time>2026-08-26T13:50:31+00:00</time>
      </trkpt>
      <trkpt lat="49.90764" lon="6.07513">
        <ele>363</ele>
        <time>2026-08-26T13:50:34+00:00</time>
      </trkpt>
      <trkpt lat="49.90749" lon="6.07522">
        <ele>367</ele>
        <time>2026-08-26T13:50:37+00:00</time>
      </trkpt>
      <trkpt lat="49.90732" lon="6.07533">
        <ele>367</ele>
        <time>2026-08-26T13:50:40+00:00</time>
      </trkpt>
      <trkpt lat="49.90716" lon="6.07552">
        <ele>370</ele>
        <time>2026-08-26T13:50:43+00:00</time>
      </trkpt>
      <trkpt lat="49.90703" lon="6.07577">
        <ele>372</ele>
        <time>2026-08-26T13:50:46+00:00</time>
      </trkpt>
      <trkpt lat="49.9069" lon="6.07609">
        <ele>371</ele>
        <time>2026-08-26T13:50:49+00:00</time>
      </trkpt>
      <trkpt lat="49.90669" lon="6.07644">
        <ele>371</ele>
        <time>2026-08-26T13:50:52+00:00</time>
      </trkpt>
      <trkpt lat="49.90656" lon="6.07674">
        <ele>367</ele>
        <time>2026-08-26T13:50:55+00:00</time>
      </trkpt>
      <trkpt lat="49.9064" lon="6.07708">
        <ele>360</ele>
        <time>2026-08-26T13:50:58+00:00</time>
      </trkpt>
      <trkpt lat="49.90626" lon="6.07734">
        <ele>360</ele>
        <time>2026-08-26T13:51:01+00:00</time>
      </trkpt>
      <trkpt lat="49.90613" lon="6.07761">
        <ele>360</ele>
        <time>2026-08-26T13:51:04+00:00</time>
      </trkpt>
      <trkpt lat="49.90611" lon="6.07763">
        <ele>359</ele>
        <time>2026-08-26T13:51:07+00:00</time>
      </trkpt>
      <trkpt lat="49.90607" lon="6.07766">
        <ele>357</ele>
        <time>2026-08-26T13:51:10+00:00</time>
      </trkpt>
      <trkpt lat="49.90608" lon="6.07813">
        <ele>360</ele>
        <time>2026-08-26T13:51:13+00:00</time>
      </trkpt>
      <trkpt lat="49.90607" lon="6.07822">
        <ele>361</ele>
        <time>2026-08-26T13:51:16+00:00</time>
      </trkpt>
      <trkpt lat="49.90604" lon="6.07829">
        <ele>361</ele>
        <time>2026-08-26T13:51:19+00:00</time>
      </trkpt>
      <trkpt lat="49.906" lon="6.07832">
        <ele>361</ele>
        <time>2026-08-26T13:51:22+00:00</time>
      </trkpt>
      <trkpt lat="49.90594" lon="6.07836">
        <ele>361</ele>
        <time>2026-08-26T13:51:25+00:00</time>
      </trkpt>
      <trkpt lat="49.90585" lon="6.07845">
        <ele>360</ele>
        <time>2026-08-26T13:51:28+00:00</time>
      </trkpt>
      <trkpt lat="49.90585" lon="6.07845">
        <ele>360</ele>
        <time>2026-08-26T13:51:31+00:00</time>
      </trkpt>
      <trkpt lat="49.90582" lon="6.07852">
        <ele>362</ele>
        <time>2026-08-26T13:51:34+00:00</time>
      </trkpt>
      <trkpt lat="49.90574" lon="6.07875">
        <ele>362</ele>
        <time>2026-08-26T13:51:37+00:00</time>
      </trkpt>
      <trkpt lat="49.90577" lon="6.07899">
        <ele>363</ele>
        <time>2026-08-26T13:51:40+00:00</time>
      </trkpt>
      <trkpt lat="49.90575" lon="6.0791">
        <ele>363</ele>
        <time>2026-08-26T13:51:43+00:00</time>
      </trkpt>
      <trkpt lat="49.9057" lon="6.07923">
        <ele>364</ele>
        <time>2026-08-26T13:51:46+00:00</time>
      </trkpt>
      <trkpt lat="49.90567" lon="6.07931">
        <ele>364</ele>
        <time>2026-08-26T13:51:49+00:00</time>
      </trkpt>
      <trkpt lat="49.9056" lon="6.07952">
        <ele>362</ele>
        <time>2026-08-26T13:51:52+00:00</time>
      </trkpt>
      <trkpt lat="49.9056" lon="6.07959">
        <ele>364</ele>
        <time>2026-08-26T13:51:55+00:00</time>
      </trkpt>
      <trkpt lat="49.90562" lon="6.07967">
        <ele>363</ele>
        <time>2026-08-26T13:51:58+00:00</time>
      </trkpt>
      <trkpt lat="49.90567" lon="6.07975">
        <ele>362</ele>
        <time>2026-08-26T13:52:01+00:00</time>
      </trkpt>
      <trkpt lat="49.90569" lon="6.07974">
        <ele>362</ele>
        <time>2026-08-26T13:52:04+00:00</time>
      </trkpt>
      <trkpt lat="49.90563" lon="6.07995">
        <ele>360</ele>
        <time>2026-08-26T13:52:07+00:00</time>
      </trkpt>
      <trkpt lat="49.90549" lon="6.08006">
        <ele>356</ele>
        <time>2026-08-26T13:52:10+00:00</time>
      </trkpt>
      <trkpt lat="49.90548" lon="6.08007">
        <ele>356</ele>
        <time>2026-08-26T13:52:13+00:00</time>
      </trkpt>
      <trkpt lat="49.90545" lon="6.08005">
        <ele>356</ele>
        <time>2026-08-26T13:52:16+00:00</time>
      </trkpt>
      <trkpt lat="49.90542" lon="6.08008">
        <ele>356</ele>
        <time>2026-08-26T13:52:19+00:00</time>
      </trkpt>
      <trkpt lat="49.90517" lon="6.07973">
        <ele>351</ele>
        <time>2026-08-26T13:52:22+00:00</time>
      </trkpt>
      <trkpt lat="49.90515" lon="6.07967">
        <ele>351</ele>
        <time>2026-08-26T13:52:25+00:00</time>
      </trkpt>
      <trkpt lat="49.90516" lon="6.07945">
        <ele>352</ele>
        <time>2026-08-26T13:52:28+00:00</time>
      </trkpt>
      <trkpt lat="49.90518" lon="6.07938">
        <ele>349</ele>
        <time>2026-08-26T13:52:31+00:00</time>
      </trkpt>
      <trkpt lat="49.90526" lon="6.07911">
        <ele>352</ele>
        <time>2026-08-26T13:52:34+00:00</time>
      </trkpt>
      <trkpt lat="49.9054" lon="6.07883">
        <ele>352</ele>
        <time>2026-08-26T13:52:37+00:00</time>
      </trkpt>
      <trkpt lat="49.90551" lon="6.07868">
        <ele>357</ele>
        <time>2026-08-26T13:52:40+00:00</time>
      </trkpt>
      <trkpt lat="49.90556" lon="6.07855">
        <ele>354</ele>
        <time>2026-08-26T13:52:43+00:00</time>
      </trkpt>
      <trkpt lat="49.90569" lon="6.07833">
        <ele>354</ele>
        <time>2026-08-26T13:52:46+00:00</time>
      </trkpt>
      <trkpt lat="49.90571" lon="6.07826">
        <ele>355</ele>
        <time>2026-08-26T13:52:49+00:00</time>
      </trkpt>
      <trkpt lat="49.9057" lon="6.07819">
        <ele>355</ele>
        <time>2026-08-26T13:52:52+00:00</time>
      </trkpt>
      <trkpt lat="49.90559" lon="6.07832">
        <ele>354</ele>
        <time>2026-08-26T13:52:55+00:00</time>
      </trkpt>
      <trkpt lat="49.90545" lon="6.0785">
        <ele>353</ele>
        <time>2026-08-26T13:52:58+00:00</time>
      </trkpt>
      <trkpt lat="49.90516" lon="6.07894">
        <ele>347</ele>
        <time>2026-08-26T13:53:01+00:00</time>
      </trkpt>
      <trkpt lat="49.90508" lon="6.0791">
        <ele>346</ele>
        <time>2026-08-26T13:53:04+00:00</time>
      </trkpt>
      <trkpt lat="49.90501" lon="6.07927">
        <ele>345</ele>
        <time>2026-08-26T13:53:07+00:00</time>
      </trkpt>
      <trkpt lat="49.90497" lon="6.07946">
        <ele>344</ele>
        <time>2026-08-26T13:53:10+00:00</time>
      </trkpt>
      <trkpt lat="49.90494" lon="6.07966">
        <ele>343</ele>
        <time>2026-08-26T13:53:13+00:00</time>
      </trkpt>
      <trkpt lat="49.90494" lon="6.08007">
        <ele>340</ele>
        <time>2026-08-26T13:53:16+00:00</time>
      </trkpt>
      <trkpt lat="49.90498" lon="6.08026">
        <ele>339</ele>
        <time>2026-08-26T13:53:19+00:00</time>
      </trkpt>
      <trkpt lat="49.9051" lon="6.08061">
        <ele>336</ele>
        <time>2026-08-26T13:53:22+00:00</time>
      </trkpt>
      <trkpt lat="49.90513" lon="6.08067">
        <ele>337</ele>
        <time>2026-08-26T13:53:25+00:00</time>
      </trkpt>
      <trkpt lat="49.90518" lon="6.08076">
        <ele>335</ele>
        <time>2026-08-26T13:53:28+00:00</time>
      </trkpt>
      <trkpt lat="49.90537" lon="6.08102">
        <ele>335</ele>
        <time>2026-08-26T13:53:31+00:00</time>
      </trkpt>
      <trkpt lat="49.90548" lon="6.08112">
        <ele>329</ele>
        <time>2026-08-26T13:53:34+00:00</time>
      </trkpt>
      <trkpt lat="49.90572" lon="6.08126">
        <ele>334</ele>
        <time>2026-08-26T13:53:37+00:00</time>
      </trkpt>
      <trkpt lat="49.90596" lon="6.08133">
        <ele>334</ele>
        <time>2026-08-26T13:53:40+00:00</time>
      </trkpt>
      <trkpt lat="49.90629" lon="6.08142">
        <ele>330</ele>
        <time>2026-08-26T13:53:43+00:00</time>
      </trkpt>
      <trkpt lat="49.9067" lon="6.08154">
        <ele>326</ele>
        <time>2026-08-26T13:53:46+00:00</time>
      </trkpt>
      <trkpt lat="49.90687" lon="6.08161">
        <ele>321</ele>
        <time>2026-08-26T13:53:49+00:00</time>
      </trkpt>
      <trkpt lat="49.907" lon="6.0817">
        <ele>318</ele>
        <time>2026-08-26T13:53:52+00:00</time>
      </trkpt>
      <trkpt lat="49.907" lon="6.08166">
        <ele>318</ele>
        <time>2026-08-26T13:53:55+00:00</time>
      </trkpt>
      <trkpt lat="49.907" lon="6.08163">
        <ele>326</ele>
        <time>2026-08-26T13:53:58+00:00</time>
      </trkpt>
      <trkpt lat="49.90699" lon="6.0815">
        <ele>326</ele>
        <time>2026-08-26T13:54:01+00:00</time>
      </trkpt>
      <trkpt lat="49.90689" lon="6.08108">
        <ele>325</ele>
        <time>2026-08-26T13:54:04+00:00</time>
      </trkpt>
      <trkpt lat="49.90684" lon="6.08074">
        <ele>324</ele>
        <time>2026-08-26T13:54:07+00:00</time>
      </trkpt>
      <trkpt lat="49.9067" lon="6.08038">
        <ele>321</ele>
        <time>2026-08-26T13:54:10+00:00</time>
      </trkpt>
      <trkpt lat="49.90666" lon="6.0799">
        <ele>321</ele>
        <time>2026-08-26T13:54:13+00:00</time>
      </trkpt>
      <trkpt lat="49.90667" lon="6.07943">
        <ele>322</ele>
        <time>2026-08-26T13:54:16+00:00</time>
      </trkpt>
      <trkpt lat="49.90672" lon="6.07926">
        <ele>320</ele>
        <time>2026-08-26T13:54:19+00:00</time>
      </trkpt>
      <trkpt lat="49.90674" lon="6.07889">
        <ele>323</ele>
        <time>2026-08-26T13:54:22+00:00</time>
      </trkpt>
      <trkpt lat="49.90677" lon="6.07874">
        <ele>325</ele>
        <time>2026-08-26T13:54:25+00:00</time>
      </trkpt>
      <trkpt lat="49.90681" lon="6.07867">
        <ele>320</ele>
        <time>2026-08-26T13:54:28+00:00</time>
      </trkpt>
      <trkpt lat="49.90689" lon="6.07854">
        <ele>323</ele>
        <time>2026-08-26T13:54:31+00:00</time>
      </trkpt>
      <trkpt lat="49.90697" lon="6.07835">
        <ele>317</ele>
        <time>2026-08-26T13:54:34+00:00</time>
      </trkpt>
      <trkpt lat="49.90704" lon="6.07812">
        <ele>321</ele>
        <time>2026-08-26T13:54:37+00:00</time>
      </trkpt>
      <trkpt lat="49.90706" lon="6.07783">
        <ele>320</ele>
        <time>2026-08-26T13:54:40+00:00</time>
      </trkpt>
      <trkpt lat="49.90709" lon="6.0777">
        <ele>323</ele>
        <time>2026-08-26T13:54:43+00:00</time>
      </trkpt>
      <trkpt lat="49.90724" lon="6.07746">
        <ele>308</ele>
        <time>2026-08-26T13:54:46+00:00</time>
      </trkpt>
      <trkpt lat="49.90744" lon="6.07715">
        <ele>302</ele>
        <time>2026-08-26T13:54:49+00:00</time>
      </trkpt>
      <trkpt lat="49.90762" lon="6.07692">
        <ele>299</ele>
        <time>2026-08-26T13:54:52+00:00</time>
      </trkpt>
      <trkpt lat="49.90783" lon="6.07665">
        <ele>297</ele>
        <time>2026-08-26T13:54:55+00:00</time>
      </trkpt>
      <trkpt lat="49.90804" lon="6.0765">
        <ele>297</ele>
        <time>2026-08-26T13:54:58+00:00</time>
      </trkpt>
      <trkpt lat="49.9084" lon="6.0763">
        <ele>293</ele>
        <time>2026-08-26T13:55:01+00:00</time>
      </trkpt>
      <trkpt lat="49.90861" lon="6.07621">
        <ele>291</ele>
        <time>2026-08-26T13:55:04+00:00</time>
      </trkpt>
      <trkpt lat="49.90884" lon="6.07612">
        <ele>285</ele>
        <time>2026-08-26T13:55:07+00:00</time>
      </trkpt>
      <trkpt lat="49.90905" lon="6.0761">
        <ele>279</ele>
        <time>2026-08-26T13:55:10+00:00</time>
      </trkpt>
      <trkpt lat="49.90912" lon="6.07612">
        <ele>273</ele>
        <time>2026-08-26T13:55:13+00:00</time>
      </trkpt>
      <trkpt lat="49.90939" lon="6.07612">
        <ele>267</ele>
        <time>2026-08-26T13:55:16+00:00</time>
      </trkpt>
      <trkpt lat="49.90947" lon="6.07615">
        <ele>266</ele>
        <time>2026-08-26T13:55:19+00:00</time>
      </trkpt>
      <trkpt lat="49.90971" lon="6.07616">
        <ele>264</ele>
        <time>2026-08-26T13:55:22+00:00</time>
      </trkpt>
      <trkpt lat="49.90981" lon="6.07619">
        <ele>264</ele>
        <time>2026-08-26T13:55:25+00:00</time>
      </trkpt>
      <trkpt lat="49.90989" lon="6.07619">
        <ele>264</ele>
        <time>2026-08-26T13:55:28+00:00</time>
      </trkpt>
      <trkpt lat="49.91014" lon="6.07622">
        <ele>258</ele>
        <time>2026-08-26T13:55:31+00:00</time>
      </trkpt>
      <trkpt lat="49.91048" lon="6.07641">
        <ele>252</ele>
        <time>2026-08-26T13:55:34+00:00</time>
      </trkpt>
      <trkpt lat="49.91069" lon="6.07656">
        <ele>250</ele>
        <time>2026-08-26T13:55:37+00:00</time>
      </trkpt>
      <trkpt lat="49.91073" lon="6.07662">
        <ele>246</ele>
        <time>2026-08-26T13:55:40+00:00</time>
      </trkpt>
      <trkpt lat="49.91074" lon="6.07667">
        <ele>246</ele>
        <time>2026-08-26T13:55:43+00:00</time>
      </trkpt>
      <trkpt lat="49.91055" lon="6.0766">
        <ele>250</ele>
        <time>2026-08-26T13:55:46+00:00</time>
      </trkpt>
      <trkpt lat="49.91026" lon="6.07654">
        <ele>245</ele>
        <time>2026-08-26T13:55:49+00:00</time>
      </trkpt>
      <trkpt lat="49.91001" lon="6.07652">
        <ele>243</ele>
        <time>2026-08-26T13:55:52+00:00</time>
      </trkpt>
      <trkpt lat="49.90978" lon="6.07654">
        <ele>245</ele>
        <time>2026-08-26T13:55:55+00:00</time>
      </trkpt>
      <trkpt lat="49.90952" lon="6.07659">
        <ele>248</ele>
        <time>2026-08-26T13:55:58+00:00</time>
      </trkpt>
      <trkpt lat="49.90914" lon="6.07666">
        <ele>249</ele>
        <time>2026-08-26T13:56:01+00:00</time>
      </trkpt>
      <trkpt lat="49.90879" lon="6.0768">
        <ele>249</ele>
        <time>2026-08-26T13:56:04+00:00</time>
      </trkpt>
      <trkpt lat="49.90856" lon="6.07694">
        <ele>250</ele>
        <time>2026-08-26T13:56:07+00:00</time>
      </trkpt>
      <trkpt lat="49.90846" lon="6.07702">
        <ele>251</ele>
        <time>2026-08-26T13:56:10+00:00</time>
      </trkpt>
      <trkpt lat="49.90836" lon="6.07718">
        <ele>250</ele>
        <time>2026-08-26T13:56:13+00:00</time>
      </trkpt>
      <trkpt lat="49.90814" lon="6.07736">
        <ele>250</ele>
        <time>2026-08-26T13:56:16+00:00</time>
      </trkpt>
      <trkpt lat="49.90806" lon="6.07747">
        <ele>252</ele>
        <time>2026-08-26T13:56:19+00:00</time>
      </trkpt>
      <trkpt lat="49.90795" lon="6.07766">
        <ele>249</ele>
        <time>2026-08-26T13:56:22+00:00</time>
      </trkpt>
      <trkpt lat="49.90787" lon="6.07777">
        <ele>253</ele>
        <time>2026-08-26T13:56:25+00:00</time>
      </trkpt>
      <trkpt lat="49.90781" lon="6.07786">
        <ele>249</ele>
        <time>2026-08-26T13:56:28+00:00</time>
      </trkpt>
      <trkpt lat="49.90773" lon="6.07801">
        <ele>252</ele>
        <time>2026-08-26T13:56:31+00:00</time>
      </trkpt>
      <trkpt lat="49.90769" lon="6.0782">
        <ele>259</ele>
        <time>2026-08-26T13:56:34+00:00</time>
      </trkpt>
      <trkpt lat="49.90757" lon="6.07858">
        <ele>271</ele>
        <time>2026-08-26T13:56:37+00:00</time>
      </trkpt>
      <trkpt lat="49.90732" lon="6.07907">
        <ele>272</ele>
        <time>2026-08-26T13:56:40+00:00</time>
      </trkpt>
      <trkpt lat="49.90726" lon="6.07918">
        <ele>281</ele>
        <time>2026-08-26T13:56:43+00:00</time>
      </trkpt>
      <trkpt lat="49.90733" lon="6.07926">
        <ele>271</ele>
        <time>2026-08-26T13:56:46+00:00</time>
      </trkpt>
      <trkpt lat="49.90736" lon="6.0793">
        <ele>274</ele>
        <time>2026-08-26T13:56:49+00:00</time>
      </trkpt>
      <trkpt lat="49.90737" lon="6.07943">
        <ele>272</ele>
        <time>2026-08-26T13:56:52+00:00</time>
      </trkpt>
      <trkpt lat="49.90743" lon="6.07924">
        <ele>270</ele>
        <time>2026-08-26T13:56:55+00:00</time>
      </trkpt>
      <trkpt lat="49.90744" lon="6.07932">
        <ele>268</ele>
        <time>2026-08-26T13:56:58+00:00</time>
      </trkpt>
      <trkpt lat="49.90743" lon="6.07942">
        <ele>267</ele>
        <time>2026-08-26T13:57:01+00:00</time>
      </trkpt>
      <trkpt lat="49.90743" lon="6.07952">
        <ele>264</ele>
        <time>2026-08-26T13:57:04+00:00</time>
      </trkpt>
      <trkpt lat="49.90744" lon="6.0797">
        <ele>262</ele>
        <time>2026-08-26T13:57:07+00:00</time>
      </trkpt>
      <trkpt lat="49.90752" lon="6.08">
        <ele>242</ele>
        <time>2026-08-26T13:57:10+00:00</time>
      </trkpt>
      <trkpt lat="49.90763" lon="6.08042">
        <ele>244</ele>
        <time>2026-08-26T13:57:13+00:00</time>
      </trkpt>
      <trkpt lat="49.90764" lon="6.0805">
        <ele>235</ele>
        <time>2026-08-26T13:57:16+00:00</time>
      </trkpt>
      <trkpt lat="49.9078" lon="6.08089">
        <ele>242</ele>
        <time>2026-08-26T13:57:19+00:00</time>
      </trkpt>
      <trkpt lat="49.90794" lon="6.08117">
        <ele>242</ele>
        <time>2026-08-26T13:57:22+00:00</time>
      </trkpt>
      <trkpt lat="49.90809" lon="6.08138">
        <ele>240</ele>
        <time>2026-08-26T13:57:25+00:00</time>
      </trkpt>
      <trkpt lat="49.90822" lon="6.08155">
        <ele>240</ele>
        <time>2026-08-26T13:57:28+00:00</time>
      </trkpt>
      <trkpt lat="49.90837" lon="6.08168">
        <ele>239</ele>
        <time>2026-08-26T13:57:31+00:00</time>
      </trkpt>
      <trkpt lat="49.90858" lon="6.08186">
        <ele>240</ele>
        <time>2026-08-26T13:57:34+00:00</time>
      </trkpt>
      <trkpt lat="49.90865" lon="6.08191">
        <ele>239</ele>
        <time>2026-08-26T13:57:37+00:00</time>
      </trkpt>
      <trkpt lat="49.90878" lon="6.08208">
        <ele>241</ele>
        <time>2026-08-26T13:57:40+00:00</time>
      </trkpt>
      <trkpt lat="49.90899" lon="6.08228">
        <ele>239</ele>
        <time>2026-08-26T13:57:43+00:00</time>
      </trkpt>
      <trkpt lat="49.90911" lon="6.08244">
        <ele>240</ele>
        <time>2026-08-26T13:57:46+00:00</time>
      </trkpt>
      <trkpt lat="49.90931" lon="6.08257">
        <ele>237</ele>
        <time>2026-08-26T13:57:49+00:00</time>
      </trkpt>
      <trkpt lat="49.90955" lon="6.08282">
        <ele>236</ele>
        <time>2026-08-26T13:57:52+00:00</time>
      </trkpt>
      <trkpt lat="49.90965" lon="6.08287">
        <ele>233</ele>
        <time>2026-08-26T13:57:55+00:00</time>
      </trkpt>
      <trkpt lat="49.90983" lon="6.08299">
        <ele>238</ele>
        <time>2026-08-26T13:57:58+00:00</time>
      </trkpt>
      <trkpt lat="49.91007" lon="6.08316">
        <ele>236</ele>
        <time>2026-08-26T13:58:01+00:00</time>
      </trkpt>
      <trkpt lat="49.91035" lon="6.08323">
        <ele>237</ele>
        <time>2026-08-26T13:58:04+00:00</time>
      </trkpt>
      <trkpt lat="49.91058" lon="6.08335">
        <ele>234</ele>
        <time>2026-08-26T13:58:07+00:00</time>
      </trkpt>
      <trkpt lat="49.91088" lon="6.0835">
        <ele>236</ele>
        <time>2026-08-26T13:58:10+00:00</time>
      </trkpt>
      <trkpt lat="49.91108" lon="6.08365">
        <ele>238</ele>
        <time>2026-08-26T13:58:13+00:00</time>
      </trkpt>
      <trkpt lat="49.91131" lon="6.08382">
        <ele>239</ele>
        <time>2026-08-26T13:58:16+00:00</time>
      </trkpt>
      <trkpt lat="49.91157" lon="6.08398">
        <ele>239</ele>
        <time>2026-08-26T13:58:19+00:00</time>
      </trkpt>
      <trkpt lat="49.91206" lon="6.08427">
        <ele>225</ele>
        <time>2026-08-26T13:58:22+00:00</time>
      </trkpt>
      <trkpt lat="49.91216" lon="6.08439">
        <ele>224</ele>
        <time>2026-08-26T13:58:25+00:00</time>
      </trkpt>
      <trkpt lat="49.91235" lon="6.08458">
        <ele>225</ele>
        <time>2026-08-26T13:58:28+00:00</time>
      </trkpt>
      <trkpt lat="49.9127" lon="6.08492">
        <ele>224</ele>
        <time>2026-08-26T13:58:31+00:00</time>
      </trkpt>
      <trkpt lat="49.91302" lon="6.08525">
        <ele>224</ele>
        <time>2026-08-26T13:58:34+00:00</time>
      </trkpt>
      <trkpt lat="49.91319" lon="6.08556">
        <ele>227</ele>
        <time>2026-08-26T13:58:37+00:00</time>
      </trkpt>
      <trkpt lat="49.91329" lon="6.08592">
        <ele>228</ele>
        <time>2026-08-26T13:58:40+00:00</time>
      </trkpt>
      <trkpt lat="49.91344" lon="6.08644">
        <ele>229</ele>
        <time>2026-08-26T13:58:43+00:00</time>
      </trkpt>
      <trkpt lat="49.91348" lon="6.0867">
        <ele>231</ele>
        <time>2026-08-26T13:58:46+00:00</time>
      </trkpt>
      <trkpt lat="49.91349" lon="6.08692">
        <ele>229</ele>
        <time>2026-08-26T13:58:49+00:00</time>
      </trkpt>
      <trkpt lat="49.91348" lon="6.08733">
        <ele>228</ele>
        <time>2026-08-26T13:58:52+00:00</time>
      </trkpt>
      <trkpt lat="49.91347" lon="6.08739">
        <ele>230</ele>
        <time>2026-08-26T13:58:55+00:00</time>
      </trkpt>
      <trkpt lat="49.91345" lon="6.08743">
        <ele>229</ele>
        <time>2026-08-26T13:58:58+00:00</time>
      </trkpt>
      <trkpt lat="49.91341" lon="6.08743">
        <ele>229</ele>
        <time>2026-08-26T13:59:01+00:00</time>
      </trkpt>
      <trkpt lat="49.91343" lon="6.08761">
        <ele>228</ele>
        <time>2026-08-26T13:59:04+00:00</time>
      </trkpt>
      <trkpt lat="49.91344" lon="6.08767">
        <ele>228</ele>
        <time>2026-08-26T13:59:07+00:00</time>
      </trkpt>
      <trkpt lat="49.91344" lon="6.08774">
        <ele>227</ele>
        <time>2026-08-26T13:59:10+00:00</time>
      </trkpt>
      <trkpt lat="49.91348" lon="6.08786">
        <ele>226</ele>
        <time>2026-08-26T13:59:13+00:00</time>
      </trkpt>
      <trkpt lat="49.91353" lon="6.08794">
        <ele>225</ele>
        <time>2026-08-26T13:59:16+00:00</time>
      </trkpt>
      <trkpt lat="49.9136" lon="6.08802">
        <ele>225</ele>
        <time>2026-08-26T13:59:19+00:00</time>
      </trkpt>
      <trkpt lat="49.91381" lon="6.08819">
        <ele>222</ele>
        <time>2026-08-26T13:59:22+00:00</time>
      </trkpt>
      <trkpt lat="49.91417" lon="6.08847">
        <ele>225</ele>
        <time>2026-08-26T13:59:25+00:00</time>
      </trkpt>
      <trkpt lat="49.91422" lon="6.0885">
        <ele>224</ele>
        <time>2026-08-26T13:59:28+00:00</time>
      </trkpt>
      <trkpt lat="49.91431" lon="6.08816">
        <ele>228</ele>
        <time>2026-08-26T13:59:31+00:00</time>
      </trkpt>
      <trkpt lat="49.91435" lon="6.0882">
        <ele>228</ele>
        <time>2026-08-26T13:59:34+00:00</time>
      </trkpt>
      <trkpt lat="49.91434" lon="6.08826">
        <ele>228</ele>
        <time>2026-08-26T13:59:37+00:00</time>
      </trkpt>
      <trkpt lat="49.91435" lon="6.08834">
        <ele>229</ele>
        <time>2026-08-26T13:59:40+00:00</time>
      </trkpt>
      <trkpt lat="49.91437" lon="6.08828">
        <ele>228</ele>
        <time>2026-08-26T13:59:43+00:00</time>
      </trkpt>
      <trkpt lat="49.91446" lon="6.08796">
        <ele>233</ele>
        <time>2026-08-26T13:59:46+00:00</time>
      </trkpt>
      <trkpt lat="49.9145" lon="6.08784">
        <ele>230</ele>
        <time>2026-08-26T13:59:49+00:00</time>
      </trkpt>
      <trkpt lat="49.9146" lon="6.0876">
        <ele>234</ele>
        <time>2026-08-26T13:59:52+00:00</time>
      </trkpt>
      <trkpt lat="49.91471" lon="6.08733">
        <ele>265</ele>
        <time>2026-08-26T13:59:55+00:00</time>
      </trkpt>
      <trkpt lat="49.91482" lon="6.08699">
        <ele>275</ele>
        <time>2026-08-26T13:59:58+00:00</time>
      </trkpt>
      <trkpt lat="49.91496" lon="6.08657">
        <ele>281</ele>
        <time>2026-08-26T14:00:01+00:00</time>
      </trkpt>
      <trkpt lat="49.91501" lon="6.08622">
        <ele>289</ele>
        <time>2026-08-26T14:00:04+00:00</time>
      </trkpt>
      <trkpt lat="49.91502" lon="6.08589">
        <ele>292</ele>
        <time>2026-08-26T14:00:07+00:00</time>
      </trkpt>
      <trkpt lat="49.91506" lon="6.08563">
        <ele>291</ele>
        <time>2026-08-26T14:00:10+00:00</time>
      </trkpt>
      <trkpt lat="49.91517" lon="6.08581">
        <ele>299</ele>
        <time>2026-08-26T14:00:13+00:00</time>
      </trkpt>
      <trkpt lat="49.91523" lon="6.0861">
        <ele>301</ele>
        <time>2026-08-26T14:00:16+00:00</time>
      </trkpt>
      <trkpt lat="49.91532" lon="6.0862">
        <ele>302</ele>
        <time>2026-08-26T14:00:19+00:00</time>
      </trkpt>
      <trkpt lat="49.91536" lon="6.0863">
        <ele>302</ele>
        <time>2026-08-26T14:00:22+00:00</time>
      </trkpt>
      <trkpt lat="49.91542" lon="6.08662">
        <ele>307</ele>
        <time>2026-08-26T14:00:25+00:00</time>
      </trkpt>
      <trkpt lat="49.91541" lon="6.08675">
        <ele>308</ele>
        <time>2026-08-26T14:00:28+00:00</time>
      </trkpt>
      <trkpt lat="49.9156" lon="6.08683">
        <ele>315</ele>
        <time>2026-08-26T14:00:31+00:00</time>
      </trkpt>
      <trkpt lat="49.91576" lon="6.08693">
        <ele>324</ele>
        <time>2026-08-26T14:00:34+00:00</time>
      </trkpt>
      <trkpt lat="49.91577" lon="6.08696">
        <ele>324</ele>
        <time>2026-08-26T14:00:37+00:00</time>
      </trkpt>
      <trkpt lat="49.91582" lon="6.08696">
        <ele>326</ele>
        <time>2026-08-26T14:00:40+00:00</time>
      </trkpt>
      <trkpt lat="49.91591" lon="6.08702">
        <ele>332</ele>
        <time>2026-08-26T14:00:43+00:00</time>
      </trkpt>
      <trkpt lat="49.91593" lon="6.08706">
        <ele>332</ele>
        <time>2026-08-26T14:00:46+00:00</time>
      </trkpt>
      <trkpt lat="49.91585" lon="6.08711">
        <ele>334</ele>
        <time>2026-08-26T14:00:49+00:00</time>
      </trkpt>
      <trkpt lat="49.91577" lon="6.08724">
        <ele>335</ele>
        <time>2026-08-26T14:00:52+00:00</time>
      </trkpt>
      <trkpt lat="49.91577" lon="6.08728">
        <ele>335</ele>
        <time>2026-08-26T14:00:55+00:00</time>
      </trkpt>
      <trkpt lat="49.91577" lon="6.08733">
        <ele>340</ele>
        <time>2026-08-26T14:00:58+00:00</time>
      </trkpt>
      <trkpt lat="49.91582" lon="6.08735">
        <ele>344</ele>
        <time>2026-08-26T14:01:01+00:00</time>
      </trkpt>
      <trkpt lat="49.91583" lon="6.08743">
        <ele>347</ele>
        <time>2026-08-26T14:01:04+00:00</time>
      </trkpt>
      <trkpt lat="49.91596" lon="6.08742">
        <ele>350</ele>
        <time>2026-08-26T14:01:07+00:00</time>
      </trkpt>
      <trkpt lat="49.916" lon="6.08746">
        <ele>350</ele>
        <time>2026-08-26T14:01:10+00:00</time>
      </trkpt>
      <trkpt lat="49.916" lon="6.08754">
        <ele>353</ele>
        <time>2026-08-26T14:01:13+00:00</time>
      </trkpt>
      <trkpt lat="49.91604" lon="6.08757">
        <ele>356</ele>
        <time>2026-08-26T14:01:16+00:00</time>
      </trkpt>
      <trkpt lat="49.91618" lon="6.08759">
        <ele>360</ele>
        <time>2026-08-26T14:01:19+00:00</time>
      </trkpt>
      <trkpt lat="49.91631" lon="6.08764">
        <ele>366</ele>
        <time>2026-08-26T14:01:22+00:00</time>
      </trkpt>
      <trkpt lat="49.91641" lon="6.08772">
        <ele>368</ele>
        <time>2026-08-26T14:01:25+00:00</time>
      </trkpt>
      <trkpt lat="49.91641" lon="6.08774">
        <ele>368</ele>
        <time>2026-08-26T14:01:28+00:00</time>
      </trkpt>
      <trkpt lat="49.91628" lon="6.08793">
        <ele>373</ele>
        <time>2026-08-26T14:01:31+00:00</time>
      </trkpt>
      <trkpt lat="49.91629" lon="6.08795">
        <ele>373</ele>
        <time>2026-08-26T14:01:34+00:00</time>
      </trkpt>
      <trkpt lat="49.91645" lon="6.08811">
        <ele>379</ele>
        <time>2026-08-26T14:01:37+00:00</time>
      </trkpt>
      <trkpt lat="49.91638" lon="6.08817">
        <ele>380</ele>
        <time>2026-08-26T14:01:40+00:00</time>
      </trkpt>
      <trkpt lat="49.91626" lon="6.0882">
        <ele>379</ele>
        <time>2026-08-26T14:01:43+00:00</time>
      </trkpt>
      <trkpt lat="49.91622" lon="6.08824">
        <ele>380</ele>
        <time>2026-08-26T14:01:46+00:00</time>
      </trkpt>
      <trkpt lat="49.91621" lon="6.08828">
        <ele>380</ele>
        <time>2026-08-26T14:01:49+00:00</time>
      </trkpt>
      <trkpt lat="49.91632" lon="6.08831">
        <ele>384</ele>
        <time>2026-08-26T14:01:52+00:00</time>
      </trkpt>
      <trkpt lat="49.91635" lon="6.0883">
        <ele>382</ele>
        <time>2026-08-26T14:01:55+00:00</time>
      </trkpt>
      <trkpt lat="49.91641" lon="6.08834">
        <ele>384</ele>
        <time>2026-08-26T14:01:58+00:00</time>
      </trkpt>
      <trkpt lat="49.91636" lon="6.0884">
        <ele>384</ele>
        <time>2026-08-26T14:02:01+00:00</time>
      </trkpt>
      <trkpt lat="49.91631" lon="6.08846">
        <ele>386</ele>
        <time>2026-08-26T14:02:04+00:00</time>
      </trkpt>
      <trkpt lat="49.91624" lon="6.08847">
        <ele>385</ele>
        <time>2026-08-26T14:02:07+00:00</time>
      </trkpt>
      <trkpt lat="49.91622" lon="6.0885">
        <ele>385</ele>
        <time>2026-08-26T14:02:10+00:00</time>
      </trkpt>
      <trkpt lat="49.91622" lon="6.08861">
        <ele>391</ele>
        <time>2026-08-26T14:02:13+00:00</time>
      </trkpt>
      <trkpt lat="49.9161" lon="6.08886">
        <ele>392</ele>
        <time>2026-08-26T14:02:16+00:00</time>
      </trkpt>
      <trkpt lat="49.91607" lon="6.08897">
        <ele>395</ele>
        <time>2026-08-26T14:02:19+00:00</time>
      </trkpt>
      <trkpt lat="49.91604" lon="6.08903">
        <ele>398</ele>
        <time>2026-08-26T14:02:22+00:00</time>
      </trkpt>
      <trkpt lat="49.91595" lon="6.08925">
        <ele>396</ele>
        <time>2026-08-26T14:02:25+00:00</time>
      </trkpt>
      <trkpt lat="49.91586" lon="6.08949">
        <ele>400</ele>
        <time>2026-08-26T14:02:28+00:00</time>
      </trkpt>
      <trkpt lat="49.91586" lon="6.08961">
        <ele>404</ele>
        <time>2026-08-26T14:02:31+00:00</time>
      </trkpt>
      <trkpt lat="49.91607" lon="6.08971">
        <ele>410</ele>
        <time>2026-08-26T14:02:34+00:00</time>
      </trkpt>
      <trkpt lat="49.91608" lon="6.08974">
        <ele>410</ele>
        <time>2026-08-26T14:02:37+00:00</time>
      </trkpt>
      <trkpt lat="49.91605" lon="6.09001">
        <ele>419</ele>
        <time>2026-08-26T14:02:40+00:00</time>
      </trkpt>
      <trkpt lat="49.91616" lon="6.09">
        <ele>419</ele>
        <time>2026-08-26T14:02:43+00:00</time>
      </trkpt>
      <trkpt lat="49.91618" lon="6.09002">
        <ele>421</ele>
        <time>2026-08-26T14:02:46+00:00</time>
      </trkpt>
      <trkpt lat="49.91619" lon="6.09015">
        <ele>424</ele>
        <time>2026-08-26T14:02:49+00:00</time>
      </trkpt>
      <trkpt lat="49.91614" lon="6.09045">
        <ele>430</ele>
        <time>2026-08-26T14:02:52+00:00</time>
      </trkpt>
      <trkpt lat="49.91615" lon="6.09049">
        <ele>430</ele>
        <time>2026-08-26T14:02:55+00:00</time>
      </trkpt>
      <trkpt lat="49.91618" lon="6.09051">
        <ele>432</ele>
        <time>2026-08-26T14:02:58+00:00</time>
      </trkpt>
      <trkpt lat="49.9162" lon="6.09057">
        <ele>432</ele>
        <time>2026-08-26T14:03:01+00:00</time>
      </trkpt>
      <trkpt lat="49.9162" lon="6.0907">
        <ele>433</ele>
        <time>2026-08-26T14:03:04+00:00</time>
      </trkpt>
      <trkpt lat="49.91605" lon="6.09101">
        <ele>439</ele>
        <time>2026-08-26T14:03:07+00:00</time>
      </trkpt>
      <trkpt lat="49.91586" lon="6.09144">
        <ele>442</ele>
        <time>2026-08-26T14:03:10+00:00</time>
      </trkpt>
      <trkpt lat="49.91583" lon="6.09163">
        <ele>446</ele>
        <time>2026-08-26T14:03:13+00:00</time>
      </trkpt>
      <trkpt lat="49.91576" lon="6.09175">
        <ele>447</ele>
        <time>2026-08-26T14:03:16+00:00</time>
      </trkpt>
      <trkpt lat="49.91574" lon="6.09182">
        <ele>449</ele>
        <time>2026-08-26T14:03:19+00:00</time>
      </trkpt>
      <trkpt lat="49.91569" lon="6.09203">
        <ele>450</ele>
        <time>2026-08-26T14:03:22+00:00</time>
      </trkpt>
      <trkpt lat="49.91562" lon="6.09249">
        <ele>454</ele>
        <time>2026-08-26T14:03:25+00:00</time>
      </trkpt>
      <trkpt lat="49.91554" lon="6.09295">
        <ele>453</ele>
        <time>2026-08-26T14:03:28+00:00</time>
      </trkpt>
      <trkpt lat="49.91544" lon="6.09358">
        <ele>453</ele>
        <time>2026-08-26T14:03:31+00:00</time>
      </trkpt>
      <trkpt lat="49.91538" lon="6.09383">
        <ele>453</ele>
        <time>2026-08-26T14:03:34+00:00</time>
      </trkpt>
      <trkpt lat="49.91529" lon="6.09405">
        <ele>453</ele>
        <time>2026-08-26T14:03:37+00:00</time>
      </trkpt>
      <trkpt lat="49.91511" lon="6.09441">
        <ele>456</ele>
        <time>2026-08-26T14:03:40+00:00</time>
      </trkpt>
      <trkpt lat="49.91494" lon="6.09483">
        <ele>457</ele>
        <time>2026-08-26T14:03:43+00:00</time>
      </trkpt>
      <trkpt lat="49.9148" lon="6.09526">
        <ele>458</ele>
        <time>2026-08-26T14:03:46+00:00</time>
      </trkpt>
      <trkpt lat="49.91466" lon="6.09569">
        <ele>458</ele>
        <time>2026-08-26T14:03:49+00:00</time>
      </trkpt>
      <trkpt lat="49.91446" lon="6.09634">
        <ele>458</ele>
        <time>2026-08-26T14:03:52+00:00</time>
      </trkpt>
      <trkpt lat="49.91443" lon="6.09647">
        <ele>458</ele>
        <time>2026-08-26T14:03:55+00:00</time>
      </trkpt>
      <trkpt lat="49.91433" lon="6.09653">
        <ele>456</ele>
        <time>2026-08-26T14:03:58+00:00</time>
      </trkpt>
      <trkpt lat="49.91414" lon="6.0968">
        <ele>452</ele>
        <time>2026-08-26T14:04:01+00:00</time>
      </trkpt>
      <trkpt lat="49.91388" lon="6.09719">
        <ele>452</ele>
        <time>2026-08-26T14:04:04+00:00</time>
      </trkpt>
      <trkpt lat="49.91366" lon="6.09726">
        <ele>452</ele>
        <time>2026-08-26T14:04:07+00:00</time>
      </trkpt>
      <trkpt lat="49.91344" lon="6.09733">
        <ele>453</ele>
        <time>2026-08-26T14:04:10+00:00</time>
      </trkpt>
      <trkpt lat="49.91341" lon="6.09723">
        <ele>456</ele>
        <time>2026-08-26T14:04:13+00:00</time>
      </trkpt>
      <trkpt lat="49.9135" lon="6.09703">
        <ele>455</ele>
        <time>2026-08-26T14:04:16+00:00</time>
      </trkpt>
      <trkpt lat="49.9135" lon="6.09683">
        <ele>454</ele>
        <time>2026-08-26T14:04:19+00:00</time>
      </trkpt>
      <trkpt lat="49.91339" lon="6.0965">
        <ele>455</ele>
        <time>2026-08-26T14:04:22+00:00</time>
      </trkpt>
      <trkpt lat="49.91317" lon="6.09586">
        <ele>456</ele>
        <time>2026-08-26T14:04:25+00:00</time>
      </trkpt>
      <trkpt lat="49.91304" lon="6.09547">
        <ele>456</ele>
        <time>2026-08-26T14:04:28+00:00</time>
      </trkpt>
      <trkpt lat="49.91296" lon="6.09506">
        <ele>456</ele>
        <time>2026-08-26T14:04:31+00:00</time>
      </trkpt>
      <trkpt lat="49.91281" lon="6.09451">
        <ele>456</ele>
        <time>2026-08-26T14:04:34+00:00</time>
      </trkpt>
      <trkpt lat="49.91275" lon="6.09436">
        <ele>458</ele>
        <time>2026-08-26T14:04:37+00:00</time>
      </trkpt>
      <trkpt lat="49.91262" lon="6.09421">
        <ele>459</ele>
        <time>2026-08-26T14:04:40+00:00</time>
      </trkpt>
      <trkpt lat="49.91251" lon="6.09413">
        <ele>461</ele>
        <time>2026-08-26T14:04:43+00:00</time>
      </trkpt>
      <trkpt lat="49.91241" lon="6.09409">
        <ele>462</ele>
        <time>2026-08-26T14:04:46+00:00</time>
      </trkpt>
      <trkpt lat="49.91229" lon="6.09408">
        <ele>466</ele>
        <time>2026-08-26T14:04:49+00:00</time>
      </trkpt>
      <trkpt lat="49.91216" lon="6.09413">
        <ele>468</ele>
        <time>2026-08-26T14:04:52+00:00</time>
      </trkpt>
      <trkpt lat="49.91205" lon="6.09413">
        <ele>471</ele>
        <time>2026-08-26T14:04:55+00:00</time>
      </trkpt>
      <trkpt lat="49.91189" lon="6.0941">
        <ele>475</ele>
        <time>2026-08-26T14:04:58+00:00</time>
      </trkpt>
      <trkpt lat="49.91172" lon="6.09407">
        <ele>475</ele>
        <time>2026-08-26T14:05:01+00:00</time>
      </trkpt>
      <trkpt lat="49.91164" lon="6.09402">
        <ele>477</ele>
        <time>2026-08-26T14:05:04+00:00</time>
      </trkpt>
      <trkpt lat="49.91145" lon="6.09403">
        <ele>475</ele>
        <time>2026-08-26T14:05:07+00:00</time>
      </trkpt>
      <trkpt lat="49.91139" lon="6.09395">
        <ele>474</ele>
        <time>2026-08-26T14:05:10+00:00</time>
      </trkpt>
      <trkpt lat="49.91129" lon="6.09378">
        <ele>471</ele>
        <time>2026-08-26T14:05:13+00:00</time>
      </trkpt>
      <trkpt lat="49.91126" lon="6.09365">
        <ele>470</ele>
        <time>2026-08-26T14:05:16+00:00</time>
      </trkpt>
      <trkpt lat="49.91114" lon="6.09361">
        <ele>469</ele>
        <time>2026-08-26T14:05:19+00:00</time>
      </trkpt>
      <trkpt lat="49.91097" lon="6.09361">
        <ele>466</ele>
        <time>2026-08-26T14:05:22+00:00</time>
      </trkpt>
      <trkpt lat="49.91082" lon="6.09359">
        <ele>465</ele>
        <time>2026-08-26T14:05:25+00:00</time>
      </trkpt>
      <trkpt lat="49.91074" lon="6.09355">
        <ele>463</ele>
        <time>2026-08-26T14:05:28+00:00</time>
      </trkpt>
      <trkpt lat="49.91067" lon="6.09348">
        <ele>462</ele>
        <time>2026-08-26T14:05:31+00:00</time>
      </trkpt>
      <trkpt lat="49.91051" lon="6.0934">
        <ele>460</ele>
        <time>2026-08-26T14:05:34+00:00</time>
      </trkpt>
      <trkpt lat="49.91046" lon="6.09333">
        <ele>458</ele>
        <time>2026-08-26T14:05:37+00:00</time>
      </trkpt>
      <trkpt lat="49.91042" lon="6.09319">
        <ele>457</ele>
        <time>2026-08-26T14:05:40+00:00</time>
      </trkpt>
      <trkpt lat="49.91037" lon="6.09308">
        <ele>456</ele>
        <time>2026-08-26T14:05:43+00:00</time>
      </trkpt>
      <trkpt lat="49.91026" lon="6.09295">
        <ele>455</ele>
        <time>2026-08-26T14:05:46+00:00</time>
      </trkpt>
      <trkpt lat="49.91017" lon="6.09291">
        <ele>453</ele>
        <time>2026-08-26T14:05:49+00:00</time>
      </trkpt>
      <trkpt lat="49.91001" lon="6.09275">
        <ele>450</ele>
        <time>2026-08-26T14:05:52+00:00</time>
      </trkpt>
      <trkpt lat="49.90999" lon="6.09271">
        <ele>446</ele>
        <time>2026-08-26T14:05:55+00:00</time>
      </trkpt>
      <trkpt lat="49.90997" lon="6.09255">
        <ele>445</ele>
        <time>2026-08-26T14:05:58+00:00</time>
      </trkpt>
      <trkpt lat="49.90992" lon="6.09248">
        <ele>445</ele>
        <time>2026-08-26T14:06:01+00:00</time>
      </trkpt>
      <trkpt lat="49.90986" lon="6.0923">
        <ele>443</ele>
        <time>2026-08-26T14:06:04+00:00</time>
      </trkpt>
      <trkpt lat="49.90985" lon="6.09219">
        <ele>443</ele>
        <time>2026-08-26T14:06:07+00:00</time>
      </trkpt>
      <trkpt lat="49.90982" lon="6.09213">
        <ele>443</ele>
        <time>2026-08-26T14:06:10+00:00</time>
      </trkpt>
      <trkpt lat="49.90965" lon="6.0921">
        <ele>441</ele>
        <time>2026-08-26T14:06:13+00:00</time>
      </trkpt>
      <trkpt lat="49.90943" lon="6.09224">
        <ele>436</ele>
        <time>2026-08-26T14:06:16+00:00</time>
      </trkpt>
      <trkpt lat="49.9094" lon="6.09225">
        <ele>436</ele>
        <time>2026-08-26T14:06:19+00:00</time>
      </trkpt>
      <trkpt lat="49.90935" lon="6.09222">
        <ele>436</ele>
        <time>2026-08-26T14:06:22+00:00</time>
      </trkpt>
      <trkpt lat="49.90931" lon="6.09224">
        <ele>436</ele>
        <time>2026-08-26T14:06:25+00:00</time>
      </trkpt>
      <trkpt lat="49.90929" lon="6.09222">
        <ele>438</ele>
        <time>2026-08-26T14:06:28+00:00</time>
      </trkpt>
      <trkpt lat="49.90917" lon="6.0919">
        <ele>432</ele>
        <time>2026-08-26T14:06:31+00:00</time>
      </trkpt>
      <trkpt lat="49.90905" lon="6.09176">
        <ele>428</ele>
        <time>2026-08-26T14:06:34+00:00</time>
      </trkpt>
      <trkpt lat="49.90892" lon="6.09164">
        <ele>425</ele>
        <time>2026-08-26T14:06:37+00:00</time>
      </trkpt>
      <trkpt lat="49.90877" lon="6.09151">
        <ele>420</ele>
        <time>2026-08-26T14:06:40+00:00</time>
      </trkpt>
      <trkpt lat="49.90842" lon="6.0912">
        <ele>409</ele>
        <time>2026-08-26T14:06:43+00:00</time>
      </trkpt>
      <trkpt lat="49.90829" lon="6.09099">
        <ele>401</ele>
        <time>2026-08-26T14:06:46+00:00</time>
      </trkpt>
      <trkpt lat="49.9082" lon="6.09095">
        <ele>398</ele>
        <time>2026-08-26T14:06:49+00:00</time>
      </trkpt>
      <trkpt lat="49.90793" lon="6.09085">
        <ele>387</ele>
        <time>2026-08-26T14:06:52+00:00</time>
      </trkpt>
      <trkpt lat="49.90771" lon="6.09074">
        <ele>380</ele>
        <time>2026-08-26T14:06:55+00:00</time>
      </trkpt>
      <trkpt lat="49.90746" lon="6.09062">
        <ele>375</ele>
        <time>2026-08-26T14:06:58+00:00</time>
      </trkpt>
      <trkpt lat="49.90739" lon="6.09055">
        <ele>374</ele>
        <time>2026-08-26T14:07:01+00:00</time>
      </trkpt>
      <trkpt lat="49.90727" lon="6.09042">
        <ele>374</ele>
        <time>2026-08-26T14:07:04+00:00</time>
      </trkpt>
      <trkpt lat="49.90695" lon="6.09011">
        <ele>373</ele>
        <time>2026-08-26T14:07:07+00:00</time>
      </trkpt>
      <trkpt lat="49.90693" lon="6.0901">
        <ele>374</ele>
        <time>2026-08-26T14:07:10+00:00</time>
      </trkpt>
      <trkpt lat="49.9068" lon="6.09003">
        <ele>373</ele>
        <time>2026-08-26T14:07:13+00:00</time>
      </trkpt>
      <trkpt lat="49.90658" lon="6.08996">
        <ele>373</ele>
        <time>2026-08-26T14:07:16+00:00</time>
      </trkpt>
      <trkpt lat="49.90637" lon="6.08985">
        <ele>373</ele>
        <time>2026-08-26T14:07:19+00:00</time>
      </trkpt>
      <trkpt lat="49.90622" lon="6.08978">
        <ele>374</ele>
        <time>2026-08-26T14:07:22+00:00</time>
      </trkpt>
      <trkpt lat="49.90617" lon="6.08972">
        <ele>373</ele>
        <time>2026-08-26T14:07:25+00:00</time>
      </trkpt>
      <trkpt lat="49.90605" lon="6.08947">
        <ele>372</ele>
        <time>2026-08-26T14:07:28+00:00</time>
      </trkpt>
      <trkpt lat="49.90597" lon="6.08935">
        <ele>374</ele>
        <time>2026-08-26T14:07:31+00:00</time>
      </trkpt>
      <trkpt lat="49.90583" lon="6.0892">
        <ele>371</ele>
        <time>2026-08-26T14:07:34+00:00</time>
      </trkpt>
      <trkpt lat="49.90567" lon="6.08904">
        <ele>366</ele>
        <time>2026-08-26T14:07:37+00:00</time>
      </trkpt>
      <trkpt lat="49.90536" lon="6.08878">
        <ele>356</ele>
        <time>2026-08-26T14:07:40+00:00</time>
      </trkpt>
      <trkpt lat="49.9052" lon="6.08866">
        <ele>347</ele>
        <time>2026-08-26T14:07:43+00:00</time>
      </trkpt>
      <trkpt lat="49.90504" lon="6.08859">
        <ele>344</ele>
        <time>2026-08-26T14:07:46+00:00</time>
      </trkpt>
      <trkpt lat="49.90486" lon="6.08846">
        <ele>338</ele>
        <time>2026-08-26T14:07:49+00:00</time>
      </trkpt>
      <trkpt lat="49.9047" lon="6.08831">
        <ele>333</ele>
        <time>2026-08-26T14:07:52+00:00</time>
      </trkpt>
      <trkpt lat="49.90457" lon="6.08826">
        <ele>331</ele>
        <time>2026-08-26T14:07:55+00:00</time>
      </trkpt>
      <trkpt lat="49.90444" lon="6.08823">
        <ele>329</ele>
        <time>2026-08-26T14:07:58+00:00</time>
      </trkpt>
      <trkpt lat="49.90432" lon="6.08821">
        <ele>325</ele>
        <time>2026-08-26T14:08:01+00:00</time>
      </trkpt>
      <trkpt lat="49.90415" lon="6.08813">
        <ele>320</ele>
        <time>2026-08-26T14:08:04+00:00</time>
      </trkpt>
      <trkpt lat="49.90394" lon="6.08804">
        <ele>315</ele>
        <time>2026-08-26T14:08:07+00:00</time>
      </trkpt>
      <trkpt lat="49.90383" lon="6.08796">
        <ele>311</ele>
        <time>2026-08-26T14:08:10+00:00</time>
      </trkpt>
      <trkpt lat="49.90362" lon="6.08784">
        <ele>305</ele>
        <time>2026-08-26T14:08:13+00:00</time>
      </trkpt>
      <trkpt lat="49.9033" lon="6.08766">
        <ele>298</ele>
        <time>2026-08-26T14:08:16+00:00</time>
      </trkpt>
      <trkpt lat="49.903" lon="6.08761">
        <ele>295</ele>
        <time>2026-08-26T14:08:19+00:00</time>
      </trkpt>
      <trkpt lat="49.90271" lon="6.08757">
        <ele>290</ele>
        <time>2026-08-26T14:08:22+00:00</time>
      </trkpt>
      <trkpt lat="49.90237" lon="6.08752">
        <ele>287</ele>
        <time>2026-08-26T14:08:25+00:00</time>
      </trkpt>
      <trkpt lat="49.90207" lon="6.08751">
        <ele>284</ele>
        <time>2026-08-26T14:08:28+00:00</time>
      </trkpt>
      <trkpt lat="49.9019" lon="6.08747">
        <ele>282</ele>
        <time>2026-08-26T14:08:31+00:00</time>
      </trkpt>
      <trkpt lat="49.90166" lon="6.08741">
        <ele>280</ele>
        <time>2026-08-26T14:08:34+00:00</time>
      </trkpt>
      <trkpt lat="49.90151" lon="6.08746">
        <ele>279</ele>
        <time>2026-08-26T14:08:37+00:00</time>
      </trkpt>
      <trkpt lat="49.90142" lon="6.08752">
        <ele>277</ele>
        <time>2026-08-26T14:08:40+00:00</time>
      </trkpt>
      <trkpt lat="49.90124" lon="6.08773">
        <ele>274</ele>
        <time>2026-08-26T14:08:43+00:00</time>
      </trkpt>
      <trkpt lat="49.90105" lon="6.08796">
        <ele>271</ele>
        <time>2026-08-26T14:08:46+00:00</time>
      </trkpt>
      <trkpt lat="49.90094" lon="6.08819">
        <ele>271</ele>
        <time>2026-08-26T14:08:49+00:00</time>
      </trkpt>
      <trkpt lat="49.9009" lon="6.08833">
        <ele>269</ele>
        <time>2026-08-26T14:08:52+00:00</time>
      </trkpt>
      <trkpt lat="49.90088" lon="6.08837">
        <ele>269</ele>
        <time>2026-08-26T14:08:55+00:00</time>
      </trkpt>
      <trkpt lat="49.90084" lon="6.08837">
        <ele>269</ele>
        <time>2026-08-26T14:08:58+00:00</time>
      </trkpt>
      <trkpt lat="49.90082" lon="6.08833">
        <ele>269</ele>
        <time>2026-08-26T14:09:01+00:00</time>
      </trkpt>
      <trkpt lat="49.90082" lon="6.08819">
        <ele>268</ele>
        <time>2026-08-26T14:09:04+00:00</time>
      </trkpt>
      <trkpt lat="49.90088" lon="6.08791">
        <ele>267</ele>
        <time>2026-08-26T14:09:07+00:00</time>
      </trkpt>
      <trkpt lat="49.90096" lon="6.08758">
        <ele>264</ele>
        <time>2026-08-26T14:09:10+00:00</time>
      </trkpt>
      <trkpt lat="49.90107" lon="6.0872">
        <ele>261</ele>
        <time>2026-08-26T14:09:13+00:00</time>
      </trkpt>
      <trkpt lat="49.90094" lon="6.08738">
        <ele>260</ele>
        <time>2026-08-26T14:09:16+00:00</time>
      </trkpt>
      <trkpt lat="49.90067" lon="6.08756">
        <ele>251</ele>
        <time>2026-08-26T14:09:19+00:00</time>
      </trkpt>
      <trkpt lat="49.90052" lon="6.08772">
        <ele>249</ele>
        <time>2026-08-26T14:09:22+00:00</time>
      </trkpt>
      <trkpt lat="49.90025" lon="6.08819">
        <ele>241</ele>
        <time>2026-08-26T14:09:25+00:00</time>
      </trkpt>
      <trkpt lat="49.90014" lon="6.08846">
        <ele>240</ele>
        <time>2026-08-26T14:09:28+00:00</time>
      </trkpt>
      <trkpt lat="49.90006" lon="6.08856">
        <ele>238</ele>
        <time>2026-08-26T14:09:31+00:00</time>
      </trkpt>
      <trkpt lat="49.90001" lon="6.08863">
        <ele>238</ele>
        <time>2026-08-26T14:09:34+00:00</time>
      </trkpt>
      <trkpt lat="49.89999" lon="6.08866">
        <ele>235</ele>
        <time>2026-08-26T14:09:37+00:00</time>
      </trkpt>
      <trkpt lat="49.89997" lon="6.08875">
        <ele>235</ele>
        <time>2026-08-26T14:09:40+00:00</time>
      </trkpt>
      <trkpt lat="49.89998" lon="6.08885">
        <ele>235</ele>
        <time>2026-08-26T14:09:43+00:00</time>
      </trkpt>
      <trkpt lat="49.90006" lon="6.08912">
        <ele>233</ele>
        <time>2026-08-26T14:09:46+00:00</time>
      </trkpt>
      <trkpt lat="49.89982" lon="6.0891">
        <ele>231</ele>
        <time>2026-08-26T14:09:49+00:00</time>
      </trkpt>
      <trkpt lat="49.8996" lon="6.08901">
        <ele>227</ele>
        <time>2026-08-26T14:09:52+00:00</time>
      </trkpt>
      <trkpt lat="49.89937" lon="6.08895">
        <ele>225</ele>
        <time>2026-08-26T14:09:55+00:00</time>
      </trkpt>
      <trkpt lat="49.89932" lon="6.08894">
        <ele>225</ele>
        <time>2026-08-26T14:09:58+00:00</time>
      </trkpt>
      <trkpt lat="49.89929" lon="6.08912">
        <ele>224</ele>
        <time>2026-08-26T14:10:01+00:00</time>
      </trkpt>
      <trkpt lat="49.89921" lon="6.0893">
        <ele>225</ele>
        <time>2026-08-26T14:10:04+00:00</time>
      </trkpt>
      <trkpt lat="49.89897" lon="6.08959">
        <ele>223</ele>
        <time>2026-08-26T14:10:07+00:00</time>
      </trkpt>
      <trkpt lat="49.89867" lon="6.08998">
        <ele>222</ele>
        <time>2026-08-26T14:10:10+00:00</time>
      </trkpt>
      <trkpt lat="49.89849" lon="6.09019">
        <ele>223</ele>
        <time>2026-08-26T14:10:13+00:00</time>
      </trkpt>
      <trkpt lat="49.89831" lon="6.09041">
        <ele>223</ele>
        <time>2026-08-26T14:10:16+00:00</time>
      </trkpt>
      <trkpt lat="49.89822" lon="6.09054">
        <ele>223</ele>
        <time>2026-08-26T14:10:19+00:00</time>
      </trkpt>
      <trkpt lat="49.89805" lon="6.09073">
        <ele>223</ele>
        <time>2026-08-26T14:10:22+00:00</time>
      </trkpt>
      <trkpt lat="49.89781" lon="6.09101">
        <ele>224</ele>
        <time>2026-08-26T14:10:25+00:00</time>
      </trkpt>
      <trkpt lat="49.89783" lon="6.09105">
        <ele>224</ele>
        <time>2026-08-26T14:10:28+00:00</time>
      </trkpt>
      <trkpt lat="49.89784" lon="6.09108">
        <ele>224</ele>
        <time>2026-08-26T14:10:31+00:00</time>
      </trkpt>
      <trkpt lat="49.89776" lon="6.09128">
        <ele>225</ele>
        <time>2026-08-26T14:10:34+00:00</time>
      </trkpt>
      <trkpt lat="49.89782" lon="6.09149">
        <ele>226</ele>
        <time>2026-08-26T14:10:37+00:00</time>
      </trkpt>
      <trkpt lat="49.89787" lon="6.09158">
        <ele>227</ele>
        <time>2026-08-26T14:10:40+00:00</time>
      </trkpt>
      <trkpt lat="49.89787" lon="6.09169">
        <ele>228</ele>
        <time>2026-08-26T14:10:43+00:00</time>
      </trkpt>
      <trkpt lat="49.89795" lon="6.09187">
        <ele>229</ele>
        <time>2026-08-26T14:10:46+00:00</time>
      </trkpt>
      <trkpt lat="49.898" lon="6.09193">
        <ele>230</ele>
        <time>2026-08-26T14:10:49+00:00</time>
      </trkpt>
      <trkpt lat="49.89817" lon="6.09197">
        <ele>231</ele>
        <time>2026-08-26T14:10:52+00:00</time>
      </trkpt>
      <trkpt lat="49.89826" lon="6.09208">
        <ele>232</ele>
        <time>2026-08-26T14:10:55+00:00</time>
      </trkpt>
      <trkpt lat="49.89832" lon="6.09224">
        <ele>233</ele>
        <time>2026-08-26T14:10:58+00:00</time>
      </trkpt>
      <trkpt lat="49.89832" lon="6.0923">
        <ele>233</ele>
        <time>2026-08-26T14:11:01+00:00</time>
      </trkpt>
      <trkpt lat="49.8983" lon="6.09234">
        <ele>234</ele>
        <time>2026-08-26T14:11:04+00:00</time>
      </trkpt>
      <trkpt lat="49.89822" lon="6.09243">
        <ele>236</ele>
        <time>2026-08-26T14:11:07+00:00</time>
      </trkpt>
      <trkpt lat="49.89816" lon="6.09245">
        <ele>237</ele>
        <time>2026-08-26T14:11:10+00:00</time>
      </trkpt>
      <trkpt lat="49.8981" lon="6.09244">
        <ele>238</ele>
        <time>2026-08-26T14:11:13+00:00</time>
      </trkpt>
      <trkpt lat="49.89801" lon="6.09239">
        <ele>237</ele>
        <time>2026-08-26T14:11:16+00:00</time>
      </trkpt>
      <trkpt lat="49.89798" lon="6.09249">
        <ele>239</ele>
        <time>2026-08-26T14:11:19+00:00</time>
      </trkpt>
      <trkpt lat="49.89803" lon="6.09259">
        <ele>239</ele>
        <time>2026-08-26T14:11:22+00:00</time>
      </trkpt>
      <trkpt lat="49.89812" lon="6.09295">
        <ele>246</ele>
        <time>2026-08-26T14:11:25+00:00</time>
      </trkpt>
      <trkpt lat="49.89819" lon="6.09338">
        <ele>254</ele>
        <time>2026-08-26T14:11:28+00:00</time>
      </trkpt>
      <trkpt lat="49.89824" lon="6.0939">
        <ele>255</ele>
        <time>2026-08-26T14:11:31+00:00</time>
      </trkpt>
      <trkpt lat="49.8983" lon="6.09423">
        <ele>264</ele>
        <time>2026-08-26T14:11:34+00:00</time>
      </trkpt>
      <trkpt lat="49.89833" lon="6.09434">
        <ele>261</ele>
        <time>2026-08-26T14:11:37+00:00</time>
      </trkpt>
      <trkpt lat="49.89843" lon="6.09458">
        <ele>264</ele>
        <time>2026-08-26T14:11:40+00:00</time>
      </trkpt>
      <trkpt lat="49.89853" lon="6.09482">
        <ele>271</ele>
        <time>2026-08-26T14:11:43+00:00</time>
      </trkpt>
      <trkpt lat="49.89857" lon="6.09502">
        <ele>273</ele>
        <time>2026-08-26T14:11:46+00:00</time>
      </trkpt>
      <trkpt lat="49.89857" lon="6.09504">
        <ele>273</ele>
        <time>2026-08-26T14:11:49+00:00</time>
      </trkpt>
      <trkpt lat="49.89858" lon="6.09514">
        <ele>275</ele>
        <time>2026-08-26T14:11:52+00:00</time>
      </trkpt>
      <trkpt lat="49.89856" lon="6.09524">
        <ele>276</ele>
        <time>2026-08-26T14:11:55+00:00</time>
      </trkpt>
      <trkpt lat="49.8985" lon="6.09533">
        <ele>278</ele>
        <time>2026-08-26T14:11:58+00:00</time>
      </trkpt>
      <trkpt lat="49.89846" lon="6.0954">
        <ele>278</ele>
        <time>2026-08-26T14:12:01+00:00</time>
      </trkpt>
      <trkpt lat="49.89823" lon="6.09587">
        <ele>282</ele>
        <time>2026-08-26T14:12:04+00:00</time>
      </trkpt>
      <trkpt lat="49.89809" lon="6.0965">
        <ele>285</ele>
        <time>2026-08-26T14:12:07+00:00</time>
      </trkpt>
      <trkpt lat="49.89807" lon="6.0967">
        <ele>287</ele>
        <time>2026-08-26T14:12:10+00:00</time>
      </trkpt>
      <trkpt lat="49.89806" lon="6.09713">
        <ele>291</ele>
        <time>2026-08-26T14:12:13+00:00</time>
      </trkpt>
      <trkpt lat="49.89804" lon="6.09746">
        <ele>295</ele>
        <time>2026-08-26T14:12:16+00:00</time>
      </trkpt>
      <trkpt lat="49.89799" lon="6.09806">
        <ele>302</ele>
        <time>2026-08-26T14:12:19+00:00</time>
      </trkpt>
      <trkpt lat="49.8979" lon="6.09859">
        <ele>309</ele>
        <time>2026-08-26T14:12:22+00:00</time>
      </trkpt>
      <trkpt lat="49.89779" lon="6.09892">
        <ele>315</ele>
        <time>2026-08-26T14:12:25+00:00</time>
      </trkpt>
      <trkpt lat="49.89765" lon="6.09935">
        <ele>322</ele>
        <time>2026-08-26T14:12:28+00:00</time>
      </trkpt>
      <trkpt lat="49.89754" lon="6.09953">
        <ele>325</ele>
        <time>2026-08-26T14:12:31+00:00</time>
      </trkpt>
      <trkpt lat="49.89743" lon="6.09964">
        <ele>326</ele>
        <time>2026-08-26T14:12:34+00:00</time>
      </trkpt>
      <trkpt lat="49.89734" lon="6.09977">
        <ele>326</ele>
        <time>2026-08-26T14:12:37+00:00</time>
      </trkpt>
      <trkpt lat="49.89731" lon="6.09992">
        <ele>329</ele>
        <time>2026-08-26T14:12:40+00:00</time>
      </trkpt>
      <trkpt lat="49.89732" lon="6.10001">
        <ele>330</ele>
        <time>2026-08-26T14:12:43+00:00</time>
      </trkpt>
      <trkpt lat="49.89739" lon="6.10008">
        <ele>330</ele>
        <time>2026-08-26T14:12:46+00:00</time>
      </trkpt>
      <trkpt lat="49.89751" lon="6.10011">
        <ele>336</ele>
        <time>2026-08-26T14:12:49+00:00</time>
      </trkpt>
      <trkpt lat="49.89762" lon="6.1002">
        <ele>337</ele>
        <time>2026-08-26T14:12:52+00:00</time>
      </trkpt>
      <trkpt lat="49.89777" lon="6.10045">
        <ele>339</ele>
        <time>2026-08-26T14:12:55+00:00</time>
      </trkpt>
      <trkpt lat="49.89777" lon="6.10051">
        <ele>341</ele>
        <time>2026-08-26T14:12:58+00:00</time>
      </trkpt>
      <trkpt lat="49.89785" lon="6.10078">
        <ele>344</ele>
        <time>2026-08-26T14:13:01+00:00</time>
      </trkpt>
      <trkpt lat="49.89798" lon="6.10106">
        <ele>344</ele>
        <time>2026-08-26T14:13:04+00:00</time>
      </trkpt>
      <trkpt lat="49.89814" lon="6.10131">
        <ele>344</ele>
        <time>2026-08-26T14:13:07+00:00</time>
      </trkpt>
      <trkpt lat="49.89832" lon="6.1016">
        <ele>344</ele>
        <time>2026-08-26T14:13:10+00:00</time>
      </trkpt>
      <trkpt lat="49.89846" lon="6.10173">
        <ele>348</ele>
        <time>2026-08-26T14:13:13+00:00</time>
      </trkpt>
      <trkpt lat="49.89861" lon="6.10182">
        <ele>343</ele>
        <time>2026-08-26T14:13:16+00:00</time>
      </trkpt>
      <trkpt lat="49.89879" lon="6.10193">
        <ele>342</ele>
        <time>2026-08-26T14:13:19+00:00</time>
      </trkpt>
      <trkpt lat="49.89891" lon="6.10204">
        <ele>342</ele>
        <time>2026-08-26T14:13:22+00:00</time>
      </trkpt>
      <trkpt lat="49.89905" lon="6.10224">
        <ele>340</ele>
        <time>2026-08-26T14:13:25+00:00</time>
      </trkpt>
      <trkpt lat="49.89917" lon="6.10249">
        <ele>336</ele>
        <time>2026-08-26T14:13:28+00:00</time>
      </trkpt>
      <trkpt lat="49.89919" lon="6.10254">
        <ele>335</ele>
        <time>2026-08-26T14:13:31+00:00</time>
      </trkpt>
      <trkpt lat="49.89928" lon="6.10282">
        <ele>333</ele>
        <time>2026-08-26T14:13:34+00:00</time>
      </trkpt>
      <trkpt lat="49.89938" lon="6.10311">
        <ele>331</ele>
        <time>2026-08-26T14:13:37+00:00</time>
      </trkpt>
      <trkpt lat="49.89959" lon="6.10369">
        <ele>330</ele>
        <time>2026-08-26T14:13:40+00:00</time>
      </trkpt>
      <trkpt lat="49.89963" lon="6.10385">
        <ele>329</ele>
        <time>2026-08-26T14:13:43+00:00</time>
      </trkpt>
      <trkpt lat="49.89972" lon="6.1043">
        <ele>326</ele>
        <time>2026-08-26T14:13:46+00:00</time>
      </trkpt>
      <trkpt lat="49.8998" lon="6.10474">
        <ele>322</ele>
        <time>2026-08-26T14:13:49+00:00</time>
      </trkpt>
      <trkpt lat="49.89989" lon="6.10519">
        <ele>321</ele>
        <time>2026-08-26T14:13:52+00:00</time>
      </trkpt>
      <trkpt lat="49.89998" lon="6.10568">
        <ele>321</ele>
        <time>2026-08-26T14:13:55+00:00</time>
      </trkpt>
      <trkpt lat="49.89996" lon="6.10616">
        <ele>321</ele>
        <time>2026-08-26T14:13:58+00:00</time>
      </trkpt>
      <trkpt lat="49.89985" lon="6.10669">
        <ele>321</ele>
        <time>2026-08-26T14:14:01+00:00</time>
      </trkpt>
      <trkpt lat="49.89975" lon="6.10702">
        <ele>320</ele>
        <time>2026-08-26T14:14:04+00:00</time>
      </trkpt>
      <trkpt lat="49.89958" lon="6.10721">
        <ele>320</ele>
        <time>2026-08-26T14:14:07+00:00</time>
      </trkpt>
      <trkpt lat="49.89949" lon="6.10733">
        <ele>322</ele>
        <time>2026-08-26T14:14:10+00:00</time>
      </trkpt>
      <trkpt lat="49.89947" lon="6.10745">
        <ele>323</ele>
        <time>2026-08-26T14:14:13+00:00</time>
      </trkpt>
      <trkpt lat="49.89946" lon="6.10769">
        <ele>324</ele>
        <time>2026-08-26T14:14:16+00:00</time>
      </trkpt>
      <trkpt lat="49.89948" lon="6.10802">
        <ele>326</ele>
        <time>2026-08-26T14:14:19+00:00</time>
      </trkpt>
      <trkpt lat="49.89954" lon="6.10839">
        <ele>326</ele>
        <time>2026-08-26T14:14:22+00:00</time>
      </trkpt>
      <trkpt lat="49.8996" lon="6.10863">
        <ele>327</ele>
        <time>2026-08-26T14:14:25+00:00</time>
      </trkpt>
      <trkpt lat="49.89967" lon="6.10879">
        <ele>327</ele>
        <time>2026-08-26T14:14:28+00:00</time>
      </trkpt>
      <trkpt lat="49.89984" lon="6.10898">
        <ele>326</ele>
        <time>2026-08-26T14:14:31+00:00</time>
      </trkpt>
      <trkpt lat="49.89988" lon="6.10899">
        <ele>328</ele>
        <time>2026-08-26T14:14:34+00:00</time>
      </trkpt>
      <trkpt lat="49.90011" lon="6.1089">
        <ele>326</ele>
        <time>2026-08-26T14:14:37+00:00</time>
      </trkpt>
      <trkpt lat="49.90036" lon="6.10884">
        <ele>326</ele>
        <time>2026-08-26T14:14:40+00:00</time>
      </trkpt>
      <trkpt lat="49.90041" lon="6.10886">
        <ele>326</ele>
        <time>2026-08-26T14:14:43+00:00</time>
      </trkpt>
      <trkpt lat="49.90044" lon="6.1089">
        <ele>326</ele>
        <time>2026-08-26T14:14:46+00:00</time>
      </trkpt>
      <trkpt lat="49.90044" lon="6.10897">
        <ele>326</ele>
        <time>2026-08-26T14:14:49+00:00</time>
      </trkpt>
      <trkpt lat="49.90043" lon="6.10903">
        <ele>326</ele>
        <time>2026-08-26T14:14:52+00:00</time>
      </trkpt>
      <trkpt lat="49.90041" lon="6.10911">
        <ele>325</ele>
        <time>2026-08-26T14:14:55+00:00</time>
      </trkpt>
      <trkpt lat="49.90031" lon="6.10947">
        <ele>326</ele>
        <time>2026-08-26T14:14:58+00:00</time>
      </trkpt>
      <trkpt lat="49.90029" lon="6.10967">
        <ele>327</ele>
        <time>2026-08-26T14:15:01+00:00</time>
      </trkpt>
      <trkpt lat="49.90031" lon="6.10987">
        <ele>328</ele>
        <time>2026-08-26T14:15:04+00:00</time>
      </trkpt>
      <trkpt lat="49.90036" lon="6.11007">
        <ele>329</ele>
        <time>2026-08-26T14:15:07+00:00</time>
      </trkpt>
      <trkpt lat="49.90047" lon="6.11036">
        <ele>333</ele>
        <time>2026-08-26T14:15:10+00:00</time>
      </trkpt>
      <trkpt lat="49.90022" lon="6.11033">
        <ele>333</ele>
        <time>2026-08-26T14:15:13+00:00</time>
      </trkpt>
      <trkpt lat="49.89987" lon="6.11028">
        <ele>333</ele>
        <time>2026-08-26T14:15:16+00:00</time>
      </trkpt>
      <trkpt lat="49.89955" lon="6.11021">
        <ele>333</ele>
        <time>2026-08-26T14:15:19+00:00</time>
      </trkpt>
      <trkpt lat="49.89945" lon="6.11013">
        <ele>337</ele>
        <time>2026-08-26T14:15:22+00:00</time>
      </trkpt>
      <trkpt lat="49.8994" lon="6.11013">
        <ele>337</ele>
        <time>2026-08-26T14:15:25+00:00</time>
      </trkpt>
      <trkpt lat="49.89921" lon="6.11006">
        <ele>334</ele>
        <time>2026-08-26T14:15:28+00:00</time>
      </trkpt>
      <trkpt lat="49.89919" lon="6.11005">
        <ele>332</ele>
        <time>2026-08-26T14:15:31+00:00</time>
      </trkpt>
      <trkpt lat="49.89918" lon="6.11006">
        <ele>332</ele>
        <time>2026-08-26T14:15:34+00:00</time>
      </trkpt>
      <trkpt lat="49.8992" lon="6.11013">
        <ele>333</ele>
        <time>2026-08-26T14:15:37+00:00</time>
      </trkpt>
      <trkpt lat="49.89927" lon="6.1102">
        <ele>336</ele>
        <time>2026-08-26T14:15:40+00:00</time>
      </trkpt>
      <trkpt lat="49.89937" lon="6.11037">
        <ele>340</ele>
        <time>2026-08-26T14:15:43+00:00</time>
      </trkpt>
      <trkpt lat="49.89948" lon="6.11055">
        <ele>343</ele>
        <time>2026-08-26T14:15:46+00:00</time>
      </trkpt>
      <trkpt lat="49.89956" lon="6.11065">
        <ele>344</ele>
        <time>2026-08-26T14:15:49+00:00</time>
      </trkpt>
      <trkpt lat="49.89967" lon="6.11089">
        <ele>347</ele>
        <time>2026-08-26T14:15:52+00:00</time>
      </trkpt>
      <trkpt lat="49.89972" lon="6.11106">
        <ele>352</ele>
        <time>2026-08-26T14:15:55+00:00</time>
      </trkpt>
      <trkpt lat="49.89985" lon="6.11132">
        <ele>358</ele>
        <time>2026-08-26T14:15:58+00:00</time>
      </trkpt>
      <trkpt lat="49.89989" lon="6.11146">
        <ele>361</ele>
        <time>2026-08-26T14:16:01+00:00</time>
      </trkpt>
      <trkpt lat="49.89999" lon="6.11171">
        <ele>366</ele>
        <time>2026-08-26T14:16:04+00:00</time>
      </trkpt>
      <trkpt lat="49.90011" lon="6.11201">
        <ele>371</ele>
        <time>2026-08-26T14:16:07+00:00</time>
      </trkpt>
      <trkpt lat="49.9002" lon="6.11232">
        <ele>376</ele>
        <time>2026-08-26T14:16:10+00:00</time>
      </trkpt>
      <trkpt lat="49.9003" lon="6.11263">
        <ele>381</ele>
        <time>2026-08-26T14:16:13+00:00</time>
      </trkpt>
      <trkpt lat="49.90043" lon="6.11284">
        <ele>384</ele>
        <time>2026-08-26T14:16:16+00:00</time>
      </trkpt>
      <trkpt lat="49.90046" lon="6.11293">
        <ele>386</ele>
        <time>2026-08-26T14:16:19+00:00</time>
      </trkpt>
      <trkpt lat="49.90046" lon="6.11302">
        <ele>388</ele>
        <time>2026-08-26T14:16:22+00:00</time>
      </trkpt>
      <trkpt lat="49.90042" lon="6.11311">
        <ele>389</ele>
        <time>2026-08-26T14:16:25+00:00</time>
      </trkpt>
      <trkpt lat="49.90042" lon="6.11327">
        <ele>390</ele>
        <time>2026-08-26T14:16:28+00:00</time>
      </trkpt>
      <trkpt lat="49.90049" lon="6.11349">
        <ele>390</ele>
        <time>2026-08-26T14:16:31+00:00</time>
      </trkpt>
      <trkpt lat="49.90063" lon="6.11365">
        <ele>391</ele>
        <time>2026-08-26T14:16:34+00:00</time>
      </trkpt>
      <trkpt lat="49.90086" lon="6.11373">
        <ele>388</ele>
        <time>2026-08-26T14:16:37+00:00</time>
      </trkpt>
      <trkpt lat="49.90095" lon="6.11383">
        <ele>389</ele>
        <time>2026-08-26T14:16:40+00:00</time>
      </trkpt>
      <trkpt lat="49.90121" lon="6.11394">
        <ele>388</ele>
        <time>2026-08-26T14:16:43+00:00</time>
      </trkpt>
      <trkpt lat="49.90145" lon="6.11404">
        <ele>389</ele>
        <time>2026-08-26T14:16:46+00:00</time>
      </trkpt>
      <trkpt lat="49.90163" lon="6.11424">
        <ele>389</ele>
        <time>2026-08-26T14:16:49+00:00</time>
      </trkpt>
      <trkpt lat="49.90182" lon="6.11445">
        <ele>393</ele>
        <time>2026-08-26T14:16:52+00:00</time>
      </trkpt>
      <trkpt lat="49.90203" lon="6.11471">
        <ele>395</ele>
        <time>2026-08-26T14:16:55+00:00</time>
      </trkpt>
      <trkpt lat="49.90226" lon="6.11499">
        <ele>400</ele>
        <time>2026-08-26T14:16:58+00:00</time>
      </trkpt>
      <trkpt lat="49.90249" lon="6.11528">
        <ele>404</ele>
        <time>2026-08-26T14:17:01+00:00</time>
      </trkpt>
      <trkpt lat="49.90273" lon="6.11558">
        <ele>409</ele>
        <time>2026-08-26T14:17:04+00:00</time>
      </trkpt>
      <trkpt lat="49.90281" lon="6.11562">
        <ele>411</ele>
        <time>2026-08-26T14:17:07+00:00</time>
      </trkpt>
      <trkpt lat="49.9029" lon="6.11562">
        <ele>411</ele>
        <time>2026-08-26T14:17:10+00:00</time>
      </trkpt>
      <trkpt lat="49.90313" lon="6.11555">
        <ele>416</ele>
        <time>2026-08-26T14:17:13+00:00</time>
      </trkpt>
      <trkpt lat="49.90341" lon="6.11546">
        <ele>419</ele>
        <time>2026-08-26T14:17:16+00:00</time>
      </trkpt>
      <trkpt lat="49.90345" lon="6.11596">
        <ele>419</ele>
        <time>2026-08-26T14:17:19+00:00</time>
      </trkpt>
      <trkpt lat="49.90349" lon="6.11647">
        <ele>419</ele>
        <time>2026-08-26T14:17:22+00:00</time>
      </trkpt>
      <trkpt lat="49.90353" lon="6.11697">
        <ele>419</ele>
        <time>2026-08-26T14:17:25+00:00</time>
      </trkpt>
      <trkpt lat="49.90358" lon="6.11753">
        <ele>419</ele>
        <time>2026-08-26T14:17:28+00:00</time>
      </trkpt>
      <trkpt lat="49.90362" lon="6.11799">
        <ele>419</ele>
        <time>2026-08-26T14:17:31+00:00</time>
      </trkpt>
      <trkpt lat="49.90366" lon="6.11841">
        <ele>417</ele>
        <time>2026-08-26T14:17:34+00:00</time>
      </trkpt>
      <trkpt lat="49.90373" lon="6.11915">
        <ele>417</ele>
        <time>2026-08-26T14:17:37+00:00</time>
      </trkpt>
      <trkpt lat="49.90373" lon="6.11951">
        <ele>417</ele>
        <time>2026-08-26T14:17:40+00:00</time>
      </trkpt>
      <trkpt lat="49.90359" lon="6.11985">
        <ele>414</ele>
        <time>2026-08-26T14:17:43+00:00</time>
      </trkpt>
      <trkpt lat="49.90337" lon="6.12038">
        <ele>411</ele>
        <time>2026-08-26T14:17:46+00:00</time>
      </trkpt>
      <trkpt lat="49.90325" lon="6.12075">
        <ele>409</ele>
        <time>2026-08-26T14:17:49+00:00</time>
      </trkpt>
      <trkpt lat="49.90316" lon="6.12111">
        <ele>408</ele>
        <time>2026-08-26T14:17:52+00:00</time>
      </trkpt>
      <trkpt lat="49.90308" lon="6.12165">
        <ele>407</ele>
        <time>2026-08-26T14:17:55+00:00</time>
      </trkpt>
      <trkpt lat="49.90293" lon="6.1218">
        <ele>406</ele>
        <time>2026-08-26T14:17:58+00:00</time>
      </trkpt>
      <trkpt lat="49.90263" lon="6.12198">
        <ele>404</ele>
        <time>2026-08-26T14:18:01+00:00</time>
      </trkpt>
      <trkpt lat="49.90243" lon="6.12221">
        <ele>404</ele>
        <time>2026-08-26T14:18:04+00:00</time>
      </trkpt>
      <trkpt lat="49.90228" lon="6.12241">
        <ele>405</ele>
        <time>2026-08-26T14:18:07+00:00</time>
      </trkpt>
      <trkpt lat="49.90209" lon="6.12263">
        <ele>405</ele>
        <time>2026-08-26T14:18:10+00:00</time>
      </trkpt>
      <trkpt lat="49.90188" lon="6.12288">
        <ele>406</ele>
        <time>2026-08-26T14:18:13+00:00</time>
      </trkpt>
      <trkpt lat="49.90187" lon="6.1229">
        <ele>406</ele>
        <time>2026-08-26T14:18:16+00:00</time>
      </trkpt>
      <trkpt lat="49.90172" lon="6.12315">
        <ele>408</ele>
        <time>2026-08-26T14:18:19+00:00</time>
      </trkpt>
      <trkpt lat="49.90156" lon="6.12342">
        <ele>410</ele>
        <time>2026-08-26T14:18:22+00:00</time>
      </trkpt>
      <trkpt lat="49.90137" lon="6.12385">
        <ele>412</ele>
        <time>2026-08-26T14:18:25+00:00</time>
      </trkpt>
      <trkpt lat="49.90119" lon="6.12423">
        <ele>413</ele>
        <time>2026-08-26T14:18:28+00:00</time>
      </trkpt>
      <trkpt lat="49.90101" lon="6.12462">
        <ele>414</ele>
        <time>2026-08-26T14:18:31+00:00</time>
      </trkpt>
      <trkpt lat="49.90077" lon="6.12514">
        <ele>416</ele>
        <time>2026-08-26T14:18:34+00:00</time>
      </trkpt>
      <trkpt lat="49.90054" lon="6.12557">
        <ele>416</ele>
        <time>2026-08-26T14:18:37+00:00</time>
      </trkpt>
      <trkpt lat="49.90032" lon="6.12606">
        <ele>414</ele>
        <time>2026-08-26T14:18:40+00:00</time>
      </trkpt>
      <trkpt lat="49.90024" lon="6.12642">
        <ele>414</ele>
        <time>2026-08-26T14:18:43+00:00</time>
      </trkpt>
      <trkpt lat="49.90021" lon="6.12678">
        <ele>413</ele>
        <time>2026-08-26T14:18:46+00:00</time>
      </trkpt>
      <trkpt lat="49.90012" lon="6.12709">
        <ele>411</ele>
        <time>2026-08-26T14:18:49+00:00</time>
      </trkpt>
      <trkpt lat="49.90004" lon="6.12752">
        <ele>406</ele>
        <time>2026-08-26T14:18:52+00:00</time>
      </trkpt>
      <trkpt lat="49.90002" lon="6.1277">
        <ele>406</ele>
        <time>2026-08-26T14:18:55+00:00</time>
      </trkpt>
      <trkpt lat="49.89999" lon="6.12808">
        <ele>402</ele>
        <time>2026-08-26T14:18:58+00:00</time>
      </trkpt>
      <trkpt lat="49.89997" lon="6.12842">
        <ele>401</ele>
        <time>2026-08-26T14:19:01+00:00</time>
      </trkpt>
      <trkpt lat="49.89996" lon="6.12876">
        <ele>400</ele>
        <time>2026-08-26T14:19:04+00:00</time>
      </trkpt>
      <trkpt lat="49.89999" lon="6.12908">
        <ele>398</ele>
        <time>2026-08-26T14:19:07+00:00</time>
      </trkpt>
      <trkpt lat="49.90007" lon="6.1295">
        <ele>397</ele>
        <time>2026-08-26T14:19:10+00:00</time>
      </trkpt>
      <trkpt lat="49.90009" lon="6.12976">
        <ele>395</ele>
        <time>2026-08-26T14:19:13+00:00</time>
      </trkpt>
      <trkpt lat="49.90008" lon="6.13001">
        <ele>394</ele>
        <time>2026-08-26T14:19:16+00:00</time>
      </trkpt>
      <trkpt lat="49.90007" lon="6.13032">
        <ele>394</ele>
        <time>2026-08-26T14:19:19+00:00</time>
      </trkpt>
      <trkpt lat="49.9001" lon="6.13049">
        <ele>390</ele>
        <time>2026-08-26T14:19:22+00:00</time>
      </trkpt>
      <trkpt lat="49.90023" lon="6.13043">
        <ele>394</ele>
        <time>2026-08-26T14:19:25+00:00</time>
      </trkpt>
      <trkpt lat="49.90036" lon="6.13043">
        <ele>395</ele>
        <time>2026-08-26T14:19:28+00:00</time>
      </trkpt>
      <trkpt lat="49.90044" lon="6.13049">
        <ele>394</ele>
        <time>2026-08-26T14:19:31+00:00</time>
      </trkpt>
      <trkpt lat="49.90051" lon="6.13059">
        <ele>396</ele>
        <time>2026-08-26T14:19:34+00:00</time>
      </trkpt>
      <trkpt lat="49.90056" lon="6.13072">
        <ele>394</ele>
        <time>2026-08-26T14:19:37+00:00</time>
      </trkpt>
      <trkpt lat="49.90056" lon="6.1308">
        <ele>394</ele>
        <time>2026-08-26T14:19:40+00:00</time>
      </trkpt>
      <trkpt lat="49.90063" lon="6.13096">
        <ele>395</ele>
        <time>2026-08-26T14:19:43+00:00</time>
      </trkpt>
      <trkpt lat="49.90075" lon="6.13123">
        <ele>395</ele>
        <time>2026-08-26T14:19:46+00:00</time>
      </trkpt>
      <trkpt lat="49.9009" lon="6.13139">
        <ele>395</ele>
        <time>2026-08-26T14:19:49+00:00</time>
      </trkpt>
      <trkpt lat="49.90102" lon="6.13149">
        <ele>395</ele>
        <time>2026-08-26T14:19:52+00:00</time>
      </trkpt>
      <trkpt lat="49.90128" lon="6.1316">
        <ele>395</ele>
        <time>2026-08-26T14:19:55+00:00</time>
      </trkpt>
      <trkpt lat="49.90154" lon="6.1317">
        <ele>395</ele>
        <time>2026-08-26T14:19:58+00:00</time>
      </trkpt>
      <trkpt lat="49.90191" lon="6.13186">
        <ele>399</ele>
        <time>2026-08-26T14:20:01+00:00</time>
      </trkpt>
      <trkpt lat="49.90203" lon="6.13188">
        <ele>399</ele>
        <time>2026-08-26T14:20:04+00:00</time>
      </trkpt>
      <trkpt lat="49.90224" lon="6.13182">
        <ele>400</ele>
        <time>2026-08-26T14:20:07+00:00</time>
      </trkpt>
      <trkpt lat="49.90242" lon="6.13167">
        <ele>400</ele>
        <time>2026-08-26T14:20:10+00:00</time>
      </trkpt>
      <trkpt lat="49.90252" lon="6.13153">
        <ele>400</ele>
        <time>2026-08-26T14:20:13+00:00</time>
      </trkpt>
      <trkpt lat="49.90261" lon="6.13133">
        <ele>400</ele>
        <time>2026-08-26T14:20:16+00:00</time>
      </trkpt>
      <trkpt lat="49.90267" lon="6.13124">
        <ele>400</ele>
        <time>2026-08-26T14:20:19+00:00</time>
      </trkpt>
      <trkpt lat="49.90274" lon="6.13121">
        <ele>399</ele>
        <time>2026-08-26T14:20:22+00:00</time>
      </trkpt>
      <trkpt lat="49.90284" lon="6.1313">
        <ele>398</ele>
        <time>2026-08-26T14:20:25+00:00</time>
      </trkpt>
      <trkpt lat="49.90303" lon="6.13162">
        <ele>397</ele>
        <time>2026-08-26T14:20:28+00:00</time>
      </trkpt>
      <trkpt lat="49.90336" lon="6.1322">
        <ele>397</ele>
        <time>2026-08-26T14:20:31+00:00</time>
      </trkpt>
      <trkpt lat="49.90363" lon="6.13266">
        <ele>394</ele>
        <time>2026-08-26T14:20:34+00:00</time>
      </trkpt>
      <trkpt lat="49.90381" lon="6.13293">
        <ele>392</ele>
        <time>2026-08-26T14:20:37+00:00</time>
      </trkpt>
      <trkpt lat="49.90405" lon="6.1333">
        <ele>391</ele>
        <time>2026-08-26T14:20:40+00:00</time>
      </trkpt>
      <trkpt lat="49.90419" lon="6.13347">
        <ele>391</ele>
        <time>2026-08-26T14:20:43+00:00</time>
      </trkpt>
      <trkpt lat="49.90433" lon="6.1336">
        <ele>391</ele>
        <time>2026-08-26T14:20:46+00:00</time>
      </trkpt>
      <trkpt lat="49.9046" lon="6.13373">
        <ele>390</ele>
        <time>2026-08-26T14:20:49+00:00</time>
      </trkpt>
      <trkpt lat="49.90487" lon="6.13386">
        <ele>388</ele>
        <time>2026-08-26T14:20:52+00:00</time>
      </trkpt>
      <trkpt lat="49.90538" lon="6.13411">
        <ele>387</ele>
        <time>2026-08-26T14:20:55+00:00</time>
      </trkpt>
      <trkpt lat="49.90574" lon="6.13439">
        <ele>386</ele>
        <time>2026-08-26T14:20:58+00:00</time>
      </trkpt>
      <trkpt lat="49.90594" lon="6.13457">
        <ele>386</ele>
        <time>2026-08-26T14:21:01+00:00</time>
      </trkpt>
      <trkpt lat="49.90616" lon="6.13478">
        <ele>385</ele>
        <time>2026-08-26T14:21:04+00:00</time>
      </trkpt>
      <trkpt lat="49.90628" lon="6.13488">
        <ele>385</ele>
        <time>2026-08-26T14:21:07+00:00</time>
      </trkpt>
      <trkpt lat="49.90644" lon="6.13493">
        <ele>384</ele>
        <time>2026-08-26T14:21:10+00:00</time>
      </trkpt>
      <trkpt lat="49.90651" lon="6.13504">
        <ele>383</ele>
        <time>2026-08-26T14:21:13+00:00</time>
      </trkpt>
      <trkpt lat="49.90662" lon="6.13515">
        <ele>384</ele>
        <time>2026-08-26T14:21:16+00:00</time>
      </trkpt>
      <trkpt lat="49.90682" lon="6.1353">
        <ele>383</ele>
        <time>2026-08-26T14:21:19+00:00</time>
      </trkpt>
      <trkpt lat="49.90703" lon="6.13546">
        <ele>383</ele>
        <time>2026-08-26T14:21:22+00:00</time>
      </trkpt>
      <trkpt lat="49.90735" lon="6.13568">
        <ele>382</ele>
        <time>2026-08-26T14:21:25+00:00</time>
      </trkpt>
      <trkpt lat="49.90757" lon="6.13586">
        <ele>382</ele>
        <time>2026-08-26T14:21:28+00:00</time>
      </trkpt>
      <trkpt lat="49.90787" lon="6.1361">
        <ele>381</ele>
        <time>2026-08-26T14:21:31+00:00</time>
      </trkpt>
      <trkpt lat="49.90804" lon="6.13629">
        <ele>380</ele>
        <time>2026-08-26T14:21:34+00:00</time>
      </trkpt>
      <trkpt lat="49.90833" lon="6.13672">
        <ele>375</ele>
        <time>2026-08-26T14:21:37+00:00</time>
      </trkpt>
      <trkpt lat="49.90835" lon="6.13675">
        <ele>375</ele>
        <time>2026-08-26T14:21:40+00:00</time>
      </trkpt>
      <trkpt lat="49.90843" lon="6.13678">
        <ele>373</ele>
        <time>2026-08-26T14:21:43+00:00</time>
      </trkpt>
      <trkpt lat="49.90862" lon="6.13676">
        <ele>369</ele>
        <time>2026-08-26T14:21:46+00:00</time>
      </trkpt>
      <trkpt lat="49.90876" lon="6.13678">
        <ele>367</ele>
        <time>2026-08-26T14:21:49+00:00</time>
      </trkpt>
      <trkpt lat="49.90902" lon="6.13687">
        <ele>359</ele>
        <time>2026-08-26T14:21:52+00:00</time>
      </trkpt>
      <trkpt lat="49.90923" lon="6.13706">
        <ele>352</ele>
        <time>2026-08-26T14:21:55+00:00</time>
      </trkpt>
      <trkpt lat="49.90952" lon="6.13731">
        <ele>341</ele>
        <time>2026-08-26T14:21:58+00:00</time>
      </trkpt>
      <trkpt lat="49.90965" lon="6.1374">
        <ele>339</ele>
        <time>2026-08-26T14:22:01+00:00</time>
      </trkpt>
      <trkpt lat="49.90985" lon="6.13749">
        <ele>333</ele>
        <time>2026-08-26T14:22:04+00:00</time>
      </trkpt>
      <trkpt lat="49.91016" lon="6.13762">
        <ele>323</ele>
        <time>2026-08-26T14:22:07+00:00</time>
      </trkpt>
      <trkpt lat="49.91058" lon="6.13776">
        <ele>323</ele>
        <time>2026-08-26T14:22:10+00:00</time>
      </trkpt>
      <trkpt lat="49.91064" lon="6.13776">
        <ele>323</ele>
        <time>2026-08-26T14:22:13+00:00</time>
      </trkpt>
      <trkpt lat="49.91069" lon="6.13773">
        <ele>323</ele>
        <time>2026-08-26T14:22:16+00:00</time>
      </trkpt>
      <trkpt lat="49.91077" lon="6.13761">
        <ele>322</ele>
        <time>2026-08-26T14:22:19+00:00</time>
      </trkpt>
      <trkpt lat="49.91079" lon="6.13758">
        <ele>323</ele>
        <time>2026-08-26T14:22:22+00:00</time>
      </trkpt>
      <trkpt lat="49.9108" lon="6.13758">
        <ele>323</ele>
        <time>2026-08-26T14:22:25+00:00</time>
      </trkpt>
      <trkpt lat="49.91095" lon="6.13736">
        <ele>315</ele>
        <time>2026-08-26T14:22:28+00:00</time>
      </trkpt>
      <trkpt lat="49.91102" lon="6.13722">
        <ele>307</ele>
        <time>2026-08-26T14:22:31+00:00</time>
      </trkpt>
      <trkpt lat="49.91106" lon="6.13724">
        <ele>307</ele>
        <time>2026-08-26T14:22:34+00:00</time>
      </trkpt>
      <trkpt lat="49.91108" lon="6.1373">
        <ele>307</ele>
        <time>2026-08-26T14:22:37+00:00</time>
      </trkpt>
      <trkpt lat="49.91112" lon="6.13747">
        <ele>298</ele>
        <time>2026-08-26T14:22:40+00:00</time>
      </trkpt>
      <trkpt lat="49.91114" lon="6.13749">
        <ele>298</ele>
        <time>2026-08-26T14:22:43+00:00</time>
      </trkpt>
      <trkpt lat="49.91116" lon="6.13747">
        <ele>298</ele>
        <time>2026-08-26T14:22:46+00:00</time>
      </trkpt>
      <trkpt lat="49.91129" lon="6.13717">
        <ele>291</ele>
        <time>2026-08-26T14:22:49+00:00</time>
      </trkpt>
      <trkpt lat="49.91131" lon="6.13706">
        <ele>276</ele>
        <time>2026-08-26T14:22:52+00:00</time>
      </trkpt>
      <trkpt lat="49.91132" lon="6.13695">
        <ele>276</ele>
        <time>2026-08-26T14:22:55+00:00</time>
      </trkpt>
      <trkpt lat="49.91135" lon="6.13687">
        <ele>275</ele>
        <time>2026-08-26T14:22:58+00:00</time>
      </trkpt>
      <trkpt lat="49.91135" lon="6.13672">
        <ele>274</ele>
        <time>2026-08-26T14:23:01+00:00</time>
      </trkpt>
      <trkpt lat="49.91137" lon="6.13675">
        <ele>274</ele>
        <time>2026-08-26T14:23:04+00:00</time>
      </trkpt>
      <trkpt lat="49.91144" lon="6.13669">
        <ele>266</ele>
        <time>2026-08-26T14:23:07+00:00</time>
      </trkpt>
      <trkpt lat="49.91158" lon="6.13654">
        <ele>266</ele>
        <time>2026-08-26T14:23:10+00:00</time>
      </trkpt>
      <trkpt lat="49.91169" lon="6.13676">
        <ele>266</ele>
        <time>2026-08-26T14:23:13+00:00</time>
      </trkpt>
      <trkpt lat="49.91173" lon="6.13688">
        <ele>266</ele>
        <time>2026-08-26T14:23:16+00:00</time>
      </trkpt>
      <trkpt lat="49.91181" lon="6.13684">
        <ele>268</ele>
        <time>2026-08-26T14:23:19+00:00</time>
      </trkpt>
      <trkpt lat="49.91191" lon="6.13706">
        <ele>270</ele>
        <time>2026-08-26T14:23:22+00:00</time>
      </trkpt>
      <trkpt lat="49.91192" lon="6.13709">
        <ele>270</ele>
        <time>2026-08-26T14:23:25+00:00</time>
      </trkpt>
      <trkpt lat="49.9119" lon="6.13711">
        <ele>268</ele>
        <time>2026-08-26T14:23:28+00:00</time>
      </trkpt>
      <trkpt lat="49.91196" lon="6.13723">
        <ele>270</ele>
        <time>2026-08-26T14:23:31+00:00</time>
      </trkpt>
      <trkpt lat="49.91196" lon="6.13729">
        <ele>270</ele>
        <time>2026-08-26T14:23:34+00:00</time>
      </trkpt>
      <trkpt lat="49.91199" lon="6.13735">
        <ele>271</ele>
        <time>2026-08-26T14:23:37+00:00</time>
      </trkpt>
      <trkpt lat="49.912" lon="6.13735">
        <ele>271</ele>
        <time>2026-08-26T14:23:40+00:00</time>
      </trkpt>
      <trkpt lat="49.912" lon="6.13733">
        <ele>271</ele>
        <time>2026-08-26T14:23:43+00:00</time>
      </trkpt>
      <trkpt lat="49.91202" lon="6.13734">
        <ele>276</ele>
        <time>2026-08-26T14:23:46+00:00</time>
      </trkpt>
      <trkpt lat="49.91202" lon="6.13732">
        <ele>276</ele>
        <time>2026-08-26T14:23:49+00:00</time>
      </trkpt>
      <trkpt lat="49.91205" lon="6.13731">
        <ele>276</ele>
        <time>2026-08-26T14:23:52+00:00</time>
      </trkpt>
      <trkpt lat="49.91207" lon="6.1372">
        <ele>273</ele>
        <time>2026-08-26T14:23:55+00:00</time>
      </trkpt>
      <trkpt lat="49.91209" lon="6.13719">
        <ele>273</ele>
        <time>2026-08-26T14:23:58+00:00</time>
      </trkpt>
      <trkpt lat="49.91211" lon="6.13721">
        <ele>283</ele>
        <time>2026-08-26T14:24:01+00:00</time>
      </trkpt>
      <trkpt lat="49.91212" lon="6.13739">
        <ele>285</ele>
        <time>2026-08-26T14:24:04+00:00</time>
      </trkpt>
      <trkpt lat="49.91213" lon="6.13741">
        <ele>287</ele>
        <time>2026-08-26T14:24:07+00:00</time>
      </trkpt>
      <trkpt lat="49.91215" lon="6.1374">
        <ele>285</ele>
        <time>2026-08-26T14:24:10+00:00</time>
      </trkpt>
      <trkpt lat="49.91219" lon="6.13722">
        <ele>283</ele>
        <time>2026-08-26T14:24:13+00:00</time>
      </trkpt>
      <trkpt lat="49.91223" lon="6.13723">
        <ele>290</ele>
        <time>2026-08-26T14:24:16+00:00</time>
      </trkpt>
      <trkpt lat="49.91227" lon="6.13746">
        <ele>296</ele>
        <time>2026-08-26T14:24:19+00:00</time>
      </trkpt>
      <trkpt lat="49.91232" lon="6.13757">
        <ele>303</ele>
        <time>2026-08-26T14:24:22+00:00</time>
      </trkpt>
      <trkpt lat="49.91232" lon="6.13765">
        <ele>305</ele>
        <time>2026-08-26T14:24:25+00:00</time>
      </trkpt>
      <trkpt lat="49.91236" lon="6.13773">
        <ele>307</ele>
        <time>2026-08-26T14:24:28+00:00</time>
      </trkpt>
      <trkpt lat="49.91236" lon="6.13773">
        <ele>307</ele>
        <time>2026-08-26T14:24:31+00:00</time>
      </trkpt>
      <trkpt lat="49.91236" lon="6.13773">
        <ele>307</ele>
        <time>2026-08-26T14:24:34+00:00</time>
      </trkpt>
      <trkpt lat="49.91232" lon="6.13803">
        <ele>298</ele>
        <time>2026-08-26T14:24:37+00:00</time>
      </trkpt>
      <trkpt lat="49.91227" lon="6.13844">
        <ele>294</ele>
        <time>2026-08-26T14:24:40+00:00</time>
      </trkpt>
      <trkpt lat="49.91225" lon="6.13845">
        <ele>294</ele>
        <time>2026-08-26T14:24:43+00:00</time>
      </trkpt>
      <trkpt lat="49.91219" lon="6.1383">
        <ele>293</ele>
        <time>2026-08-26T14:24:46+00:00</time>
      </trkpt>
      <trkpt lat="49.91217" lon="6.1383">
        <ele>293</ele>
        <time>2026-08-26T14:24:49+00:00</time>
      </trkpt>
      <trkpt lat="49.9121" lon="6.13856">
        <ele>284</ele>
        <time>2026-08-26T14:24:52+00:00</time>
      </trkpt>
      <trkpt lat="49.912" lon="6.13865">
        <ele>279</ele>
        <time>2026-08-26T14:24:55+00:00</time>
      </trkpt>
      <trkpt lat="49.91198" lon="6.13874">
        <ele>279</ele>
        <time>2026-08-26T14:24:58+00:00</time>
      </trkpt>
      <trkpt lat="49.91196" lon="6.13868">
        <ele>279</ele>
        <time>2026-08-26T14:25:01+00:00</time>
      </trkpt>
      <trkpt lat="49.91191" lon="6.13873">
        <ele>279</ele>
        <time>2026-08-26T14:25:04+00:00</time>
      </trkpt>
      <trkpt lat="49.91186" lon="6.13884">
        <ele>276</ele>
        <time>2026-08-26T14:25:07+00:00</time>
      </trkpt>
      <trkpt lat="49.91184" lon="6.13885">
        <ele>276</ele>
        <time>2026-08-26T14:25:10+00:00</time>
      </trkpt>
      <trkpt lat="49.91175" lon="6.13904">
        <ele>273</ele>
        <time>2026-08-26T14:25:13+00:00</time>
      </trkpt>
      <trkpt lat="49.91172" lon="6.13906">
        <ele>273</ele>
        <time>2026-08-26T14:25:16+00:00</time>
      </trkpt>
      <trkpt lat="49.91168" lon="6.13911">
        <ele>271</ele>
        <time>2026-08-26T14:25:19+00:00</time>
      </trkpt>
      <trkpt lat="49.91171" lon="6.1391">
        <ele>273</ele>
        <time>2026-08-26T14:25:22+00:00</time>
      </trkpt>
      <trkpt lat="49.91166" lon="6.13918">
        <ele>271</ele>
        <time>2026-08-26T14:25:25+00:00</time>
      </trkpt>
      <trkpt lat="49.91164" lon="6.1392">
        <ele>271</ele>
        <time>2026-08-26T14:25:28+00:00</time>
      </trkpt>
      <trkpt lat="49.91153" lon="6.13928">
        <ele>269</ele>
        <time>2026-08-26T14:25:31+00:00</time>
      </trkpt>
      <trkpt lat="49.91153" lon="6.13931">
        <ele>269</ele>
        <time>2026-08-26T14:25:34+00:00</time>
      </trkpt>
      <trkpt lat="49.91157" lon="6.13929">
        <ele>270</ele>
        <time>2026-08-26T14:25:37+00:00</time>
      </trkpt>
      <trkpt lat="49.91163" lon="6.1393">
        <ele>270</ele>
        <time>2026-08-26T14:25:40+00:00</time>
      </trkpt>
      <trkpt lat="49.91163" lon="6.13933">
        <ele>270</ele>
        <time>2026-08-26T14:25:43+00:00</time>
      </trkpt>
      <trkpt lat="49.9116" lon="6.13934">
        <ele>269</ele>
        <time>2026-08-26T14:25:46+00:00</time>
      </trkpt>
      <trkpt lat="49.91161" lon="6.13937">
        <ele>270</ele>
        <time>2026-08-26T14:25:49+00:00</time>
      </trkpt>
      <trkpt lat="49.91163" lon="6.13936">
        <ele>270</ele>
        <time>2026-08-26T14:25:52+00:00</time>
      </trkpt>
      <trkpt lat="49.91162" lon="6.1394">
        <ele>270</ele>
        <time>2026-08-26T14:25:55+00:00</time>
      </trkpt>
      <trkpt lat="49.91163" lon="6.13945">
        <ele>269</ele>
        <time>2026-08-26T14:25:58+00:00</time>
      </trkpt>
      <trkpt lat="49.91164" lon="6.13951">
        <ele>267</ele>
        <time>2026-08-26T14:26:01+00:00</time>
      </trkpt>
      <trkpt lat="49.91196" lon="6.13929">
        <ele>274</ele>
        <time>2026-08-26T14:26:04+00:00</time>
      </trkpt>
      <trkpt lat="49.91215" lon="6.1392">
        <ele>275</ele>
        <time>2026-08-26T14:26:07+00:00</time>
      </trkpt>
      <trkpt lat="49.91241" lon="6.13908">
        <ele>275</ele>
        <time>2026-08-26T14:26:10+00:00</time>
      </trkpt>
      <trkpt lat="49.91284" lon="6.13889">
        <ele>278</ele>
        <time>2026-08-26T14:26:13+00:00</time>
      </trkpt>
      <trkpt lat="49.91306" lon="6.13872">
        <ele>281</ele>
        <time>2026-08-26T14:26:16+00:00</time>
      </trkpt>
      <trkpt lat="49.91336" lon="6.1385">
        <ele>289</ele>
        <time>2026-08-26T14:26:19+00:00</time>
      </trkpt>
      <trkpt lat="49.91359" lon="6.13837">
        <ele>289</ele>
        <time>2026-08-26T14:26:22+00:00</time>
      </trkpt>
      <trkpt lat="49.91389" lon="6.1382">
        <ele>289</ele>
        <time>2026-08-26T14:26:25+00:00</time>
      </trkpt>
      <trkpt lat="49.91395" lon="6.13832">
        <ele>281</ele>
        <time>2026-08-26T14:26:28+00:00</time>
      </trkpt>
      <trkpt lat="49.91395" lon="6.13831">
        <ele>281</ele>
        <time>2026-08-26T14:26:31+00:00</time>
      </trkpt>
      <trkpt lat="49.91395" lon="6.13832">
        <ele>281</ele>
        <time>2026-08-26T14:26:34+00:00</time>
      </trkpt>
      <trkpt lat="49.91408" lon="6.13853">
        <ele>285</ele>
        <time>2026-08-26T14:26:37+00:00</time>
      </trkpt>
      <trkpt lat="49.91413" lon="6.13859">
        <ele>285</ele>
        <time>2026-08-26T14:26:40+00:00</time>
      </trkpt>
      <trkpt lat="49.91419" lon="6.1386">
        <ele>285</ele>
        <time>2026-08-26T14:26:43+00:00</time>
      </trkpt>
      <trkpt lat="49.91439" lon="6.13856">
        <ele>285</ele>
        <time>2026-08-26T14:26:46+00:00</time>
      </trkpt>
      <trkpt lat="49.91466" lon="6.1385">
        <ele>286</ele>
        <time>2026-08-26T14:26:49+00:00</time>
      </trkpt>
      <trkpt lat="49.91489" lon="6.13841">
        <ele>286</ele>
        <time>2026-08-26T14:26:52+00:00</time>
      </trkpt>
      <trkpt lat="49.91517" lon="6.1383">
        <ele>287</ele>
        <time>2026-08-26T14:26:55+00:00</time>
      </trkpt>
      <trkpt lat="49.91548" lon="6.1382">
        <ele>302</ele>
        <time>2026-08-26T14:26:58+00:00</time>
      </trkpt>
      <trkpt lat="49.91559" lon="6.13819">
        <ele>305</ele>
        <time>2026-08-26T14:27:01+00:00</time>
      </trkpt>
      <trkpt lat="49.91588" lon="6.13822">
        <ele>313</ele>
        <time>2026-08-26T14:27:04+00:00</time>
      </trkpt>
      <trkpt lat="49.91616" lon="6.13824">
        <ele>310</ele>
        <time>2026-08-26T14:27:07+00:00</time>
      </trkpt>
      <trkpt lat="49.91665" lon="6.13829">
        <ele>315</ele>
        <time>2026-08-26T14:27:10+00:00</time>
      </trkpt>
      <trkpt lat="49.91673" lon="6.13832">
        <ele>313</ele>
        <time>2026-08-26T14:27:13+00:00</time>
      </trkpt>
      <trkpt lat="49.91694" lon="6.13849">
        <ele>320</ele>
        <time>2026-08-26T14:27:16+00:00</time>
      </trkpt>
      <trkpt lat="49.91701" lon="6.1385">
        <ele>321</ele>
        <time>2026-08-26T14:27:19+00:00</time>
      </trkpt>
      <trkpt lat="49.91725" lon="6.13847">
        <ele>324</ele>
        <time>2026-08-26T14:27:22+00:00</time>
      </trkpt>
      <trkpt lat="49.91765" lon="6.13842">
        <ele>325</ele>
        <time>2026-08-26T14:27:25+00:00</time>
      </trkpt>
      <trkpt lat="49.91796" lon="6.13851">
        <ele>325</ele>
        <time>2026-08-26T14:27:28+00:00</time>
      </trkpt>
      <trkpt lat="49.91816" lon="6.1385">
        <ele>325</ele>
        <time>2026-08-26T14:27:31+00:00</time>
      </trkpt>
      <trkpt lat="49.91818" lon="6.13853">
        <ele>326</ele>
        <time>2026-08-26T14:27:34+00:00</time>
      </trkpt>
      <trkpt lat="49.91816" lon="6.13858">
        <ele>326</ele>
        <time>2026-08-26T14:27:37+00:00</time>
      </trkpt>
      <trkpt lat="49.9181" lon="6.13861">
        <ele>328</ele>
        <time>2026-08-26T14:27:40+00:00</time>
      </trkpt>
      <trkpt lat="49.91789" lon="6.13863">
        <ele>328</ele>
        <time>2026-08-26T14:27:43+00:00</time>
      </trkpt>
      <trkpt lat="49.91759" lon="6.13866">
        <ele>332</ele>
        <time>2026-08-26T14:27:46+00:00</time>
      </trkpt>
      <trkpt lat="49.91721" lon="6.13887">
        <ele>334</ele>
        <time>2026-08-26T14:27:49+00:00</time>
      </trkpt>
      <trkpt lat="49.91713" lon="6.13895">
        <ele>337</ele>
        <time>2026-08-26T14:27:52+00:00</time>
      </trkpt>
      <trkpt lat="49.91704" lon="6.1391">
        <ele>342</ele>
        <time>2026-08-26T14:27:55+00:00</time>
      </trkpt>
      <trkpt lat="49.91698" lon="6.1392">
        <ele>346</ele>
        <time>2026-08-26T14:27:58+00:00</time>
      </trkpt>
      <trkpt lat="49.91687" lon="6.13927">
        <ele>343</ele>
        <time>2026-08-26T14:28:01+00:00</time>
      </trkpt>
      <trkpt lat="49.91674" lon="6.13924">
        <ele>351</ele>
        <time>2026-08-26T14:28:04+00:00</time>
      </trkpt>
      <trkpt lat="49.91652" lon="6.13908">
        <ele>344</ele>
        <time>2026-08-26T14:28:07+00:00</time>
      </trkpt>
      <trkpt lat="49.91634" lon="6.13905">
        <ele>344</ele>
        <time>2026-08-26T14:28:10+00:00</time>
      </trkpt>
      <trkpt lat="49.91624" lon="6.13907">
        <ele>341</ele>
        <time>2026-08-26T14:28:13+00:00</time>
      </trkpt>
      <trkpt lat="49.91609" lon="6.13919">
        <ele>342</ele>
        <time>2026-08-26T14:28:16+00:00</time>
      </trkpt>
      <trkpt lat="49.91578" lon="6.13937">
        <ele>346</ele>
        <time>2026-08-26T14:28:19+00:00</time>
      </trkpt>
      <trkpt lat="49.9155" lon="6.13961">
        <ele>347</ele>
        <time>2026-08-26T14:28:22+00:00</time>
      </trkpt>
      <trkpt lat="49.91532" lon="6.13968">
        <ele>349</ele>
        <time>2026-08-26T14:28:25+00:00</time>
      </trkpt>
      <trkpt lat="49.91516" lon="6.13981">
        <ele>348</ele>
        <time>2026-08-26T14:28:28+00:00</time>
      </trkpt>
      <trkpt lat="49.91508" lon="6.13987">
        <ele>345</ele>
        <time>2026-08-26T14:28:31+00:00</time>
      </trkpt>
      <trkpt lat="49.91489" lon="6.14008">
        <ele>348</ele>
        <time>2026-08-26T14:28:34+00:00</time>
      </trkpt>
      <trkpt lat="49.91459" lon="6.14041">
        <ele>352</ele>
        <time>2026-08-26T14:28:37+00:00</time>
      </trkpt>
      <trkpt lat="49.91427" lon="6.14082">
        <ele>359</ele>
        <time>2026-08-26T14:28:40+00:00</time>
      </trkpt>
      <trkpt lat="49.91408" lon="6.14098">
        <ele>360</ele>
        <time>2026-08-26T14:28:43+00:00</time>
      </trkpt>
      <trkpt lat="49.91408" lon="6.14108">
        <ele>360</ele>
        <time>2026-08-26T14:28:46+00:00</time>
      </trkpt>
      <trkpt lat="49.91413" lon="6.14114">
        <ele>361</ele>
        <time>2026-08-26T14:28:49+00:00</time>
      </trkpt>
      <trkpt lat="49.91416" lon="6.14115">
        <ele>361</ele>
        <time>2026-08-26T14:28:52+00:00</time>
      </trkpt>
      <trkpt lat="49.91431" lon="6.14101">
        <ele>363</ele>
        <time>2026-08-26T14:28:55+00:00</time>
      </trkpt>
      <trkpt lat="49.91452" lon="6.14084">
        <ele>365</ele>
        <time>2026-08-26T14:28:58+00:00</time>
      </trkpt>
      <trkpt lat="49.91473" lon="6.14071">
        <ele>367</ele>
        <time>2026-08-26T14:29:01+00:00</time>
      </trkpt>
      <trkpt lat="49.91497" lon="6.14057">
        <ele>369</ele>
        <time>2026-08-26T14:29:04+00:00</time>
      </trkpt>
      <trkpt lat="49.91529" lon="6.14041">
        <ele>380</ele>
        <time>2026-08-26T14:29:07+00:00</time>
      </trkpt>
      <trkpt lat="49.91535" lon="6.14039">
        <ele>382</ele>
        <time>2026-08-26T14:29:10+00:00</time>
      </trkpt>
      <trkpt lat="49.91558" lon="6.14037">
        <ele>388</ele>
        <time>2026-08-26T14:29:13+00:00</time>
      </trkpt>
      <trkpt lat="49.9159" lon="6.14035">
        <ele>392</ele>
        <time>2026-08-26T14:29:16+00:00</time>
      </trkpt>
      <trkpt lat="49.91605" lon="6.14037">
        <ele>393</ele>
        <time>2026-08-26T14:29:19+00:00</time>
      </trkpt>
      <trkpt lat="49.91619" lon="6.14047">
        <ele>393</ele>
        <time>2026-08-26T14:29:22+00:00</time>
      </trkpt>
      <trkpt lat="49.9163" lon="6.14059">
        <ele>394</ele>
        <time>2026-08-26T14:29:25+00:00</time>
      </trkpt>
      <trkpt lat="49.91642" lon="6.14076">
        <ele>394</ele>
        <time>2026-08-26T14:29:28+00:00</time>
      </trkpt>
      <trkpt lat="49.91656" lon="6.14095">
        <ele>394</ele>
        <time>2026-08-26T14:29:31+00:00</time>
      </trkpt>
      <trkpt lat="49.91675" lon="6.14115">
        <ele>394</ele>
        <time>2026-08-26T14:29:34+00:00</time>
      </trkpt>
      <trkpt lat="49.91685" lon="6.14123">
        <ele>393</ele>
        <time>2026-08-26T14:29:37+00:00</time>
      </trkpt>
      <trkpt lat="49.91709" lon="6.14129">
        <ele>395</ele>
        <time>2026-08-26T14:29:40+00:00</time>
      </trkpt>
      <trkpt lat="49.91721" lon="6.14125">
        <ele>397</ele>
        <time>2026-08-26T14:29:43+00:00</time>
      </trkpt>
      <trkpt lat="49.91737" lon="6.14115">
        <ele>399</ele>
        <time>2026-08-26T14:29:46+00:00</time>
      </trkpt>
      <trkpt lat="49.91738" lon="6.14113">
        <ele>399</ele>
        <time>2026-08-26T14:29:49+00:00</time>
      </trkpt>
      <trkpt lat="49.91753" lon="6.1409">
        <ele>404</ele>
        <time>2026-08-26T14:29:52+00:00</time>
      </trkpt>
      <trkpt lat="49.91768" lon="6.14067">
        <ele>405</ele>
        <time>2026-08-26T14:29:55+00:00</time>
      </trkpt>
      <trkpt lat="49.91777" lon="6.14061">
        <ele>406</ele>
        <time>2026-08-26T14:29:58+00:00</time>
      </trkpt>
      <trkpt lat="49.91801" lon="6.14056">
        <ele>407</ele>
        <time>2026-08-26T14:30:01+00:00</time>
      </trkpt>
      <trkpt lat="49.91841" lon="6.14047">
        <ele>410</ele>
        <time>2026-08-26T14:30:04+00:00</time>
      </trkpt>
      <trkpt lat="49.91853" lon="6.14046">
        <ele>410</ele>
        <time>2026-08-26T14:30:07+00:00</time>
      </trkpt>
      <trkpt lat="49.91861" lon="6.1405">
        <ele>410</ele>
        <time>2026-08-26T14:30:10+00:00</time>
      </trkpt>
      <trkpt lat="49.91873" lon="6.14061">
        <ele>411</ele>
        <time>2026-08-26T14:30:13+00:00</time>
      </trkpt>
      <trkpt lat="49.91875" lon="6.14065">
        <ele>411</ele>
        <time>2026-08-26T14:30:16+00:00</time>
      </trkpt>
      <trkpt lat="49.91873" lon="6.1407">
        <ele>411</ele>
        <time>2026-08-26T14:30:19+00:00</time>
      </trkpt>
      <trkpt lat="49.91857" lon="6.14064">
        <ele>413</ele>
        <time>2026-08-26T14:30:22+00:00</time>
      </trkpt>
      <trkpt lat="49.91851" lon="6.14064">
        <ele>413</ele>
        <time>2026-08-26T14:30:25+00:00</time>
      </trkpt>
      <trkpt lat="49.9184" lon="6.14074">
        <ele>415</ele>
        <time>2026-08-26T14:30:28+00:00</time>
      </trkpt>
      <trkpt lat="49.91835" lon="6.14084">
        <ele>415</ele>
        <time>2026-08-26T14:30:31+00:00</time>
      </trkpt>
      <trkpt lat="49.91833" lon="6.14093">
        <ele>416</ele>
        <time>2026-08-26T14:30:34+00:00</time>
      </trkpt>
      <trkpt lat="49.9183" lon="6.14123">
        <ele>415</ele>
        <time>2026-08-26T14:30:37+00:00</time>
      </trkpt>
      <trkpt lat="49.91833" lon="6.14129">
        <ele>417</ele>
        <time>2026-08-26T14:30:40+00:00</time>
      </trkpt>
      <trkpt lat="49.91837" lon="6.14128">
        <ele>417</ele>
        <time>2026-08-26T14:30:43+00:00</time>
      </trkpt>
      <trkpt lat="49.91851" lon="6.14108">
        <ele>419</ele>
        <time>2026-08-26T14:30:46+00:00</time>
      </trkpt>
      <trkpt lat="49.9186" lon="6.14109">
        <ele>419</ele>
        <time>2026-08-26T14:30:49+00:00</time>
      </trkpt>
      <trkpt lat="49.9187" lon="6.14126">
        <ele>421</ele>
        <time>2026-08-26T14:30:52+00:00</time>
      </trkpt>
      <trkpt lat="49.91873" lon="6.14162">
        <ele>425</ele>
        <time>2026-08-26T14:30:55+00:00</time>
      </trkpt>
      <trkpt lat="49.91876" lon="6.14204">
        <ele>427</ele>
        <time>2026-08-26T14:30:58+00:00</time>
      </trkpt>
      <trkpt lat="49.91877" lon="6.14209">
        <ele>427</ele>
        <time>2026-08-26T14:31:01+00:00</time>
      </trkpt>
      <trkpt lat="49.91883" lon="6.14244">
        <ele>430</ele>
        <time>2026-08-26T14:31:04+00:00</time>
      </trkpt>
      <trkpt lat="49.91898" lon="6.14291">
        <ele>433</ele>
        <time>2026-08-26T14:31:07+00:00</time>
      </trkpt>
      <trkpt lat="49.91909" lon="6.14346">
        <ele>433</ele>
        <time>2026-08-26T14:31:10+00:00</time>
      </trkpt>
      <trkpt lat="49.91919" lon="6.14374">
        <ele>434</ele>
        <time>2026-08-26T14:31:13+00:00</time>
      </trkpt>
      <trkpt lat="49.91927" lon="6.14405">
        <ele>435</ele>
        <time>2026-08-26T14:31:16+00:00</time>
      </trkpt>
      <trkpt lat="49.91935" lon="6.14446">
        <ele>436</ele>
        <time>2026-08-26T14:31:19+00:00</time>
      </trkpt>
      <trkpt lat="49.91948" lon="6.14517">
        <ele>437</ele>
        <time>2026-08-26T14:31:22+00:00</time>
      </trkpt>
      <trkpt lat="49.91951" lon="6.1456">
        <ele>438</ele>
        <time>2026-08-26T14:31:25+00:00</time>
      </trkpt>
      <trkpt lat="49.91952" lon="6.14588">
        <ele>439</ele>
        <time>2026-08-26T14:31:28+00:00</time>
      </trkpt>
      <trkpt lat="49.91954" lon="6.14621">
        <ele>439</ele>
        <time>2026-08-26T14:31:31+00:00</time>
      </trkpt>
      <trkpt lat="49.9196" lon="6.14658">
        <ele>439</ele>
        <time>2026-08-26T14:31:34+00:00</time>
      </trkpt>
      <trkpt lat="49.91967" lon="6.14707">
        <ele>439</ele>
        <time>2026-08-26T14:31:37+00:00</time>
      </trkpt>
      <trkpt lat="49.91969" lon="6.14734">
        <ele>440</ele>
        <time>2026-08-26T14:31:40+00:00</time>
      </trkpt>
      <trkpt lat="49.9197" lon="6.14781">
        <ele>441</ele>
        <time>2026-08-26T14:31:43+00:00</time>
      </trkpt>
      <trkpt lat="49.9197" lon="6.14828">
        <ele>442</ele>
        <time>2026-08-26T14:31:46+00:00</time>
      </trkpt>
      <trkpt lat="49.91971" lon="6.14888">
        <ele>442</ele>
        <time>2026-08-26T14:31:49+00:00</time>
      </trkpt>
      <trkpt lat="49.91969" lon="6.14913">
        <ele>441</ele>
        <time>2026-08-26T14:31:52+00:00</time>
      </trkpt>
      <trkpt lat="49.91962" lon="6.14923">
        <ele>441</ele>
        <time>2026-08-26T14:31:55+00:00</time>
      </trkpt>
      <trkpt lat="49.91938" lon="6.14927">
        <ele>438</ele>
        <time>2026-08-26T14:31:58+00:00</time>
      </trkpt>
      <trkpt lat="49.91909" lon="6.14933">
        <ele>434</ele>
        <time>2026-08-26T14:32:01+00:00</time>
      </trkpt>
      <trkpt lat="49.91875" lon="6.14951">
        <ele>429</ele>
        <time>2026-08-26T14:32:04+00:00</time>
      </trkpt>
      <trkpt lat="49.91848" lon="6.14959">
        <ele>423</ele>
        <time>2026-08-26T14:32:07+00:00</time>
      </trkpt>
      <trkpt lat="49.91798" lon="6.14974">
        <ele>415</ele>
        <time>2026-08-26T14:32:10+00:00</time>
      </trkpt>
      <trkpt lat="49.91781" lon="6.14974">
        <ele>415</ele>
        <time>2026-08-26T14:32:13+00:00</time>
      </trkpt>
      <trkpt lat="49.91767" lon="6.14969">
        <ele>415</ele>
        <time>2026-08-26T14:32:16+00:00</time>
      </trkpt>
      <trkpt lat="49.91763" lon="6.14965">
        <ele>414</ele>
        <time>2026-08-26T14:32:19+00:00</time>
      </trkpt>
      <trkpt lat="49.91753" lon="6.14985">
        <ele>416</ele>
        <time>2026-08-26T14:32:22+00:00</time>
      </trkpt>
      <trkpt lat="49.91752" lon="6.15">
        <ele>416</ele>
        <time>2026-08-26T14:32:25+00:00</time>
      </trkpt>
      <trkpt lat="49.91759" lon="6.15043">
        <ele>419</ele>
        <time>2026-08-26T14:32:28+00:00</time>
      </trkpt>
      <trkpt lat="49.91765" lon="6.15086">
        <ele>420</ele>
        <time>2026-08-26T14:32:31+00:00</time>
      </trkpt>
      <trkpt lat="49.91776" lon="6.15155">
        <ele>422</ele>
        <time>2026-08-26T14:32:34+00:00</time>
      </trkpt>
      <trkpt lat="49.91777" lon="6.15217">
        <ele>423</ele>
        <time>2026-08-26T14:32:37+00:00</time>
      </trkpt>
      <trkpt lat="49.91781" lon="6.1525">
        <ele>424</ele>
        <time>2026-08-26T14:32:40+00:00</time>
      </trkpt>
      <trkpt lat="49.91785" lon="6.15284">
        <ele>424</ele>
        <time>2026-08-26T14:32:43+00:00</time>
      </trkpt>
      <trkpt lat="49.91785" lon="6.15284">
        <ele>424</ele>
        <time>2026-08-26T14:32:46+00:00</time>
      </trkpt>
      <trkpt lat="49.91785" lon="6.15291">
        <ele>424</ele>
        <time>2026-08-26T14:32:49+00:00</time>
      </trkpt>
      <trkpt lat="49.91802" lon="6.15297">
        <ele>425</ele>
        <time>2026-08-26T14:32:52+00:00</time>
      </trkpt>
      <trkpt lat="49.91807" lon="6.15321">
        <ele>425</ele>
        <time>2026-08-26T14:32:55+00:00</time>
      </trkpt>
      <trkpt lat="49.91815" lon="6.15344">
        <ele>425</ele>
        <time>2026-08-26T14:32:58+00:00</time>
      </trkpt>
      <trkpt lat="49.91824" lon="6.15372">
        <ele>425</ele>
        <time>2026-08-26T14:33:01+00:00</time>
      </trkpt>
      <trkpt lat="49.91834" lon="6.15396">
        <ele>425</ele>
        <time>2026-08-26T14:33:04+00:00</time>
      </trkpt>
      <trkpt lat="49.9185" lon="6.15429">
        <ele>426</ele>
        <time>2026-08-26T14:33:07+00:00</time>
      </trkpt>
      <trkpt lat="49.91877" lon="6.15484">
        <ele>426</ele>
        <time>2026-08-26T14:33:10+00:00</time>
      </trkpt>
      <trkpt lat="49.91894" lon="6.15516">
        <ele>427</ele>
        <time>2026-08-26T14:33:13+00:00</time>
      </trkpt>
      <trkpt lat="49.91923" lon="6.15569">
        <ele>428</ele>
        <time>2026-08-26T14:33:16+00:00</time>
      </trkpt>
      <trkpt lat="49.91939" lon="6.15604">
        <ele>428</ele>
        <time>2026-08-26T14:33:19+00:00</time>
      </trkpt>
      <trkpt lat="49.91954" lon="6.15639">
        <ele>427</ele>
        <time>2026-08-26T14:33:22+00:00</time>
      </trkpt>
      <trkpt lat="49.91954" lon="6.15647">
        <ele>429</ele>
        <time>2026-08-26T14:33:25+00:00</time>
      </trkpt>
      <trkpt lat="49.91951" lon="6.15653">
        <ele>428</ele>
        <time>2026-08-26T14:33:28+00:00</time>
      </trkpt>
      <trkpt lat="49.91935" lon="6.15667">
        <ele>426</ele>
        <time>2026-08-26T14:33:31+00:00</time>
      </trkpt>
      <trkpt lat="49.91918" lon="6.15684">
        <ele>422</ele>
        <time>2026-08-26T14:33:34+00:00</time>
      </trkpt>
      <trkpt lat="49.91916" lon="6.15688">
        <ele>422</ele>
        <time>2026-08-26T14:33:37+00:00</time>
      </trkpt>
      <trkpt lat="49.91916" lon="6.15693">
        <ele>422</ele>
        <time>2026-08-26T14:33:40+00:00</time>
      </trkpt>
      <trkpt lat="49.91936" lon="6.15727">
        <ele>422</ele>
        <time>2026-08-26T14:33:43+00:00</time>
      </trkpt>
      <trkpt lat="49.91956" lon="6.1576">
        <ele>422</ele>
        <time>2026-08-26T14:33:46+00:00</time>
      </trkpt>
      <trkpt lat="49.91987" lon="6.15813">
        <ele>422</ele>
        <time>2026-08-26T14:33:49+00:00</time>
      </trkpt>
      <trkpt lat="49.92005" lon="6.15832">
        <ele>422</ele>
        <time>2026-08-26T14:33:52+00:00</time>
      </trkpt>
      <trkpt lat="49.92042" lon="6.15862">
        <ele>423</ele>
        <time>2026-08-26T14:33:55+00:00</time>
      </trkpt>
      <trkpt lat="49.92062" lon="6.15874">
        <ele>423</ele>
        <time>2026-08-26T14:33:58+00:00</time>
      </trkpt>
      <trkpt lat="49.92083" lon="6.15887">
        <ele>423</ele>
        <time>2026-08-26T14:34:01+00:00</time>
      </trkpt>
      <trkpt lat="49.92119" lon="6.15906">
        <ele>422</ele>
        <time>2026-08-26T14:34:04+00:00</time>
      </trkpt>
      <trkpt lat="49.921" lon="6.15927">
        <ele>422</ele>
        <time>2026-08-26T14:34:07+00:00</time>
      </trkpt>
      <trkpt lat="49.92078" lon="6.15951">
        <ele>418</ele>
        <time>2026-08-26T14:34:10+00:00</time>
      </trkpt>
      <trkpt lat="49.9205" lon="6.15993">
        <ele>412</ele>
        <time>2026-08-26T14:34:13+00:00</time>
      </trkpt>
      <trkpt lat="49.92032" lon="6.16017">
        <ele>410</ele>
        <time>2026-08-26T14:34:16+00:00</time>
      </trkpt>
      <trkpt lat="49.92011" lon="6.16045">
        <ele>406</ele>
        <time>2026-08-26T14:34:19+00:00</time>
      </trkpt>
      <trkpt lat="49.92" lon="6.16057">
        <ele>404</ele>
        <time>2026-08-26T14:34:22+00:00</time>
      </trkpt>
      <trkpt lat="49.91981" lon="6.16072">
        <ele>401</ele>
        <time>2026-08-26T14:34:25+00:00</time>
      </trkpt>
      <trkpt lat="49.91949" lon="6.16097">
        <ele>395</ele>
        <time>2026-08-26T14:34:28+00:00</time>
      </trkpt>
      <trkpt lat="49.91935" lon="6.16111">
        <ele>391</ele>
        <time>2026-08-26T14:34:31+00:00</time>
      </trkpt>
      <trkpt lat="49.91926" lon="6.16143">
        <ele>386</ele>
        <time>2026-08-26T14:34:34+00:00</time>
      </trkpt>
      <trkpt lat="49.91908" lon="6.16203">
        <ele>377</ele>
        <time>2026-08-26T14:34:37+00:00</time>
      </trkpt>
      <trkpt lat="49.91896" lon="6.16234">
        <ele>374</ele>
        <time>2026-08-26T14:34:40+00:00</time>
      </trkpt>
      <trkpt lat="49.91882" lon="6.1627">
        <ele>370</ele>
        <time>2026-08-26T14:34:43+00:00</time>
      </trkpt>
      <trkpt lat="49.91871" lon="6.163">
        <ele>368</ele>
        <time>2026-08-26T14:34:46+00:00</time>
      </trkpt>
      <trkpt lat="49.91859" lon="6.16331">
        <ele>367</ele>
        <time>2026-08-26T14:34:49+00:00</time>
      </trkpt>
      <trkpt lat="49.91885" lon="6.1636">
        <ele>366</ele>
        <time>2026-08-26T14:34:52+00:00</time>
      </trkpt>
      <trkpt lat="49.91911" lon="6.16388">
        <ele>362</ele>
        <time>2026-08-26T14:34:55+00:00</time>
      </trkpt>
      <trkpt lat="49.91956" lon="6.16439">
        <ele>362</ele>
        <time>2026-08-26T14:34:58+00:00</time>
      </trkpt>
      <trkpt lat="49.91959" lon="6.16439">
        <ele>362</ele>
        <time>2026-08-26T14:35:01+00:00</time>
      </trkpt>
      <trkpt lat="49.91961" lon="6.16433">
        <ele>363</ele>
        <time>2026-08-26T14:35:04+00:00</time>
      </trkpt>
      <trkpt lat="49.91962" lon="6.16419">
        <ele>364</ele>
        <time>2026-08-26T14:35:07+00:00</time>
      </trkpt>
      <trkpt lat="49.91956" lon="6.16396">
        <ele>363</ele>
        <time>2026-08-26T14:35:10+00:00</time>
      </trkpt>
      <trkpt lat="49.91954" lon="6.16378">
        <ele>364</ele>
        <time>2026-08-26T14:35:13+00:00</time>
      </trkpt>
      <trkpt lat="49.91956" lon="6.16356">
        <ele>365</ele>
        <time>2026-08-26T14:35:16+00:00</time>
      </trkpt>
      <trkpt lat="49.91965" lon="6.16332">
        <ele>367</ele>
        <time>2026-08-26T14:35:19+00:00</time>
      </trkpt>
      <trkpt lat="49.91976" lon="6.16313">
        <ele>370</ele>
        <time>2026-08-26T14:35:22+00:00</time>
      </trkpt>
      <trkpt lat="49.91985" lon="6.16299">
        <ele>373</ele>
        <time>2026-08-26T14:35:25+00:00</time>
      </trkpt>
      <trkpt lat="49.91993" lon="6.16286">
        <ele>372</ele>
        <time>2026-08-26T14:35:28+00:00</time>
      </trkpt>
      <trkpt lat="49.92002" lon="6.1628">
        <ele>372</ele>
        <time>2026-08-26T14:35:31+00:00</time>
      </trkpt>
      <trkpt lat="49.92014" lon="6.16276">
        <ele>374</ele>
        <time>2026-08-26T14:35:34+00:00</time>
      </trkpt>
      <trkpt lat="49.92018" lon="6.16278">
        <ele>374</ele>
        <time>2026-08-26T14:35:37+00:00</time>
      </trkpt>
      <trkpt lat="49.92017" lon="6.16283">
        <ele>372</ele>
        <time>2026-08-26T14:35:40+00:00</time>
      </trkpt>
      <trkpt lat="49.92005" lon="6.16297">
        <ele>369</ele>
        <time>2026-08-26T14:35:43+00:00</time>
      </trkpt>
      <trkpt lat="49.91997" lon="6.16313">
        <ele>371</ele>
        <time>2026-08-26T14:35:46+00:00</time>
      </trkpt>
      <trkpt lat="49.91991" lon="6.16333">
        <ele>368</ele>
        <time>2026-08-26T14:35:49+00:00</time>
      </trkpt>
      <trkpt lat="49.91989" lon="6.1635">
        <ele>367</ele>
        <time>2026-08-26T14:35:52+00:00</time>
      </trkpt>
      <trkpt lat="49.91991" lon="6.16365">
        <ele>362</ele>
        <time>2026-08-26T14:35:55+00:00</time>
      </trkpt>
      <trkpt lat="49.92004" lon="6.16387">
        <ele>363</ele>
        <time>2026-08-26T14:35:58+00:00</time>
      </trkpt>
      <trkpt lat="49.92014" lon="6.16409">
        <ele>359</ele>
        <time>2026-08-26T14:36:01+00:00</time>
      </trkpt>
      <trkpt lat="49.92023" lon="6.16434">
        <ele>357</ele>
        <time>2026-08-26T14:36:04+00:00</time>
      </trkpt>
      <trkpt lat="49.92025" lon="6.16449">
        <ele>357</ele>
        <time>2026-08-26T14:36:07+00:00</time>
      </trkpt>
      <trkpt lat="49.92021" lon="6.16488">
        <ele>357</ele>
        <time>2026-08-26T14:36:10+00:00</time>
      </trkpt>
      <trkpt lat="49.92017" lon="6.16528">
        <ele>357</ele>
        <time>2026-08-26T14:36:13+00:00</time>
      </trkpt>
      <trkpt lat="49.92013" lon="6.16568">
        <ele>352</ele>
        <time>2026-08-26T14:36:16+00:00</time>
      </trkpt>
      <trkpt lat="49.92007" lon="6.16593">
        <ele>351</ele>
        <time>2026-08-26T14:36:19+00:00</time>
      </trkpt>
      <trkpt lat="49.92008" lon="6.16603">
        <ele>349</ele>
        <time>2026-08-26T14:36:22+00:00</time>
      </trkpt>
      <trkpt lat="49.92012" lon="6.16597">
        <ele>346</ele>
        <time>2026-08-26T14:36:25+00:00</time>
      </trkpt>
      <trkpt lat="49.92025" lon="6.16553">
        <ele>349</ele>
        <time>2026-08-26T14:36:28+00:00</time>
      </trkpt>
      <trkpt lat="49.9204" lon="6.16515">
        <ele>349</ele>
        <time>2026-08-26T14:36:31+00:00</time>
      </trkpt>
      <trkpt lat="49.92068" lon="6.16441">
        <ele>335</ele>
        <time>2026-08-26T14:36:34+00:00</time>
      </trkpt>
      <trkpt lat="49.92071" lon="6.16423">
        <ele>331</ele>
        <time>2026-08-26T14:36:37+00:00</time>
      </trkpt>
      <trkpt lat="49.92074" lon="6.16418">
        <ele>333</ele>
        <time>2026-08-26T14:36:40+00:00</time>
      </trkpt>
      <trkpt lat="49.92077" lon="6.16418">
        <ele>333</ele>
        <time>2026-08-26T14:36:43+00:00</time>
      </trkpt>
      <trkpt lat="49.92073" lon="6.16448">
        <ele>330</ele>
        <time>2026-08-26T14:36:46+00:00</time>
      </trkpt>
      <trkpt lat="49.92062" lon="6.16488">
        <ele>333</ele>
        <time>2026-08-26T14:36:49+00:00</time>
      </trkpt>
      <trkpt lat="49.92041" lon="6.16565">
        <ele>336</ele>
        <time>2026-08-26T14:36:52+00:00</time>
      </trkpt>
      <trkpt lat="49.92036" lon="6.166">
        <ele>336</ele>
        <time>2026-08-26T14:36:55+00:00</time>
      </trkpt>
      <trkpt lat="49.9203" lon="6.16639">
        <ele>336</ele>
        <time>2026-08-26T14:36:58+00:00</time>
      </trkpt>
      <trkpt lat="49.92025" lon="6.16656">
        <ele>334</ele>
        <time>2026-08-26T14:37:01+00:00</time>
      </trkpt>
      <trkpt lat="49.92022" lon="6.16667">
        <ele>332</ele>
        <time>2026-08-26T14:37:04+00:00</time>
      </trkpt>
      <trkpt lat="49.9202" lon="6.16705">
        <ele>330</ele>
        <time>2026-08-26T14:37:07+00:00</time>
      </trkpt>
      <trkpt lat="49.92018" lon="6.16753">
        <ele>329</ele>
        <time>2026-08-26T14:37:10+00:00</time>
      </trkpt>
      <trkpt lat="49.92013" lon="6.16787">
        <ele>324</ele>
        <time>2026-08-26T14:37:13+00:00</time>
      </trkpt>
      <trkpt lat="49.92004" lon="6.16824">
        <ele>325</ele>
        <time>2026-08-26T14:37:16+00:00</time>
      </trkpt>
      <trkpt lat="49.91995" lon="6.16845">
        <ele>326</ele>
        <time>2026-08-26T14:37:19+00:00</time>
      </trkpt>
      <trkpt lat="49.91987" lon="6.16882">
        <ele>324</ele>
        <time>2026-08-26T14:37:22+00:00</time>
      </trkpt>
      <trkpt lat="49.91978" lon="6.16918">
        <ele>324</ele>
        <time>2026-08-26T14:37:25+00:00</time>
      </trkpt>
      <trkpt lat="49.91968" lon="6.16964">
        <ele>325</ele>
        <time>2026-08-26T14:37:28+00:00</time>
      </trkpt>
      <trkpt lat="49.91955" lon="6.16994">
        <ele>326</ele>
        <time>2026-08-26T14:37:31+00:00</time>
      </trkpt>
      <trkpt lat="49.91929" lon="6.17042">
        <ele>325</ele>
        <time>2026-08-26T14:37:34+00:00</time>
      </trkpt>
      <trkpt lat="49.91915" lon="6.17075">
        <ele>325</ele>
        <time>2026-08-26T14:37:37+00:00</time>
      </trkpt>
      <trkpt lat="49.91905" lon="6.17116">
        <ele>322</ele>
        <time>2026-08-26T14:37:40+00:00</time>
      </trkpt>
      <trkpt lat="49.91887" lon="6.17195">
        <ele>319</ele>
        <time>2026-08-26T14:37:43+00:00</time>
      </trkpt>
      <trkpt lat="49.91881" lon="6.17239">
        <ele>315</ele>
        <time>2026-08-26T14:37:46+00:00</time>
      </trkpt>
      <trkpt lat="49.91874" lon="6.1727">
        <ele>312</ele>
        <time>2026-08-26T14:37:49+00:00</time>
      </trkpt>
      <trkpt lat="49.91877" lon="6.17272">
        <ele>310</ele>
        <time>2026-08-26T14:37:52+00:00</time>
      </trkpt>
      <trkpt lat="49.91879" lon="6.17274">
        <ele>310</ele>
        <time>2026-08-26T14:37:55+00:00</time>
      </trkpt>
      <trkpt lat="49.91889" lon="6.17284">
        <ele>302</ele>
        <time>2026-08-26T14:37:58+00:00</time>
      </trkpt>
      <trkpt lat="49.91896" lon="6.17298">
        <ele>297</ele>
        <time>2026-08-26T14:38:01+00:00</time>
      </trkpt>
      <trkpt lat="49.91907" lon="6.17313">
        <ele>301</ele>
        <time>2026-08-26T14:38:04+00:00</time>
      </trkpt>
      <trkpt lat="49.9193" lon="6.17326">
        <ele>301</ele>
        <time>2026-08-26T14:38:07+00:00</time>
      </trkpt>
      <trkpt lat="49.91942" lon="6.17338">
        <ele>305</ele>
        <time>2026-08-26T14:38:10+00:00</time>
      </trkpt>
      <trkpt lat="49.91937" lon="6.1734">
        <ele>296</ele>
        <time>2026-08-26T14:38:13+00:00</time>
      </trkpt>
      <trkpt lat="49.91929" lon="6.17344">
        <ele>295</ele>
        <time>2026-08-26T14:38:16+00:00</time>
      </trkpt>
      <trkpt lat="49.91916" lon="6.1735">
        <ele>292</ele>
        <time>2026-08-26T14:38:19+00:00</time>
      </trkpt>
      <trkpt lat="49.91906" lon="6.17357">
        <ele>290</ele>
        <time>2026-08-26T14:38:22+00:00</time>
      </trkpt>
      <trkpt lat="49.91898" lon="6.17371">
        <ele>292</ele>
        <time>2026-08-26T14:38:25+00:00</time>
      </trkpt>
      <trkpt lat="49.9189" lon="6.17393">
        <ele>288</ele>
        <time>2026-08-26T14:38:28+00:00</time>
      </trkpt>
      <trkpt lat="49.91884" lon="6.17417">
        <ele>290</ele>
        <time>2026-08-26T14:38:31+00:00</time>
      </trkpt>
      <trkpt lat="49.91877" lon="6.17447">
        <ele>292</ele>
        <time>2026-08-26T14:38:34+00:00</time>
      </trkpt>
      <trkpt lat="49.91872" lon="6.17477">
        <ele>290</ele>
        <time>2026-08-26T14:38:37+00:00</time>
      </trkpt>
      <trkpt lat="49.91867" lon="6.17513">
        <ele>290</ele>
        <time>2026-08-26T14:38:40+00:00</time>
      </trkpt>
      <trkpt lat="49.91864" lon="6.1757">
        <ele>287</ele>
        <time>2026-08-26T14:38:43+00:00</time>
      </trkpt>
      <trkpt lat="49.9186" lon="6.17592">
        <ele>283</ele>
        <time>2026-08-26T14:38:46+00:00</time>
      </trkpt>
      <trkpt lat="49.91852" lon="6.17619">
        <ele>285</ele>
        <time>2026-08-26T14:38:49+00:00</time>
      </trkpt>
      <trkpt lat="49.91837" lon="6.17653">
        <ele>285</ele>
        <time>2026-08-26T14:38:52+00:00</time>
      </trkpt>
      <trkpt lat="49.91813" lon="6.17708">
        <ele>283</ele>
        <time>2026-08-26T14:38:55+00:00</time>
      </trkpt>
      <trkpt lat="49.91804" lon="6.17722">
        <ele>287</ele>
        <time>2026-08-26T14:38:58+00:00</time>
      </trkpt>
      <trkpt lat="49.91792" lon="6.17737">
        <ele>282</ele>
        <time>2026-08-26T14:39:01+00:00</time>
      </trkpt>
      <trkpt lat="49.9178" lon="6.17753">
        <ele>282</ele>
        <time>2026-08-26T14:39:04+00:00</time>
      </trkpt>
      <trkpt lat="49.91758" lon="6.17784">
        <ele>281</ele>
        <time>2026-08-26T14:39:07+00:00</time>
      </trkpt>
      <trkpt lat="49.91737" lon="6.17831">
        <ele>284</ele>
        <time>2026-08-26T14:39:10+00:00</time>
      </trkpt>
      <trkpt lat="49.91748" lon="6.17822">
        <ele>285</ele>
        <time>2026-08-26T14:39:13+00:00</time>
      </trkpt>
      <trkpt lat="49.9175" lon="6.17821">
        <ele>285</ele>
        <time>2026-08-26T14:39:16+00:00</time>
      </trkpt>
      <trkpt lat="49.91755" lon="6.1782">
        <ele>288</ele>
        <time>2026-08-26T14:39:19+00:00</time>
      </trkpt>
      <trkpt lat="49.91765" lon="6.17825">
        <ele>292</ele>
        <time>2026-08-26T14:39:22+00:00</time>
      </trkpt>
      <trkpt lat="49.91779" lon="6.1784">
        <ele>296</ele>
        <time>2026-08-26T14:39:25+00:00</time>
      </trkpt>
      <trkpt lat="49.91801" lon="6.17871">
        <ele>297</ele>
        <time>2026-08-26T14:39:28+00:00</time>
      </trkpt>
      <trkpt lat="49.91823" lon="6.17908">
        <ele>304</ele>
        <time>2026-08-26T14:39:31+00:00</time>
      </trkpt>
      <trkpt lat="49.91845" lon="6.17945">
        <ele>306</ele>
        <time>2026-08-26T14:39:34+00:00</time>
      </trkpt>
      <trkpt lat="49.91867" lon="6.17982">
        <ele>306</ele>
        <time>2026-08-26T14:39:37+00:00</time>
      </trkpt>
      <trkpt lat="49.9189" lon="6.1802">
        <ele>306</ele>
        <time>2026-08-26T14:39:40+00:00</time>
      </trkpt>
      <trkpt lat="49.91908" lon="6.18054">
        <ele>305</ele>
        <time>2026-08-26T14:39:43+00:00</time>
      </trkpt>
      <trkpt lat="49.91941" lon="6.18116">
        <ele>305</ele>
        <time>2026-08-26T14:39:46+00:00</time>
      </trkpt>
      <trkpt lat="49.91967" lon="6.18154">
        <ele>303</ele>
        <time>2026-08-26T14:39:49+00:00</time>
      </trkpt>
      <trkpt lat="49.91975" lon="6.18175">
        <ele>303</ele>
        <time>2026-08-26T14:39:52+00:00</time>
      </trkpt>
      <trkpt lat="49.91983" lon="6.18187">
        <ele>301</ele>
        <time>2026-08-26T14:39:55+00:00</time>
      </trkpt>
      <trkpt lat="49.92005" lon="6.18228">
        <ele>301</ele>
        <time>2026-08-26T14:39:58+00:00</time>
      </trkpt>
      <trkpt lat="49.92017" lon="6.18255">
        <ele>301</ele>
        <time>2026-08-26T14:40:01+00:00</time>
      </trkpt>
      <trkpt lat="49.92021" lon="6.18268">
        <ele>302</ele>
        <time>2026-08-26T14:40:04+00:00</time>
      </trkpt>
      <trkpt lat="49.92027" lon="6.18299">
        <ele>304</ele>
        <time>2026-08-26T14:40:07+00:00</time>
      </trkpt>
      <trkpt lat="49.92036" lon="6.18341">
        <ele>304</ele>
        <time>2026-08-26T14:40:10+00:00</time>
      </trkpt>
      <trkpt lat="49.92039" lon="6.18351">
        <ele>308</ele>
        <time>2026-08-26T14:40:13+00:00</time>
      </trkpt>
      <trkpt lat="49.92051" lon="6.18372">
        <ele>305</ele>
        <time>2026-08-26T14:40:16+00:00</time>
      </trkpt>
      <trkpt lat="49.92055" lon="6.18402">
        <ele>310</ele>
        <time>2026-08-26T14:40:19+00:00</time>
      </trkpt>
      <trkpt lat="49.92057" lon="6.1842">
        <ele>311</ele>
        <time>2026-08-26T14:40:22+00:00</time>
      </trkpt>
      <trkpt lat="49.92062" lon="6.18444">
        <ele>315</ele>
        <time>2026-08-26T14:40:25+00:00</time>
      </trkpt>
      <trkpt lat="49.9207" lon="6.18456">
        <ele>315</ele>
        <time>2026-08-26T14:40:28+00:00</time>
      </trkpt>
      <trkpt lat="49.92073" lon="6.18469">
        <ele>315</ele>
        <time>2026-08-26T14:40:31+00:00</time>
      </trkpt>
      <trkpt lat="49.92071" lon="6.18479">
        <ele>314</ele>
        <time>2026-08-26T14:40:34+00:00</time>
      </trkpt>
      <trkpt lat="49.92068" lon="6.18484">
        <ele>317</ele>
        <time>2026-08-26T14:40:37+00:00</time>
      </trkpt>
      <trkpt lat="49.92058" lon="6.18484">
        <ele>317</ele>
        <time>2026-08-26T14:40:40+00:00</time>
      </trkpt>
      <trkpt lat="49.92034" lon="6.18463">
        <ele>320</ele>
        <time>2026-08-26T14:40:43+00:00</time>
      </trkpt>
      <trkpt lat="49.92025" lon="6.18459">
        <ele>319</ele>
        <time>2026-08-26T14:40:46+00:00</time>
      </trkpt>
      <trkpt lat="49.92016" lon="6.18457">
        <ele>321</ele>
        <time>2026-08-26T14:40:49+00:00</time>
      </trkpt>
      <trkpt lat="49.92009" lon="6.1845">
        <ele>323</ele>
        <time>2026-08-26T14:40:52+00:00</time>
      </trkpt>
      <trkpt lat="49.92001" lon="6.18425">
        <ele>322</ele>
        <time>2026-08-26T14:40:55+00:00</time>
      </trkpt>
      <trkpt lat="49.91992" lon="6.18398">
        <ele>324</ele>
        <time>2026-08-26T14:40:58+00:00</time>
      </trkpt>
      <trkpt lat="49.91984" lon="6.18382">
        <ele>326</ele>
        <time>2026-08-26T14:41:01+00:00</time>
      </trkpt>
      <trkpt lat="49.91969" lon="6.18361">
        <ele>330</ele>
        <time>2026-08-26T14:41:04+00:00</time>
      </trkpt>
      <trkpt lat="49.91958" lon="6.18348">
        <ele>330</ele>
        <time>2026-08-26T14:41:07+00:00</time>
      </trkpt>
      <trkpt lat="49.91931" lon="6.18326">
        <ele>332</ele>
        <time>2026-08-26T14:41:10+00:00</time>
      </trkpt>
      <trkpt lat="49.91903" lon="6.18303">
        <ele>336</ele>
        <time>2026-08-26T14:41:13+00:00</time>
      </trkpt>
      <trkpt lat="49.91876" lon="6.18281">
        <ele>343</ele>
        <time>2026-08-26T14:41:16+00:00</time>
      </trkpt>
      <trkpt lat="49.91832" lon="6.18245">
        <ele>362</ele>
        <time>2026-08-26T14:41:19+00:00</time>
      </trkpt>
      <trkpt lat="49.91815" lon="6.18235">
        <ele>364</ele>
        <time>2026-08-26T14:41:22+00:00</time>
      </trkpt>
      <trkpt lat="49.91808" lon="6.18235">
        <ele>365</ele>
        <time>2026-08-26T14:41:25+00:00</time>
      </trkpt>
      <trkpt lat="49.91801" lon="6.18239">
        <ele>365</ele>
        <time>2026-08-26T14:41:28+00:00</time>
      </trkpt>
      <trkpt lat="49.91813" lon="6.18271">
        <ele>369</ele>
        <time>2026-08-26T14:41:31+00:00</time>
      </trkpt>
      <trkpt lat="49.91821" lon="6.18294">
        <ele>370</ele>
        <time>2026-08-26T14:41:34+00:00</time>
      </trkpt>
      <trkpt lat="49.91827" lon="6.18332">
        <ele>369</ele>
        <time>2026-08-26T14:41:37+00:00</time>
      </trkpt>
      <trkpt lat="49.91832" lon="6.1837">
        <ele>369</ele>
        <time>2026-08-26T14:41:40+00:00</time>
      </trkpt>
      <trkpt lat="49.9184" lon="6.18419">
        <ele>366</ele>
        <time>2026-08-26T14:41:43+00:00</time>
      </trkpt>
      <trkpt lat="49.91848" lon="6.18455">
        <ele>364</ele>
        <time>2026-08-26T14:41:46+00:00</time>
      </trkpt>
      <trkpt lat="49.91858" lon="6.18501">
        <ele>364</ele>
        <time>2026-08-26T14:41:49+00:00</time>
      </trkpt>
      <trkpt lat="49.91858" lon="6.18518">
        <ele>364</ele>
        <time>2026-08-26T14:41:52+00:00</time>
      </trkpt>
      <trkpt lat="49.91855" lon="6.18558">
        <ele>364</ele>
        <time>2026-08-26T14:41:55+00:00</time>
      </trkpt>
      <trkpt lat="49.91853" lon="6.18598">
        <ele>363</ele>
        <time>2026-08-26T14:41:58+00:00</time>
      </trkpt>
      <trkpt lat="49.9185" lon="6.18641">
        <ele>360</ele>
        <time>2026-08-26T14:42:01+00:00</time>
      </trkpt>
      <trkpt lat="49.91849" lon="6.18659">
        <ele>360</ele>
        <time>2026-08-26T14:42:04+00:00</time>
      </trkpt>
      <trkpt lat="49.91851" lon="6.18686">
        <ele>359</ele>
        <time>2026-08-26T14:42:07+00:00</time>
      </trkpt>
      <trkpt lat="49.91853" lon="6.18716">
        <ele>358</ele>
        <time>2026-08-26T14:42:10+00:00</time>
      </trkpt>
      <trkpt lat="49.91859" lon="6.18759">
        <ele>357</ele>
        <time>2026-08-26T14:42:13+00:00</time>
      </trkpt>
      <trkpt lat="49.91871" lon="6.18839">
        <ele>357</ele>
        <time>2026-08-26T14:42:16+00:00</time>
      </trkpt>
      <trkpt lat="49.91875" lon="6.18861">
        <ele>356</ele>
        <time>2026-08-26T14:42:19+00:00</time>
      </trkpt>
      <trkpt lat="49.91884" lon="6.1889">
        <ele>356</ele>
        <time>2026-08-26T14:42:22+00:00</time>
      </trkpt>
      <trkpt lat="49.91899" lon="6.18938">
        <ele>355</ele>
        <time>2026-08-26T14:42:25+00:00</time>
      </trkpt>
      <trkpt lat="49.91911" lon="6.18978">
        <ele>355</ele>
        <time>2026-08-26T14:42:28+00:00</time>
      </trkpt>
      <trkpt lat="49.91935" lon="6.19054">
        <ele>354</ele>
        <time>2026-08-26T14:42:31+00:00</time>
      </trkpt>
      <trkpt lat="49.9196" lon="6.19043">
        <ele>354</ele>
        <time>2026-08-26T14:42:34+00:00</time>
      </trkpt>
      <trkpt lat="49.91971" lon="6.1904">
        <ele>356</ele>
        <time>2026-08-26T14:42:37+00:00</time>
      </trkpt>
      <trkpt lat="49.91995" lon="6.19039">
        <ele>357</ele>
        <time>2026-08-26T14:42:40+00:00</time>
      </trkpt>
      <trkpt lat="49.92037" lon="6.19038">
        <ele>361</ele>
        <time>2026-08-26T14:42:43+00:00</time>
      </trkpt>
      <trkpt lat="49.92065" lon="6.19033">
        <ele>364</ele>
        <time>2026-08-26T14:42:46+00:00</time>
      </trkpt>
      <trkpt lat="49.92117" lon="6.19025">
        <ele>366</ele>
        <time>2026-08-26T14:42:49+00:00</time>
      </trkpt>
      <trkpt lat="49.92153" lon="6.19024">
        <ele>367</ele>
        <time>2026-08-26T14:42:52+00:00</time>
      </trkpt>
      <trkpt lat="49.92189" lon="6.19023">
        <ele>369</ele>
        <time>2026-08-26T14:42:55+00:00</time>
      </trkpt>
      <trkpt lat="49.92225" lon="6.19022">
        <ele>370</ele>
        <time>2026-08-26T14:42:58+00:00</time>
      </trkpt>
      <trkpt lat="49.92261" lon="6.19022">
        <ele>372</ele>
        <time>2026-08-26T14:43:01+00:00</time>
      </trkpt>
      <trkpt lat="49.92325" lon="6.1902">
        <ele>375</ele>
        <time>2026-08-26T14:43:04+00:00</time>
      </trkpt>
      <trkpt lat="49.92321" lon="6.19014">
        <ele>375</ele>
        <time>2026-08-26T14:43:07+00:00</time>
      </trkpt>
      <trkpt lat="49.92325" lon="6.1902">
        <ele>375</ele>
        <time>2026-08-26T14:43:10+00:00</time>
      </trkpt>
      <trkpt lat="49.92347" lon="6.19015">
        <ele>376</ele>
        <time>2026-08-26T14:43:13+00:00</time>
      </trkpt>
      <trkpt lat="49.92373" lon="6.19001">
        <ele>379</ele>
        <time>2026-08-26T14:43:16+00:00</time>
      </trkpt>
      <trkpt lat="49.924" lon="6.1899">
        <ele>379</ele>
        <time>2026-08-26T14:43:19+00:00</time>
      </trkpt>
      <trkpt lat="49.92423" lon="6.18985">
        <ele>381</ele>
        <time>2026-08-26T14:43:22+00:00</time>
      </trkpt>
      <trkpt lat="49.92442" lon="6.18984">
        <ele>381</ele>
        <time>2026-08-26T14:43:25+00:00</time>
      </trkpt>
      <trkpt lat="49.92473" lon="6.18989">
        <ele>381</ele>
        <time>2026-08-26T14:43:28+00:00</time>
      </trkpt>
      <trkpt lat="49.92503" lon="6.18994">
        <ele>383</ele>
        <time>2026-08-26T14:43:31+00:00</time>
      </trkpt>
      <trkpt lat="49.92548" lon="6.19002">
        <ele>384</ele>
        <time>2026-08-26T14:43:34+00:00</time>
      </trkpt>
      <trkpt lat="49.92563" lon="6.19002">
        <ele>385</ele>
        <time>2026-08-26T14:43:37+00:00</time>
      </trkpt>
      <trkpt lat="49.92581" lon="6.19001">
        <ele>386</ele>
        <time>2026-08-26T14:43:40+00:00</time>
      </trkpt>
      <trkpt lat="49.92603" lon="6.18999">
        <ele>387</ele>
        <time>2026-08-26T14:43:43+00:00</time>
      </trkpt>
      <trkpt lat="49.92628" lon="6.19">
        <ele>388</ele>
        <time>2026-08-26T14:43:46+00:00</time>
      </trkpt>
      <trkpt lat="49.92665" lon="6.19002">
        <ele>392</ele>
        <time>2026-08-26T14:43:49+00:00</time>
      </trkpt>
      <trkpt lat="49.92689" lon="6.19">
        <ele>394</ele>
        <time>2026-08-26T14:43:52+00:00</time>
      </trkpt>
      <trkpt lat="49.9272" lon="6.18997">
        <ele>395</ele>
        <time>2026-08-26T14:43:55+00:00</time>
      </trkpt>
      <trkpt lat="49.92747" lon="6.18998">
        <ele>398</ele>
        <time>2026-08-26T14:43:58+00:00</time>
      </trkpt>
      <trkpt lat="49.92794" lon="6.19001">
        <ele>398</ele>
        <time>2026-08-26T14:44:01+00:00</time>
      </trkpt>
      <trkpt lat="49.92803" lon="6.19001">
        <ele>398</ele>
        <time>2026-08-26T14:44:04+00:00</time>
      </trkpt>
      <trkpt lat="49.92796" lon="6.18966">
        <ele>401</ele>
        <time>2026-08-26T14:44:07+00:00</time>
      </trkpt>
      <trkpt lat="49.92784" lon="6.18911">
        <ele>405</ele>
        <time>2026-08-26T14:44:10+00:00</time>
      </trkpt>
      <trkpt lat="49.92781" lon="6.18889">
        <ele>405</ele>
        <time>2026-08-26T14:44:13+00:00</time>
      </trkpt>
      <trkpt lat="49.92779" lon="6.18857">
        <ele>405</ele>
        <time>2026-08-26T14:44:16+00:00</time>
      </trkpt>
      <trkpt lat="49.92777" lon="6.18808">
        <ele>406</ele>
        <time>2026-08-26T14:44:19+00:00</time>
      </trkpt>
      <trkpt lat="49.92776" lon="6.18771">
        <ele>406</ele>
        <time>2026-08-26T14:44:22+00:00</time>
      </trkpt>
      <trkpt lat="49.92778" lon="6.18732">
        <ele>406</ele>
        <time>2026-08-26T14:44:25+00:00</time>
      </trkpt>
      <trkpt lat="49.92787" lon="6.18707">
        <ele>407</ele>
        <time>2026-08-26T14:44:28+00:00</time>
      </trkpt>
      <trkpt lat="49.92789" lon="6.18695">
        <ele>408</ele>
        <time>2026-08-26T14:44:31+00:00</time>
      </trkpt>
      <trkpt lat="49.92796" lon="6.18691">
        <ele>408</ele>
        <time>2026-08-26T14:44:34+00:00</time>
      </trkpt>
      <trkpt lat="49.92809" lon="6.18673">
        <ele>410</ele>
        <time>2026-08-26T14:44:37+00:00</time>
      </trkpt>
      <trkpt lat="49.92836" lon="6.1864">
        <ele>413</ele>
        <time>2026-08-26T14:44:40+00:00</time>
      </trkpt>
      <trkpt lat="49.92857" lon="6.18617">
        <ele>414</ele>
        <time>2026-08-26T14:44:43+00:00</time>
      </trkpt>
      <trkpt lat="49.92887" lon="6.18583">
        <ele>415</ele>
        <time>2026-08-26T14:44:46+00:00</time>
      </trkpt>
      <trkpt lat="49.9291" lon="6.18554">
        <ele>418</ele>
        <time>2026-08-26T14:44:49+00:00</time>
      </trkpt>
      <trkpt lat="49.92927" lon="6.18529">
        <ele>420</ele>
        <time>2026-08-26T14:44:52+00:00</time>
      </trkpt>
      <trkpt lat="49.92946" lon="6.185">
        <ele>422</ele>
        <time>2026-08-26T14:44:55+00:00</time>
      </trkpt>
      <trkpt lat="49.92967" lon="6.18478">
        <ele>423</ele>
        <time>2026-08-26T14:44:58+00:00</time>
      </trkpt>
      <trkpt lat="49.92982" lon="6.18467">
        <ele>424</ele>
        <time>2026-08-26T14:45:01+00:00</time>
      </trkpt>
      <trkpt lat="49.92994" lon="6.18455">
        <ele>425</ele>
        <time>2026-08-26T14:45:04+00:00</time>
      </trkpt>
      <trkpt lat="49.93007" lon="6.18443">
        <ele>425</ele>
        <time>2026-08-26T14:45:07+00:00</time>
      </trkpt>
      <trkpt lat="49.93016" lon="6.18484">
        <ele>425</ele>
        <time>2026-08-26T14:45:10+00:00</time>
      </trkpt>
      <trkpt lat="49.93023" lon="6.18537">
        <ele>424</ele>
        <time>2026-08-26T14:45:13+00:00</time>
      </trkpt>
      <trkpt lat="49.9303" lon="6.1859">
        <ele>424</ele>
        <time>2026-08-26T14:45:16+00:00</time>
      </trkpt>
      <trkpt lat="49.93037" lon="6.18642">
        <ele>423</ele>
        <time>2026-08-26T14:45:19+00:00</time>
      </trkpt>
      <trkpt lat="49.93045" lon="6.18695">
        <ele>422</ele>
        <time>2026-08-26T14:45:22+00:00</time>
      </trkpt>
      <trkpt lat="49.93052" lon="6.1875">
        <ele>421</ele>
        <time>2026-08-26T14:45:25+00:00</time>
      </trkpt>
      <trkpt lat="49.93053" lon="6.18775">
        <ele>421</ele>
        <time>2026-08-26T14:45:28+00:00</time>
      </trkpt>
      <trkpt lat="49.93052" lon="6.18792">
        <ele>420</ele>
        <time>2026-08-26T14:45:31+00:00</time>
      </trkpt>
      <trkpt lat="49.93047" lon="6.18805">
        <ele>420</ele>
        <time>2026-08-26T14:45:34+00:00</time>
      </trkpt>
      <trkpt lat="49.93036" lon="6.18821">
        <ele>420</ele>
        <time>2026-08-26T14:45:37+00:00</time>
      </trkpt>
      <trkpt lat="49.93021" lon="6.18836">
        <ele>420</ele>
        <time>2026-08-26T14:45:40+00:00</time>
      </trkpt>
      <trkpt lat="49.93018" lon="6.18843">
        <ele>420</ele>
        <time>2026-08-26T14:45:43+00:00</time>
      </trkpt>
      <trkpt lat="49.93018" lon="6.18843">
        <ele>420</ele>
        <time>2026-08-26T14:45:46+00:00</time>
      </trkpt>
      <trkpt lat="49.93018" lon="6.18843">
        <ele>420</ele>
        <time>2026-08-26T14:45:49+00:00</time>
      </trkpt>
      <trkpt lat="49.93015" lon="6.18864">
        <ele>420</ele>
        <time>2026-08-26T14:45:52+00:00</time>
      </trkpt>
      <trkpt lat="49.93016" lon="6.18876">
        <ele>419</ele>
        <time>2026-08-26T14:45:55+00:00</time>
      </trkpt>
      <trkpt lat="49.93022" lon="6.18912">
        <ele>418</ele>
        <time>2026-08-26T14:45:58+00:00</time>
      </trkpt>
      <trkpt lat="49.93031" lon="6.18969">
        <ele>417</ele>
        <time>2026-08-26T14:46:01+00:00</time>
      </trkpt>
      <trkpt lat="49.93036" lon="6.19009">
        <ele>416</ele>
        <time>2026-08-26T14:46:04+00:00</time>
      </trkpt>
      <trkpt lat="49.93045" lon="6.19069">
        <ele>413</ele>
        <time>2026-08-26T14:46:07+00:00</time>
      </trkpt>
      <trkpt lat="49.93055" lon="6.19128">
        <ele>411</ele>
        <time>2026-08-26T14:46:10+00:00</time>
      </trkpt>
      <trkpt lat="49.93062" lon="6.19156">
        <ele>410</ele>
        <time>2026-08-26T14:46:13+00:00</time>
      </trkpt>
      <trkpt lat="49.93072" lon="6.19188">
        <ele>408</ele>
        <time>2026-08-26T14:46:16+00:00</time>
      </trkpt>
      <trkpt lat="49.93082" lon="6.19222">
        <ele>407</ele>
        <time>2026-08-26T14:46:19+00:00</time>
      </trkpt>
      <trkpt lat="49.93091" lon="6.19255">
        <ele>405</ele>
        <time>2026-08-26T14:46:22+00:00</time>
      </trkpt>
      <trkpt lat="49.93101" lon="6.19293">
        <ele>403</ele>
        <time>2026-08-26T14:46:25+00:00</time>
      </trkpt>
      <trkpt lat="49.93112" lon="6.19331">
        <ele>401</ele>
        <time>2026-08-26T14:46:28+00:00</time>
      </trkpt>
      <trkpt lat="49.93131" lon="6.19394">
        <ele>399</ele>
        <time>2026-08-26T14:46:31+00:00</time>
      </trkpt>
      <trkpt lat="49.9314" lon="6.19427">
        <ele>397</ele>
        <time>2026-08-26T14:46:34+00:00</time>
      </trkpt>
      <trkpt lat="49.9315" lon="6.19475">
        <ele>396</ele>
        <time>2026-08-26T14:46:37+00:00</time>
      </trkpt>
      <trkpt lat="49.93154" lon="6.19495">
        <ele>396</ele>
        <time>2026-08-26T14:46:40+00:00</time>
      </trkpt>
      <trkpt lat="49.93159" lon="6.19524">
        <ele>395</ele>
        <time>2026-08-26T14:46:43+00:00</time>
      </trkpt>
      <trkpt lat="49.93166" lon="6.19563">
        <ele>395</ele>
        <time>2026-08-26T14:46:46+00:00</time>
      </trkpt>
      <trkpt lat="49.93178" lon="6.1962">
        <ele>395</ele>
        <time>2026-08-26T14:46:49+00:00</time>
      </trkpt>
      <trkpt lat="49.93189" lon="6.1965">
        <ele>394</ele>
        <time>2026-08-26T14:46:52+00:00</time>
      </trkpt>
      <trkpt lat="49.93202" lon="6.19684">
        <ele>393</ele>
        <time>2026-08-26T14:46:55+00:00</time>
      </trkpt>
      <trkpt lat="49.93213" lon="6.1972">
        <ele>392</ele>
        <time>2026-08-26T14:46:58+00:00</time>
      </trkpt>
      <trkpt lat="49.9323" lon="6.19771">
        <ele>387</ele>
        <time>2026-08-26T14:47:01+00:00</time>
      </trkpt>
      <trkpt lat="49.93233" lon="6.19782">
        <ele>389</ele>
        <time>2026-08-26T14:47:04+00:00</time>
      </trkpt>
      <trkpt lat="49.93228" lon="6.19811">
        <ele>385</ele>
        <time>2026-08-26T14:47:07+00:00</time>
      </trkpt>
      <trkpt lat="49.93222" lon="6.19846">
        <ele>387</ele>
        <time>2026-08-26T14:47:10+00:00</time>
      </trkpt>
      <trkpt lat="49.93223" lon="6.19859">
        <ele>382</ele>
        <time>2026-08-26T14:47:13+00:00</time>
      </trkpt>
      <trkpt lat="49.93228" lon="6.19868">
        <ele>382</ele>
        <time>2026-08-26T14:47:16+00:00</time>
      </trkpt>
      <trkpt lat="49.93243" lon="6.19876">
        <ele>390</ele>
        <time>2026-08-26T14:47:19+00:00</time>
      </trkpt>
      <trkpt lat="49.93257" lon="6.19877">
        <ele>392</ele>
        <time>2026-08-26T14:47:22+00:00</time>
      </trkpt>
      <trkpt lat="49.93272" lon="6.19867">
        <ele>391</ele>
        <time>2026-08-26T14:47:25+00:00</time>
      </trkpt>
      <trkpt lat="49.93277" lon="6.19867">
        <ele>396</ele>
        <time>2026-08-26T14:47:28+00:00</time>
      </trkpt>
      <trkpt lat="49.93279" lon="6.1987">
        <ele>396</ele>
        <time>2026-08-26T14:47:31+00:00</time>
      </trkpt>
      <trkpt lat="49.93279" lon="6.19876">
        <ele>395</ele>
        <time>2026-08-26T14:47:34+00:00</time>
      </trkpt>
      <trkpt lat="49.93265" lon="6.19898">
        <ele>389</ele>
        <time>2026-08-26T14:47:37+00:00</time>
      </trkpt>
      <trkpt lat="49.93245" lon="6.19928">
        <ele>387</ele>
        <time>2026-08-26T14:47:40+00:00</time>
      </trkpt>
      <trkpt lat="49.9323" lon="6.19944">
        <ele>381</ele>
        <time>2026-08-26T14:47:43+00:00</time>
      </trkpt>
      <trkpt lat="49.9322" lon="6.19951">
        <ele>377</ele>
        <time>2026-08-26T14:47:46+00:00</time>
      </trkpt>
      <trkpt lat="49.93214" lon="6.19953">
        <ele>377</ele>
        <time>2026-08-26T14:47:49+00:00</time>
      </trkpt>
      <trkpt lat="49.93197" lon="6.19948">
        <ele>378</ele>
        <time>2026-08-26T14:47:52+00:00</time>
      </trkpt>
      <trkpt lat="49.93193" lon="6.19951">
        <ele>370</ele>
        <time>2026-08-26T14:47:55+00:00</time>
      </trkpt>
      <trkpt lat="49.93193" lon="6.19956">
        <ele>370</ele>
        <time>2026-08-26T14:47:58+00:00</time>
      </trkpt>
      <trkpt lat="49.93195" lon="6.19961">
        <ele>371</ele>
        <time>2026-08-26T14:48:01+00:00</time>
      </trkpt>
      <trkpt lat="49.93217" lon="6.19991">
        <ele>378</ele>
        <time>2026-08-26T14:48:04+00:00</time>
      </trkpt>
      <trkpt lat="49.93222" lon="6.19995">
        <ele>375</ele>
        <time>2026-08-26T14:48:07+00:00</time>
      </trkpt>
      <trkpt lat="49.93227" lon="6.19996">
        <ele>375</ele>
        <time>2026-08-26T14:48:10+00:00</time>
      </trkpt>
      <trkpt lat="49.93251" lon="6.19986">
        <ele>378</ele>
        <time>2026-08-26T14:48:13+00:00</time>
      </trkpt>
      <trkpt lat="49.93263" lon="6.19975">
        <ele>379</ele>
        <time>2026-08-26T14:48:16+00:00</time>
      </trkpt>
      <trkpt lat="49.93283" lon="6.19954">
        <ele>378</ele>
        <time>2026-08-26T14:48:19+00:00</time>
      </trkpt>
      <trkpt lat="49.93294" lon="6.19945">
        <ele>381</ele>
        <time>2026-08-26T14:48:22+00:00</time>
      </trkpt>
      <trkpt lat="49.93317" lon="6.19933">
        <ele>378</ele>
        <time>2026-08-26T14:48:25+00:00</time>
      </trkpt>
      <trkpt lat="49.93364" lon="6.1991">
        <ele>371</ele>
        <time>2026-08-26T14:48:28+00:00</time>
      </trkpt>
      <trkpt lat="49.93399" lon="6.19901">
        <ele>356</ele>
        <time>2026-08-26T14:48:31+00:00</time>
      </trkpt>
      <trkpt lat="49.9341" lon="6.19895">
        <ele>354</ele>
        <time>2026-08-26T14:48:34+00:00</time>
      </trkpt>
      <trkpt lat="49.93422" lon="6.19887">
        <ele>348</ele>
        <time>2026-08-26T14:48:37+00:00</time>
      </trkpt>
      <trkpt lat="49.93426" lon="6.19878">
        <ele>347</ele>
        <time>2026-08-26T14:48:40+00:00</time>
      </trkpt>
      <trkpt lat="49.93425" lon="6.19866">
        <ele>345</ele>
        <time>2026-08-26T14:48:43+00:00</time>
      </trkpt>
      <trkpt lat="49.93423" lon="6.19861">
        <ele>348</ele>
        <time>2026-08-26T14:48:46+00:00</time>
      </trkpt>
      <trkpt lat="49.93425" lon="6.19866">
        <ele>345</ele>
        <time>2026-08-26T14:48:49+00:00</time>
      </trkpt>
      <trkpt lat="49.93426" lon="6.19878">
        <ele>347</ele>
        <time>2026-08-26T14:48:52+00:00</time>
      </trkpt>
      <trkpt lat="49.93422" lon="6.19887">
        <ele>348</ele>
        <time>2026-08-26T14:48:55+00:00</time>
      </trkpt>
      <trkpt lat="49.9341" lon="6.19895">
        <ele>354</ele>
        <time>2026-08-26T14:48:58+00:00</time>
      </trkpt>
      <trkpt lat="49.9343" lon="6.19893">
        <ele>349</ele>
        <time>2026-08-26T14:49:01+00:00</time>
      </trkpt>
      <trkpt lat="49.93419" lon="6.19918">
        <ele>348</ele>
        <time>2026-08-26T14:49:04+00:00</time>
      </trkpt>
      <trkpt lat="49.93433" lon="6.1992">
        <ele>347</ele>
        <time>2026-08-26T14:49:07+00:00</time>
      </trkpt>
      <trkpt lat="49.93428" lon="6.19938">
        <ele>347</ele>
        <time>2026-08-26T14:49:10+00:00</time>
      </trkpt>
      <trkpt lat="49.93444" lon="6.1993">
        <ele>340</ele>
        <time>2026-08-26T14:49:13+00:00</time>
      </trkpt>
      <trkpt lat="49.93446" lon="6.19921">
        <ele>340</ele>
        <time>2026-08-26T14:49:16+00:00</time>
      </trkpt>
      <trkpt lat="49.93449" lon="6.19917">
        <ele>340</ele>
        <time>2026-08-26T14:49:19+00:00</time>
      </trkpt>
      <trkpt lat="49.93451" lon="6.19921">
        <ele>332</ele>
        <time>2026-08-26T14:49:22+00:00</time>
      </trkpt>
      <trkpt lat="49.93455" lon="6.19942">
        <ele>329</ele>
        <time>2026-08-26T14:49:25+00:00</time>
      </trkpt>
      <trkpt lat="49.93467" lon="6.19932">
        <ele>325</ele>
        <time>2026-08-26T14:49:28+00:00</time>
      </trkpt>
      <trkpt lat="49.93478" lon="6.19911">
        <ele>321</ele>
        <time>2026-08-26T14:49:31+00:00</time>
      </trkpt>
      <trkpt lat="49.93483" lon="6.19905">
        <ele>319</ele>
        <time>2026-08-26T14:49:34+00:00</time>
      </trkpt>
      <trkpt lat="49.93489" lon="6.19888">
        <ele>320</ele>
        <time>2026-08-26T14:49:37+00:00</time>
      </trkpt>
      <trkpt lat="49.93489" lon="6.19879">
        <ele>319</ele>
        <time>2026-08-26T14:49:40+00:00</time>
      </trkpt>
      <trkpt lat="49.93485" lon="6.19876">
        <ele>319</ele>
        <time>2026-08-26T14:49:43+00:00</time>
      </trkpt>
      <trkpt lat="49.93481" lon="6.19875">
        <ele>319</ele>
        <time>2026-08-26T14:49:46+00:00</time>
      </trkpt>
      <trkpt lat="49.93483" lon="6.19869">
        <ele>320</ele>
        <time>2026-08-26T14:49:49+00:00</time>
      </trkpt>
      <trkpt lat="49.93485" lon="6.19857">
        <ele>321</ele>
        <time>2026-08-26T14:49:52+00:00</time>
      </trkpt>
      <trkpt lat="49.93482" lon="6.19848">
        <ele>322</ele>
        <time>2026-08-26T14:49:55+00:00</time>
      </trkpt>
      <trkpt lat="49.93475" lon="6.19844">
        <ele>321</ele>
        <time>2026-08-26T14:49:58+00:00</time>
      </trkpt>
      <trkpt lat="49.93469" lon="6.19831">
        <ele>321</ele>
        <time>2026-08-26T14:50:01+00:00</time>
      </trkpt>
      <trkpt lat="49.93448" lon="6.19813">
        <ele>322</ele>
        <time>2026-08-26T14:50:04+00:00</time>
      </trkpt>
      <trkpt lat="49.93444" lon="6.19806">
        <ele>322</ele>
        <time>2026-08-26T14:50:07+00:00</time>
      </trkpt>
      <trkpt lat="49.9343" lon="6.19776">
        <ele>322</ele>
        <time>2026-08-26T14:50:10+00:00</time>
      </trkpt>
      <trkpt lat="49.93423" lon="6.1975">
        <ele>321</ele>
        <time>2026-08-26T14:50:13+00:00</time>
      </trkpt>
      <trkpt lat="49.93422" lon="6.19749">
        <ele>316</ele>
        <time>2026-08-26T14:50:16+00:00</time>
      </trkpt>
      <trkpt lat="49.93417" lon="6.19712">
        <ele>321</ele>
        <time>2026-08-26T14:50:19+00:00</time>
      </trkpt>
      <trkpt lat="49.93414" lon="6.19704">
        <ele>323</ele>
        <time>2026-08-26T14:50:22+00:00</time>
      </trkpt>
      <trkpt lat="49.93405" lon="6.19677">
        <ele>321</ele>
        <time>2026-08-26T14:50:25+00:00</time>
      </trkpt>
      <trkpt lat="49.93396" lon="6.19649">
        <ele>321</ele>
        <time>2026-08-26T14:50:28+00:00</time>
      </trkpt>
      <trkpt lat="49.93391" lon="6.19625">
        <ele>327</ele>
        <time>2026-08-26T14:50:31+00:00</time>
      </trkpt>
      <trkpt lat="49.93387" lon="6.19595">
        <ele>325</ele>
        <time>2026-08-26T14:50:34+00:00</time>
      </trkpt>
      <trkpt lat="49.93381" lon="6.1955">
        <ele>342</ele>
        <time>2026-08-26T14:50:37+00:00</time>
      </trkpt>
      <trkpt lat="49.93378" lon="6.19516">
        <ele>343</ele>
        <time>2026-08-26T14:50:40+00:00</time>
      </trkpt>
      <trkpt lat="49.93375" lon="6.19479">
        <ele>348</ele>
        <time>2026-08-26T14:50:43+00:00</time>
      </trkpt>
      <trkpt lat="49.93373" lon="6.19434">
        <ele>355</ele>
        <time>2026-08-26T14:50:46+00:00</time>
      </trkpt>
      <trkpt lat="49.93369" lon="6.19345">
        <ele>364</ele>
        <time>2026-08-26T14:50:49+00:00</time>
      </trkpt>
      <trkpt lat="49.93369" lon="6.19303">
        <ele>364</ele>
        <time>2026-08-26T14:50:52+00:00</time>
      </trkpt>
      <trkpt lat="49.9337" lon="6.19235">
        <ele>380</ele>
        <time>2026-08-26T14:50:55+00:00</time>
      </trkpt>
      <trkpt lat="49.93372" lon="6.19202">
        <ele>384</ele>
        <time>2026-08-26T14:50:58+00:00</time>
      </trkpt>
      <trkpt lat="49.9337" lon="6.19187">
        <ele>389</ele>
        <time>2026-08-26T14:51:01+00:00</time>
      </trkpt>
      <trkpt lat="49.93358" lon="6.19153">
        <ele>388</ele>
        <time>2026-08-26T14:51:04+00:00</time>
      </trkpt>
      <trkpt lat="49.93349" lon="6.19101">
        <ele>394</ele>
        <time>2026-08-26T14:51:07+00:00</time>
      </trkpt>
      <trkpt lat="49.93345" lon="6.19063">
        <ele>399</ele>
        <time>2026-08-26T14:51:10+00:00</time>
      </trkpt>
      <trkpt lat="49.93339" lon="6.19015">
        <ele>404</ele>
        <time>2026-08-26T14:51:13+00:00</time>
      </trkpt>
      <trkpt lat="49.93333" lon="6.18982">
        <ele>404</ele>
        <time>2026-08-26T14:51:16+00:00</time>
      </trkpt>
      <trkpt lat="49.93328" lon="6.18949">
        <ele>404</ele>
        <time>2026-08-26T14:51:19+00:00</time>
      </trkpt>
      <trkpt lat="49.93325" lon="6.18923">
        <ele>406</ele>
        <time>2026-08-26T14:51:22+00:00</time>
      </trkpt>
      <trkpt lat="49.93327" lon="6.18893">
        <ele>404</ele>
        <time>2026-08-26T14:51:25+00:00</time>
      </trkpt>
      <trkpt lat="49.93337" lon="6.18862">
        <ele>405</ele>
        <time>2026-08-26T14:51:28+00:00</time>
      </trkpt>
      <trkpt lat="49.93334" lon="6.18899">
        <ele>406</ele>
        <time>2026-08-26T14:51:31+00:00</time>
      </trkpt>
      <trkpt lat="49.93334" lon="6.18925">
        <ele>410</ele>
        <time>2026-08-26T14:51:34+00:00</time>
      </trkpt>
      <trkpt lat="49.93338" lon="6.18947">
        <ele>407</ele>
        <time>2026-08-26T14:51:37+00:00</time>
      </trkpt>
      <trkpt lat="49.93351" lon="6.18989">
        <ele>410</ele>
        <time>2026-08-26T14:51:40+00:00</time>
      </trkpt>
      <trkpt lat="49.93363" lon="6.19031">
        <ele>409</ele>
        <time>2026-08-26T14:51:43+00:00</time>
      </trkpt>
      <trkpt lat="49.93378" lon="6.1908">
        <ele>410</ele>
        <time>2026-08-26T14:51:46+00:00</time>
      </trkpt>
      <trkpt lat="49.93391" lon="6.19105">
        <ele>412</ele>
        <time>2026-08-26T14:51:49+00:00</time>
      </trkpt>
      <trkpt lat="49.93407" lon="6.19136">
        <ele>412</ele>
        <time>2026-08-26T14:51:52+00:00</time>
      </trkpt>
      <trkpt lat="49.93415" lon="6.19156">
        <ele>413</ele>
        <time>2026-08-26T14:51:55+00:00</time>
      </trkpt>
      <trkpt lat="49.93421" lon="6.19195">
        <ele>411</ele>
        <time>2026-08-26T14:51:58+00:00</time>
      </trkpt>
      <trkpt lat="49.93426" lon="6.19234">
        <ele>410</ele>
        <time>2026-08-26T14:52:01+00:00</time>
      </trkpt>
      <trkpt lat="49.93434" lon="6.19287">
        <ele>408</ele>
        <time>2026-08-26T14:52:04+00:00</time>
      </trkpt>
      <trkpt lat="49.93443" lon="6.19319">
        <ele>407</ele>
        <time>2026-08-26T14:52:07+00:00</time>
      </trkpt>
      <trkpt lat="49.93453" lon="6.19341">
        <ele>405</ele>
        <time>2026-08-26T14:52:10+00:00</time>
      </trkpt>
      <trkpt lat="49.93467" lon="6.19366">
        <ele>407</ele>
        <time>2026-08-26T14:52:13+00:00</time>
      </trkpt>
      <trkpt lat="49.93493" lon="6.1941">
        <ele>406</ele>
        <time>2026-08-26T14:52:16+00:00</time>
      </trkpt>
      <trkpt lat="49.93506" lon="6.19425">
        <ele>408</ele>
        <time>2026-08-26T14:52:19+00:00</time>
      </trkpt>
      <trkpt lat="49.93521" lon="6.19433">
        <ele>406</ele>
        <time>2026-08-26T14:52:22+00:00</time>
      </trkpt>
      <trkpt lat="49.93532" lon="6.19432">
        <ele>406</ele>
        <time>2026-08-26T14:52:25+00:00</time>
      </trkpt>
      <trkpt lat="49.93555" lon="6.19414">
        <ele>408</ele>
        <time>2026-08-26T14:52:28+00:00</time>
      </trkpt>
      <trkpt lat="49.93578" lon="6.19397">
        <ele>411</ele>
        <time>2026-08-26T14:52:31+00:00</time>
      </trkpt>
      <trkpt lat="49.93602" lon="6.19378">
        <ele>418</ele>
        <time>2026-08-26T14:52:34+00:00</time>
      </trkpt>
      <trkpt lat="49.93615" lon="6.1937">
        <ele>422</ele>
        <time>2026-08-26T14:52:37+00:00</time>
      </trkpt>
      <trkpt lat="49.93629" lon="6.19365">
        <ele>420</ele>
        <time>2026-08-26T14:52:40+00:00</time>
      </trkpt>
      <trkpt lat="49.93641" lon="6.19366">
        <ele>424</ele>
        <time>2026-08-26T14:52:43+00:00</time>
      </trkpt>
      <trkpt lat="49.93651" lon="6.19374">
        <ele>420</ele>
        <time>2026-08-26T14:52:46+00:00</time>
      </trkpt>
      <trkpt lat="49.93657" lon="6.19389">
        <ele>422</ele>
        <time>2026-08-26T14:52:49+00:00</time>
      </trkpt>
      <trkpt lat="49.93668" lon="6.19426">
        <ele>420</ele>
        <time>2026-08-26T14:52:52+00:00</time>
      </trkpt>
      <trkpt lat="49.93678" lon="6.19464">
        <ele>421</ele>
        <time>2026-08-26T14:52:55+00:00</time>
      </trkpt>
      <trkpt lat="49.93691" lon="6.1951">
        <ele>422</ele>
        <time>2026-08-26T14:52:58+00:00</time>
      </trkpt>
      <trkpt lat="49.93701" lon="6.19537">
        <ele>422</ele>
        <time>2026-08-26T14:53:01+00:00</time>
      </trkpt>
      <trkpt lat="49.93717" lon="6.19575">
        <ele>421</ele>
        <time>2026-08-26T14:53:04+00:00</time>
      </trkpt>
      <trkpt lat="49.93733" lon="6.19613">
        <ele>421</ele>
        <time>2026-08-26T14:53:07+00:00</time>
      </trkpt>
      <trkpt lat="49.93751" lon="6.19655">
        <ele>425</ele>
        <time>2026-08-26T14:53:10+00:00</time>
      </trkpt>
      <trkpt lat="49.93766" lon="6.19686">
        <ele>428</ele>
        <time>2026-08-26T14:53:13+00:00</time>
      </trkpt>
      <trkpt lat="49.93786" lon="6.19727">
        <ele>428</ele>
        <time>2026-08-26T14:53:16+00:00</time>
      </trkpt>
      <trkpt lat="49.93798" lon="6.19767">
        <ele>427</ele>
        <time>2026-08-26T14:53:19+00:00</time>
      </trkpt>
      <trkpt lat="49.9382" lon="6.19846">
        <ele>426</ele>
        <time>2026-08-26T14:53:22+00:00</time>
      </trkpt>
      <trkpt lat="49.93823" lon="6.19856">
        <ele>426</ele>
        <time>2026-08-26T14:53:25+00:00</time>
      </trkpt>
      <trkpt lat="49.93827" lon="6.19861">
        <ele>426</ele>
        <time>2026-08-26T14:53:28+00:00</time>
      </trkpt>
      <trkpt lat="49.93825" lon="6.19874">
        <ele>426</ele>
        <time>2026-08-26T14:53:31+00:00</time>
      </trkpt>
      <trkpt lat="49.93825" lon="6.19874">
        <ele>426</ele>
        <time>2026-08-26T14:53:34+00:00</time>
      </trkpt>
      <trkpt lat="49.93825" lon="6.19898">
        <ele>425</ele>
        <time>2026-08-26T14:53:37+00:00</time>
      </trkpt>
      <trkpt lat="49.9382" lon="6.19923">
        <ele>423</ele>
        <time>2026-08-26T14:53:40+00:00</time>
      </trkpt>
      <trkpt lat="49.93811" lon="6.19944">
        <ele>420</ele>
        <time>2026-08-26T14:53:43+00:00</time>
      </trkpt>
      <trkpt lat="49.93801" lon="6.19959">
        <ele>418</ele>
        <time>2026-08-26T14:53:46+00:00</time>
      </trkpt>
      <trkpt lat="49.9379" lon="6.19975">
        <ele>412</ele>
        <time>2026-08-26T14:53:49+00:00</time>
      </trkpt>
      <trkpt lat="49.93782" lon="6.19983">
        <ele>411</ele>
        <time>2026-08-26T14:53:52+00:00</time>
      </trkpt>
      <trkpt lat="49.93781" lon="6.19986">
        <ele>411</ele>
        <time>2026-08-26T14:53:55+00:00</time>
      </trkpt>
      <trkpt lat="49.93785" lon="6.19996">
        <ele>411</ele>
        <time>2026-08-26T14:53:58+00:00</time>
      </trkpt>
      <trkpt lat="49.93792" lon="6.19999">
        <ele>410</ele>
        <time>2026-08-26T14:54:01+00:00</time>
      </trkpt>
      <trkpt lat="49.93819" lon="6.19996">
        <ele>410</ele>
        <time>2026-08-26T14:54:04+00:00</time>
      </trkpt>
      <trkpt lat="49.93812" lon="6.20009">
        <ele>407</ele>
        <time>2026-08-26T14:54:07+00:00</time>
      </trkpt>
      <trkpt lat="49.93817" lon="6.2001">
        <ele>407</ele>
        <time>2026-08-26T14:54:10+00:00</time>
      </trkpt>
      <trkpt lat="49.93819" lon="6.20011">
        <ele>402</ele>
        <time>2026-08-26T14:54:13+00:00</time>
      </trkpt>
      <trkpt lat="49.93812" lon="6.2002">
        <ele>402</ele>
        <time>2026-08-26T14:54:16+00:00</time>
      </trkpt>
      <trkpt lat="49.93825" lon="6.20024">
        <ele>399</ele>
        <time>2026-08-26T14:54:19+00:00</time>
      </trkpt>
      <trkpt lat="49.93812" lon="6.2004">
        <ele>395</ele>
        <time>2026-08-26T14:54:22+00:00</time>
      </trkpt>
      <trkpt lat="49.93823" lon="6.20044">
        <ele>392</ele>
        <time>2026-08-26T14:54:25+00:00</time>
      </trkpt>
      <trkpt lat="49.93791" lon="6.20066">
        <ele>390</ele>
        <time>2026-08-26T14:54:28+00:00</time>
      </trkpt>
      <trkpt lat="49.93788" lon="6.20068">
        <ele>384</ele>
        <time>2026-08-26T14:54:31+00:00</time>
      </trkpt>
      <trkpt lat="49.93783" lon="6.20065">
        <ele>384</ele>
        <time>2026-08-26T14:54:34+00:00</time>
      </trkpt>
      <trkpt lat="49.93774" lon="6.20055">
        <ele>388</ele>
        <time>2026-08-26T14:54:37+00:00</time>
      </trkpt>
      <trkpt lat="49.93771" lon="6.20044">
        <ele>391</ele>
        <time>2026-08-26T14:54:40+00:00</time>
      </trkpt>
      <trkpt lat="49.93768" lon="6.20051">
        <ele>386</ele>
        <time>2026-08-26T14:54:43+00:00</time>
      </trkpt>
      <trkpt lat="49.93762" lon="6.20056">
        <ele>386</ele>
        <time>2026-08-26T14:54:46+00:00</time>
      </trkpt>
      <trkpt lat="49.93749" lon="6.20058">
        <ele>375</ele>
        <time>2026-08-26T14:54:49+00:00</time>
      </trkpt>
      <trkpt lat="49.93742" lon="6.20062">
        <ele>373</ele>
        <time>2026-08-26T14:54:52+00:00</time>
      </trkpt>
      <trkpt lat="49.93733" lon="6.20068">
        <ele>370</ele>
        <time>2026-08-26T14:54:55+00:00</time>
      </trkpt>
      <trkpt lat="49.93733" lon="6.20068">
        <ele>370</ele>
        <time>2026-08-26T14:54:58+00:00</time>
      </trkpt>
      <trkpt lat="49.93723" lon="6.20068">
        <ele>366</ele>
        <time>2026-08-26T14:55:01+00:00</time>
      </trkpt>
      <trkpt lat="49.9372" lon="6.2007">
        <ele>364</ele>
        <time>2026-08-26T14:55:04+00:00</time>
      </trkpt>
      <trkpt lat="49.9372" lon="6.20078">
        <ele>362</ele>
        <time>2026-08-26T14:55:07+00:00</time>
      </trkpt>
      <trkpt lat="49.93723" lon="6.20087">
        <ele>362</ele>
        <time>2026-08-26T14:55:10+00:00</time>
      </trkpt>
      <trkpt lat="49.93724" lon="6.2009">
        <ele>362</ele>
        <time>2026-08-26T14:55:13+00:00</time>
      </trkpt>
      <trkpt lat="49.93721" lon="6.20091">
        <ele>364</ele>
        <time>2026-08-26T14:55:16+00:00</time>
      </trkpt>
      <trkpt lat="49.93719" lon="6.20093">
        <ele>359</ele>
        <time>2026-08-26T14:55:19+00:00</time>
      </trkpt>
      <trkpt lat="49.93714" lon="6.20098">
        <ele>359</ele>
        <time>2026-08-26T14:55:22+00:00</time>
      </trkpt>
      <trkpt lat="49.93714" lon="6.20097">
        <ele>359</ele>
        <time>2026-08-26T14:55:25+00:00</time>
      </trkpt>
      <trkpt lat="49.93708" lon="6.20079">
        <ele>362</ele>
        <time>2026-08-26T14:55:28+00:00</time>
      </trkpt>
      <trkpt lat="49.93705" lon="6.20078">
        <ele>362</ele>
        <time>2026-08-26T14:55:31+00:00</time>
      </trkpt>
      <trkpt lat="49.93704" lon="6.20081">
        <ele>360</ele>
        <time>2026-08-26T14:55:34+00:00</time>
      </trkpt>
      <trkpt lat="49.93703" lon="6.20106">
        <ele>355</ele>
        <time>2026-08-26T14:55:37+00:00</time>
      </trkpt>
      <trkpt lat="49.93688" lon="6.20089">
        <ele>352</ele>
        <time>2026-08-26T14:55:40+00:00</time>
      </trkpt>
      <trkpt lat="49.93683" lon="6.20087">
        <ele>352</ele>
        <time>2026-08-26T14:55:43+00:00</time>
      </trkpt>
      <trkpt lat="49.93684" lon="6.20102">
        <ele>348</ele>
        <time>2026-08-26T14:55:46+00:00</time>
      </trkpt>
      <trkpt lat="49.93687" lon="6.2011">
        <ele>348</ele>
        <time>2026-08-26T14:55:49+00:00</time>
      </trkpt>
      <trkpt lat="49.93685" lon="6.20112">
        <ele>345</ele>
        <time>2026-08-26T14:55:52+00:00</time>
      </trkpt>
      <trkpt lat="49.93679" lon="6.20109">
        <ele>343</ele>
        <time>2026-08-26T14:55:55+00:00</time>
      </trkpt>
      <trkpt lat="49.93665" lon="6.20089">
        <ele>344</ele>
        <time>2026-08-26T14:55:58+00:00</time>
      </trkpt>
      <trkpt lat="49.93665" lon="6.20096">
        <ele>337</ele>
        <time>2026-08-26T14:56:01+00:00</time>
      </trkpt>
      <trkpt lat="49.93671" lon="6.20118">
        <ele>341</ele>
        <time>2026-08-26T14:56:04+00:00</time>
      </trkpt>
      <trkpt lat="49.93671" lon="6.20122">
        <ele>340</ele>
        <time>2026-08-26T14:56:07+00:00</time>
      </trkpt>
      <trkpt lat="49.93649" lon="6.201">
        <ele>335</ele>
        <time>2026-08-26T14:56:10+00:00</time>
      </trkpt>
      <trkpt lat="49.93651" lon="6.20129">
        <ele>330</ele>
        <time>2026-08-26T14:56:13+00:00</time>
      </trkpt>
      <trkpt lat="49.93653" lon="6.20137">
        <ele>328</ele>
        <time>2026-08-26T14:56:16+00:00</time>
      </trkpt>
      <trkpt lat="49.93642" lon="6.20128">
        <ele>323</ele>
        <time>2026-08-26T14:56:19+00:00</time>
      </trkpt>
      <trkpt lat="49.93636" lon="6.20119">
        <ele>316</ele>
        <time>2026-08-26T14:56:22+00:00</time>
      </trkpt>
      <trkpt lat="49.93635" lon="6.20125">
        <ele>314</ele>
        <time>2026-08-26T14:56:25+00:00</time>
      </trkpt>
      <trkpt lat="49.93638" lon="6.20135">
        <ele>318</ele>
        <time>2026-08-26T14:56:28+00:00</time>
      </trkpt>
      <trkpt lat="49.9364" lon="6.20139">
        <ele>310</ele>
        <time>2026-08-26T14:56:31+00:00</time>
      </trkpt>
      <trkpt lat="49.93654" lon="6.20163">
        <ele>317</ele>
        <time>2026-08-26T14:56:34+00:00</time>
      </trkpt>
      <trkpt lat="49.93678" lon="6.2019">
        <ele>316</ele>
        <time>2026-08-26T14:56:37+00:00</time>
      </trkpt>
      <trkpt lat="49.93686" lon="6.20197">
        <ele>314</ele>
        <time>2026-08-26T14:56:40+00:00</time>
      </trkpt>
      <trkpt lat="49.93687" lon="6.20202">
        <ele>308</ele>
        <time>2026-08-26T14:56:43+00:00</time>
      </trkpt>
      <trkpt lat="49.93662" lon="6.20193">
        <ele>306</ele>
        <time>2026-08-26T14:56:46+00:00</time>
      </trkpt>
      <trkpt lat="49.93664" lon="6.20198">
        <ele>306</ele>
        <time>2026-08-26T14:56:49+00:00</time>
      </trkpt>
      <trkpt lat="49.93688" lon="6.20219">
        <ele>303</ele>
        <time>2026-08-26T14:56:52+00:00</time>
      </trkpt>
      <trkpt lat="49.93688" lon="6.20223">
        <ele>299</ele>
        <time>2026-08-26T14:56:55+00:00</time>
      </trkpt>
      <trkpt lat="49.93652" lon="6.20207">
        <ele>298</ele>
        <time>2026-08-26T14:56:58+00:00</time>
      </trkpt>
      <trkpt lat="49.93629" lon="6.20194">
        <ele>285</ele>
        <time>2026-08-26T14:57:01+00:00</time>
      </trkpt>
      <trkpt lat="49.93605" lon="6.20177">
        <ele>281</ele>
        <time>2026-08-26T14:57:04+00:00</time>
      </trkpt>
      <trkpt lat="49.93578" lon="6.20166">
        <ele>275</ele>
        <time>2026-08-26T14:57:07+00:00</time>
      </trkpt>
      <trkpt lat="49.93574" lon="6.20157">
        <ele>274</ele>
        <time>2026-08-26T14:57:10+00:00</time>
      </trkpt>
      <trkpt lat="49.93573" lon="6.20159">
        <ele>274</ele>
        <time>2026-08-26T14:57:13+00:00</time>
      </trkpt>
      <trkpt lat="49.93567" lon="6.20171">
        <ele>275</ele>
        <time>2026-08-26T14:57:16+00:00</time>
      </trkpt>
      <trkpt lat="49.93559" lon="6.2018">
        <ele>273</ele>
        <time>2026-08-26T14:57:19+00:00</time>
      </trkpt>
      <trkpt lat="49.93558" lon="6.20181">
        <ele>274</ele>
        <time>2026-08-26T14:57:22+00:00</time>
      </trkpt>
      <trkpt lat="49.93567" lon="6.2022">
        <ele>278</ele>
        <time>2026-08-26T14:57:25+00:00</time>
      </trkpt>
      <trkpt lat="49.93572" lon="6.2024">
        <ele>279</ele>
        <time>2026-08-26T14:57:28+00:00</time>
      </trkpt>
      <trkpt lat="49.93571" lon="6.20249">
        <ele>279</ele>
        <time>2026-08-26T14:57:31+00:00</time>
      </trkpt>
      <trkpt lat="49.93568" lon="6.20268">
        <ele>282</ele>
        <time>2026-08-26T14:57:34+00:00</time>
      </trkpt>
      <trkpt lat="49.93555" lon="6.20298">
        <ele>283</ele>
        <time>2026-08-26T14:57:37+00:00</time>
      </trkpt>
      <trkpt lat="49.9355" lon="6.20304">
        <ele>286</ele>
        <time>2026-08-26T14:57:40+00:00</time>
      </trkpt>
      <trkpt lat="49.93538" lon="6.20313">
        <ele>283</ele>
        <time>2026-08-26T14:57:43+00:00</time>
      </trkpt>
      <trkpt lat="49.93514" lon="6.2035">
        <ele>284</ele>
        <time>2026-08-26T14:57:46+00:00</time>
      </trkpt>
      <trkpt lat="49.93508" lon="6.20355">
        <ele>284</ele>
        <time>2026-08-26T14:57:49+00:00</time>
      </trkpt>
      <trkpt lat="49.93493" lon="6.20368">
        <ele>285</ele>
        <time>2026-08-26T14:57:52+00:00</time>
      </trkpt>
      <trkpt lat="49.93485" lon="6.2038">
        <ele>287</ele>
        <time>2026-08-26T14:57:55+00:00</time>
      </trkpt>
      <trkpt lat="49.93479" lon="6.20394">
        <ele>285</ele>
        <time>2026-08-26T14:57:58+00:00</time>
      </trkpt>
      <trkpt lat="49.93451" lon="6.20435">
        <ele>262</ele>
        <time>2026-08-26T14:58:01+00:00</time>
      </trkpt>
      <trkpt lat="49.93441" lon="6.20455">
        <ele>253</ele>
        <time>2026-08-26T14:58:04+00:00</time>
      </trkpt>
      <trkpt lat="49.93426" lon="6.20472">
        <ele>245</ele>
        <time>2026-08-26T14:58:07+00:00</time>
      </trkpt>
      <trkpt lat="49.93406" lon="6.20496">
        <ele>239</ele>
        <time>2026-08-26T14:58:10+00:00</time>
      </trkpt>
      <trkpt lat="49.93389" lon="6.20522">
        <ele>239</ele>
        <time>2026-08-26T14:58:13+00:00</time>
      </trkpt>
      <trkpt lat="49.93388" lon="6.20522">
        <ele>232</ele>
        <time>2026-08-26T14:58:16+00:00</time>
      </trkpt>
      <trkpt lat="49.93389" lon="6.20522">
        <ele>232</ele>
        <time>2026-08-26T14:58:19+00:00</time>
      </trkpt>
      <trkpt lat="49.93389" lon="6.20483">
        <ele>239</ele>
        <time>2026-08-26T14:58:22+00:00</time>
      </trkpt>
      <trkpt lat="49.93388" lon="6.20428">
        <ele>252</ele>
        <time>2026-08-26T14:58:25+00:00</time>
      </trkpt>
      <trkpt lat="49.93386" lon="6.2041">
        <ele>257</ele>
        <time>2026-08-26T14:58:28+00:00</time>
      </trkpt>
      <trkpt lat="49.93381" lon="6.20384">
        <ele>255</ele>
        <time>2026-08-26T14:58:31+00:00</time>
      </trkpt>
      <trkpt lat="49.93376" lon="6.20355">
        <ele>258</ele>
        <time>2026-08-26T14:58:34+00:00</time>
      </trkpt>
      <trkpt lat="49.93381" lon="6.20351">
        <ele>263</ele>
        <time>2026-08-26T14:58:37+00:00</time>
      </trkpt>
      <trkpt lat="49.93384" lon="6.20342">
        <ele>262</ele>
        <time>2026-08-26T14:58:40+00:00</time>
      </trkpt>
      <trkpt lat="49.93387" lon="6.2034">
        <ele>260</ele>
        <time>2026-08-26T14:58:43+00:00</time>
      </trkpt>
      <trkpt lat="49.93391" lon="6.2035">
        <ele>267</ele>
        <time>2026-08-26T14:58:46+00:00</time>
      </trkpt>
      <trkpt lat="49.93397" lon="6.20349">
        <ele>267</ele>
        <time>2026-08-26T14:58:49+00:00</time>
      </trkpt>
      <trkpt lat="49.93402" lon="6.20351">
        <ele>269</ele>
        <time>2026-08-26T14:58:52+00:00</time>
      </trkpt>
      <trkpt lat="49.93406" lon="6.20352">
        <ele>269</ele>
        <time>2026-08-26T14:58:55+00:00</time>
      </trkpt>
      <trkpt lat="49.9341" lon="6.20354">
        <ele>271</ele>
        <time>2026-08-26T14:58:58+00:00</time>
      </trkpt>
      <trkpt lat="49.93418" lon="6.20339">
        <ele>274</ele>
        <time>2026-08-26T14:59:01+00:00</time>
      </trkpt>
      <trkpt lat="49.93426" lon="6.20314">
        <ele>273</ele>
        <time>2026-08-26T14:59:04+00:00</time>
      </trkpt>
      <trkpt lat="49.93436" lon="6.20283">
        <ele>274</ele>
        <time>2026-08-26T14:59:07+00:00</time>
      </trkpt>
      <trkpt lat="49.93432" lon="6.20308">
        <ele>278</ele>
        <time>2026-08-26T14:59:10+00:00</time>
      </trkpt>
      <trkpt lat="49.93443" lon="6.2029">
        <ele>273</ele>
        <time>2026-08-26T14:59:13+00:00</time>
      </trkpt>
      <trkpt lat="49.93463" lon="6.20259">
        <ele>272</ele>
        <time>2026-08-26T14:59:16+00:00</time>
      </trkpt>
      <trkpt lat="49.93489" lon="6.20232">
        <ele>271</ele>
        <time>2026-08-26T14:59:19+00:00</time>
      </trkpt>
      <trkpt lat="49.93526" lon="6.202">
        <ele>272</ele>
        <time>2026-08-26T14:59:22+00:00</time>
      </trkpt>
      <trkpt lat="49.93529" lon="6.20197">
        <ele>270</ele>
        <time>2026-08-26T14:59:25+00:00</time>
      </trkpt>
      <trkpt lat="49.93558" lon="6.20181">
        <ele>274</ele>
        <time>2026-08-26T14:59:28+00:00</time>
      </trkpt>
      <trkpt lat="49.93567" lon="6.20171">
        <ele>275</ele>
        <time>2026-08-26T14:59:31+00:00</time>
      </trkpt>
      <trkpt lat="49.93573" lon="6.20159">
        <ele>274</ele>
        <time>2026-08-26T14:59:34+00:00</time>
      </trkpt>
      <trkpt lat="49.93574" lon="6.20157">
        <ele>274</ele>
        <time>2026-08-26T14:59:37+00:00</time>
      </trkpt>
      <trkpt lat="49.93573" lon="6.2015">
        <ele>272</ele>
        <time>2026-08-26T14:59:40+00:00</time>
      </trkpt>
      <trkpt lat="49.93572" lon="6.20147">
        <ele>272</ele>
        <time>2026-08-26T14:59:43+00:00</time>
      </trkpt>
      <trkpt lat="49.93572" lon="6.20114">
        <ele>269</ele>
        <time>2026-08-26T14:59:46+00:00</time>
      </trkpt>
      <trkpt lat="49.93573" lon="6.20071">
        <ele>269</ele>
        <time>2026-08-26T14:59:49+00:00</time>
      </trkpt>
      <trkpt lat="49.93569" lon="6.20049">
        <ele>268</ele>
        <time>2026-08-26T14:59:52+00:00</time>
      </trkpt>
      <trkpt lat="49.93562" lon="6.20032">
        <ele>269</ele>
        <time>2026-08-26T14:59:55+00:00</time>
      </trkpt>
      <trkpt lat="49.93554" lon="6.2004">
        <ele>273</ele>
        <time>2026-08-26T14:59:58+00:00</time>
      </trkpt>
      <trkpt lat="49.93543" lon="6.2005">
        <ele>268</ele>
        <time>2026-08-26T15:00:01+00:00</time>
      </trkpt>
      <trkpt lat="49.93538" lon="6.20061">
        <ele>267</ele>
        <time>2026-08-26T15:00:04+00:00</time>
      </trkpt>
      <trkpt lat="49.93535" lon="6.2006">
        <ele>273</ele>
        <time>2026-08-26T15:00:07+00:00</time>
      </trkpt>
      <trkpt lat="49.9351" lon="6.2008">
        <ele>267</ele>
        <time>2026-08-26T15:00:10+00:00</time>
      </trkpt>
      <trkpt lat="49.93487" lon="6.2009">
        <ele>263</ele>
        <time>2026-08-26T15:00:13+00:00</time>
      </trkpt>
      <trkpt lat="49.93486" lon="6.20093">
        <ele>260</ele>
        <time>2026-08-26T15:00:16+00:00</time>
      </trkpt>
      <trkpt lat="49.93485" lon="6.20096">
        <ele>260</ele>
        <time>2026-08-26T15:00:19+00:00</time>
      </trkpt>
      <trkpt lat="49.93484" lon="6.20099">
        <ele>260</ele>
        <time>2026-08-26T15:00:22+00:00</time>
      </trkpt>
      <trkpt lat="49.93482" lon="6.20104">
        <ele>257</ele>
        <time>2026-08-26T15:00:25+00:00</time>
      </trkpt>
      <trkpt lat="49.93482" lon="6.20104">
        <ele>257</ele>
        <time>2026-08-26T15:00:28+00:00</time>
      </trkpt>
      <trkpt lat="49.93479" lon="6.20102">
        <ele>258</ele>
        <time>2026-08-26T15:00:31+00:00</time>
      </trkpt>
      <trkpt lat="49.93476" lon="6.201">
        <ele>260</ele>
        <time>2026-08-26T15:00:34+00:00</time>
      </trkpt>
      <trkpt lat="49.93471" lon="6.20097">
        <ele>265</ele>
        <time>2026-08-26T15:00:37+00:00</time>
      </trkpt>
      <trkpt lat="49.93469" lon="6.20097">
        <ele>262</ele>
        <time>2026-08-26T15:00:40+00:00</time>
      </trkpt>
      <trkpt lat="49.93458" lon="6.20095">
        <ele>264</ele>
        <time>2026-08-26T15:00:43+00:00</time>
      </trkpt>
      <trkpt lat="49.93448" lon="6.20097">
        <ele>268</ele>
        <time>2026-08-26T15:00:46+00:00</time>
      </trkpt>
      <trkpt lat="49.93406" lon="6.20111">
        <ele>269</ele>
        <time>2026-08-26T15:00:49+00:00</time>
      </trkpt>
      <trkpt lat="49.93406" lon="6.20113">
        <ele>269</ele>
        <time>2026-08-26T15:00:52+00:00</time>
      </trkpt>
      <trkpt lat="49.93397" lon="6.20121">
        <ele>265</ele>
        <time>2026-08-26T15:00:55+00:00</time>
      </trkpt>
      <trkpt lat="49.93396" lon="6.20118">
        <ele>275</ele>
        <time>2026-08-26T15:00:58+00:00</time>
      </trkpt>
      <trkpt lat="49.93393" lon="6.20117">
        <ele>275</ele>
        <time>2026-08-26T15:01:01+00:00</time>
      </trkpt>
      <trkpt lat="49.93392" lon="6.2012">
        <ele>271</ele>
        <time>2026-08-26T15:01:04+00:00</time>
      </trkpt>
      <trkpt lat="49.93384" lon="6.20129">
        <ele>272</ele>
        <time>2026-08-26T15:01:07+00:00</time>
      </trkpt>
      <trkpt lat="49.93375" lon="6.20136">
        <ele>268</ele>
        <time>2026-08-26T15:01:10+00:00</time>
      </trkpt>
      <trkpt lat="49.93371" lon="6.20143">
        <ele>269</ele>
        <time>2026-08-26T15:01:13+00:00</time>
      </trkpt>
      <trkpt lat="49.93369" lon="6.20144">
        <ele>274</ele>
        <time>2026-08-26T15:01:16+00:00</time>
      </trkpt>
      <trkpt lat="49.93366" lon="6.20152">
        <ele>270</ele>
        <time>2026-08-26T15:01:19+00:00</time>
      </trkpt>
      <trkpt lat="49.93351" lon="6.20175">
        <ele>266</ele>
        <time>2026-08-26T15:01:22+00:00</time>
      </trkpt>
      <trkpt lat="49.93332" lon="6.20211">
        <ele>257</ele>
        <time>2026-08-26T15:01:25+00:00</time>
      </trkpt>
      <trkpt lat="49.93328" lon="6.20214">
        <ele>261</ele>
        <time>2026-08-26T15:01:28+00:00</time>
      </trkpt>
      <trkpt lat="49.93327" lon="6.20221">
        <ele>256</ele>
        <time>2026-08-26T15:01:31+00:00</time>
      </trkpt>
      <trkpt lat="49.93324" lon="6.20227">
        <ele>256</ele>
        <time>2026-08-26T15:01:34+00:00</time>
      </trkpt>
      <trkpt lat="49.9332" lon="6.20235">
        <ele>252</ele>
        <time>2026-08-26T15:01:37+00:00</time>
      </trkpt>
      <trkpt lat="49.93319" lon="6.20243">
        <ele>251</ele>
        <time>2026-08-26T15:01:40+00:00</time>
      </trkpt>
      <trkpt lat="49.93316" lon="6.2025">
        <ele>251</ele>
        <time>2026-08-26T15:01:43+00:00</time>
      </trkpt>
      <trkpt lat="49.93313" lon="6.20253">
        <ele>250</ele>
        <time>2026-08-26T15:01:46+00:00</time>
      </trkpt>
      <trkpt lat="49.93312" lon="6.2026">
        <ele>250</ele>
        <time>2026-08-26T15:01:49+00:00</time>
      </trkpt>
      <trkpt lat="49.93302" lon="6.20287">
        <ele>250</ele>
        <time>2026-08-26T15:01:52+00:00</time>
      </trkpt>
      <trkpt lat="49.93298" lon="6.20291">
        <ele>255</ele>
        <time>2026-08-26T15:01:55+00:00</time>
      </trkpt>
      <trkpt lat="49.93298" lon="6.20299">
        <ele>255</ele>
        <time>2026-08-26T15:01:58+00:00</time>
      </trkpt>
      <trkpt lat="49.93293" lon="6.20313">
        <ele>250</ele>
        <time>2026-08-26T15:02:01+00:00</time>
      </trkpt>
      <trkpt lat="49.9328" lon="6.20304">
        <ele>261</ele>
        <time>2026-08-26T15:02:04+00:00</time>
      </trkpt>
      <trkpt lat="49.93283" lon="6.20308">
        <ele>243</ele>
        <time>2026-08-26T15:02:07+00:00</time>
      </trkpt>
      <trkpt lat="49.93287" lon="6.20318">
        <ele>255</ele>
        <time>2026-08-26T15:02:10+00:00</time>
      </trkpt>
      <trkpt lat="49.93301" lon="6.20332">
        <ele>236</ele>
        <time>2026-08-26T15:02:13+00:00</time>
      </trkpt>
      <trkpt lat="49.93311" lon="6.20338">
        <ele>235</ele>
        <time>2026-08-26T15:02:16+00:00</time>
      </trkpt>
      <trkpt lat="49.93317" lon="6.20342">
        <ele>232</ele>
        <time>2026-08-26T15:02:19+00:00</time>
      </trkpt>
      <trkpt lat="49.9332" lon="6.20339">
        <ele>235</ele>
        <time>2026-08-26T15:02:22+00:00</time>
      </trkpt>
      <trkpt lat="49.93327" lon="6.2034">
        <ele>234</ele>
        <time>2026-08-26T15:02:25+00:00</time>
      </trkpt>
      <trkpt lat="49.93326" lon="6.20371">
        <ele>231</ele>
        <time>2026-08-26T15:02:28+00:00</time>
      </trkpt>
      <trkpt lat="49.93327" lon="6.20379">
        <ele>231</ele>
        <time>2026-08-26T15:02:31+00:00</time>
      </trkpt>
      <trkpt lat="49.93329" lon="6.20392">
        <ele>230</ele>
        <time>2026-08-26T15:02:34+00:00</time>
      </trkpt>
      <trkpt lat="49.93337" lon="6.20434">
        <ele>230</ele>
        <time>2026-08-26T15:02:37+00:00</time>
      </trkpt>
      <trkpt lat="49.9334" lon="6.20435">
        <ele>230</ele>
        <time>2026-08-26T15:02:40+00:00</time>
      </trkpt>
      <trkpt lat="49.9334" lon="6.20446">
        <ele>231</ele>
        <time>2026-08-26T15:02:43+00:00</time>
      </trkpt>
      <trkpt lat="49.93339" lon="6.20475">
        <ele>230</ele>
        <time>2026-08-26T15:02:46+00:00</time>
      </trkpt>
      <trkpt lat="49.93337" lon="6.2051">
        <ele>224</ele>
        <time>2026-08-26T15:02:49+00:00</time>
      </trkpt>
      <trkpt lat="49.93336" lon="6.20549">
        <ele>223</ele>
        <time>2026-08-26T15:02:52+00:00</time>
      </trkpt>
      <trkpt lat="49.93336" lon="6.20563">
        <ele>223</ele>
        <time>2026-08-26T15:02:55+00:00</time>
      </trkpt>
      <trkpt lat="49.93335" lon="6.20582">
        <ele>221</ele>
        <time>2026-08-26T15:02:58+00:00</time>
      </trkpt>
      <trkpt lat="49.93317" lon="6.2058">
        <ele>221</ele>
        <time>2026-08-26T15:03:01+00:00</time>
      </trkpt>
      <trkpt lat="49.93307" lon="6.2059">
        <ele>221</ele>
        <time>2026-08-26T15:03:04+00:00</time>
      </trkpt>
      <trkpt lat="49.93308" lon="6.2061">
        <ele>219</ele>
        <time>2026-08-26T15:03:07+00:00</time>
      </trkpt>
      <trkpt lat="49.93318" lon="6.20612">
        <ele>216</ele>
        <time>2026-08-26T15:03:10+00:00</time>
      </trkpt>
    </trkseg>
  </trk>
</gpx>
